GFSGL_sfc_wetblb_000.txt.gz
Wetbulb
49.25 47.92 47.94 47.49 47.11 46.82 46.04 44.75 44.23 43.70 43.28 42.40 42.35 41.96 41.34 40.92 40.48 40.45 39.11 38.96 38.10 36.95 37.89 38.62 38.42 38.62 38.11 38.08 38.05 37.12 35.65 35.04 32.55 34.69 37.57 38.80 39.11 40.51 41.45 41.94 43.71 42.62 42.15
48.09 47.94 46.62 46.75 46.06 44.92 44.55 43.24 42.75 41.91 42.30 41.42 40.97 40.23 40.04 39.62 39.53 38.85 38.20 38.45 37.44 36.69 36.97 36.82 36.74 38.31 36.50 36.19 36.29 35.63 35.05 35.18 32.92 30.99 33.07 34.77 34.57 36.85 38.31 39.55 42.13 42.90 41.73
48.61 47.02 46.21 45.15 43.74 43.06 42.37 42.20 41.82 41.09 40.77 39.69 38.56 37.27 36.69 36.46 36.16 35.68 35.34 35.51 34.59 33.47 33.60 33.56 34.40 34.40 32.91 33.12 33.67 33.19 34.15 35.37 33.75 32.21 30.66 32.93 33.56 34.76 35.47 37.21 38.18 38.28 41.60
47.75 46.27 44.88 44.01 42.26 41.21 41.36 40.58 39.99 39.94 38.34 37.47 37.13 37.11 36.85 36.30 36.13 34.93 34.48 32.91 32.09 32.17 32.15 31.82 32.46 33.18 33.06 32.62 32.50 31.24 32.13 29.74 29.77 29.62 29.60 30.28 31.12 33.16 34.04 32.46 32.10 34.86 35.26
46.39 45.30 44.66 43.78 42.39 41.92 40.71 39.78 39.41 38.54 37.53 37.13 36.32 36.11 35.78 35.44 32.91 31.09 30.91 30.15 29.40 29.39 29.79 30.84 31.82 33.68 36.09 33.53 32.77 29.80 28.60 27.19 26.85 27.27 27.28 28.43 29.45 29.71 30.22 33.32 32.43 32.94 34.22
45.43 44.56 45.15 44.18 42.40 40.94 40.15 39.42 38.17 37.19 36.39 35.95 35.26 35.09 34.00 35.14 30.45 29.96 28.86 26.95 28.43 27.69 26.87 28.19 29.93 32.73 33.04 34.41 34.54 33.63 30.88 26.34 25.77 25.40 25.18 24.93 26.37 28.36 29.87 29.24 28.17 27.19 25.81
44.27 44.40 44.07 41.44 40.41 40.37 39.89 38.89 36.88 35.23 35.05 34.59 34.42 34.22 33.22 32.08 30.34 29.91 28.61 26.95 26.21 25.99 26.24 27.11 28.56 31.43 31.56 31.39 31.40 31.37 31.10 32.29 31.61 27.59 25.45 25.60 25.36 26.85 27.64 26.58 25.91 26.00 25.92
42.40 43.27 42.61 41.69 40.29 40.29 39.03 37.98 36.51 34.87 34.06 33.45 33.62 33.47 31.99 32.39 32.73 31.68 28.66 25.74 25.50 25.50 26.07 26.04 26.52 27.09 28.70 29.34 27.84 26.55 27.05 27.81 28.85 29.25 28.14 28.05 28.72 29.10 29.06 29.39 28.77 29.34 28.09
40.73 41.34 41.02 40.70 39.59 38.73 37.43 36.74 35.21 34.00 33.43 33.46 33.59 32.08 30.49 30.24 32.63 31.40 28.91 25.20 25.43 24.70 26.11 26.57 27.47 26.74 28.79 30.21 27.24 26.02 25.89 26.90 30.87 32.18 32.50 32.42 32.39 32.63 32.29 29.35 26.57 26.30 24.95
39.80 40.17 39.48 39.48 38.99 37.76 37.27 35.87 34.57 34.09 33.71 33.11 31.33 31.09 31.88 29.16 31.96 30.80 28.52 24.54 23.03 24.14 25.74 26.58 27.86 28.02 27.99 28.25 27.19 26.95 25.16 26.82 27.02 27.58 26.87 27.61 29.48 30.73 32.96 31.79 28.92 24.61 23.77
40.38 39.75 39.23 38.84 37.95 37.87 36.67 34.92 33.53 32.76 31.17 30.71 30.02 29.88 29.99 29.90 28.84 29.80 28.53 25.28 24.01 23.98 23.41 23.77 25.92 28.98 27.68 26.97 26.62 24.94 24.49 25.95 25.23 24.74 24.80 25.04 26.33 27.38 28.36 29.78 31.18 29.65 25.37
39.83 38.78 38.47 38.21 37.92 37.21 34.68 33.20 32.86 31.50 30.41 28.32 26.17 27.40 28.04 27.80 29.77 28.60 27.11 26.13 25.55 23.66 23.03 25.44 25.42 27.32 26.75 26.44 25.97 26.40 26.55 25.32 23.17 22.94 24.05 24.67 25.91 26.72 29.09 29.60 30.29 31.75 32.55
37.99 37.19 37.08 37.06 36.86 35.79 32.67 31.32 30.70 30.27 27.87 26.75 26.02 24.47 24.72 25.94 25.42 26.51 25.07 24.82 24.58 23.47 24.27 24.95 26.17 26.28 25.90 25.90 27.11 26.54 25.34 24.44 24.92 23.99 23.67 25.18 26.89 28.09 29.15 28.69 30.53 31.40 31.66
35.51 35.36 35.44 34.71 33.82 34.18 34.04 32.35 30.11 28.42 26.68 26.39 24.40 22.41 22.37 22.72 22.14 22.05 22.55 22.70 23.32 23.24 22.75 23.09 25.03 24.30 24.05 24.87 25.63 25.63 25.90 26.26 24.09 24.43 24.54 26.07 27.97 27.59 28.21 29.48 30.11 29.18 28.57
34.62 34.42 32.87 32.43 32.90 32.58 32.98 29.75 29.25 27.87 26.46 24.20 23.07 22.16 17.95 17.21 20.17 23.02 22.62 22.08 22.14 22.52 21.86 22.79 21.51 20.42 20.77 22.81 22.56 23.38 24.34 23.95 23.56 23.52 24.62 25.49 26.40 27.13 27.12 27.03 29.44 26.58 26.56
31.72 31.87 32.10 31.68 31.67 31.38 30.81 29.81 29.30 27.91 27.05 25.96 24.21 21.31 19.78 23.00 23.67 23.67 23.60 23.82 23.91 23.36 21.75 19.63 18.40 18.97 19.26 20.70 20.76 20.82 21.60 22.56 22.48 23.38 23.43 24.55 24.70 25.03 25.92 27.12 30.60 26.42 23.21
31.30 31.25 31.36 30.39 31.35 30.01 29.29 28.66 26.96 29.05 28.14 27.60 25.58 25.02 24.76 23.13 24.11 23.75 23.43 23.43 23.95 22.82 19.14 18.94 18.63 17.84 18.24 19.00 19.29 19.58 19.94 22.02 22.82 22.94 23.54 23.48 23.82 24.46 25.74 25.78 26.68 26.09 25.91
31.27 29.13 30.86 32.25 31.30 30.09 28.61 28.87 28.90 27.85 25.48 26.14 27.46 25.95 24.34 24.91 25.11 24.08 23.23 22.21 19.03 19.66 18.45 17.67 17.40 17.87 17.91 18.08 18.56 19.15 20.16 20.64 20.65 21.01 22.62 23.49 22.05 24.07 25.06 23.12 24.40 25.84 26.22
31.56 30.08 29.71 30.76 30.89 30.01 29.72 29.68 29.35 28.46 27.57 27.02 25.43 25.41 22.97 24.64 25.39 24.66 23.86 15.29 15.19 16.63 17.15 17.22 17.49 17.89 17.91 18.16 18.17 18.68 19.45 20.61 19.49 19.61 20.26 22.46 23.62 24.17 23.17 24.00 24.12 21.43 22.71
32.15 28.64 26.99 29.62 30.28 30.10 30.02 28.67 27.83 27.94 27.15 26.72 25.26 22.83 20.64 18.38 17.04 19.15 18.94 13.60 12.51 15.62 16.56 17.14 17.83 17.93 17.56 17.52 17.21 17.47 18.10 18.08 18.43 18.46 18.38 20.15 22.16 23.90 23.59 23.30 23.67 23.14 23.92
31.41 30.71 30.23 30.17 29.60 29.90 28.90 28.53 28.49 27.60 26.80 26.54 25.39 20.39 15.30 16.04 17.71 17.80 16.65 14.08 12.20 13.41 14.33 16.57 17.18 16.66 16.73 16.49 16.69 15.80 16.07 16.04 16.14 16.64 16.84 18.05 20.63 21.38 22.57 23.85 22.19 23.40 22.59
29.04 29.56 30.47 30.26 30.27 29.64 29.42 28.14 27.84 27.84 27.22 26.44 25.73 24.83 17.46 17.29 19.39 17.86 19.11 15.71 14.21 13.31 14.55 14.81 16.20 15.62 15.88 15.27 15.91 14.60 13.93 12.45 12.77 14.08 14.55 16.05 18.82 19.01 20.81 22.08 19.64 17.29 21.08
30.59 30.77 30.01 29.39 30.06 29.71 28.89 28.65 28.69 28.60 28.22 26.66 26.13 25.47 25.06 23.85 20.17 17.38 16.80 17.36 18.88 15.93 13.59 13.72 13.99 15.06 14.63 14.09 15.31 15.00 13.86 12.47 12.95 13.87 13.01 14.04 17.59 16.97 18.21 18.09 19.23 15.41 13.54
31.39 31.22 29.78 29.23 30.13 29.66 27.63 28.79 29.04 27.97 27.80 27.83 27.51 27.21 25.51 25.09 19.11 18.21 17.39 20.38 15.26 15.45 13.71 11.73 13.56 14.97 14.18 13.12 13.25 13.27 14.00 12.80 13.48 13.79 13.18 15.18 15.76 16.00 16.46 15.99 13.60 16.60 10.49
30.06 30.99 29.78 29.55 29.72 29.71 29.27 28.85 28.79 28.63 28.61 28.90 28.17 27.61 26.32 25.54 23.61 23.73 21.34 19.82 15.36 13.70 13.15 10.78 12.27 14.51 13.72 13.32 13.39 12.71 11.61 12.86 11.61 12.03 13.65 15.15 13.46 12.96 13.19 15.49 13.02 15.90 10.53
30.23 30.44 28.37 30.02 29.78 29.92 29.56 29.25 28.43 27.97 27.91 28.17 28.17 27.57 27.04 25.15 22.06 23.75 18.28 16.48 14.74 13.52 12.14 12.16 11.28 12.61 14.04 14.53 13.36 14.05 12.21 12.28 11.19 11.73 12.47 13.89 12.34 12.02 11.28 12.18 11.79 13.17 11.72

GFSGL_sfc_wetblb_003.txt.gz
Wetbulb
45.94 46.74 45.70 45.35 43.44 42.70 41.43 40.14 39.95 39.78 39.48 39.78 39.05 38.34 37.84 37.47 37.37 37.30 36.22 36.34 35.89 35.50 35.89 36.08 35.96 37.13 36.58 37.94 37.83 36.83 35.74 34.79 31.35 33.21 33.77 35.45 35.34 35.63 37.71 40.64 43.56 42.39 44.11
45.10 44.47 43.24 43.10 42.54 40.87 39.90 39.00 38.80 38.62 38.74 38.40 37.46 35.93 35.32 34.76 33.95 34.56 35.21 35.77 34.17 32.58 31.64 31.33 31.47 33.89 32.02 33.95 35.48 35.53 34.56 34.80 33.05 29.29 30.16 31.77 32.60 34.70 36.07 37.60 40.82 41.65 42.57
44.78 43.64 42.60 43.66 40.78 38.58 37.93 37.86 37.60 37.19 36.31 35.56 35.06 34.20 33.99 33.86 32.87 32.29 32.00 31.24 30.51 30.06 29.82 29.29 29.19 29.35 28.72 30.27 31.05 30.45 30.85 32.24 29.28 28.69 26.78 29.66 30.86 32.84 32.95 34.54 37.00 37.99 40.40
44.63 43.70 43.47 43.11 41.83 38.13 38.93 38.11 37.29 36.96 34.87 33.75 33.89 34.07 33.97 33.33 32.36 31.27 30.56 28.52 27.78 28.41 28.86 28.66 28.67 28.48 28.49 29.11 30.63 30.08 30.82 26.60 26.40 25.61 26.45 27.15 28.07 31.02 31.82 30.67 31.49 34.06 34.30
42.41 42.97 42.38 42.14 40.22 39.75 38.64 38.49 38.14 36.63 34.43 33.49 33.25 33.05 32.73 32.12 31.16 27.84 27.67 26.22 25.89 25.88 26.63 27.55 27.96 29.66 32.69 33.12 31.30 29.40 27.11 25.36 25.15 24.92 23.62 24.18 24.31 25.77 26.51 28.48 26.87 28.48 30.47
38.79 39.32 41.70 40.91 40.33 39.97 39.92 38.66 37.35 34.90 32.61 32.04 32.12 32.07 30.81 31.82 29.76 29.49 26.84 24.48 25.48 25.04 23.73 25.02 26.14 29.23 30.03 32.06 31.84 31.44 30.83 26.06 23.69 22.64 22.55 21.63 22.17 23.46 25.47 25.26 25.60 24.78 24.25
38.32 39.50 40.50 40.04 39.46 39.84 40.09 38.40 34.84 33.09 30.90 30.70 30.73 30.93 29.64 26.86 29.72 28.96 29.01 25.35 24.13 23.50 23.16 24.10 25.04 27.61 27.91 28.53 29.55 30.10 29.03 30.01 30.54 26.38 23.85 23.73 23.22 24.63 24.86 23.32 23.22 23.47 23.45
37.01 38.38 39.06 38.51 38.57 39.89 39.82 35.98 33.72 32.32 30.23 29.02 29.00 29.27 28.71 29.77 31.41 31.51 28.36 24.66 24.30 24.94 25.58 25.51 25.23 25.91 27.41 27.37 26.16 25.52 25.77 26.22 26.69 26.94 26.03 26.36 26.61 27.02 27.03 27.24 27.28 27.53 25.97
37.10 36.96 37.00 37.24 37.67 37.02 36.23 34.80 33.80 30.24 28.50 28.96 29.56 28.71 27.73 27.97 32.03 30.84 29.12 24.86 25.49 24.98 26.11 25.98 25.68 25.21 27.33 29.12 26.56 25.63 25.65 26.16 29.26 30.29 30.81 30.97 30.90 32.16 31.73 30.08 25.87 24.11 22.11
37.17 36.86 37.28 36.62 36.79 36.46 36.24 34.10 30.55 29.73 29.67 29.47 28.82 28.41 30.19 27.06 31.14 30.20 28.79 23.22 20.91 23.06 24.15 24.91 26.08 26.20 28.98 28.17 25.29 22.99 21.65 22.44 24.38 24.47 24.57 25.66 27.25 27.72 29.32 29.53 28.33 26.11 24.27
37.55 37.37 37.27 36.90 36.09 35.28 34.70 31.64 29.42 27.89 28.29 26.30 26.79 26.48 27.24 27.48 26.40 28.46 27.25 22.76 22.73 23.10 22.22 22.76 24.68 26.24 27.30 27.39 27.07 24.81 23.26 24.75 24.96 23.27 22.90 22.91 24.40 25.47 26.48 27.65 27.60 27.39 25.90
35.69 35.89 35.22 35.16 35.53 34.94 30.72 29.74 29.02 26.81 26.21 23.84 19.63 19.70 22.38 23.67 27.21 25.73 25.62 24.94 24.46 21.40 21.80 23.08 23.88 27.28 26.01 26.04 25.98 27.36 26.08 25.44 21.13 21.64 21.89 22.36 23.58 24.58 26.90 28.58 29.61 29.64 30.40
33.62 32.85 32.73 33.59 33.57 32.88 30.78 28.13 26.47 25.36 22.41 22.22 22.82 16.33 19.50 22.09 19.73 24.48 24.29 24.64 24.35 22.01 22.85 23.98 25.66 24.72 24.76 24.83 26.04 26.05 24.80 25.22 23.93 22.03 22.26 23.58 25.33 26.52 27.75 27.18 27.98 29.71 30.51
31.69 31.67 31.35 30.26 31.06 31.00 30.17 27.83 25.85 20.93 19.93 23.56 21.14 18.20 16.35 17.94 16.54 18.30 20.13 20.25 23.43 23.12 22.32 22.60 23.25 23.35 22.72 24.04 23.30 23.95 24.18 23.17 22.87 22.22 22.18 23.96 26.20 26.39 26.68 27.82 26.77 27.28 27.77
31.66 31.23 29.47 28.37 28.62 28.84 28.33 26.20 25.72 24.47 23.92 19.98 18.31 18.54 7.75 6.35 15.30 23.72 23.38 21.98 22.20 23.22 21.75 19.57 20.11 19.77 19.58 20.95 21.00 21.44 21.92 22.54 21.23 21.69 22.11 22.96 24.34 25.52 25.73 26.81 27.24 26.72 26.11
29.34 27.83 26.64 26.70 25.66 27.91 27.58 26.08 29.64 28.65 28.17 27.35 25.86 18.54 13.01 21.22 24.36 25.37 24.90 24.69 24.58 23.43 20.04 18.42 17.07 16.84 16.91 18.10 17.77 18.53 19.68 20.80 21.14 21.43 21.74 22.96 22.86 23.46 24.50 25.90 25.56 24.15 23.67
29.20 29.31 26.25 26.62 25.31 24.40 23.16 23.18 19.21 26.01 30.84 29.14 27.30 26.48 25.51 24.12 25.49 25.62 24.77 23.52 22.91 21.84 16.92 16.44 14.37 13.94 15.24 17.18 16.66 17.31 17.28 20.38 20.41 20.08 20.99 21.08 22.08 22.89 23.43 22.61 21.05 20.92 21.18
28.82 26.99 23.97 22.71 22.36 23.39 26.77 28.03 27.50 26.51 23.85 25.92 27.14 27.02 26.71 25.66 26.32 25.62 24.60 20.87 12.88 16.76 16.30 15.62 14.13 13.76 15.02 16.48 16.56 16.67 16.97 18.65 17.80 18.58 19.08 19.51 21.23 21.43 19.42 21.80 20.63 19.64 22.39
28.67 24.65 21.28 19.35 19.37 25.01 27.52 27.35 26.58 26.18 25.75 25.34 22.64 23.67 22.14 25.23 25.97 25.47 23.82 8.99 7.29 9.12 15.02 16.07 15.95 14.33 15.19 15.99 13.87 14.10 13.53 15.41 14.96 15.22 16.32 17.95 18.75 21.47 20.73 17.61 19.35 19.53 17.93
26.59 23.41 22.07 21.10 20.93 26.90 27.16 26.40 26.23 26.23 25.76 24.81 23.13 17.24 18.54 13.51 7.56 6.35 5.09 2.55 2.88 6.80 6.87 14.17 15.77 15.84 13.27 14.32 11.85 10.94 13.49 13.43 13.08 13.48 13.76 15.19 16.97 20.21 19.77 19.53 18.76 19.52 16.89
23.66 22.21 21.69 20.75 23.49 27.49 26.88 26.17 26.22 25.86 25.87 25.12 22.40 14.57 13.23 11.42 7.78 8.23 8.10 4.20 4.16 5.75 3.98 7.75 10.99 11.00 11.00 10.96 14.67 12.46 11.37 9.43 10.82 11.27 11.85 13.04 14.15 15.90 18.49 20.69 16.28 16.71 20.56
26.39 24.06 23.67 23.16 26.87 26.35 27.09 26.06 25.28 25.33 25.61 25.24 24.67 16.70 13.26 7.35 10.47 14.14 9.91 7.24 5.77 6.77 6.64 5.89 7.03 10.98 12.05 12.26 12.55 9.07 10.45 6.73 7.75 10.49 11.15 11.58 12.90 15.10 15.45 16.10 17.75 10.71 12.56
19.05 17.98 23.10 26.95 24.40 19.61 23.48 25.97 26.32 26.35 26.09 26.21 25.80 22.51 19.11 17.22 15.66 14.44 11.81 8.11 7.25 6.70 5.26 5.56 3.25 6.08 9.82 10.25 10.40 10.77 9.62 9.50 10.20 10.61 10.09 10.87 13.17 14.00 11.61 9.96 10.43 11.49 7.77
16.37 16.17 20.89 26.11 17.15 17.05 19.10 25.86 26.54 25.97 25.63 24.99 25.58 25.76 19.70 18.90 15.02 12.60 12.46 10.05 7.07 5.58 3.19 4.15 5.71 6.98 7.82 9.61 9.30 10.85 12.35 9.48 9.85 10.67 9.39 11.21 13.04 12.58 10.44 11.95 11.25 10.10 7.86
18.95 17.09 21.77 26.51 17.02 19.62 17.48 21.61 26.75 26.74 25.90 22.85 22.27 22.35 23.73 21.15 17.04 14.99 11.79 12.64 10.39 5.95 5.63 3.21 3.95 5.96 6.37 7.77 10.68 10.92 10.38 12.34 10.82 11.18 10.62 10.57 8.57 9.32 9.37 10.23 7.49 10.47 6.63
21.80 22.14 25.03 26.83 15.78 17.75 21.40 17.66 21.97 25.76 25.22 25.44 25.48 22.99 24.32 19.95 17.44 15.55 13.35 9.45 9.10 6.26 5.23 3.43 4.11 5.24 6.11 6.86 10.29 12.27 10.45 10.70 10.29 10.98 11.25 12.48 9.97 9.01 8.26 7.25 7.93 7.56 8.15

GFSGL_sfc_wetblb_006.txt.gz
Wetbulb
43.49 43.66 42.80 42.40 42.00 41.29 39.69 40.19 39.04 39.01 39.91 39.61 37.87 36.63 35.53 34.51 34.33 33.37 33.77 34.41 34.22 32.91 31.86 30.67 30.36 30.65 30.12 30.55 31.67 33.12 34.25 34.78 31.57 31.63 33.08 32.68 31.73 32.52 34.35 35.82 39.62 40.97 42.60
42.90 43.03 42.58 42.19 41.39 40.03 38.91 38.15 38.53 38.47 38.10 37.54 37.78 35.67 33.70 33.04 32.09 31.41 31.90 31.79 29.91 28.99 28.59 28.14 28.04 30.01 27.47 27.91 28.24 28.48 29.82 31.10 31.76 29.41 29.12 29.96 30.15 31.84 32.28 33.01 36.10 38.98 41.75
39.94 41.08 41.75 42.08 41.35 38.53 38.00 37.58 36.95 36.14 37.12 36.85 35.53 33.85 32.61 32.54 31.94 31.01 30.18 29.37 27.80 27.39 27.19 26.85 26.73 26.80 25.53 26.23 26.87 27.78 28.70 30.89 30.15 28.25 27.90 29.00 29.12 30.48 30.92 32.74 32.52 32.81 36.46
37.29 37.51 37.31 38.36 40.55 37.28 36.28 36.80 39.00 39.25 39.32 35.78 33.63 33.61 33.47 32.48 31.67 30.08 28.82 26.72 26.44 26.78 27.48 26.83 26.00 25.30 24.84 25.48 27.02 27.38 28.37 26.80 26.36 25.75 25.38 25.53 25.74 28.17 29.62 28.72 27.06 28.80 30.13
36.41 35.86 37.28 39.29 38.24 38.00 38.91 38.90 39.24 39.21 39.09 34.95 33.13 32.69 31.42 31.48 30.12 27.33 27.21 26.42 25.67 25.98 26.24 25.84 25.76 26.99 29.28 29.30 28.67 29.55 27.64 25.53 24.26 23.68 23.00 23.13 23.11 23.06 23.83 26.06 25.42 26.25 27.18
35.52 36.83 39.25 39.48 39.28 38.32 37.97 37.95 37.62 37.69 33.72 33.05 31.96 31.02 29.73 31.12 30.78 30.39 28.16 25.13 25.53 24.73 23.21 24.19 24.69 26.65 26.90 28.61 29.28 29.93 29.32 26.74 26.23 25.02 22.44 21.38 21.46 22.19 23.60 23.45 22.64 22.58 22.55
35.29 37.31 37.57 38.79 37.94 37.85 38.24 37.96 37.21 33.55 34.49 30.87 29.71 29.26 27.72 27.43 30.85 31.18 30.26 25.97 24.30 23.32 23.30 23.57 24.47 26.18 26.90 26.84 28.05 28.78 28.09 29.18 29.49 26.97 24.54 23.19 22.48 23.22 23.77 22.53 21.81 21.85 22.14
35.73 36.09 36.65 36.33 36.02 36.41 36.54 35.82 35.33 34.03 31.49 28.79 27.74 28.27 27.79 28.83 31.39 31.70 29.53 26.24 24.43 24.83 25.09 24.41 23.78 24.14 25.06 25.34 25.34 26.67 26.58 26.53 26.54 26.50 24.60 24.47 25.38 25.86 25.48 25.61 24.54 25.41 26.84
35.41 35.25 35.67 35.80 35.22 34.74 35.19 34.72 35.15 31.82 27.40 28.41 28.61 27.80 26.90 27.25 31.05 30.43 28.87 24.41 24.12 23.23 24.64 24.88 24.52 24.03 26.35 28.59 26.62 24.06 23.64 24.78 27.34 28.72 29.81 29.70 30.16 30.68 30.17 27.89 26.39 25.48 23.10
35.14 35.39 35.86 35.78 35.35 34.79 34.10 33.07 31.75 28.29 29.09 28.82 27.33 26.85 28.51 25.07 28.92 28.14 26.27 21.00 17.81 21.40 23.04 23.78 24.92 24.80 26.29 27.64 26.40 24.66 21.79 22.69 23.38 23.25 23.83 24.95 25.89 25.94 27.98 27.25 25.59 24.59 24.33
35.20 35.04 35.11 34.74 33.87 33.64 32.52 30.00 28.59 28.06 28.05 25.57 25.10 25.18 25.33 25.26 24.74 26.68 26.13 21.29 20.42 21.43 20.82 21.70 22.94 25.75 26.46 26.17 26.47 24.39 24.38 25.75 25.00 24.76 22.96 22.25 22.89 23.83 24.89 25.59 25.22 24.65 22.67
33.63 33.04 32.56 32.15 32.25 32.39 29.94 28.82 28.24 27.19 24.92 22.07 16.17 18.36 20.57 21.40 25.04 24.43 24.96 24.66 24.57 17.19 20.55 22.23 23.30 25.19 25.48 25.82 25.42 26.03 25.87 24.33 22.99 21.41 21.39 21.31 21.53 22.45 25.26 26.58 27.74 28.18 27.31
32.05 31.14 30.82 30.87 30.94 30.38 27.66 25.51 25.03 23.84 20.74 20.80 22.38 15.32 18.67 20.91 18.10 23.99 24.08 24.56 24.23 20.79 22.27 23.76 23.74 23.67 24.01 24.31 24.38 24.80 24.26 22.57 21.67 19.18 21.92 23.08 24.62 26.00 27.27 27.01 27.58 28.09 29.26
30.71 30.35 29.91 29.18 29.41 28.67 27.12 26.78 24.59 19.60 18.55 23.03 20.61 18.10 15.47 17.09 15.18 17.88 19.11 16.12 21.13 22.83 21.96 21.67 21.58 22.63 21.57 22.16 22.36 22.82 22.56 22.40 21.72 20.71 21.39 23.42 25.32 26.24 26.08 27.50 26.47 26.66 26.61
30.75 30.31 28.98 26.90 27.32 27.41 25.96 25.48 25.32 25.04 23.84 20.05 18.58 18.27 6.25 6.18 14.67 23.08 23.69 19.81 19.12 19.83 16.19 16.66 18.38 17.89 17.55 17.67 17.78 19.41 20.56 21.63 20.67 21.34 21.20 22.07 24.01 25.14 25.74 27.04 26.87 27.51 24.30
29.63 28.90 27.27 25.28 23.74 26.74 26.59 26.37 29.36 29.54 28.15 29.13 26.70 18.33 12.02 20.47 24.78 26.09 25.14 24.08 23.08 22.52 14.22 12.66 11.20 12.00 15.27 16.09 14.24 15.23 17.42 19.04 19.85 20.24 20.21 21.09 21.78 22.78 23.93 25.01 25.34 22.60 22.79
31.85 30.90 28.26 25.64 24.61 22.92 21.66 22.12 18.19 24.47 30.12 30.57 28.51 27.26 26.29 24.99 25.53 26.10 24.82 23.13 22.28 19.69 9.85 10.96 9.23 10.98 10.56 16.00 15.09 14.61 14.56 16.57 18.83 18.26 18.39 18.76 19.70 21.63 22.05 22.05 18.86 17.62 19.03
29.28 28.21 26.66 24.69 20.64 20.48 16.44 22.69 25.33 20.59 16.28 18.10 24.73 27.38 27.65 26.68 26.29 25.80 24.95 19.91 10.69 12.26 10.58 10.11 10.35 12.30 14.04 15.12 14.48 13.57 13.47 12.89 12.82 14.89 15.67 16.27 17.21 19.44 18.20 19.06 18.82 16.22 19.61
31.14 26.44 24.43 17.88 18.94 18.29 18.54 20.12 22.03 23.10 20.69 20.24 17.68 23.88 21.69 26.91 25.33 25.06 22.97 7.66 6.30 6.76 9.15 10.43 8.52 10.93 12.66 13.58 9.62 9.84 8.12 9.29 9.91 9.97 12.86 14.05 15.03 17.54 18.20 19.63 17.66 15.06 14.35
30.16 25.84 18.68 19.36 22.86 23.56 18.75 19.95 23.43 22.30 20.07 20.14 17.59 15.14 15.56 12.64 6.90 4.38 0.33 -1.19 -0.84 4.65 3.83 8.23 8.98 9.43 8.31 10.28 8.01 6.76 8.53 5.27 8.46 9.83 9.98 11.02 12.41 15.29 16.51 17.83 16.22 14.05 14.95
28.80 26.72 25.74 26.02 26.17 25.90 19.23 19.98 23.98 22.22 18.32 20.83 19.10 12.75 13.32 13.03 8.29 6.39 6.74 3.34 3.25 4.29 1.64 5.20 3.25 1.91 3.67 6.82 10.63 7.46 7.10 5.07 6.81 8.02 8.46 9.79 9.51 11.90 15.57 16.02 14.44 13.95 14.95
27.16 26.34 24.38 25.46 19.95 16.49 18.61 20.06 20.19 18.86 18.81 18.21 19.04 18.56 12.09 6.59 6.06 7.69 12.34 9.68 9.40 7.22 6.52 4.43 4.83 5.20 5.58 7.26 8.62 5.40 6.34 3.47 5.24 7.21 8.40 9.24 10.05 11.85 11.91 11.10 9.97 7.59 9.30
17.24 14.95 15.94 19.09 24.75 18.97 12.42 23.52 25.12 21.35 17.49 19.82 17.35 16.71 11.00 12.64 11.35 14.70 13.83 12.63 7.88 6.47 3.81 2.39 0.05 2.68 1.65 1.42 2.00 6.93 8.42 8.74 8.44 6.56 6.09 7.91 10.25 10.91 8.56 6.39 6.52 6.83 5.02
17.61 13.74 15.49 17.48 13.65 12.50 9.39 18.22 24.92 21.95 20.57 15.63 13.30 14.61 17.97 18.40 14.97 12.77 10.83 9.41 3.14 4.55 0.30 1.52 3.57 5.75 4.59 0.17 -1.35 3.06 8.73 7.51 7.89 9.46 7.17 7.13 8.76 9.74 7.51 8.38 6.09 4.63 3.37
20.87 18.75 15.07 17.45 21.49 23.30 11.90 13.83 23.76 24.20 20.18 15.67 12.42 11.91 15.05 12.54 12.57 11.56 14.63 7.18 9.26 4.62 7.14 2.98 1.97 3.86 3.94 2.44 3.23 5.92 4.49 8.75 8.41 9.27 8.71 8.63 7.11 6.83 6.54 7.09 5.13 6.73 4.51
28.86 27.31 23.33 22.19 22.29 17.21 14.98 16.22 18.44 22.24 21.12 23.66 20.34 17.25 15.07 13.88 12.13 9.80 11.63 6.53 6.68 6.28 4.27 1.31 4.55 4.21 2.93 3.69 5.55 7.31 6.22 6.41 7.41 9.50 7.76 9.81 7.36 6.91 7.19 6.14 5.79 5.65 6.80

GFSGL_sfc_wetblb_009.txt.gz
Wetbulb
39.56 40.57 40.80 41.13 41.13 40.51 39.18 38.64 37.93 37.92 39.60 39.83 38.95 36.96 36.57 34.99 33.87 32.90 31.59 32.49 33.11 31.53 28.81 28.13 27.99 28.44 27.05 27.04 27.64 27.49 27.67 28.08 26.49 28.81 33.23 35.12 32.70 32.47 33.44 35.25 34.93 35.01 39.62
37.98 38.43 38.63 38.95 38.98 38.59 38.52 37.31 38.33 38.49 36.76 36.01 37.66 37.79 35.30 33.87 32.51 31.65 31.25 31.78 29.25 27.64 27.01 26.91 26.67 28.56 25.25 25.33 25.22 25.15 25.73 27.12 27.05 24.97 29.49 28.69 30.12 31.98 32.12 32.59 33.89 34.51 33.45
35.47 35.20 35.55 36.52 37.24 38.15 37.42 36.51 37.38 36.62 37.62 38.05 37.82 34.66 32.52 32.36 32.16 30.84 30.30 28.80 27.07 27.03 26.68 26.17 25.82 25.33 23.53 23.48 23.95 24.51 25.67 28.01 27.05 25.92 26.50 27.59 28.92 29.01 28.87 31.69 30.78 30.30 32.98
34.86 34.82 36.32 37.36 37.57 35.77 34.61 35.44 36.22 37.00 37.19 36.16 37.10 33.29 32.60 32.27 31.27 30.09 28.18 26.62 26.59 27.17 27.22 26.46 25.59 24.65 23.38 23.49 24.45 27.06 28.80 27.97 26.73 25.14 25.33 25.40 25.82 25.92 27.09 26.83 26.08 27.95 26.45
34.68 34.98 36.24 37.73 37.35 36.78 36.31 36.46 36.27 36.99 37.44 37.03 33.33 31.88 31.98 30.94 29.91 27.42 27.37 26.79 25.90 25.39 25.99 25.97 25.62 26.62 29.25 27.54 25.93 24.46 25.86 26.77 25.98 26.15 25.15 24.67 23.75 22.28 22.23 24.46 23.80 23.70 25.30
34.12 35.19 36.74 36.58 37.46 37.36 37.10 36.77 38.29 37.41 37.11 31.01 34.09 31.37 28.97 30.13 31.80 31.28 29.19 25.49 25.69 24.99 23.83 24.80 24.87 26.80 26.36 27.57 27.83 28.43 27.51 25.84 25.38 24.64 24.73 24.17 24.91 23.02 22.62 22.49 22.25 21.04 20.01
33.65 35.85 36.16 35.70 36.08 35.55 35.92 36.37 35.62 34.61 33.02 32.00 28.61 27.93 27.40 27.51 31.39 31.93 32.17 27.64 26.50 24.34 24.55 24.81 24.45 25.56 25.48 25.02 26.26 27.17 27.10 28.19 28.40 26.09 24.27 23.87 23.47 23.41 23.32 22.33 21.57 21.30 21.16
33.24 34.86 35.08 34.76 34.33 34.32 34.56 34.45 33.49 34.22 32.56 27.95 27.41 27.83 27.26 29.07 31.76 31.16 30.27 27.11 24.40 24.44 23.49 23.28 23.21 23.49 25.06 25.25 26.25 25.53 26.16 25.33 26.46 26.83 25.97 25.25 24.52 25.14 25.24 25.08 23.88 23.41 24.26
32.57 33.75 34.40 34.41 34.02 33.82 33.19 32.74 32.50 31.74 28.44 27.19 28.12 27.93 26.72 27.28 29.87 29.04 26.75 22.76 22.58 22.03 23.23 23.27 23.48 23.33 25.40 27.94 26.36 25.17 24.93 25.00 27.35 27.87 27.62 28.11 28.79 29.57 29.58 27.03 23.47 24.28 22.79
32.27 33.64 34.18 33.94 33.40 32.53 31.55 31.05 30.71 26.34 28.01 28.01 27.60 26.56 27.15 24.13 27.84 27.13 25.65 20.14 16.28 20.71 21.64 22.44 24.09 24.52 26.61 26.47 24.40 23.52 22.00 22.80 23.99 23.78 23.49 24.85 25.70 25.17 27.03 26.31 24.63 24.22 24.33
33.46 33.27 32.67 32.25 30.96 30.65 29.39 28.64 27.47 27.80 27.66 25.50 26.21 24.51 24.56 24.62 23.25 25.78 25.52 18.79 19.34 21.77 20.92 20.95 22.81 25.29 25.79 26.05 25.80 24.32 24.28 25.54 24.45 23.73 23.95 22.91 22.91 23.37 24.00 24.68 24.53 23.52 21.32
32.50 32.09 31.17 30.64 30.61 30.75 27.73 26.37 26.78 25.48 24.55 22.61 16.06 18.04 20.22 20.93 24.42 24.10 25.18 24.72 24.59 17.86 20.27 21.84 22.51 24.48 24.71 25.02 24.27 25.45 25.12 23.94 21.93 21.49 21.46 21.69 21.98 22.24 24.30 25.07 25.58 25.59 25.43
31.26 30.68 30.02 29.81 29.49 28.60 26.42 24.66 24.37 23.30 19.92 21.11 22.03 15.38 18.28 21.48 18.69 23.57 24.30 24.76 24.20 17.37 20.17 22.98 23.31 22.98 22.70 22.61 22.97 23.71 22.72 21.76 20.71 19.47 20.03 21.38 23.50 25.51 27.22 27.45 27.50 28.07 28.12
30.52 30.20 30.78 29.71 28.74 27.97 26.55 26.33 24.21 20.34 19.96 23.20 20.39 18.53 15.49 16.87 15.36 16.79 18.95 14.41 20.17 19.86 17.82 17.08 19.50 21.40 19.49 18.61 18.72 20.08 20.98 20.60 20.93 20.27 20.58 22.29 24.37 25.30 25.84 27.35 25.91 26.06 25.53
29.90 31.17 29.68 28.94 27.48 26.41 26.08 25.45 25.05 25.47 25.29 21.59 19.18 18.19 6.94 5.25 14.17 21.32 22.73 16.29 11.63 16.00 10.10 7.92 13.43 15.18 15.78 16.48 15.43 16.17 17.86 18.81 18.10 19.21 19.23 20.28 22.08 23.99 25.21 27.01 27.17 26.70 22.98
31.31 30.80 30.15 30.66 27.20 27.18 25.74 24.84 29.35 29.51 29.73 29.98 28.97 19.24 11.82 20.67 24.72 25.83 25.57 24.05 23.15 21.70 10.30 4.66 0.89 5.50 11.63 15.07 13.64 12.46 12.99 14.77 16.07 17.39 17.37 18.46 19.20 21.12 23.50 24.58 24.90 23.47 23.38
29.49 30.44 31.75 30.09 27.05 25.03 23.14 22.24 16.70 23.63 28.86 29.87 30.32 27.85 26.48 23.53 26.01 26.76 25.21 23.22 21.74 18.31 5.95 3.55 -0.91 0.36 8.47 14.57 13.90 13.12 11.04 11.04 13.74 14.70 15.33 15.53 16.78 19.06 20.84 21.36 21.52 20.93 21.10
30.50 27.21 28.47 26.65 27.35 23.55 22.07 19.45 17.30 17.38 14.98 16.33 23.17 28.58 28.38 28.08 26.78 26.24 25.57 19.81 10.45 11.19 7.98 4.83 2.54 2.36 7.74 13.29 13.58 12.11 11.19 8.16 5.07 9.84 12.72 12.94 13.48 15.84 17.60 18.87 19.79 16.17 18.09
30.50 29.88 27.03 26.46 24.37 21.14 22.82 19.44 18.05 17.46 15.98 15.51 16.37 20.74 21.90 27.88 27.14 25.11 23.37 10.20 6.83 5.89 7.53 8.49 3.21 3.99 6.23 8.53 5.60 7.28 4.12 4.19 3.66 2.99 6.02 10.62 11.73 13.52 15.38 17.44 16.74 16.01 15.54
30.94 28.85 24.95 24.19 23.86 25.39 24.03 18.43 20.65 18.93 15.98 14.77 13.20 13.64 13.50 11.87 7.27 4.46 1.44 -0.45 -0.44 5.53 3.47 7.71 7.87 5.35 2.84 2.81 -0.72 1.09 6.19 5.76 6.58 6.55 5.26 5.68 7.24 11.35 13.93 14.97 13.22 8.12 12.68
30.79 28.94 26.43 26.84 25.96 20.86 18.94 18.26 21.45 17.53 17.34 13.40 15.36 11.46 12.97 15.01 13.39 7.19 11.82 3.26 5.98 7.66 4.28 6.06 2.58 -0.94 -2.54 -1.65 4.39 0.15 2.69 2.61 6.47 6.27 6.46 6.99 5.15 8.07 11.41 11.69 12.08 11.48 13.04
29.71 28.19 26.93 26.90 26.84 22.01 18.09 15.94 15.82 18.65 19.47 14.33 14.16 13.42 12.44 6.65 10.19 9.77 11.88 11.47 10.43 9.94 8.70 6.56 6.22 5.70 4.69 4.98 2.72 -3.63 -0.95 -0.80 2.92 5.24 5.78 6.99 8.13 8.66 8.58 8.61 7.00 5.08 8.55
28.94 25.97 22.69 20.45 19.56 17.11 10.99 12.44 12.64 17.08 20.08 14.34 15.68 12.95 12.06 12.04 17.97 12.78 11.99 11.63 8.34 6.51 6.82 5.40 1.86 2.54 0.25 -1.69 -3.63 0.26 0.80 1.29 3.29 6.39 5.86 5.68 8.14 7.93 5.98 4.03 5.61 6.47 5.90
30.03 26.32 22.10 20.41 10.09 11.92 8.89 10.20 12.08 16.73 19.24 19.10 14.87 11.19 10.29 12.98 14.37 12.32 12.25 8.87 3.35 5.04 1.37 5.25 6.10 6.86 4.43 -1.49 -5.26 -2.37 3.13 -0.07 -0.03 3.15 5.60 6.42 7.50 8.90 6.65 6.61 5.73 4.45 3.04
30.40 26.51 22.33 20.34 20.28 19.28 17.55 15.65 16.34 19.13 21.10 21.02 18.92 14.79 15.12 10.30 9.97 10.87 10.59 8.34 6.84 1.26 5.78 4.71 4.21 6.04 5.57 3.99 1.50 3.01 1.61 4.32 0.59 1.26 1.48 6.70 5.35 5.15 5.72 6.78 4.62 6.58 4.24
30.93 28.47 27.51 27.45 24.98 24.27 22.93 22.39 22.05 21.51 21.18 20.99 21.44 20.62 18.90 16.34 15.94 13.13 11.71 9.07 7.52 6.52 5.28 2.12 2.78 5.76 4.25 3.77 3.36 4.32 2.53 3.46 0.53 1.80 -0.25 3.64 6.13 5.69 5.33 5.15 5.69 6.20 7.02

GFSGL_sfc_wetblb_015.txt.gz
Wetbulb
42.55 42.52 42.69 42.75 43.11 43.25 42.74 42.70 42.70 43.59 43.93 43.67 43.82 43.12 42.50 41.14 40.60 40.14 40.02 38.87 37.17 37.64 38.37 36.86 35.63 35.49 34.47 34.36 33.91 32.68 31.11 30.27 26.49 29.32 31.23 32.63 33.47 34.00 34.95 37.08 39.61 40.32 40.17
41.56 41.59 41.80 42.32 42.57 42.14 41.88 42.10 42.80 42.04 42.40 41.74 41.77 40.75 41.25 41.40 40.39 38.66 37.78 37.07 36.36 36.18 35.81 34.84 33.77 33.78 33.27 33.30 32.39 30.74 30.10 30.33 27.83 25.58 29.25 30.43 31.96 34.17 34.86 35.24 37.72 38.46 39.57
40.23 40.73 41.23 41.24 41.45 41.51 41.51 41.91 42.03 41.42 41.22 41.25 40.75 40.22 39.48 40.63 38.79 37.27 36.24 35.83 35.55 34.85 33.90 33.16 32.90 32.28 31.51 31.77 30.84 29.71 29.16 28.86 28.57 26.63 26.76 29.42 30.63 32.90 33.60 34.86 35.69 37.49 37.25
40.04 40.16 40.10 40.93 41.24 41.26 41.35 41.46 41.22 41.44 41.21 41.69 40.76 39.06 38.79 37.06 36.45 35.89 35.27 34.83 33.68 33.13 32.98 32.54 31.99 31.20 30.23 29.83 28.63 28.45 27.69 26.68 26.41 25.57 25.70 26.75 28.82 31.24 31.42 31.32 32.43 35.38 34.50
39.67 39.53 39.87 40.70 40.98 40.95 40.79 40.63 40.56 40.77 40.95 41.68 40.47 37.35 37.01 35.83 34.55 34.91 34.04 33.40 32.79 32.43 32.15 30.95 30.35 29.53 28.57 28.34 27.60 27.01 26.41 25.24 25.78 25.55 25.01 25.96 27.19 27.30 27.49 29.78 30.22 32.66 33.69
39.19 38.95 39.44 39.55 40.03 40.31 40.08 39.52 39.44 39.83 39.78 39.82 37.89 37.12 35.94 33.69 32.77 32.93 33.16 32.78 31.63 30.08 28.07 28.48 28.29 27.21 27.35 26.80 26.51 26.86 26.96 25.75 25.60 25.25 26.91 25.39 25.89 27.05 28.41 28.60 28.18 27.67 27.65
37.97 38.22 38.37 38.47 38.75 39.21 38.75 38.32 38.06 38.11 38.20 38.55 37.90 35.22 33.44 33.91 32.41 31.70 30.05 30.75 29.08 28.18 27.34 26.55 26.30 26.76 26.55 26.89 26.69 27.15 27.99 27.90 27.75 27.37 25.98 25.93 25.97 27.67 27.92 27.40 27.57 27.42 27.36
36.90 37.18 37.72 37.67 37.62 38.19 37.74 37.00 36.95 37.03 37.10 37.54 35.08 33.27 33.31 32.00 30.60 28.99 27.90 29.35 28.19 27.50 26.65 26.49 26.11 25.97 26.79 25.85 27.33 26.68 26.56 26.83 27.34 27.63 28.19 28.14 28.24 28.97 28.54 28.46 28.14 27.94 29.52
36.16 36.57 36.78 36.91 36.98 36.99 36.40 36.04 36.00 35.80 35.32 34.44 33.93 32.77 31.84 30.92 28.59 27.50 27.83 27.94 26.71 26.05 26.40 26.75 26.25 25.63 25.64 27.15 26.03 25.22 24.58 25.39 27.82 27.67 28.21 28.69 28.91 28.70 28.48 27.93 26.50 26.07 25.25
35.82 35.87 36.21 37.06 36.23 35.98 36.00 35.24 35.41 35.21 33.25 33.69 32.08 31.66 28.20 29.20 26.82 26.63 27.30 27.76 25.82 25.69 26.26 25.97 24.79 24.94 25.29 25.75 24.86 24.05 22.06 24.09 24.92 25.71 26.21 27.34 27.99 28.54 27.81 28.30 27.36 25.19 26.23
35.46 35.59 36.21 36.49 35.86 36.04 35.32 35.17 34.42 33.62 32.44 31.76 30.01 29.89 28.95 28.30 27.80 25.59 26.19 27.50 26.21 25.17 24.21 24.18 25.37 24.30 24.79 24.36 23.70 23.83 23.52 24.56 23.94 24.46 24.91 26.15 26.71 27.08 27.81 28.56 28.87 27.78 25.94
34.91 34.99 35.16 35.17 34.79 34.37 34.38 34.48 32.98 32.42 31.30 29.84 29.26 29.06 29.22 28.14 25.21 25.46 25.84 25.94 25.57 24.94 23.65 23.99 24.51 23.60 23.02 22.54 22.51 22.40 22.17 23.03 23.80 23.76 23.67 24.24 25.10 25.91 27.20 28.44 28.93 29.04 29.92
33.90 34.23 34.44 34.79 34.26 34.65 34.05 33.31 32.01 31.18 30.42 29.56 28.78 29.58 29.41 28.92 28.60 24.88 25.05 25.57 25.29 24.65 25.11 23.37 22.23 22.05 21.28 21.47 20.94 20.62 20.38 22.03 21.74 21.52 21.74 23.16 24.73 26.41 27.97 28.80 30.07 29.84 29.53
32.82 33.53 34.38 33.53 32.72 34.42 34.04 32.50 31.40 30.61 30.09 29.79 30.17 29.26 29.61 28.71 28.46 28.00 27.01 28.07 24.89 24.68 23.33 23.08 20.52 20.40 19.63 19.84 21.00 21.15 20.67 19.83 19.52 20.40 21.10 22.98 25.29 26.79 28.33 30.36 29.18 29.42 28.07
32.98 32.83 32.28 32.27 31.32 31.79 33.52 32.39 30.96 31.83 31.64 31.11 30.48 29.94 29.71 29.15 28.99 27.50 26.48 27.89 27.00 24.36 21.45 22.44 21.25 20.24 19.93 20.00 20.28 19.71 19.28 18.50 19.07 19.85 20.99 21.92 23.12 24.65 26.25 28.73 28.97 29.90 28.19
31.78 33.09 32.72 32.81 32.05 32.55 32.39 31.94 30.53 30.53 29.97 30.35 30.49 29.65 31.30 27.95 25.91 26.26 27.09 27.17 25.12 22.53 22.46 20.98 19.70 18.85 18.49 18.49 18.57 18.40 18.75 16.64 17.06 18.91 19.89 20.91 21.53 23.00 24.02 26.24 27.52 28.04 27.70
31.63 32.65 33.13 32.86 32.87 31.93 31.73 31.37 30.70 32.04 28.76 29.49 30.45 30.73 30.83 29.00 27.04 27.99 27.57 27.32 24.92 21.84 22.41 21.84 20.37 19.62 18.37 18.61 18.45 18.17 17.32 16.95 16.06 17.41 18.51 19.42 20.02 21.97 23.60 23.88 24.91 25.14 25.34
32.27 31.80 33.24 33.19 32.80 32.48 32.24 31.89 31.38 30.08 29.43 30.43 30.01 28.24 30.25 30.45 28.98 28.41 28.14 27.01 24.97 22.42 22.67 21.90 21.39 20.91 19.97 18.89 18.41 17.72 17.51 17.21 15.77 16.01 17.69 18.11 18.45 20.18 21.68 22.00 22.88 22.63 23.86
32.39 32.90 32.95 33.43 33.10 32.05 31.33 30.48 30.77 29.73 28.52 28.73 30.02 27.43 27.86 27.57 29.68 29.31 28.88 27.51 26.23 25.04 24.27 22.86 22.95 21.84 21.07 20.27 19.50 17.85 16.78 16.70 15.37 14.93 16.61 16.71 17.52 18.67 19.74 20.45 21.48 19.62 20.36
33.12 31.91 31.17 32.12 32.82 32.05 30.65 29.68 29.36 29.69 29.58 29.08 29.03 29.41 29.17 24.31 26.36 28.53 28.56 27.79 26.17 25.22 25.58 24.08 23.66 22.93 22.06 20.86 20.22 18.58 17.87 17.98 16.67 16.56 15.68 16.76 16.83 17.61 17.89 18.61 19.52 20.09 20.58
32.27 32.12 31.14 32.00 31.80 31.33 30.81 30.06 29.81 30.09 28.99 28.76 29.09 31.08 25.69 27.01 28.46 29.00 28.32 27.19 26.08 26.18 26.22 25.51 25.02 23.68 22.79 21.35 20.14 19.95 17.60 17.72 16.46 15.60 15.97 16.65 16.13 16.01 17.16 18.64 18.97 19.35 19.44
31.85 31.71 31.51 30.98 31.75 31.32 30.41 30.97 31.09 29.86 28.90 28.58 28.86 30.06 21.90 23.90 27.64 28.74 28.90 28.22 28.33 27.44 27.60 27.00 25.88 24.97 24.10 22.85 21.94 20.91 18.16 17.15 17.54 16.39 15.67 14.99 16.41 17.05 16.67 16.78 17.21 17.93 18.00
32.25 31.98 31.65 30.33 30.98 30.57 30.05 30.09 30.13 29.37 28.87 28.41 28.31 28.43 29.18 28.32 28.11 28.42 28.78 29.01 28.81 27.43 26.70 25.56 25.54 24.43 23.69 21.74 21.73 20.95 19.22 18.66 18.73 16.69 14.50 15.25 16.33 17.24 16.83 16.10 15.89 15.74 15.62
31.69 31.00 30.98 30.99 31.00 30.66 29.40 28.76 29.17 26.64 27.44 28.20 28.74 28.47 28.33 28.87 28.78 28.44 28.56 29.26 28.27 27.43 26.18 23.26 23.49 23.63 23.86 22.36 21.64 20.33 19.17 18.54 18.19 16.84 12.74 14.30 15.65 16.13 16.52 15.78 15.77 15.02 15.21
30.70 30.86 31.11 31.42 31.43 31.00 29.70 28.56 28.72 29.13 29.00 28.64 28.57 29.04 29.49 29.62 29.02 29.49 29.74 28.67 26.87 26.42 25.45 21.93 22.13 22.55 21.00 19.69 20.48 18.81 17.88 14.85 15.22 12.76 14.99 14.05 14.49 13.83 14.57 15.19 15.33 15.68 14.57
30.45 31.04 31.95 31.89 31.70 31.10 30.12 29.86 29.95 30.42 30.31 30.67 30.50 30.40 30.61 30.46 30.03 29.71 29.41 28.75 26.80 25.63 25.59 24.80 22.72 20.58 21.35 21.36 19.83 17.65 12.69 12.26 13.86 9.74 14.00 15.44 14.90 15.63 15.76 14.43 13.34 16.02 14.49

GFSGL_sfc_wetblb_018.txt.gz
Wetbulb
46.67 46.91 46.41 46.37 46.59 46.04 45.45 44.88 44.50 44.82 44.60 44.18 44.59 45.34 45.19 44.52 43.64 43.97 43.43 42.92 41.42 40.29 40.30 38.74 39.43 39.51 38.24 38.16 37.95 36.85 35.25 34.39 30.55 33.47 34.65 35.97 35.45 35.10 36.64 37.35 38.33 39.31 39.53
46.24 45.56 45.14 46.31 46.11 44.91 44.71 44.30 44.58 43.90 44.35 44.01 43.84 43.54 43.44 43.23 43.48 42.44 42.38 41.52 39.61 38.99 38.98 38.91 38.16 37.57 37.46 37.40 36.46 35.12 34.47 33.66 30.94 28.79 31.68 32.04 32.92 34.16 35.26 35.45 35.79 38.23 38.66
45.22 44.78 45.25 45.18 44.57 44.26 44.39 44.01 43.82 43.40 43.46 43.69 43.58 43.06 42.62 42.45 42.46 42.10 40.50 39.55 39.43 38.96 38.60 37.60 37.10 36.76 35.65 35.58 34.96 33.81 32.59 31.49 30.62 28.88 28.85 30.67 32.19 32.89 32.58 34.19 35.17 36.36 38.05
44.98 44.36 44.07 44.41 44.29 44.33 44.05 43.57 43.33 43.26 42.70 42.85 43.27 43.04 42.92 41.34 40.35 40.12 39.37 38.89 38.46 37.86 37.66 37.17 36.34 34.74 33.59 32.81 31.84 31.58 30.69 29.63 30.04 29.18 28.09 28.93 30.75 32.80 32.43 30.55 32.42 35.12 36.06
44.39 44.11 44.32 44.51 44.37 44.03 43.68 43.07 42.98 42.68 42.49 42.62 42.23 42.31 41.77 40.59 39.26 38.66 38.85 38.00 37.61 36.78 36.62 35.49 34.19 31.97 29.08 28.87 29.25 28.98 28.24 27.59 26.74 27.14 26.37 27.04 28.09 28.46 28.73 30.62 30.30 31.92 33.64
43.98 43.61 43.99 43.56 43.38 43.11 42.87 42.32 42.06 41.58 41.60 41.54 41.32 41.50 40.92 39.67 32.57 33.07 32.80 36.55 36.06 34.88 33.36 33.15 33.03 31.02 30.52 27.91 28.04 27.63 28.01 27.11 26.08 26.34 27.46 26.68 26.73 28.56 30.01 29.55 29.41 29.50 27.64
43.14 42.68 42.49 42.63 41.96 41.72 41.79 41.52 41.04 40.57 40.94 40.46 40.79 40.75 39.63 38.84 32.54 30.97 29.46 35.17 34.39 33.38 32.30 31.59 30.94 30.93 30.09 29.64 28.38 28.03 28.89 28.98 28.53 28.53 26.07 26.33 27.17 29.47 29.50 28.59 28.65 28.87 28.57
41.57 41.27 41.45 41.08 40.45 40.93 41.22 40.78 40.80 40.55 39.83 39.79 39.48 38.90 38.17 36.17 30.64 28.67 28.32 34.42 33.48 32.29 31.61 31.14 30.73 30.44 29.85 27.73 27.20 27.50 28.99 30.02 29.90 29.30 28.49 28.66 29.19 29.79 30.11 29.68 29.39 29.23 30.72
39.96 39.38 39.82 40.01 39.69 40.00 39.75 39.94 40.39 39.66 39.39 39.04 38.48 37.78 37.38 36.21 29.21 27.60 28.62 32.88 31.63 30.86 30.87 30.88 29.45 28.79 27.06 26.42 26.34 25.98 27.21 28.27 29.43 28.35 28.12 28.02 28.19 28.40 29.22 29.40 27.19 26.08 26.34
38.59 38.78 39.25 39.49 39.42 39.09 39.18 39.31 39.90 39.63 38.11 37.91 37.23 37.45 32.05 34.88 28.22 27.15 28.36 32.39 30.18 29.98 30.62 29.86 27.17 26.53 24.98 25.45 25.34 25.03 23.80 25.58 25.82 26.63 27.68 28.62 29.03 29.31 28.78 29.75 28.19 25.44 25.98
38.57 38.74 38.97 39.24 38.68 38.84 39.22 39.65 39.19 38.77 37.32 37.00 35.11 35.78 35.10 33.64 32.54 27.00 26.48 30.51 30.24 28.68 28.69 28.75 28.64 25.20 24.63 24.39 23.76 25.08 23.87 24.61 24.52 25.60 26.18 27.65 29.23 29.29 29.71 30.67 30.76 28.11 26.68
38.35 38.29 38.27 38.50 38.16 38.28 38.64 38.92 38.75 37.74 36.14 35.37 34.32 34.36 35.23 34.05 28.89 27.73 26.40 26.66 27.16 28.17 27.57 28.91 27.62 24.18 23.85 23.07 23.54 22.01 22.11 23.21 25.44 24.95 25.40 26.01 27.06 28.03 29.40 30.93 31.81 31.90 31.04
37.53 37.44 37.77 38.24 37.81 37.75 37.75 37.71 37.25 37.06 35.26 34.56 33.63 33.63 33.30 34.15 33.55 27.32 26.60 26.08 26.38 27.80 28.58 26.63 23.80 23.17 23.48 24.21 22.58 21.96 22.35 24.87 23.68 23.49 23.40 24.44 26.27 28.46 30.27 31.05 31.57 31.80 32.24
36.13 36.57 37.10 35.92 34.82 34.85 35.41 35.98 36.51 35.93 35.05 33.63 32.77 33.02 33.46 32.53 32.62 32.49 31.96 31.29 27.83 27.36 28.35 28.33 25.50 22.69 23.57 23.95 25.27 25.31 25.04 23.73 22.58 22.99 23.47 25.17 27.28 28.63 29.43 31.00 31.13 31.51 29.92
36.19 35.93 35.90 35.76 34.66 33.98 33.45 33.52 35.35 36.54 35.12 33.80 33.86 33.14 32.97 31.48 31.92 31.75 30.95 30.93 30.54 28.59 25.60 27.66 27.43 26.22 25.04 25.45 25.50 24.75 24.87 23.57 22.52 22.88 24.13 24.11 25.07 26.16 27.34 30.02 30.11 31.90 29.74
34.33 35.31 36.09 35.53 35.00 34.20 33.42 33.82 32.28 31.42 30.85 30.81 30.65 31.71 34.73 31.97 29.10 28.37 27.66 27.28 27.76 25.91 26.11 26.34 26.38 26.04 24.78 24.24 23.93 24.07 24.39 22.47 21.90 22.24 22.82 23.76 23.51 24.21 25.38 27.64 29.03 29.24 28.88
34.10 34.19 34.95 34.22 34.05 33.68 34.25 33.26 32.69 33.91 31.59 31.10 31.09 31.32 31.61 31.89 30.37 28.69 28.41 28.07 27.85 25.35 25.90 26.71 26.12 26.00 25.40 24.66 24.32 23.62 22.98 23.12 21.22 21.62 22.01 22.34 22.96 23.56 25.12 25.58 26.46 26.67 26.94
34.68 32.07 34.62 34.83 34.76 34.36 34.33 33.95 33.65 32.58 32.12 33.26 31.51 30.73 31.14 30.78 31.55 29.35 29.09 28.42 27.39 25.71 26.58 26.52 26.39 26.39 26.04 25.19 24.54 23.52 22.94 23.06 22.66 21.47 21.22 21.90 22.49 22.47 23.51 23.56 24.29 24.15 24.20
34.54 34.25 34.66 34.32 32.63 32.69 33.56 33.87 33.58 32.74 31.92 31.68 32.35 30.78 31.34 29.45 29.73 30.53 29.71 28.88 27.67 27.41 28.34 27.75 27.97 26.92 26.73 26.21 25.60 24.25 22.73 22.46 21.05 21.26 21.75 21.15 21.42 21.95 22.41 22.81 23.30 23.11 23.26
34.76 32.24 32.38 33.55 33.21 31.57 32.98 32.61 32.07 32.69 32.32 31.75 31.14 31.68 32.20 29.96 30.47 30.68 31.26 30.91 29.89 28.80 29.25 28.53 28.41 28.32 27.50 26.70 26.02 25.09 24.02 23.21 22.59 21.83 21.53 21.88 22.23 21.21 20.89 21.81 22.62 22.47 23.13
35.56 34.72 32.68 33.80 33.39 32.90 33.60 32.92 32.41 32.89 32.68 32.15 33.66 34.07 30.86 31.52 31.34 31.25 31.39 32.45 30.78 30.55 31.17 29.43 29.31 28.61 27.62 26.59 25.72 25.24 24.00 23.35 22.63 21.32 21.30 21.24 21.12 21.08 20.83 21.25 22.03 22.37 22.51
34.69 33.82 33.69 33.57 33.13 32.81 31.22 32.43 32.91 32.62 32.44 32.75 33.05 32.98 30.57 31.70 31.28 31.83 32.46 33.04 33.59 33.37 33.16 31.91 30.29 29.71 28.71 27.92 26.56 25.50 24.25 22.87 22.78 22.46 21.44 19.67 20.75 22.12 21.55 20.85 20.28 20.31 21.00
34.28 33.82 32.93 33.13 32.99 31.96 31.79 31.85 32.30 32.89 32.86 32.66 32.46 32.41 33.01 32.86 32.60 32.25 33.19 33.08 33.76 33.85 33.09 31.53 31.44 29.91 29.89 28.83 28.53 27.00 24.83 24.13 23.73 23.05 20.38 20.05 20.80 21.84 21.71 21.11 20.02 19.01 18.68
34.88 33.11 30.14 30.73 32.05 33.29 32.84 32.00 32.06 31.10 31.60 32.18 32.18 32.72 32.86 33.08 32.36 32.36 32.54 32.72 32.90 32.54 32.54 30.86 30.63 30.17 29.62 28.69 27.73 27.34 26.10 25.05 24.04 22.44 19.14 19.36 20.04 20.57 21.00 20.06 20.17 18.99 18.81
33.07 31.85 32.07 31.91 32.18 32.54 32.18 32.56 32.36 32.34 31.81 31.63 31.63 31.81 32.84 32.90 32.72 32.36 32.36 32.54 32.54 32.18 32.16 31.58 30.86 29.91 28.71 27.84 27.47 26.70 25.68 21.58 21.26 20.69 20.86 18.93 18.89 17.87 18.60 18.99 18.87 19.86 18.30
32.14 32.36 32.38 32.24 32.18 31.92 32.00 31.45 31.27 31.45 31.44 31.81 31.81 32.00 32.18 32.33 32.53 32.36 32.72 32.51 32.18 31.98 31.80 31.79 30.59 29.26 28.64 27.66 26.62 25.53 23.00 18.84 18.50 15.81 20.23 20.29 19.63 20.03 20.00 18.98 17.24 18.86 19.05

GFSGL_sfc_wetblb_021.txt.gz
Wetbulb
47.99 46.91 48.28 47.63 47.67 47.91 47.28 46.67 45.70 45.55 45.32 44.60 44.57 44.42 44.31 44.36 44.58 44.18 43.80 43.70 42.80 42.44 42.22 40.72 40.15 40.23 38.99 38.64 39.37 38.44 37.19 36.38 32.27 35.60 36.40 36.85 35.88 35.54 35.84 37.38 37.74 38.29 38.84
48.44 46.79 47.56 47.72 47.81 47.00 46.85 46.34 45.91 44.89 44.98 44.22 43.95 43.79 43.89 43.85 43.46 43.24 42.54 42.59 41.65 40.57 40.13 39.79 38.86 38.72 37.83 38.11 37.42 36.32 36.01 36.02 34.09 30.87 32.68 33.31 33.18 34.06 34.94 34.78 35.75 36.46 37.43
46.51 46.88 47.18 47.12 46.88 46.51 46.18 45.88 45.40 44.62 44.05 43.89 43.73 43.23 42.92 42.54 42.00 42.35 40.95 40.70 40.23 40.01 39.35 38.68 37.71 37.13 36.06 35.64 34.94 33.87 33.95 33.42 33.22 30.45 29.49 32.04 32.59 33.67 33.55 34.42 34.25 35.28 36.21
47.18 46.67 46.40 46.43 46.57 46.46 46.25 45.33 45.03 44.43 43.44 43.22 43.44 42.97 42.95 42.11 41.42 40.90 39.99 40.02 39.68 39.38 38.82 38.27 37.30 35.89 34.45 33.08 31.39 31.31 31.42 30.24 29.83 28.72 28.64 28.91 30.54 32.26 32.66 31.34 31.40 33.43 33.88
47.00 46.10 45.91 46.51 46.56 46.18 45.29 44.88 44.54 43.90 43.32 43.11 42.62 42.49 42.60 42.14 40.34 40.34 39.84 39.50 38.50 37.70 37.86 36.92 36.42 33.09 30.26 29.90 29.66 29.28 28.79 27.60 27.06 26.76 26.31 27.40 28.19 29.18 29.06 30.95 30.37 31.15 32.67
46.56 45.59 46.01 45.75 45.44 45.13 44.34 43.99 43.48 43.14 42.78 42.27 41.84 41.44 41.61 41.06 33.18 33.10 32.66 36.61 37.11 36.30 34.96 35.11 34.91 34.24 33.09 30.79 30.17 29.01 28.76 26.71 26.27 26.88 26.81 25.77 26.16 28.03 30.01 29.47 29.49 28.08 26.01
45.59 45.43 44.90 44.65 43.91 43.41 42.97 42.18 42.05 42.24 42.40 41.56 40.96 40.56 39.91 38.92 33.44 31.36 29.83 34.55 35.78 35.49 34.42 33.41 32.90 33.13 31.69 32.00 30.58 29.71 29.39 30.15 30.05 29.06 26.59 26.73 26.73 28.40 28.32 27.72 27.90 28.05 27.83
44.33 43.57 43.77 43.25 41.71 41.62 41.33 41.53 41.80 42.09 41.50 40.53 40.18 40.02 39.36 36.64 32.00 29.75 29.35 33.59 35.49 34.78 33.79 33.12 32.37 31.87 30.65 28.10 27.65 27.41 28.52 29.35 30.06 29.76 28.95 28.12 28.39 28.58 27.96 27.85 27.81 28.53 29.99
43.10 42.88 41.93 41.23 40.58 40.41 40.44 40.67 41.06 41.13 40.79 40.26 40.08 38.98 38.13 36.50 30.98 29.69 28.64 34.03 33.80 32.80 33.02 32.96 31.45 30.04 27.62 26.55 25.81 25.46 26.21 27.51 30.30 30.20 28.88 28.87 29.07 29.40 29.21 28.89 26.83 26.33 25.89
41.88 40.75 40.51 40.26 39.91 39.65 40.00 39.81 40.85 40.71 39.56 40.11 38.76 38.77 33.69 37.22 30.40 29.17 29.10 33.05 32.06 31.74 32.25 32.09 28.85 27.17 25.50 25.33 24.99 24.24 23.21 25.48 25.30 25.70 26.61 28.26 29.65 30.24 30.74 29.82 28.49 25.66 25.69
40.59 40.10 39.51 39.98 40.01 40.24 39.75 39.82 39.95 39.19 39.58 38.55 37.35 37.70 37.57 36.30 34.18 29.29 28.60 30.36 31.50 30.25 29.86 30.07 31.07 27.11 25.60 25.03 24.64 24.41 24.05 23.92 24.10 25.63 26.36 27.46 28.65 29.78 30.71 31.10 31.06 29.30 27.59
38.98 39.07 39.11 39.65 39.57 39.62 39.26 39.47 39.21 39.36 38.23 36.95 36.61 36.00 37.01 36.55 31.47 29.57 28.66 27.79 28.54 28.95 28.72 30.00 30.18 26.45 25.08 24.45 24.75 24.23 23.62 23.83 26.83 25.72 25.61 26.00 26.44 27.25 29.11 30.88 31.58 31.80 32.19
38.07 37.95 38.71 39.28 39.19 38.31 37.59 36.86 37.53 37.74 36.73 36.07 34.70 34.46 34.30 36.32 36.25 30.93 29.16 28.07 27.08 27.97 30.21 29.19 26.74 26.35 25.72 26.20 25.87 24.66 23.71 26.26 24.60 23.74 23.50 24.55 26.26 28.25 29.97 31.47 32.59 33.75 32.35
36.63 37.14 38.07 36.89 36.25 37.13 37.31 36.81 35.77 36.83 36.38 34.54 34.21 33.43 34.62 35.12 35.24 35.10 31.83 30.96 28.07 28.58 29.56 30.33 28.48 27.05 26.66 25.55 26.54 27.99 27.53 26.66 23.99 23.49 23.62 25.41 27.81 28.30 28.53 30.46 30.41 30.83 31.56
35.91 36.13 36.32 36.47 36.87 36.21 36.89 35.88 35.15 37.06 35.80 35.27 35.10 34.77 35.47 34.05 33.67 33.10 32.70 32.96 32.55 30.13 27.69 28.92 28.57 28.64 27.13 27.20 27.54 27.29 27.08 26.62 24.62 23.88 23.82 24.07 24.86 25.84 26.75 29.14 29.48 29.92 30.09
34.95 35.35 36.17 36.56 36.83 36.51 35.44 34.79 34.34 33.69 33.31 32.01 31.58 32.67 36.31 33.24 32.27 30.61 30.46 29.75 28.02 27.84 27.40 27.17 27.65 28.30 26.91 26.17 26.17 25.86 26.28 25.39 24.91 23.29 23.68 23.55 23.13 23.64 24.66 27.21 28.24 27.99 27.76
33.72 34.53 35.71 34.58 36.07 35.03 34.70 33.92 33.46 35.45 33.01 32.02 31.79 31.86 31.77 32.38 32.50 31.93 30.09 29.25 28.53 27.58 26.00 27.29 28.29 27.94 27.28 26.75 26.86 26.01 25.06 25.53 24.48 24.71 23.33 23.32 23.07 23.31 24.26 25.00 25.42 25.76 25.18
36.26 32.82 35.69 36.20 35.25 34.45 34.47 33.93 35.15 34.44 33.66 34.49 33.22 31.82 31.69 31.55 31.86 31.92 30.77 29.54 28.12 28.47 27.72 27.48 27.90 28.49 27.79 27.15 27.03 26.26 25.70 25.25 24.67 23.62 23.36 23.59 23.00 22.29 23.09 23.30 23.98 23.62 23.96
36.24 36.65 36.00 36.09 35.65 33.55 33.57 32.93 33.22 33.81 33.66 33.66 34.08 32.03 32.13 31.69 31.44 31.38 30.86 29.76 28.89 28.35 29.19 29.34 30.96 29.64 28.41 28.17 28.25 27.13 25.77 24.29 23.94 23.20 23.31 23.05 23.00 22.52 21.72 22.34 23.36 23.38 23.93
37.71 33.41 33.11 34.88 34.71 34.51 33.76 33.56 33.15 33.69 33.47 33.20 33.24 33.52 33.81 32.34 31.23 31.24 31.55 31.46 31.16 30.63 30.47 29.72 30.57 30.60 30.18 28.95 28.70 27.59 26.35 25.78 24.58 24.15 23.81 23.52 23.23 22.82 22.42 21.05 22.35 22.21 22.69
37.67 36.85 33.47 34.55 34.72 34.56 34.56 33.05 33.73 33.40 32.90 32.74 33.04 34.42 33.05 33.15 33.08 32.72 32.86 32.75 32.23 32.18 32.23 31.51 31.66 31.75 31.65 29.75 27.78 27.00 26.13 25.82 24.78 23.68 23.34 23.27 22.38 21.57 22.92 23.23 21.71 21.85 22.20
36.66 35.49 35.23 34.59 34.61 34.24 34.08 34.14 33.23 32.62 32.83 32.24 33.34 33.96 32.31 33.60 33.53 32.60 33.03 33.35 33.75 34.29 33.76 33.12 32.65 32.26 31.61 30.02 29.09 28.44 26.24 25.51 25.12 24.39 23.62 22.59 22.01 22.70 23.19 22.47 22.52 20.94 20.92
35.84 35.48 35.03 33.79 33.65 32.38 33.27 33.13 33.13 33.45 33.04 33.56 33.57 33.55 33.94 33.46 33.30 33.09 33.05 33.32 34.07 34.25 34.39 33.83 33.35 32.50 33.45 32.33 31.79 29.47 26.99 26.15 26.30 25.59 23.16 22.26 21.98 22.57 22.37 22.06 21.59 20.84 19.78
35.30 35.97 34.17 32.83 33.05 32.85 32.61 32.37 32.87 32.51 33.02 33.33 32.73 32.55 32.91 32.91 32.73 32.91 33.09 33.46 33.82 33.27 33.26 33.33 33.02 32.13 31.86 31.95 31.24 29.65 28.51 28.35 26.89 24.91 22.28 21.85 21.21 21.92 21.78 21.39 21.17 20.74 20.33
35.73 34.18 33.20 33.12 32.55 32.19 31.63 32.50 32.37 32.35 32.37 32.19 31.82 32.19 33.26 33.46 33.38 32.91 33.09 33.46 33.27 32.73 32.90 32.73 33.06 31.87 31.57 30.92 30.22 28.40 28.49 26.71 25.56 24.63 23.34 21.57 20.75 20.21 19.63 20.30 20.09 19.91 20.56
32.54 33.26 33.08 32.88 32.58 31.55 31.47 30.43 29.57 30.15 30.20 30.76 31.28 31.46 31.82 32.44 32.85 32.91 33.15 33.21 32.88 32.90 33.08 33.08 32.88 31.99 31.61 31.22 30.36 29.07 28.09 25.90 23.11 22.19 22.50 22.49 21.35 21.09 21.36 20.76 19.55 19.38 20.12

GFSGL_sfc_wetblb_027.txt.gz
Wetbulb
44.50 44.08 43.05 42.75 44.05 44.74 43.74 42.87 42.20 42.10 40.59 39.92 39.75 39.33 38.98 38.88 38.68 37.81 37.30 37.65 37.70 36.93 37.69 37.08 36.59 37.31 36.52 35.35 33.14 30.38 28.60 27.58 22.91 25.24 27.25 28.06 27.37 27.78 29.87 30.50 32.18 31.60 32.08
44.50 43.89 43.39 43.82 45.59 44.90 44.73 43.57 42.26 40.45 40.09 39.75 39.72 39.97 39.83 39.31 38.44 37.81 37.12 36.66 35.77 35.50 35.65 34.61 34.66 36.06 31.78 31.17 28.26 26.58 26.02 25.19 23.74 22.17 24.16 25.17 25.18 26.88 27.43 27.57 30.67 32.93 31.76
43.57 43.01 42.94 45.38 44.98 44.29 43.77 43.07 42.07 40.19 39.58 39.74 39.70 39.05 39.39 39.04 38.04 38.33 38.44 36.36 35.85 35.59 34.59 33.39 32.69 32.07 28.67 26.46 25.84 24.40 24.15 26.73 23.58 22.01 22.72 24.45 24.43 25.60 26.30 27.59 28.47 28.62 31.80
43.96 42.68 44.25 44.58 44.56 44.14 43.17 42.08 40.65 41.48 39.52 38.75 38.78 39.29 38.89 39.16 39.46 38.93 37.20 35.71 35.82 35.47 35.29 33.54 32.52 29.41 26.92 25.52 25.57 23.65 24.54 22.80 22.68 21.93 22.26 22.69 23.75 25.55 25.61 23.65 24.54 27.08 27.00
43.67 43.64 44.08 44.68 44.85 43.35 43.02 42.28 42.07 40.75 39.89 40.41 40.08 39.01 39.14 38.30 37.71 35.78 34.88 33.78 32.42 31.83 31.96 32.07 30.25 30.42 32.38 28.23 25.91 23.09 23.21 22.29 21.84 21.78 21.27 22.02 22.69 23.12 23.07 25.66 23.78 24.01 24.61
45.77 45.21 45.17 44.26 43.47 42.57 41.84 41.04 40.75 38.97 39.44 39.57 38.58 38.19 37.23 37.50 34.54 34.16 32.82 30.93 31.50 30.41 28.92 27.75 28.27 30.19 30.91 31.37 30.43 29.64 27.85 22.89 21.49 20.47 21.89 21.43 22.52 23.44 26.18 22.53 21.96 20.52 18.53
46.38 45.63 43.74 42.76 41.82 39.90 39.25 38.85 38.01 37.59 38.29 38.55 38.18 37.75 36.70 34.41 34.31 33.57 31.83 29.69 29.63 28.77 27.11 26.82 28.02 29.68 27.61 25.67 26.24 26.60 25.99 27.23 27.21 23.24 21.36 20.40 19.90 21.61 22.31 21.52 21.50 21.14 20.76
43.04 42.20 40.25 39.32 39.33 39.21 38.55 37.74 37.85 38.06 37.30 36.69 36.75 37.07 36.32 34.73 34.18 33.18 30.97 27.07 28.08 28.85 27.60 27.26 26.09 24.56 25.35 25.17 23.50 22.45 22.68 23.10 23.98 24.51 21.22 20.69 21.58 23.58 23.70 24.53 23.69 23.66 23.99
40.01 38.85 38.63 38.67 38.19 37.98 37.40 37.08 37.44 36.48 35.70 36.07 36.95 36.15 34.41 32.43 33.52 32.21 29.17 26.69 27.84 27.70 28.58 28.03 27.91 24.83 27.10 27.26 23.56 22.32 21.43 22.36 26.01 27.34 26.69 27.37 28.06 28.92 28.83 27.17 25.56 24.94 20.82
37.83 37.43 38.47 38.61 38.12 37.53 37.29 36.88 36.09 36.20 36.42 36.60 34.89 34.55 34.19 31.23 33.18 32.39 29.89 25.36 26.51 26.37 26.52 26.32 28.45 25.08 26.48 26.51 22.64 20.63 18.88 20.66 22.06 21.71 22.40 23.90 25.82 26.27 29.40 26.34 25.19 23.55 23.56
38.29 38.39 38.36 38.51 37.99 37.85 36.68 36.21 35.55 34.59 33.55 32.25 31.97 31.27 31.66 29.95 29.52 32.70 32.16 26.60 25.86 26.25 25.68 24.82 24.47 27.46 27.17 28.01 27.08 21.63 20.39 22.99 23.34 21.94 21.73 22.44 23.78 24.82 25.45 26.14 26.32 25.71 25.02
38.17 37.81 37.90 37.38 37.26 37.44 35.38 34.48 33.91 32.78 30.29 30.26 29.75 30.43 29.44 30.20 31.11 32.54 32.50 30.31 28.81 23.59 25.16 25.05 24.65 29.29 28.96 28.65 27.11 26.66 26.92 25.23 15.56 17.28 17.75 19.18 20.76 21.79 24.24 25.53 26.31 26.63 27.70
36.94 35.95 36.03 36.41 36.34 35.11 32.93 31.93 30.79 30.58 27.37 28.36 28.69 29.00 30.29 30.03 29.10 32.18 32.38 31.44 30.40 23.70 24.35 25.77 28.88 28.96 29.13 27.88 28.77 28.84 24.71 19.74 15.22 10.85 14.59 16.44 19.29 22.41 24.74 24.55 25.76 26.11 27.89
34.30 34.09 34.37 33.24 33.10 32.51 32.68 32.05 30.06 25.65 25.15 27.79 27.43 27.36 30.29 31.31 28.34 27.80 28.07 29.21 28.27 26.42 25.03 25.21 23.43 24.46 21.57 22.48 22.27 24.58 23.15 20.82 19.19 14.05 13.87 15.92 18.78 19.35 19.99 22.53 21.97 24.05 24.27
33.33 32.84 32.13 29.41 30.82 31.04 32.11 31.25 29.56 29.83 29.32 27.48 27.03 27.95 24.70 30.01 31.41 29.85 28.52 26.67 24.62 25.64 18.77 18.38 20.84 18.77 21.18 22.72 20.96 20.94 20.41 19.66 17.41 13.13 12.41 13.82 17.03 18.76 19.63 21.79 22.59 22.92 21.33
31.37 30.38 28.49 27.46 28.37 30.36 30.06 29.67 32.45 33.00 33.21 33.50 33.27 30.87 29.80 31.71 33.23 33.36 33.70 32.35 31.68 30.75 25.89 16.48 14.33 12.47 16.00 20.50 19.04 18.72 16.18 16.69 17.39 16.22 11.68 14.09 14.28 14.50 18.03 20.44 22.48 21.69 20.85
29.66 29.56 28.92 29.63 29.04 28.16 26.48 26.47 26.56 28.65 32.80 32.48 32.69 33.01 33.33 32.35 32.72 33.17 32.77 32.27 31.44 27.79 16.16 16.45 12.57 14.18 16.54 21.38 20.61 19.37 16.22 15.14 15.46 15.26 12.32 10.73 12.00 15.14 15.14 17.65 19.40 19.88 19.78
30.09 30.40 30.00 29.78 28.69 27.96 26.12 28.23 30.75 29.84 26.88 27.16 29.93 31.64 32.51 33.02 32.84 32.60 32.80 32.06 24.16 27.38 20.63 19.73 18.91 19.16 20.75 22.05 21.08 18.79 16.52 12.68 13.12 13.21 9.14 6.20 6.85 10.41 11.01 14.26 16.03 14.68 17.90
30.41 29.72 30.15 29.66 31.25 31.79 30.60 30.39 30.16 26.60 26.90 27.81 28.70 27.14 27.53 32.48 32.99 32.87 32.40 29.40 25.43 24.02 24.09 23.39 22.78 22.79 22.85 23.00 22.60 18.92 12.30 9.97 9.05 5.73 6.38 7.98 7.57 10.90 9.63 15.37 12.56 14.20 15.18
32.67 29.52 29.07 30.55 32.25 32.76 32.30 30.71 30.94 28.58 27.72 27.40 27.25 27.89 27.08 23.22 26.08 28.67 30.44 29.82 27.91 25.46 24.88 24.77 25.20 25.13 25.19 25.11 25.57 21.29 15.74 11.12 9.55 8.18 8.42 5.50 3.38 5.68 6.68 8.72 9.72 8.90 16.58
31.62 31.46 31.49 32.74 31.76 32.57 32.84 31.94 31.16 27.76 26.92 27.04 28.04 28.34 28.07 27.57 28.08 29.47 29.09 28.84 28.67 27.72 26.67 26.61 26.79 26.18 25.47 23.07 22.87 22.31 21.54 18.82 15.80 13.77 11.72 7.98 1.87 7.63 8.05 11.08 9.39 14.31 14.49
31.29 30.94 30.58 30.60 31.68 31.93 32.19 31.93 30.38 26.47 23.03 24.08 26.66 26.29 26.45 28.91 28.78 30.02 31.21 30.47 29.33 29.82 29.63 29.22 28.32 27.71 27.52 26.80 26.57 24.34 22.73 19.56 15.34 14.61 12.78 10.94 8.87 7.69 6.92 10.10 7.68 8.54 10.34
24.90 25.10 25.86 27.49 27.74 27.92 29.15 30.44 31.09 26.34 23.05 22.02 28.37 29.37 25.51 28.02 28.90 30.16 31.29 32.17 32.12 31.59 31.28 30.64 29.97 29.40 28.67 28.54 28.22 27.88 25.23 22.75 21.36 19.37 14.95 13.08 10.31 6.71 6.80 8.18 7.89 6.89 6.10
24.11 24.45 25.50 26.68 28.15 28.41 28.00 29.25 29.34 27.58 23.09 20.24 22.67 27.99 28.42 28.68 29.09 28.56 30.20 31.61 31.85 31.76 31.77 31.85 31.58 31.56 30.56 30.12 30.09 28.99 27.73 26.26 24.34 22.26 17.85 15.09 13.28 9.49 4.99 6.92 7.25 6.14 6.36
19.71 20.45 21.28 20.25 21.13 21.79 22.19 23.71 25.38 25.10 22.97 21.91 22.45 18.44 23.63 24.45 23.86 24.36 24.45 24.66 25.73 25.29 26.27 29.12 31.65 31.62 31.76 31.81 31.02 29.59 28.26 27.32 24.98 21.09 18.80 15.03 11.51 8.73 5.84 6.48 4.42 7.30 5.41
15.61 17.32 14.78 15.65 15.54 16.29 18.03 18.47 19.08 19.83 19.89 20.27 20.05 19.11 18.71 18.80 19.64 19.95 20.99 20.91 19.45 19.58 20.62 21.74 22.66 22.90 23.80 29.69 31.72 31.20 28.80 27.32 24.83 21.32 20.10 17.54 13.08 7.93 4.44 5.29 4.65 5.22 7.57

GFSGL_sfc_wetblb_030.txt.gz
Wetbulb
43.91 42.87 43.38 43.38 43.66 44.19 43.94 42.95 42.34 41.95 41.78 40.64 39.41 39.87 38.20 38.26 37.64 36.48 36.49 36.65 36.44 36.28 35.66 35.55 36.76 36.41 35.20 34.07 32.15 29.93 28.37 27.75 23.23 23.78 25.19 25.68 24.79 25.15 27.30 28.32 29.82 28.97 29.80
44.23 43.07 42.86 43.08 44.98 44.44 43.68 43.06 41.56 41.31 40.85 39.45 38.75 38.61 38.52 38.71 38.08 36.79 36.45 36.79 36.10 34.90 35.06 34.83 34.71 37.08 32.37 30.93 28.61 26.70 25.38 24.88 23.38 21.14 22.18 22.64 23.39 24.46 25.61 25.43 28.62 30.82 29.35
45.34 43.15 42.24 43.15 44.24 43.52 43.57 41.56 40.80 39.02 38.82 38.36 38.06 38.01 38.27 38.43 38.37 38.41 37.24 36.08 34.54 34.96 34.96 33.22 32.80 32.24 29.72 27.83 26.25 24.77 23.68 26.45 22.98 21.60 21.38 22.71 22.81 24.03 24.62 25.86 26.20 26.35 30.04
44.28 42.37 42.46 44.36 44.58 42.02 42.43 40.39 39.68 39.28 39.76 38.44 38.26 38.15 39.05 37.73 38.25 38.36 36.28 34.82 34.65 34.76 35.00 33.31 31.82 30.19 27.45 25.90 24.82 23.27 23.70 22.20 22.51 21.55 21.63 21.93 21.93 24.11 23.89 23.14 24.17 25.94 25.05
43.85 42.55 43.37 44.56 43.76 42.84 40.27 39.32 39.84 39.45 39.19 38.83 38.11 38.60 38.63 38.11 37.70 36.64 35.37 33.26 31.48 31.01 31.19 30.79 29.43 30.16 32.59 27.96 25.13 22.89 22.70 22.00 21.46 21.28 21.00 21.34 21.69 21.85 21.84 23.82 24.03 22.87 23.35
44.05 43.75 44.77 44.45 43.23 41.94 40.71 39.51 37.41 38.14 38.38 38.53 37.87 37.29 36.00 37.38 36.02 36.20 33.46 30.48 31.26 30.15 28.40 27.35 27.47 30.63 31.22 31.25 30.42 29.24 26.24 21.56 20.25 19.53 20.54 19.64 19.72 19.79 21.36 20.81 20.97 19.96 19.06
44.02 44.84 43.36 41.99 39.77 39.07 38.90 38.19 37.80 37.88 37.87 37.46 36.50 36.68 36.48 35.95 35.27 35.16 33.73 29.94 28.96 27.92 27.39 26.76 27.48 29.23 28.39 26.12 26.92 26.25 25.14 25.96 25.16 21.66 19.00 19.17 18.73 20.09 20.53 20.65 21.44 21.49 21.30
41.62 40.69 39.99 39.19 38.13 38.25 38.27 38.19 37.97 37.57 36.69 35.84 35.70 36.35 35.83 35.20 34.85 34.66 32.38 27.55 27.53 28.37 27.63 26.93 25.96 25.37 25.33 25.07 23.51 22.77 22.71 22.71 23.13 23.67 21.49 20.63 21.20 22.99 24.18 25.41 25.37 25.55 25.25
37.35 37.79 37.87 37.57 38.36 38.79 38.42 37.63 37.25 36.82 35.19 34.99 35.73 35.66 34.40 33.05 34.51 33.61 30.40 26.16 27.17 28.06 28.57 27.85 27.26 24.95 27.12 28.60 24.00 22.92 21.65 21.92 25.48 26.73 26.88 27.39 27.46 27.67 28.02 26.31 23.11 22.31 20.46
37.13 38.30 39.26 39.32 38.29 37.69 37.59 36.55 36.27 35.29 34.72 34.22 33.37 33.09 33.35 31.10 33.87 33.78 31.02 25.42 26.43 26.45 26.71 26.46 29.47 25.97 28.14 27.66 23.07 21.56 18.85 20.68 21.66 22.22 22.62 23.21 24.55 24.72 27.44 24.99 24.48 21.75 21.59
40.08 40.17 39.70 39.20 38.38 37.88 37.05 35.32 33.76 32.36 31.17 29.41 29.68 29.96 30.23 30.47 29.68 33.92 33.25 26.50 26.75 26.30 26.40 25.15 25.12 28.68 28.42 28.51 28.47 22.31 20.14 22.88 22.94 22.99 21.68 21.42 22.00 23.05 24.16 24.80 24.82 23.77 22.28
39.24 38.67 38.28 37.35 36.48 35.88 33.40 31.85 31.76 30.10 28.34 28.53 25.83 28.12 28.35 30.60 31.72 32.79 33.60 31.23 28.86 25.44 26.17 26.17 25.45 28.90 29.30 29.42 27.89 27.67 28.20 25.47 17.52 16.58 17.07 18.34 18.86 19.92 22.49 23.70 24.71 24.87 25.26
35.58 34.30 34.33 34.54 34.42 33.72 30.79 29.75 28.95 28.59 25.32 27.36 27.46 25.52 27.04 29.11 30.63 32.50 33.02 32.83 30.86 25.83 26.76 26.97 27.77 29.21 30.11 28.26 29.15 28.89 24.80 20.38 14.89 10.08 15.75 15.67 17.33 20.27 22.92 22.77 24.13 24.35 25.15
32.85 32.76 32.65 31.47 31.14 30.80 30.59 30.37 29.42 25.52 25.39 27.46 27.23 26.78 26.26 27.11 27.84 27.79 30.49 31.35 30.48 27.79 26.25 27.30 25.11 24.92 21.17 21.62 21.51 24.53 23.04 20.92 19.11 15.92 13.43 14.47 16.91 17.68 17.99 20.44 20.58 22.28 22.31
31.97 31.40 30.73 28.31 29.66 29.84 30.31 30.13 29.44 29.32 28.43 26.76 26.54 26.40 23.89 25.20 27.81 30.88 28.68 28.64 29.17 28.07 25.46 20.55 19.91 19.56 21.33 22.13 20.85 21.60 20.92 19.15 16.89 12.59 11.90 13.03 14.89 17.13 17.70 19.53 19.56 20.91 18.33
31.01 30.28 28.32 27.30 27.41 29.10 28.80 29.28 31.78 32.23 32.43 33.00 32.79 29.85 28.70 30.68 32.17 32.97 33.70 32.67 31.81 30.08 24.82 23.58 22.77 19.90 19.62 20.98 18.55 18.85 16.66 16.47 17.66 15.95 11.43 13.15 12.74 12.52 15.18 18.57 19.50 17.55 18.47
29.75 29.72 28.61 28.33 28.28 28.21 28.31 28.14 28.12 30.83 32.30 32.82 32.98 32.77 32.69 32.44 32.95 32.88 33.84 33.27 32.74 30.90 27.16 26.04 24.89 19.82 18.61 19.56 19.75 19.46 18.69 16.05 16.10 16.42 15.51 10.18 9.34 12.65 12.29 14.95 15.92 16.88 17.60
30.12 29.45 29.05 29.47 29.40 29.47 28.89 29.15 28.96 29.59 29.06 25.97 28.59 30.93 31.64 32.32 32.80 33.13 33.05 32.96 30.28 30.27 25.19 23.52 20.37 18.81 18.71 20.30 20.27 18.91 18.37 14.14 14.45 14.38 10.75 5.05 2.11 8.06 9.10 10.85 13.69 8.52 14.25
30.71 28.39 27.91 31.25 31.39 31.17 31.25 31.11 30.47 30.83 31.09 29.99 28.36 25.80 25.78 30.91 31.67 32.39 32.78 31.11 29.20 26.70 26.61 24.71 23.15 21.72 20.86 21.51 21.53 18.39 15.63 14.78 14.22 9.14 7.47 6.58 1.40 8.40 7.80 9.32 8.95 10.54 9.62
28.75 28.10 27.73 29.83 29.35 29.53 30.50 30.46 30.57 30.98 30.64 30.41 27.75 29.41 27.67 21.01 26.69 26.88 25.74 30.12 29.97 27.32 27.08 26.73 25.62 24.45 23.36 22.33 22.15 22.27 19.41 18.66 16.57 11.29 7.73 4.55 0.74 3.58 5.04 5.00 4.74 10.28 12.62
22.84 23.77 23.38 24.91 24.91 25.49 26.66 29.00 28.78 28.63 29.65 29.95 29.52 29.89 24.61 24.62 27.12 24.69 25.68 27.34 29.89 30.00 28.65 27.38 26.95 25.98 26.14 25.05 24.58 23.05 22.16 21.75 20.79 17.88 14.44 10.65 1.47 5.32 6.40 4.69 6.45 15.20 13.01
21.99 22.89 23.58 24.31 24.79 24.16 25.05 26.06 26.40 26.79 26.43 27.54 29.68 27.03 24.09 22.92 26.23 27.99 28.03 28.78 29.35 29.39 30.36 30.05 28.51 27.45 26.73 26.22 24.91 23.66 22.06 22.35 21.07 19.15 15.96 11.77 10.49 8.90 4.86 6.03 4.69 4.85 8.20
19.34 18.36 19.24 20.18 20.12 20.12 20.37 21.53 23.00 23.04 25.10 27.42 26.20 25.35 26.68 27.55 27.79 27.67 27.89 28.39 28.91 29.00 31.39 30.80 29.97 28.88 28.13 28.34 28.75 27.22 24.15 23.26 24.03 21.91 18.92 13.57 11.37 9.24 4.37 4.69 5.25 4.11 4.06
14.77 15.42 13.76 13.72 14.68 13.73 15.54 16.42 17.71 17.98 19.83 20.57 21.15 21.20 20.87 21.27 20.60 20.53 20.66 18.78 21.27 21.69 22.73 23.84 25.30 29.53 29.85 28.86 28.83 28.68 28.53 27.66 27.00 24.08 22.89 18.05 15.43 11.05 4.29 4.37 5.12 3.50 2.80
10.28 11.16 8.63 9.99 8.75 9.78 11.80 11.29 12.24 13.68 14.48 14.58 14.64 15.02 16.24 16.98 17.53 16.66 15.55 17.54 15.59 16.61 18.54 19.96 21.01 21.07 23.00 20.85 27.09 29.58 29.04 28.00 27.55 26.41 23.45 20.36 16.86 11.89 9.80 8.18 5.07 5.18 2.92
8.96 10.29 7.53 7.34 6.62 7.80 8.09 7.24 8.97 9.13 8.76 10.33 11.47 12.13 12.50 12.38 12.96 12.49 13.07 13.70 12.03 13.12 14.94 16.99 18.17 18.54 19.22 19.49 20.45 22.32 28.03 29.05 27.24 25.97 23.94 21.33 17.59 14.01 9.88 9.95 8.60 4.54 5.40

GFSGL_sfc_wetblb_033.txt.gz
Wetbulb
45.03 44.11 43.32 42.59 43.01 42.38 42.65 42.41 42.34 42.52 41.76 41.47 41.24 39.99 38.35 37.41 37.73 37.00 36.20 35.77 35.17 34.74 34.75 33.95 34.73 35.46 35.02 34.04 33.11 30.92 28.81 28.28 25.44 24.17 24.64 24.64 23.77 23.72 25.25 25.73 27.74 27.01 27.63
44.89 44.17 43.73 42.81 42.64 43.24 42.93 42.49 42.17 41.55 40.98 40.79 39.27 38.12 37.70 37.56 37.41 36.29 35.04 35.87 34.91 33.26 33.77 34.00 34.17 36.47 33.12 31.28 29.39 27.83 25.98 24.71 23.32 21.00 21.88 22.33 22.61 23.43 23.91 23.97 27.01 29.26 26.98
45.07 44.36 42.13 42.92 43.67 43.22 42.68 42.30 40.58 38.89 38.94 38.19 37.57 37.29 37.50 38.00 37.67 36.39 35.49 35.21 34.07 33.39 33.65 32.99 32.37 31.85 29.13 27.98 26.52 25.04 23.75 25.68 23.12 21.41 21.39 22.31 22.42 22.99 23.44 24.54 25.12 25.83 28.36
45.47 43.84 43.07 43.57 44.08 43.45 43.33 41.79 40.93 40.09 38.81 38.34 38.46 38.68 38.37 37.58 36.84 36.68 35.98 34.25 33.55 33.66 33.84 32.92 32.07 30.29 28.36 26.21 25.21 23.72 23.39 22.12 22.18 21.21 21.36 21.42 21.54 23.11 22.85 22.24 22.23 24.55 24.32
44.27 43.37 44.16 44.16 44.56 43.34 42.25 41.06 40.38 39.94 39.67 39.38 38.93 38.81 38.68 38.06 36.85 35.97 34.83 33.42 31.92 31.15 31.00 30.55 29.27 29.54 31.79 28.18 24.97 22.88 22.30 21.36 21.03 20.34 19.81 20.18 20.61 20.05 19.61 20.71 20.13 21.31 22.80
44.15 43.90 43.85 43.97 41.89 41.36 40.12 39.09 38.42 38.34 38.76 38.89 38.54 37.92 37.11 36.73 36.54 36.64 34.51 31.27 30.74 29.19 28.24 27.88 27.44 31.65 32.24 32.34 31.75 30.01 25.58 21.72 19.92 18.60 19.09 18.71 18.37 18.85 19.03 18.92 19.32 19.60 18.90
44.12 44.05 41.98 39.94 38.54 38.27 38.77 38.63 38.31 38.39 38.59 37.57 36.79 36.25 35.98 36.03 36.23 36.72 35.22 30.02 28.88 28.00 27.58 27.11 27.02 28.18 29.45 27.97 29.99 28.52 27.16 26.97 26.39 20.60 18.43 18.56 18.34 19.65 20.04 20.24 21.12 22.00 21.64
39.42 38.64 38.82 38.57 38.45 38.83 38.77 38.64 38.56 38.31 37.57 36.84 35.62 35.30 34.87 34.74 35.65 35.80 34.32 28.56 27.44 27.45 27.69 26.85 26.01 25.88 26.53 25.63 24.03 23.03 23.03 23.45 23.25 23.10 21.00 20.75 20.89 22.05 22.41 23.99 25.15 25.06 24.19
37.35 38.87 39.43 39.65 39.29 39.16 38.31 37.88 37.89 37.42 36.55 34.73 34.87 32.94 31.69 31.41 34.49 34.96 32.56 26.79 26.59 27.10 28.44 27.64 27.06 25.83 28.15 30.14 24.51 23.34 22.76 22.91 25.65 27.02 27.17 27.37 27.48 27.27 26.24 22.83 20.81 20.78 18.90
38.30 39.20 40.04 39.67 38.92 37.72 37.65 37.32 36.53 35.90 34.44 33.00 31.34 30.76 31.87 30.56 33.02 34.79 33.22 26.07 26.27 26.60 26.86 27.29 31.10 27.45 28.67 29.75 24.07 22.17 20.18 21.81 21.64 21.71 22.55 23.65 24.34 24.04 26.12 23.60 22.40 20.16 19.64
40.93 40.77 39.91 39.51 38.45 38.31 37.30 36.56 34.96 32.42 30.69 28.87 28.82 29.03 29.26 29.90 30.13 33.31 34.83 28.31 27.44 26.95 26.90 26.05 26.23 30.08 29.50 29.73 28.83 23.33 21.71 22.84 22.32 22.30 22.65 21.71 21.90 22.24 22.76 23.44 23.44 21.91 20.43
39.68 38.90 38.43 38.11 37.04 35.78 33.47 32.05 31.01 29.66 28.09 28.06 25.82 27.69 27.75 28.87 31.63 32.26 33.89 33.75 30.15 27.80 26.52 27.24 26.81 29.50 30.38 29.73 28.63 28.31 28.35 25.37 19.35 18.01 17.00 18.12 18.09 19.06 21.20 22.49 23.31 23.29 23.94
34.25 33.38 33.12 33.17 33.18 32.55 30.92 29.65 28.69 28.21 26.00 26.75 27.28 26.94 27.00 28.12 27.69 31.83 33.18 33.04 32.71 29.16 29.16 27.81 29.02 29.77 30.42 29.17 29.97 29.88 25.54 20.66 15.93 10.43 16.71 16.02 16.52 19.64 21.98 21.96 22.99 22.87 24.08
31.49 31.39 31.49 30.76 30.69 30.67 30.40 29.89 28.68 26.13 25.57 27.85 27.68 26.87 26.11 26.65 26.08 26.44 27.61 28.44 30.65 31.40 29.33 28.70 28.10 27.77 25.43 26.10 22.67 25.71 22.80 21.40 19.36 16.46 14.48 13.80 15.80 16.62 16.42 19.14 18.21 19.79 20.08
31.17 31.01 30.71 28.67 29.12 29.18 29.56 29.65 29.44 29.29 29.25 28.21 27.66 26.93 24.68 25.75 27.07 29.24 28.70 26.56 27.88 30.30 29.72 26.59 25.36 24.46 23.83 23.94 21.85 22.53 20.69 19.36 17.12 13.17 11.32 12.59 15.57 15.98 15.99 17.22 17.64 16.83 13.27
30.30 29.88 28.70 28.26 28.42 28.75 28.52 28.99 31.80 32.36 32.21 32.68 32.15 30.61 30.17 31.08 31.59 32.30 32.84 33.14 33.05 31.76 27.62 23.21 23.66 23.27 23.05 22.74 21.31 21.38 17.79 17.32 18.46 16.59 10.70 13.25 14.62 11.79 13.85 16.65 17.30 14.14 14.11
28.71 29.87 28.98 28.44 28.21 28.01 28.46 28.70 29.37 31.24 32.77 32.79 32.83 33.12 33.31 32.79 32.56 32.69 33.03 33.17 32.93 31.60 27.62 23.86 24.06 24.44 23.39 22.63 22.04 20.83 19.53 18.58 17.42 16.34 15.28 13.60 11.53 11.25 11.05 13.33 13.49 14.12 13.84
28.88 28.60 27.13 27.33 27.04 27.31 27.29 29.20 29.64 29.07 28.52 29.12 31.91 31.27 32.07 32.72 32.42 32.66 32.73 32.05 29.94 31.03 30.20 27.47 26.39 26.53 25.27 22.25 21.44 20.77 20.15 16.78 13.43 14.35 12.66 11.34 9.22 8.05 8.20 10.15 11.30 6.49 11.50
24.59 24.77 24.26 24.07 24.54 24.74 25.24 25.11 25.85 26.56 27.23 28.81 29.82 28.38 28.86 30.80 31.64 31.85 31.83 28.82 28.70 28.64 28.62 28.15 26.42 25.35 24.27 23.31 22.79 21.80 19.84 15.76 11.22 8.19 12.97 13.48 8.19 9.82 7.37 8.83 6.86 8.48 7.93
21.76 21.92 21.36 22.92 23.05 23.24 23.33 23.24 23.83 24.20 24.19 24.33 25.25 26.23 28.76 24.35 23.50 27.54 20.73 20.68 28.82 28.69 28.76 27.00 26.49 25.99 25.56 24.35 23.23 22.35 19.28 16.15 13.26 13.73 13.63 13.40 9.95 8.03 7.67 5.57 1.18 5.04 11.64
20.74 20.84 19.31 21.40 20.59 20.29 19.80 19.85 20.80 21.39 20.77 20.95 24.21 26.94 27.21 27.68 28.33 27.45 27.86 22.76 24.88 28.30 29.42 28.06 27.77 27.77 26.83 25.89 24.65 22.90 22.04 20.73 19.77 18.12 17.04 16.09 9.66 7.68 8.79 5.17 2.92 8.76 12.22
17.29 17.29 17.19 16.03 17.35 15.48 15.37 17.54 17.58 17.29 18.10 18.52 18.22 18.91 19.79 22.37 23.88 24.55 26.94 27.02 27.80 27.26 27.59 26.17 28.76 28.76 27.99 27.02 26.10 24.89 23.17 22.52 21.50 20.07 17.93 17.75 15.00 12.67 8.77 4.13 2.32 3.23 6.82
13.68 12.46 11.05 13.04 11.66 9.87 11.28 12.39 11.61 12.68 13.49 13.58 14.25 15.31 16.02 16.38 17.30 17.43 17.83 19.58 19.37 18.16 19.75 21.47 21.85 22.67 26.73 28.48 28.24 27.27 25.20 24.09 24.62 23.27 20.41 17.87 16.34 14.20 9.43 4.69 4.44 2.14 2.92
9.59 5.45 7.95 7.85 6.68 6.47 7.30 5.49 7.09 9.49 8.46 8.64 9.39 11.32 12.62 13.05 13.51 13.53 14.10 16.09 14.43 13.23 14.41 15.80 18.47 20.18 20.38 21.57 23.29 28.73 27.70 27.08 26.75 24.94 23.73 20.51 18.22 14.54 11.51 4.28 5.43 2.63 1.37
2.30 -1.30 -0.67 3.12 -1.48 2.02 3.29 2.06 3.00 5.43 3.36 4.00 5.24 6.78 8.40 9.75 10.74 11.27 11.75 13.05 12.30 11.17 10.57 11.78 13.94 16.50 18.81 18.81 19.91 20.67 21.45 27.61 27.72 26.09 24.70 23.23 20.27 16.75 14.65 10.34 5.23 4.10 0.96
2.82 1.44 0.18 -0.77 -1.12 -1.15 -0.45 -1.71 0.10 1.00 -0.40 1.92 3.09 3.29 4.69 6.06 8.17 9.09 10.01 10.91 9.93 9.70 10.25 10.08 11.03 11.16 14.45 17.43 19.21 20.70 20.40 21.19 25.03 27.15 25.02 23.72 20.99 18.09 14.77 13.16 9.91 8.94 6.05

GFSGL_sfc_wetblb_036.txt.gz
Wetbulb
46.63 45.56 45.16 45.79 47.34 47.14 45.85 43.63 42.86 41.97 42.85 42.60 41.08 40.51 39.80 38.97 38.24 36.43 36.85 36.24 35.53 35.17 35.00 35.27 34.62 34.67 34.95 34.53 33.38 32.26 30.58 30.28 27.86 28.73 26.89 26.80 25.95 26.06 26.77 26.92 28.03 27.71 28.63
46.12 45.72 45.88 45.77 45.32 44.56 43.40 42.19 41.62 42.04 42.57 41.28 40.85 39.53 39.40 38.46 37.32 36.18 36.07 36.34 35.31 34.30 34.20 33.25 34.26 36.17 33.69 32.83 31.21 29.73 28.12 27.04 25.16 22.92 23.70 24.19 24.39 25.43 25.24 25.20 26.65 28.52 28.68
46.00 46.10 46.23 42.99 43.45 41.37 41.49 42.21 41.72 41.04 40.08 39.50 39.80 39.32 38.83 37.94 37.70 37.63 35.89 35.30 34.82 34.19 33.29 32.71 32.53 31.73 30.77 29.46 28.42 27.33 25.88 26.49 24.58 23.01 22.46 24.11 24.36 24.69 24.67 25.55 25.81 26.83 27.87
45.11 44.41 41.88 43.54 43.26 42.61 41.56 40.77 40.46 40.44 39.45 38.06 39.40 38.93 38.42 38.07 38.07 37.25 36.02 34.88 34.45 34.00 33.36 32.91 32.50 31.18 30.00 28.81 27.45 25.96 25.01 23.51 23.05 22.34 22.30 22.48 22.69 24.03 24.05 22.73 22.11 24.30 24.02
43.91 42.13 42.00 43.45 42.14 40.98 41.01 40.44 40.21 39.69 39.22 39.29 38.86 39.30 39.32 38.90 37.58 36.75 35.44 34.26 32.91 32.04 32.27 32.00 31.65 31.75 33.39 29.54 26.44 24.97 23.36 22.40 22.29 21.98 20.79 20.94 20.67 20.46 20.01 21.91 20.31 22.17 23.51
43.10 42.13 42.59 41.96 41.10 40.95 40.53 39.29 38.39 38.74 39.18 39.79 39.28 38.42 38.04 37.69 36.55 36.87 35.46 32.76 31.62 30.49 29.67 29.29 28.64 32.37 32.80 34.31 33.56 30.11 25.80 23.25 21.89 20.18 20.13 19.17 19.21 19.77 21.39 20.14 20.32 20.10 19.13
42.33 42.12 40.62 40.16 38.82 38.03 38.16 39.49 39.40 38.90 39.20 38.65 38.09 37.77 37.30 36.39 35.97 36.85 36.26 31.76 30.42 29.54 28.84 28.42 27.82 27.95 29.97 28.51 31.42 31.64 29.73 29.03 27.18 22.95 20.13 19.72 19.20 21.25 21.46 20.63 21.42 21.83 22.07
37.44 37.87 38.90 39.52 39.79 40.12 39.48 38.73 38.63 38.92 38.34 38.03 37.20 36.90 35.59 35.05 35.10 35.47 35.08 31.89 29.65 29.08 28.38 27.85 27.10 27.04 27.32 27.27 26.39 24.86 24.51 24.47 24.75 24.38 21.90 21.40 22.00 22.87 22.99 23.48 23.08 23.44 24.03
37.87 38.80 40.01 40.37 39.46 39.02 38.50 38.18 38.24 38.14 37.38 37.00 36.24 34.74 32.33 31.10 33.65 34.45 33.81 30.00 28.14 27.90 28.41 28.75 27.83 26.87 28.81 31.31 25.69 24.04 23.78 24.31 27.25 28.07 27.49 27.41 27.90 27.84 27.24 24.16 20.85 20.23 18.54
38.71 39.63 40.13 39.96 39.54 38.54 37.89 37.64 37.68 37.47 36.33 34.10 32.59 31.20 31.48 30.12 32.32 33.95 33.59 27.67 27.16 28.79 28.76 28.91 31.39 28.53 29.90 30.73 27.09 23.90 21.60 23.38 23.52 22.63 23.05 24.24 26.08 24.90 26.73 24.48 22.64 19.37 19.17
39.63 40.07 39.99 39.81 39.41 39.36 38.40 37.01 35.21 33.52 31.46 29.95 29.51 29.29 29.07 29.61 29.95 33.21 34.30 29.54 28.90 28.63 28.49 28.60 28.42 30.60 31.96 31.19 30.57 24.61 23.15 24.56 23.27 22.39 22.67 23.29 23.77 23.59 23.68 23.98 24.01 22.14 19.86
39.54 39.01 38.32 36.99 35.32 34.49 32.47 31.53 31.36 29.95 28.63 28.45 26.41 28.03 28.47 29.15 31.01 31.74 33.36 33.58 31.51 27.77 27.71 27.85 28.32 30.47 31.38 31.44 30.29 28.99 27.99 25.75 23.09 21.81 20.71 21.08 21.11 21.04 22.43 23.05 23.71 24.24 24.10
32.61 31.76 31.37 31.60 31.60 30.55 30.04 29.38 29.07 28.33 25.63 27.17 27.71 27.94 28.68 29.01 27.92 31.24 32.31 32.74 32.81 30.16 28.99 29.26 30.92 31.39 31.54 30.75 30.67 29.72 27.84 25.58 22.20 20.24 19.85 20.27 20.09 21.75 22.78 22.75 23.72 23.50 23.73
30.28 29.97 29.89 29.69 29.94 29.27 29.51 29.42 28.21 26.44 25.89 28.04 28.13 28.14 28.57 28.37 26.77 27.83 27.52 26.50 27.87 29.38 28.97 30.87 30.76 29.80 29.31 29.75 27.98 29.46 28.57 26.04 23.53 21.27 19.37 18.92 18.33 18.69 19.55 20.85 19.82 20.80 20.06
30.28 30.08 29.71 27.93 27.99 28.56 28.61 28.51 28.71 28.83 29.42 28.75 28.79 28.91 28.83 28.35 30.19 30.62 29.33 26.08 25.30 26.96 25.21 30.72 29.24 26.82 26.55 25.97 26.14 26.09 26.01 24.04 21.32 19.32 16.90 17.15 17.35 18.20 18.77 19.61 19.39 19.11 17.09
29.10 28.89 27.20 26.70 25.95 27.59 27.39 27.77 31.17 32.15 32.48 32.68 32.78 31.81 31.62 32.47 32.61 33.04 33.03 33.03 32.90 31.92 28.68 27.95 25.07 25.91 24.95 25.05 24.98 24.74 24.63 23.86 23.10 20.72 17.55 17.14 16.98 16.95 17.21 18.15 18.92 17.46 16.49
26.59 27.17 26.49 25.74 25.56 25.71 25.87 25.35 23.36 26.58 29.91 30.55 30.93 31.61 32.51 32.74 32.82 33.37 33.80 33.14 32.26 31.54 29.25 28.81 26.79 26.47 24.92 25.52 25.39 24.52 23.76 22.92 22.45 20.98 19.47 17.04 16.18 15.90 15.19 16.49 17.03 16.55 16.26
23.36 23.19 21.93 22.00 21.98 22.05 20.94 22.37 22.26 22.04 21.47 23.13 27.27 28.40 29.29 30.18 30.75 31.89 32.30 32.57 29.64 26.79 29.05 28.23 28.05 27.49 26.69 25.89 25.34 24.72 24.15 22.77 19.28 19.29 16.37 15.44 13.52 15.08 14.25 14.92 15.99 12.85 14.41
22.08 20.87 20.72 19.64 19.64 20.22 20.56 20.93 21.25 20.71 20.99 20.65 21.19 22.66 21.29 22.56 26.13 29.45 30.04 29.90 27.99 27.27 27.72 28.04 28.95 28.51 27.89 27.13 25.93 25.23 24.51 22.28 19.03 14.82 16.67 14.74 12.29 14.68 12.91 14.19 13.98 9.94 10.73
20.17 19.63 17.87 19.78 18.68 17.91 17.09 17.45 17.77 18.16 17.86 18.08 18.08 17.78 17.96 18.14 17.55 18.10 24.65 24.13 26.65 27.27 28.79 28.29 28.15 28.32 27.69 26.07 25.29 24.97 24.32 22.53 18.73 15.79 15.08 15.52 14.59 14.52 14.27 13.50 11.04 11.83 15.65
17.25 17.35 14.33 15.03 15.12 14.47 13.28 13.93 14.23 13.31 12.99 14.03 13.48 14.24 14.98 16.13 16.24 16.50 17.19 17.88 16.89 18.56 22.61 25.23 27.39 26.00 27.71 27.52 26.76 25.25 24.09 22.78 21.69 19.35 18.45 16.18 14.83 15.37 14.78 14.40 12.45 12.38 14.68
14.10 12.85 12.81 12.52 11.77 9.52 9.40 10.96 8.90 9.67 10.16 8.64 8.74 10.22 10.86 12.53 12.92 14.18 14.36 15.24 16.06 16.03 16.55 17.23 18.82 20.93 21.87 21.83 26.87 26.02 24.49 23.38 22.65 21.05 19.54 17.28 16.43 16.53 16.57 13.36 10.40 11.19 13.83
11.54 6.15 7.74 9.52 6.65 4.34 4.25 5.02 4.03 5.75 5.50 4.02 4.61 6.18 7.53 7.11 8.34 10.35 11.28 12.07 14.08 13.49 13.99 14.00 13.90 15.14 18.66 19.37 21.38 22.78 26.20 24.95 24.91 23.92 20.28 18.24 17.55 17.02 16.78 14.10 11.70 10.21 11.50
7.69 1.39 4.72 2.16 -1.37 -0.00 -6.03 -6.94 -3.92 0.83 2.42 0.52 0.50 2.29 3.09 3.97 4.86 6.56 8.28 9.80 11.33 11.67 12.15 12.25 12.58 12.39 12.67 14.61 18.30 20.72 22.01 23.58 27.70 26.51 24.01 21.08 19.56 18.76 17.45 14.71 12.35 10.86 11.17
0.87 -6.22 -6.04 -4.77 -10.02 -9.84 -10.75 -7.18 -7.71 -6.77 -5.58 -3.92 -2.13 -0.06 1.09 2.15 3.85 4.70 5.36 6.67 7.68 7.84 8.76 10.68 11.45 11.06 9.32 9.36 11.58 17.34 20.42 21.19 21.78 26.60 25.99 24.32 22.24 19.26 18.03 17.32 14.56 12.62 9.35
-0.65 -2.67 -4.43 -7.30 -9.84 -12.20 -14.74 -13.65 -11.52 -10.20 -9.33 -6.09 -4.11 -3.23 -2.17 -0.28 1.73 1.89 4.09 4.50 4.28 4.45 6.50 8.55 9.96 10.40 9.63 9.82 13.11 16.94 18.15 19.48 20.27 21.40 25.70 24.85 22.45 19.50 18.52 17.77 14.86 14.77 12.77

GFSGL_sfc_wetblb_039.txt.gz
Wetbulb
59.22 58.45 57.83 55.97 55.54 53.38 51.02 50.01 47.67 47.00 46.89 45.72 46.36 43.56 42.20 44.23 44.28 43.95 43.10 43.03 42.77 43.45 43.00 42.60 42.36 42.64 41.87 41.93 42.27 41.51 39.92 38.34 34.62 36.25 37.60 37.18 35.42 34.61 34.77 34.71 33.57 33.12 33.49
57.05 54.84 55.03 54.21 51.90 50.90 50.15 49.11 47.69 46.96 46.32 45.96 44.58 42.41 42.25 43.61 43.60 42.71 42.04 41.26 41.60 41.56 41.77 41.66 41.28 40.65 41.18 41.63 40.95 40.06 38.89 38.82 35.91 33.03 35.27 33.81 32.90 33.97 33.35 31.87 31.51 32.13 32.80
52.31 52.33 51.62 50.50 50.88 50.99 50.58 49.96 47.93 46.64 45.60 43.31 41.96 41.28 43.35 43.69 42.73 41.52 41.15 42.65 41.30 41.41 41.57 40.99 40.86 40.89 39.99 40.38 39.85 38.59 38.02 36.27 35.38 33.12 32.16 33.30 32.62 32.76 31.35 31.36 31.02 31.68 31.47
50.76 50.60 50.39 49.62 50.00 49.62 47.25 45.82 44.29 43.96 42.20 43.65 42.33 41.86 42.17 41.06 42.30 41.91 41.54 41.28 41.04 40.83 41.15 40.57 40.84 40.13 39.67 39.54 38.33 37.54 36.38 34.88 33.78 31.79 31.07 30.92 31.24 31.65 30.29 28.07 28.22 30.35 29.71
48.88 48.50 47.84 47.91 47.18 46.11 44.75 42.67 42.40 41.89 41.51 41.14 41.65 42.09 41.64 41.37 41.26 40.65 41.14 41.41 40.58 40.22 40.35 40.01 40.10 39.95 38.44 38.19 37.17 36.96 35.16 33.09 32.08 30.73 29.91 29.92 29.32 29.07 27.07 28.10 26.95 28.06 29.33
48.26 46.67 46.45 44.80 43.69 42.77 41.78 40.96 40.11 40.11 41.62 42.18 40.37 40.61 40.34 41.15 37.67 37.42 37.75 39.58 39.82 38.78 39.09 39.69 39.60 36.93 36.85 35.33 33.99 33.05 33.44 33.03 31.02 30.22 29.44 27.94 28.35 28.25 27.82 27.07 26.37 25.24 24.02
46.19 45.36 44.44 42.32 40.29 40.20 40.72 41.05 40.16 40.98 41.32 40.30 40.57 41.42 40.78 40.09 37.55 37.18 36.20 38.70 39.36 39.49 39.08 38.90 38.15 35.96 34.44 36.07 33.91 33.75 31.55 29.91 30.21 31.91 28.78 28.89 28.20 27.71 27.72 26.31 26.67 26.10 25.60
42.32 41.80 42.28 41.99 40.99 41.00 40.78 41.41 40.20 40.68 40.70 40.89 41.82 40.03 38.67 38.77 36.01 35.23 34.41 38.57 38.55 38.53 38.86 38.78 38.12 37.52 36.35 34.62 33.75 33.34 33.50 33.24 32.10 30.60 30.83 30.69 29.70 29.15 28.73 27.96 27.27 27.14 27.92
41.49 41.71 42.03 41.61 41.91 41.90 40.01 40.59 41.95 41.15 41.74 39.81 38.51 38.00 39.35 38.78 34.75 34.16 34.65 36.97 37.03 37.15 37.53 37.38 36.77 36.06 34.58 32.48 31.98 31.54 31.84 31.60 30.79 29.54 29.73 29.35 27.61 27.89 28.89 28.77 26.03 25.05 23.69
41.72 42.25 43.00 43.32 42.88 41.73 41.68 40.30 39.17 38.69 38.38 39.49 38.66 38.67 36.63 36.86 34.85 33.85 34.66 36.72 35.19 35.17 36.41 35.93 32.77 34.39 32.83 31.81 32.58 31.74 29.93 30.91 30.87 29.94 29.77 28.87 28.91 29.45 28.40 29.16 28.13 24.35 23.90
42.33 42.50 41.75 41.16 40.08 39.46 39.41 40.23 39.60 38.87 38.08 37.34 36.05 37.20 36.96 36.23 36.51 34.03 34.17 35.59 35.40 34.89 34.52 34.78 35.64 32.26 32.34 32.33 32.22 32.36 31.72 32.17 29.85 29.53 29.02 28.85 29.15 29.72 30.00 30.15 29.63 27.36 24.51
38.88 37.28 37.23 37.66 36.93 36.88 37.02 37.21 36.97 36.63 35.60 35.38 34.75 35.20 36.51 36.34 34.12 34.39 33.76 33.61 34.65 34.65 34.05 35.37 35.75 32.79 32.14 32.29 32.32 32.26 31.20 29.13 30.46 29.62 28.52 27.45 28.08 28.48 29.58 29.99 29.65 29.04 28.78
35.71 35.08 35.21 35.28 35.18 35.33 35.38 35.33 35.07 35.30 34.29 33.88 33.44 33.82 34.72 35.88 36.58 34.10 32.69 32.64 32.52 33.97 36.13 35.23 33.01 32.28 31.67 31.11 31.73 32.04 30.99 30.00 29.92 28.92 27.72 27.73 29.03 29.78 29.60 28.65 28.56 28.72 27.92
34.81 34.33 34.32 33.95 33.74 34.16 34.28 33.87 33.46 33.13 32.63 32.21 32.21 31.80 32.28 32.75 34.15 35.67 35.20 35.92 33.07 32.47 32.68 34.09 32.95 31.24 31.49 32.14 31.39 31.71 32.42 31.50 30.40 29.35 28.94 29.41 29.68 28.07 27.70 28.48 26.76 26.48 24.87
32.84 32.03 31.51 31.17 30.95 30.99 31.23 31.16 30.60 31.72 31.25 30.03 29.92 30.31 29.78 30.07 30.99 32.54 33.06 32.88 34.08 34.26 32.25 32.25 32.22 31.59 30.37 29.81 30.66 31.36 31.35 31.27 29.51 29.47 29.24 28.02 27.27 27.62 27.32 28.20 26.48 25.32 23.36
28.76 28.62 27.54 27.82 28.15 28.16 27.75 27.94 28.91 28.06 28.20 28.33 28.87 29.52 30.64 29.01 26.89 27.43 28.14 29.88 31.55 32.19 31.87 31.19 31.54 31.33 30.61 29.22 28.79 28.86 30.28 29.32 29.02 29.21 28.76 27.95 27.49 26.98 26.96 26.93 25.98 24.59 23.28
25.90 25.67 26.18 25.76 25.93 25.42 25.13 24.59 23.79 26.17 26.37 26.47 25.98 26.35 25.14 24.43 24.81 25.58 25.21 27.14 29.74 29.88 29.57 31.41 31.61 31.46 31.38 29.56 28.24 28.71 29.42 30.15 30.12 28.92 28.69 28.17 27.79 27.20 25.70 25.96 25.52 24.31 23.21
24.93 22.97 24.01 24.52 24.38 23.81 23.45 23.05 23.24 22.25 21.54 22.88 24.25 23.63 22.54 21.67 22.98 24.11 24.42 24.96 28.73 30.37 31.22 30.61 30.80 31.60 30.43 29.06 28.48 28.79 28.83 29.88 28.88 28.27 27.98 28.62 28.05 27.01 26.24 25.40 25.42 23.86 23.29
23.23 22.45 22.20 22.82 22.31 21.06 20.75 20.81 20.94 20.10 19.86 19.75 20.74 20.51 19.22 18.51 20.91 21.74 21.90 21.97 20.22 19.97 20.91 24.91 31.29 31.67 31.06 30.65 30.14 30.19 30.27 30.22 29.45 28.34 28.01 27.33 27.35 26.65 25.87 26.05 25.52 21.07 20.62
21.20 19.12 18.92 19.60 19.29 18.24 17.88 17.70 17.32 16.93 16.90 16.77 16.33 15.78 15.65 15.39 16.54 17.24 18.70 18.92 18.90 18.58 19.17 20.02 20.81 22.69 30.84 30.96 31.12 30.99 30.17 29.87 28.92 27.63 27.27 27.34 27.31 26.10 26.06 25.41 25.29 24.33 22.84
19.27 17.92 15.55 17.51 16.27 15.15 15.00 14.87 14.04 13.77 14.26 13.65 13.35 13.59 9.74 11.91 13.50 14.17 15.27 15.75 15.62 16.88 16.34 16.55 17.77 19.53 21.05 23.37 24.65 28.66 29.88 29.33 28.87 27.45 26.14 26.16 26.40 24.95 25.83 26.57 26.11 23.69 23.04
15.58 15.07 15.49 14.26 13.90 12.11 11.54 11.66 10.94 10.47 11.74 10.64 10.47 11.09 8.90 11.82 11.72 11.90 12.73 13.29 14.11 15.38 16.14 15.41 15.34 16.32 17.46 19.18 19.85 23.03 24.23 27.61 28.58 27.63 26.39 26.38 25.42 25.25 25.64 25.35 25.09 24.27 22.89
12.98 11.98 12.44 12.12 10.76 8.57 8.87 8.41 8.02 8.42 9.24 8.57 8.12 8.12 9.23 9.15 9.00 9.78 10.34 11.40 12.12 12.72 13.97 13.62 13.77 14.47 15.69 16.18 17.94 19.48 20.50 23.38 24.56 28.95 26.54 26.32 25.25 25.53 25.25 25.24 24.19 23.21 22.77
11.69 10.29 9.80 9.48 7.79 7.04 6.55 5.95 6.11 4.61 5.40 6.06 5.95 6.27 6.85 6.74 7.28 7.87 8.73 9.57 9.83 10.73 11.03 11.12 11.81 13.24 13.87 14.26 15.13 17.17 19.41 22.10 23.14 23.84 28.46 27.17 26.18 24.91 25.46 25.32 24.35 23.10 22.38
10.59 9.16 8.09 7.16 5.84 5.25 4.33 4.24 3.76 3.48 3.83 4.05 3.94 4.41 5.12 5.38 5.78 6.71 7.43 7.33 7.50 7.76 7.52 8.57 10.79 11.62 12.45 12.23 13.38 14.52 17.23 17.32 18.94 21.38 25.08 28.26 27.01 26.05 25.37 24.73 24.17 22.71 21.68
10.40 8.32 7.20 6.46 5.93 4.68 3.47 2.04 1.83 1.64 1.16 1.88 2.38 2.38 2.88 3.28 4.16 4.72 4.94 5.25 5.72 4.81 5.57 8.03 8.78 9.03 10.40 12.23 13.76 14.95 14.49 14.69 17.13 19.73 22.36 26.64 27.20 26.41 25.67 24.44 23.45 22.48 20.53

GFSGL_sfc_wetblb_042.txt.gz
Wetbulb
64.64 63.98 61.01 61.24 61.38 60.54 59.64 58.12 55.91 54.18 50.92 48.70 48.46 49.03 47.28 45.07 44.18 44.09 45.92 45.18 45.81 44.26 46.21 44.76 44.16 45.11 44.59 44.49 44.19 43.61 42.40 41.64 37.44 40.23 41.31 41.97 40.96 39.53 39.34 39.50 38.84 37.78 37.16
64.78 64.31 62.76 60.91 59.60 58.31 56.58 55.56 54.16 51.19 48.22 49.27 49.91 47.82 45.31 46.72 45.45 44.37 43.98 44.58 44.56 44.49 44.42 44.93 43.94 43.85 43.88 44.14 43.32 42.58 41.85 41.97 39.39 37.06 39.54 39.52 39.50 39.38 38.36 37.32 36.54 36.32 36.30
62.71 61.52 60.49 58.23 55.82 54.40 53.35 51.86 49.90 48.94 49.09 48.90 47.78 45.34 44.88 45.51 43.84 43.90 43.86 43.51 43.85 45.22 44.82 44.33 44.05 44.14 43.21 43.32 42.71 41.90 41.66 40.54 40.29 38.08 36.91 38.98 38.48 38.16 36.97 36.85 35.94 35.70 35.90
58.65 58.24 57.12 56.82 56.33 56.27 54.85 53.02 50.76 49.59 48.12 44.78 44.99 44.76 43.92 43.29 43.19 43.33 43.20 42.90 42.63 44.13 43.96 44.13 44.20 43.83 43.32 42.80 41.98 41.77 40.82 39.69 39.33 37.81 36.73 36.28 36.44 37.00 36.17 33.79 33.13 34.70 34.03
56.77 56.36 55.21 55.09 54.38 53.24 51.77 51.39 50.20 50.59 47.05 43.87 43.09 42.26 43.86 43.44 43.14 43.80 43.43 41.24 42.19 43.48 44.00 44.20 44.38 43.37 41.25 41.17 41.57 41.39 40.71 39.10 37.77 36.36 35.31 34.88 34.49 34.28 33.14 34.01 31.43 32.84 33.62
54.42 52.80 52.31 51.27 49.44 48.62 47.16 46.30 43.11 42.46 42.67 42.23 42.98 42.34 42.53 43.65 39.07 38.12 38.70 40.07 42.39 41.82 41.98 42.94 43.67 41.33 40.08 37.57 36.69 36.46 37.38 38.25 36.83 35.83 34.66 33.22 33.73 33.87 34.29 32.25 31.13 29.88 28.30
51.61 50.50 49.23 48.09 45.79 44.82 43.65 42.35 41.54 43.36 42.00 42.08 42.50 44.53 42.93 43.36 38.37 38.33 37.63 40.86 41.18 41.77 42.07 41.74 41.53 41.70 40.07 41.77 36.47 34.74 33.68 32.87 32.39 36.42 34.21 34.06 33.50 34.21 33.87 31.05 30.94 30.44 29.77
48.73 47.72 47.28 46.80 45.04 44.79 44.07 44.00 42.80 42.93 42.12 42.90 43.53 43.19 44.63 43.36 37.55 37.80 35.60 39.77 40.69 41.19 41.21 41.28 41.02 41.45 41.96 40.91 40.10 39.32 38.54 38.22 36.54 34.70 34.83 35.66 35.76 35.39 33.56 32.07 31.32 30.97 31.85
46.78 46.39 46.35 46.51 45.85 45.56 44.82 44.89 45.57 45.68 44.80 44.18 42.29 39.71 38.76 39.62 38.19 35.83 35.28 39.98 39.41 39.76 40.28 40.57 40.57 40.30 38.38 36.94 38.30 37.83 37.39 37.00 36.41 34.17 33.71 32.52 30.83 29.05 29.35 31.34 29.22 28.73 27.82
46.03 46.03 46.44 46.39 45.82 44.99 44.87 42.77 40.13 40.27 40.05 40.97 42.21 42.96 40.19 41.41 37.84 35.81 36.04 39.00 38.21 38.39 39.68 39.73 35.77 37.09 35.58 34.52 36.89 36.34 35.37 35.82 36.33 36.12 33.63 31.82 31.15 32.27 29.09 30.85 30.75 27.84 28.00
45.60 44.85 43.76 42.10 40.20 41.32 42.72 42.99 42.99 42.50 41.60 41.24 40.13 41.08 41.13 40.20 40.38 36.26 35.66 37.51 37.86 38.36 38.07 38.29 39.18 34.87 33.98 33.63 33.44 35.55 35.76 37.40 35.16 33.75 33.43 34.25 34.03 33.34 33.17 32.90 32.76 31.42 28.91
41.58 40.12 41.29 40.80 39.60 40.13 40.27 40.66 40.27 40.15 39.06 38.68 39.22 38.84 40.18 40.49 36.83 36.69 35.37 34.55 34.79 35.96 35.94 38.90 38.96 35.64 34.71 33.65 33.21 33.10 32.47 32.70 34.92 34.64 32.01 31.62 31.71 31.78 33.35 33.46 33.67 33.40 33.20
39.87 39.29 39.37 39.55 39.48 39.76 39.62 39.20 39.23 38.86 37.70 36.71 35.63 35.69 35.76 36.40 36.09 33.63 33.41 33.56 33.32 35.32 36.57 35.77 34.08 33.65 33.83 32.87 31.98 31.56 31.29 33.81 33.51 32.54 31.83 31.02 31.60 32.50 34.13 32.93 32.61 32.61 32.13
38.77 38.19 38.38 36.96 37.45 37.30 37.66 36.41 35.55 34.72 33.64 32.63 32.36 32.17 32.76 33.33 33.94 31.44 30.63 31.89 30.81 32.89 32.50 34.77 33.49 32.75 32.86 33.80 33.21 33.44 33.10 33.67 33.28 32.66 32.30 32.26 33.51 32.54 31.47 31.68 30.11 30.60 29.08
36.69 35.64 34.82 34.31 33.75 34.34 33.86 33.26 32.24 32.83 29.85 29.50 30.34 30.21 30.00 29.17 27.50 26.76 27.36 28.28 28.86 29.23 29.50 32.41 31.71 32.85 32.93 32.93 33.52 32.95 33.13 33.53 32.87 33.63 32.42 32.33 31.63 31.03 30.11 30.79 29.79 29.32 27.60
32.98 32.47 31.21 32.49 32.84 32.69 32.15 32.45 27.72 27.22 26.72 26.90 26.32 26.88 28.15 25.97 24.16 24.58 25.76 25.86 26.39 27.02 30.52 30.33 31.59 32.56 32.68 33.41 33.45 31.75 31.45 30.90 31.59 32.99 32.94 31.64 30.77 30.00 29.71 29.39 29.31 28.37 27.44
30.63 30.00 30.52 30.23 30.42 29.58 29.82 29.01 28.30 29.60 26.71 25.79 25.00 24.56 23.69 22.13 21.96 23.41 24.11 24.20 26.48 26.72 25.86 27.24 31.36 32.76 33.22 33.14 33.66 32.62 30.98 31.35 32.22 31.23 31.69 31.49 31.26 30.97 30.01 28.66 28.25 27.54 27.21
28.15 25.19 29.60 30.00 29.02 28.60 27.87 27.27 27.67 25.68 24.58 25.70 25.56 23.25 21.72 20.62 20.55 22.14 22.53 24.04 24.49 25.69 25.29 24.56 25.11 27.17 27.10 30.30 32.78 31.93 31.53 32.75 31.25 31.64 31.82 31.89 31.66 30.32 29.55 27.69 27.91 27.47 27.17
27.95 27.24 27.53 27.60 26.40 24.66 25.77 25.50 25.13 24.04 23.40 23.45 24.07 23.58 22.36 18.55 20.19 21.45 21.45 22.63 20.61 20.58 21.68 22.14 23.16 23.40 25.21 25.76 28.46 33.50 33.14 32.59 31.89 32.05 31.25 30.96 31.33 30.49 29.48 28.28 28.25 27.04 26.30
24.60 21.09 22.81 25.46 24.92 23.99 23.77 23.16 22.39 21.72 21.51 21.72 21.04 20.36 19.58 17.35 19.74 20.21 20.86 20.57 19.98 19.66 19.81 19.75 20.61 21.61 22.11 22.79 25.02 26.61 29.96 32.04 31.68 31.45 31.32 31.33 31.33 30.94 29.62 28.32 28.59 27.10 25.98
25.97 23.47 19.19 23.96 22.58 21.38 21.41 20.75 20.14 19.60 19.24 19.31 19.17 18.93 12.32 14.00 17.81 18.06 18.23 18.52 17.86 17.78 17.81 18.50 18.77 19.00 20.65 20.78 21.37 21.97 23.35 26.19 31.44 31.05 31.19 30.51 30.75 29.65 29.64 29.26 28.44 27.35 26.95
21.96 21.66 21.68 20.82 21.12 19.72 17.73 18.55 18.14 17.38 17.07 17.02 17.37 17.17 13.59 17.07 17.07 16.39 17.01 16.72 16.78 16.96 17.11 17.18 16.95 17.84 18.21 19.27 19.10 18.69 20.27 22.35 25.80 27.07 30.20 29.78 29.22 30.35 29.82 28.58 27.76 27.31 26.48
19.52 19.34 19.51 19.08 17.74 14.19 17.38 16.51 16.25 15.32 15.16 15.46 15.27 14.90 14.96 15.32 14.51 14.86 15.11 15.27 15.43 15.21 15.81 15.62 15.48 15.25 17.27 17.83 18.71 18.54 17.81 19.81 22.71 23.91 24.91 27.28 28.72 29.32 29.55 27.91 27.57 26.47 26.24
18.18 18.05 16.78 17.09 15.57 15.18 15.15 13.98 14.38 12.30 12.14 13.40 13.70 13.81 13.46 13.39 13.29 13.13 13.32 14.20 13.35 13.80 14.09 13.92 13.18 13.83 14.99 15.30 17.20 17.90 18.34 19.53 20.74 20.68 22.40 24.08 27.32 28.80 29.53 28.21 27.48 26.91 26.52
17.87 17.03 16.23 15.54 14.60 13.95 13.13 13.17 12.58 12.29 11.96 12.02 12.11 12.25 12.28 12.25 12.11 12.40 12.80 12.14 11.18 11.84 11.49 11.48 12.25 13.28 13.01 12.88 13.78 15.55 17.07 17.29 17.09 17.71 20.65 24.20 24.77 29.33 28.96 28.40 28.38 27.18 26.58
16.40 15.24 15.09 14.37 14.01 12.97 12.04 11.08 10.50 10.29 9.66 10.05 10.04 10.62 10.56 10.39 10.70 10.80 10.13 9.98 9.88 8.83 9.02 11.42 11.82 11.72 11.61 12.77 14.82 15.91 14.73 14.45 15.51 16.54 19.29 21.88 23.88 28.42 29.01 29.02 28.78 27.85 26.29

GFSGL_sfc_wetblb_045.txt.gz
Wetbulb
65.05 64.49 64.25 63.05 62.66 61.88 60.98 60.74 59.15 56.80 54.06 52.63 52.18 50.32 48.81 49.45 47.64 46.56 44.69 45.29 46.22 45.90 45.66 45.88 46.12 46.38 45.89 45.86 46.00 44.40 42.99 42.08 39.18 41.48 42.55 44.16 43.38 42.72 42.44 42.38 41.43 40.25 40.01
64.61 63.96 63.79 62.85 62.82 60.67 60.00 59.01 58.15 56.32 55.77 53.52 50.69 48.24 49.12 47.99 45.48 43.95 44.83 44.81 45.33 44.30 44.03 44.69 44.81 45.25 45.88 44.82 44.40 43.97 43.16 43.48 40.94 39.11 41.51 41.44 41.95 42.68 42.30 40.42 39.10 39.02 38.49
65.42 64.33 62.47 60.76 59.09 58.45 56.93 55.90 54.33 53.64 52.03 49.52 48.80 49.50 46.56 45.79 44.91 43.88 44.33 43.80 43.85 44.00 44.01 44.69 44.56 45.31 44.53 44.84 44.17 43.89 43.42 42.15 42.46 40.45 39.34 41.59 41.18 41.42 39.75 39.84 39.15 38.44 37.95
64.16 63.50 61.91 58.40 56.95 56.38 54.94 53.09 51.22 50.23 49.40 49.81 48.40 45.38 45.89 44.65 43.74 43.92 43.19 42.85 43.10 43.92 43.63 45.30 45.29 44.25 43.92 44.09 44.66 44.32 42.96 42.46 41.85 40.26 39.29 39.16 39.55 40.18 38.80 36.50 35.90 37.89 35.82
61.04 60.59 58.37 57.91 57.81 56.81 55.96 54.32 52.69 51.00 48.66 46.16 45.26 45.33 43.94 43.11 43.33 42.98 43.21 44.47 43.85 43.01 42.68 44.07 44.97 44.25 42.13 42.02 43.00 43.88 43.34 41.60 40.76 39.55 38.11 38.23 37.63 36.86 35.46 36.63 34.63 35.13 35.17
58.00 56.26 56.17 55.06 53.81 52.78 52.01 50.75 50.30 49.27 47.52 45.74 42.58 43.13 43.18 43.88 40.83 39.33 40.33 44.06 41.99 41.33 41.28 43.59 44.32 42.18 42.37 38.84 38.67 38.08 38.53 40.04 39.66 38.60 37.80 36.34 37.06 36.93 37.07 35.50 34.23 31.76 29.03
54.40 53.23 52.12 51.04 49.47 48.44 47.78 46.96 45.94 45.68 45.88 44.60 44.12 44.41 44.13 45.70 38.91 38.69 37.86 41.13 40.52 40.71 42.15 42.22 41.91 42.23 40.92 42.52 39.40 36.64 36.44 35.52 34.90 37.55 36.31 37.25 36.46 37.29 36.33 34.18 33.63 31.87 30.80
51.66 50.56 50.14 49.11 47.69 47.45 47.36 46.48 46.51 46.10 45.53 45.19 45.20 45.50 45.21 42.86 38.35 38.26 37.19 40.94 41.97 41.63 41.65 41.59 41.57 41.72 42.11 41.28 41.58 41.44 41.44 41.31 39.59 37.24 36.73 37.29 38.50 38.74 37.30 35.53 33.80 32.05 32.39
49.80 49.27 49.11 49.13 48.07 47.66 46.88 46.07 46.11 45.55 45.48 44.93 42.73 42.82 42.31 43.72 38.60 37.69 38.07 40.84 40.14 40.01 40.63 40.87 40.90 40.86 38.98 37.79 38.45 38.91 39.58 39.92 39.28 37.35 36.94 36.49 32.09 30.63 30.65 34.03 30.53 28.90 28.95
48.65 48.66 48.80 48.53 47.84 46.29 45.69 45.05 44.84 44.39 44.36 44.31 43.79 43.99 40.71 42.30 38.04 36.94 37.14 39.46 37.91 38.26 39.17 39.97 37.23 38.18 36.14 35.57 37.95 37.09 35.66 37.55 38.95 38.55 37.71 35.60 33.07 33.73 30.81 31.06 31.01 28.28 28.64
48.66 47.84 46.91 46.70 45.73 45.65 45.01 44.37 43.68 43.16 42.94 42.54 41.21 41.95 41.72 40.70 40.60 36.04 35.29 36.75 35.96 34.68 35.07 36.27 38.07 35.89 35.60 35.45 34.99 36.92 36.19 37.32 36.28 36.77 36.87 36.11 35.78 35.36 34.52 32.92 32.10 31.10 29.73
46.14 44.97 44.41 43.07 41.84 42.41 42.44 41.91 41.58 41.81 41.12 40.44 39.91 39.57 40.87 40.79 35.25 34.59 33.65 31.37 30.74 32.40 31.95 35.00 36.12 34.29 33.62 33.62 33.56 33.79 34.14 33.16 35.83 35.09 34.07 34.89 34.63 34.30 34.65 34.13 33.81 33.84 34.76
43.50 41.68 41.21 41.38 41.35 41.43 41.16 40.54 40.73 39.79 38.19 36.77 35.47 35.56 35.81 36.56 36.79 32.37 31.17 30.16 30.03 29.99 31.54 31.20 30.30 31.03 32.13 32.67 32.73 32.82 32.59 34.01 33.67 32.83 33.04 33.50 34.69 35.59 35.46 33.31 33.91 34.86 34.06
41.31 40.97 40.56 39.86 39.13 39.02 38.95 37.79 36.94 35.96 34.64 33.15 32.56 32.52 32.87 33.14 33.49 30.30 28.60 29.55 28.71 29.43 29.24 30.40 29.29 29.10 29.13 30.49 31.93 33.98 33.39 34.01 32.92 33.01 33.07 35.03 35.62 34.44 33.35 33.18 32.15 31.81 30.71
39.70 38.76 37.75 36.54 36.71 36.18 35.77 34.67 33.49 31.37 29.48 30.11 30.76 30.19 29.34 28.49 27.83 24.76 24.73 25.71 27.20 26.81 26.74 29.33 31.77 32.65 32.37 32.80 33.45 33.99 34.59 33.97 32.51 33.68 32.61 33.18 33.60 33.31 32.33 32.99 31.63 30.83 29.25
36.20 35.43 35.14 35.14 34.95 35.10 34.44 32.34 27.91 28.17 27.21 26.89 25.71 25.75 27.41 25.41 23.40 23.01 23.97 24.51 24.60 25.56 27.04 28.18 28.46 29.50 29.05 29.15 30.69 31.10 33.56 33.38 33.08 31.99 33.33 33.44 32.58 33.05 31.56 31.72 31.50 30.16 28.29
34.41 33.17 31.84 32.74 33.03 32.23 32.18 31.60 31.23 27.64 27.32 26.86 25.46 24.04 23.06 22.12 21.86 22.04 23.18 23.45 24.66 25.45 25.17 25.35 25.59 25.85 25.71 26.55 28.06 27.96 27.02 33.23 33.49 32.43 32.13 32.50 32.73 32.25 31.61 30.67 30.24 29.36 28.43
30.92 28.02 32.60 32.21 31.47 31.27 30.63 30.05 29.99 28.35 26.75 28.12 26.14 24.16 22.41 21.60 20.85 21.95 22.96 23.57 24.51 24.77 24.05 22.96 22.94 23.38 23.27 23.34 24.51 25.94 27.27 28.27 33.17 32.59 32.71 33.03 32.94 32.20 31.58 30.33 30.13 29.17 28.25
30.39 30.04 30.50 29.98 28.22 26.74 27.84 27.74 27.24 26.07 25.98 25.65 26.52 26.10 25.12 21.06 20.98 22.89 23.06 22.98 21.46 21.46 21.92 21.46 22.02 22.54 21.80 22.28 23.09 24.51 24.33 25.02 28.53 32.51 32.36 31.78 32.15 31.23 30.89 30.69 30.42 28.98 28.76
25.15 23.67 25.77 27.03 25.75 25.80 25.75 25.30 24.77 24.50 23.86 24.03 23.76 23.17 22.24 18.82 19.38 21.91 22.48 21.82 20.56 20.08 19.81 19.27 19.80 20.59 20.75 21.00 21.77 22.84 22.72 22.61 24.88 25.34 31.56 31.78 31.97 31.71 30.68 30.94 30.13 29.02 27.73
26.35 23.90 21.71 24.35 24.03 23.39 23.38 23.14 22.79 22.16 21.42 21.47 21.91 22.15 15.91 16.06 18.28 20.17 19.79 19.86 19.37 18.40 17.67 17.88 18.73 18.92 19.51 19.81 19.48 20.15 20.33 20.95 21.04 23.90 25.60 28.40 31.78 29.76 31.04 31.36 30.57 29.42 28.58
23.31 22.78 22.76 22.30 22.55 22.16 20.51 21.17 21.06 20.37 19.79 19.80 20.46 20.46 18.06 18.49 19.41 18.54 18.59 18.55 18.21 18.33 18.22 17.32 17.04 17.11 17.44 17.58 17.90 18.59 17.89 19.22 19.75 20.51 22.94 23.51 25.51 29.80 29.37 30.67 30.02 29.52 28.19
21.33 21.63 21.45 21.59 20.40 17.33 19.75 20.06 19.40 18.88 18.41 18.20 18.30 18.13 18.36 18.04 17.23 16.88 16.78 16.96 16.75 16.64 16.62 16.18 16.16 15.90 16.71 17.05 18.07 17.29 16.68 17.30 19.04 19.60 19.40 20.02 21.61 25.02 28.79 29.66 29.48 28.73 27.64
20.90 20.72 19.54 19.52 19.74 16.97 18.50 17.45 18.00 16.70 16.48 16.77 17.13 17.28 16.87 16.39 15.96 15.48 15.59 15.98 15.17 15.22 15.58 15.32 14.63 13.75 14.95 15.88 16.59 16.79 16.76 17.48 19.00 18.89 18.09 18.23 19.11 22.13 24.72 28.71 29.35 28.95 27.89
20.25 19.80 18.53 17.78 17.24 17.12 16.57 17.23 16.51 16.24 15.92 15.63 15.56 15.31 15.32 14.89 14.44 14.41 14.42 14.06 13.12 13.24 13.30 12.66 13.27 14.20 13.69 13.28 13.66 14.23 15.61 16.86 16.49 15.97 16.49 17.72 18.69 19.95 23.30 25.71 29.48 28.75 27.88
18.91 18.00 16.89 16.82 16.49 16.28 15.65 14.57 14.44 14.19 13.66 13.83 13.44 13.26 13.52 12.82 12.68 12.59 12.41 11.75 11.74 10.72 9.99 12.45 12.29 11.89 11.98 13.50 14.88 15.61 14.54 14.14 14.25 14.54 15.80 16.92 18.30 20.24 24.25 26.78 29.26 28.85 27.82

GFSGL_sfc_wetblb_048.txt.gz
Wetbulb
63.84 63.74 62.72 62.23 61.72 62.10 60.83 60.23 60.33 58.29 54.45 52.25 51.39 50.44 49.29 48.64 48.07 46.25 44.86 44.07 44.08 43.51 45.30 44.58 44.44 44.97 44.31 42.46 42.14 40.88 39.77 38.90 35.26 35.70 37.84 37.82 37.66 37.97 38.34 38.45 39.30 36.22 35.82
63.49 63.36 62.90 62.73 61.98 59.97 59.60 58.99 57.93 54.07 52.79 51.65 51.04 49.84 48.73 47.88 47.09 45.17 42.86 42.92 44.59 43.49 43.64 44.13 43.80 44.60 42.07 43.15 41.12 39.99 39.26 38.71 36.25 33.60 34.91 35.45 35.87 36.48 36.26 35.29 37.96 38.19 34.66
64.26 63.09 62.56 61.30 59.65 58.55 56.99 55.59 55.37 54.25 53.19 50.63 49.43 47.87 47.51 46.25 44.92 43.29 43.88 44.02 43.35 43.45 43.62 43.08 43.13 43.29 42.88 42.16 42.46 40.19 40.00 41.26 38.54 34.67 33.19 35.37 34.97 35.21 34.44 35.09 34.31 33.57 36.92
63.29 61.94 59.21 57.81 56.58 54.94 53.51 51.64 50.38 49.51 47.90 47.30 47.79 47.03 45.22 44.15 44.12 44.47 43.66 42.75 42.39 42.83 43.20 42.99 43.17 43.02 42.80 42.13 41.19 39.51 40.24 39.32 39.27 36.08 35.08 33.43 33.18 34.48 33.67 31.21 29.66 31.37 31.19
61.26 58.98 56.95 56.74 56.39 55.00 53.27 52.46 50.86 49.88 48.26 45.87 44.74 44.22 44.19 43.55 43.43 43.05 42.80 41.86 41.36 40.97 42.20 42.87 42.53 42.70 42.16 41.35 41.23 38.20 37.02 37.00 36.13 34.42 32.18 31.58 31.12 30.76 30.27 30.65 29.95 29.60 29.43
57.61 56.54 56.29 55.82 55.38 54.59 53.33 51.66 50.21 47.47 45.52 44.67 43.60 42.50 41.19 43.01 40.04 40.74 41.22 41.91 42.21 41.23 40.23 41.33 41.33 41.44 41.29 38.98 38.45 38.33 38.24 36.63 35.37 34.83 34.83 33.38 31.00 30.75 30.68 30.39 29.03 26.29 24.47
55.10 54.31 53.05 51.56 49.39 48.33 47.28 46.51 45.59 44.15 44.25 42.54 42.15 42.49 42.77 43.08 39.42 39.09 38.08 40.42 40.33 40.38 39.94 39.78 40.57 40.97 38.17 38.71 37.85 36.88 35.69 36.26 36.25 36.21 33.90 33.81 33.22 33.23 31.95 31.20 29.31 27.58 25.71
51.85 50.89 49.80 48.43 46.86 46.23 45.85 44.85 44.00 43.94 43.23 42.89 42.67 43.68 43.78 40.94 38.77 38.75 37.87 39.38 39.04 39.14 38.71 37.82 36.77 36.66 37.21 36.97 35.49 33.78 34.94 35.97 36.74 36.07 34.37 34.86 35.23 35.26 33.00 32.26 31.12 29.39 26.51
49.41 48.88 48.46 47.78 46.86 46.43 45.21 44.58 44.90 44.89 44.33 43.68 43.17 42.59 41.18 41.68 38.01 37.86 37.27 37.95 37.03 36.11 37.81 36.83 37.08 35.99 36.68 36.27 34.23 33.35 34.10 34.71 37.37 37.39 37.42 37.07 36.44 35.54 33.10 30.15 26.54 27.18 24.04
48.69 48.54 48.81 48.28 47.06 45.72 45.07 44.69 43.85 43.66 43.21 43.12 42.90 42.55 38.72 39.00 37.16 35.79 35.74 34.19 32.41 31.00 32.88 34.21 34.50 34.53 34.60 34.77 32.17 31.91 31.11 32.34 34.51 34.19 34.06 33.75 33.18 32.64 32.83 31.25 28.31 28.04 26.56
48.68 48.10 47.34 46.68 45.52 45.13 44.39 43.95 43.36 41.84 41.30 38.32 37.48 37.97 38.87 35.65 33.76 33.58 32.81 29.81 27.27 27.67 28.22 28.63 29.27 32.50 32.04 31.42 30.90 28.29 29.00 31.62 32.24 32.57 33.18 33.20 33.45 34.82 33.19 30.67 30.75 29.31 26.55
46.50 45.08 44.85 44.91 43.96 43.18 40.98 40.06 39.57 39.29 37.42 35.70 34.76 34.05 34.54 32.88 32.04 31.76 30.14 29.47 29.36 26.57 26.32 27.12 27.91 30.17 30.19 30.02 29.81 30.20 31.20 30.99 31.39 30.58 30.72 31.83 32.10 33.70 34.12 32.28 31.00 29.42 29.52
44.66 42.50 40.58 40.98 41.09 40.97 39.61 38.20 37.55 36.81 33.71 31.43 30.52 30.70 30.63 30.66 30.50 29.15 28.04 27.67 27.95 25.60 26.55 27.69 27.96 28.74 29.23 28.91 30.56 30.73 28.95 28.24 28.92 29.23 29.13 30.07 32.18 33.79 34.56 33.78 33.24 32.30 31.61
40.47 39.81 39.66 38.46 38.05 37.86 37.08 36.03 34.81 31.57 30.40 29.69 29.25 28.28 28.19 28.54 25.44 24.45 24.05 23.88 25.51 25.36 25.16 24.10 24.37 26.13 27.26 28.49 29.15 30.16 30.74 30.37 30.19 29.84 30.68 32.23 31.32 30.02 31.79 32.66 30.50 30.68 30.00
39.98 38.67 36.60 35.80 35.29 34.36 30.94 31.35 29.06 27.45 27.85 27.55 26.90 26.86 24.51 23.19 22.54 23.32 22.83 22.63 22.40 23.56 21.92 22.67 23.99 24.18 24.10 24.24 24.47 25.76 27.24 26.43 26.65 31.65 30.99 31.02 29.18 27.27 31.55 31.99 30.53 29.91 28.07
36.28 34.68 33.56 32.91 32.35 33.38 30.60 28.32 29.63 27.98 27.73 26.91 25.92 24.93 25.24 24.23 23.09 23.20 23.34 24.15 24.42 24.95 21.87 21.03 19.70 19.57 20.53 21.34 21.81 22.10 22.87 23.49 24.73 24.85 30.87 30.44 28.59 29.72 30.17 31.42 30.83 28.62 27.34
31.85 32.54 31.18 31.38 30.63 29.59 29.37 29.71 24.96 26.45 27.76 27.13 26.10 24.96 23.77 22.03 22.12 22.56 23.22 23.78 24.34 25.07 18.47 18.89 16.35 17.51 18.68 20.05 20.60 20.64 20.55 22.35 22.55 23.72 27.77 27.74 28.01 27.00 27.11 29.28 29.58 29.04 27.89
29.63 30.97 31.02 30.18 29.78 29.50 28.58 28.42 28.22 26.64 25.41 24.79 25.42 24.92 23.14 22.03 22.01 22.46 23.49 23.34 20.68 21.39 20.08 18.41 17.22 17.62 18.39 18.44 18.37 18.94 19.59 20.13 19.96 20.71 22.66 27.39 23.68 26.19 24.34 27.93 28.51 28.03 26.91
29.08 28.91 28.90 27.55 25.98 25.89 26.72 26.74 26.43 25.76 25.40 24.81 25.52 24.38 22.37 21.45 21.39 22.72 23.90 19.14 17.42 17.42 18.20 17.56 16.62 16.73 16.81 17.14 16.54 17.27 18.12 18.42 18.59 19.47 20.25 22.81 27.50 28.13 25.07 25.50 27.55 27.68 27.52
24.96 25.16 26.84 26.25 25.39 25.26 25.16 24.40 24.20 23.93 23.36 23.26 22.72 22.13 20.35 17.43 14.54 16.02 16.67 15.85 14.67 16.30 15.53 15.56 15.89 15.64 15.53 15.52 15.48 15.27 16.12 16.04 15.95 18.12 18.70 19.81 21.60 24.79 25.36 22.49 26.23 28.62 27.39
24.24 22.69 23.16 24.22 23.34 22.77 22.99 22.79 22.32 21.85 21.19 20.86 20.54 18.56 15.04 15.37 14.11 16.90 16.31 14.55 15.08 14.91 12.99 14.97 13.74 13.93 14.34 14.28 14.68 13.26 14.37 13.90 14.70 16.48 17.13 17.76 18.37 18.50 21.14 24.46 26.46 28.92 28.41
22.90 22.52 22.61 21.93 22.36 21.79 19.74 20.55 20.62 20.06 19.68 18.79 18.93 18.89 16.55 15.21 16.99 15.70 14.81 14.00 11.91 12.64 14.89 13.47 12.82 13.37 13.46 13.55 11.76 11.75 12.63 12.05 13.48 14.20 14.55 15.67 16.28 17.09 18.47 20.60 23.45 28.62 27.92
21.81 21.75 21.34 20.99 20.00 17.77 18.97 20.13 19.40 18.85 17.88 16.94 16.55 16.83 16.76 15.66 14.71 14.06 13.24 9.75 11.48 11.86 11.32 12.20 11.21 12.05 11.32 10.68 12.42 13.50 12.00 12.14 12.30 12.84 12.68 14.09 14.21 14.46 15.49 16.76 20.57 23.76 27.01
20.46 20.03 19.19 19.25 19.58 16.56 17.74 17.84 17.07 16.64 16.78 16.10 15.89 15.63 15.24 14.12 12.65 10.68 9.18 9.56 8.83 8.25 7.87 11.17 10.14 7.89 9.59 11.88 12.20 12.18 12.27 12.26 13.58 14.38 12.58 10.56 11.46 13.26 15.08 16.36 17.10 20.12 26.82
20.05 19.24 18.47 18.13 17.67 17.42 17.00 16.68 16.41 15.40 15.43 14.48 13.74 13.83 12.98 12.72 12.08 10.29 8.44 8.88 8.06 7.17 9.20 6.23 7.81 10.35 9.62 8.97 9.07 10.05 12.40 14.68 11.75 11.91 11.92 11.42 11.36 11.59 13.41 15.73 17.35 21.52 24.99
18.61 18.20 17.26 17.12 16.42 16.32 15.27 14.10 13.72 13.75 12.75 12.50 12.10 9.84 10.83 10.42 9.86 6.90 8.95 6.76 8.68 6.21 4.79 6.78 7.03 6.96 7.18 9.60 11.50 12.76 11.82 11.76 12.10 13.27 13.87 13.99 12.38 12.71 14.67 16.16 17.33 20.36 24.40

GFSGL_sfc_wetblb_051.txt.gz
Wetbulb
60.36 60.62 60.97 59.39 58.54 59.60 59.43 58.80 58.40 56.76 54.84 54.16 52.29 51.59 49.85 48.83 48.17 46.46 45.46 44.68 45.16 44.30 44.31 43.85 44.15 44.92 44.25 44.23 41.61 39.42 37.76 36.56 33.22 34.28 35.32 36.46 34.99 35.73 37.67 37.84 38.35 37.75 37.31
60.32 60.45 60.68 59.69 59.36 59.02 58.16 58.16 57.84 56.12 53.44 52.01 51.50 50.31 48.87 48.08 46.95 45.62 44.10 43.78 43.81 43.67 43.67 43.85 43.84 44.60 42.69 40.95 40.24 39.20 37.78 39.02 36.20 35.22 33.91 34.23 34.52 35.11 34.88 33.95 37.08 38.56 35.60
61.08 61.59 60.67 60.05 59.93 58.53 57.56 56.32 55.04 53.00 52.17 51.12 50.40 49.22 48.05 47.21 46.00 44.86 43.36 43.86 44.14 43.79 43.55 43.28 43.08 42.90 41.38 42.29 42.68 41.59 41.54 41.36 39.44 37.48 37.43 34.39 36.16 34.63 34.37 33.41 33.96 33.90 35.24
61.56 60.54 57.80 57.06 55.90 55.62 54.42 53.08 52.11 52.61 50.46 49.21 48.85 47.91 47.13 45.84 44.49 43.93 43.79 43.61 43.61 43.17 43.15 42.81 42.86 41.81 41.78 41.27 40.19 39.03 38.50 35.56 36.10 37.36 36.58 36.37 33.43 36.73 34.04 33.59 31.25 31.81 30.72
59.58 57.50 55.38 54.68 54.03 53.40 51.93 51.07 50.28 49.13 48.04 47.61 46.13 44.86 44.36 44.11 43.76 43.68 43.77 42.70 41.67 41.22 41.88 42.39 42.09 42.35 41.75 40.13 40.46 39.21 35.21 35.17 34.97 33.94 33.81 31.26 31.04 31.64 31.78 33.10 31.54 29.73 31.03
56.18 55.24 55.29 54.89 53.97 52.54 51.08 49.92 48.80 46.58 45.34 44.36 43.60 43.45 42.72 43.05 39.95 40.42 41.44 40.84 41.12 40.62 39.63 41.22 41.25 40.78 40.06 39.05 38.76 38.25 37.21 34.08 32.08 31.18 32.91 32.59 33.32 28.97 29.26 30.26 29.89 28.75 28.16
54.26 54.75 54.09 51.90 50.74 50.81 50.25 47.68 44.38 41.88 40.79 39.97 39.56 40.11 40.09 40.62 39.21 39.13 38.28 39.85 39.69 39.80 39.55 38.90 38.30 40.68 37.14 35.58 34.95 34.80 33.90 35.07 35.08 31.97 31.12 32.17 32.73 33.00 30.25 30.56 31.75 31.39 31.49
49.43 49.25 48.95 47.25 45.50 45.27 44.43 43.30 41.58 40.91 39.74 39.46 39.69 40.11 40.11 39.79 38.42 38.55 37.57 38.95 36.76 36.66 36.49 36.34 33.90 32.96 33.69 34.25 32.83 31.33 32.08 33.42 33.95 34.25 31.61 32.57 33.40 34.52 34.14 34.39 33.52 33.08 30.54
47.51 46.84 45.84 44.53 43.68 43.21 42.08 41.29 41.32 40.89 40.24 39.90 40.37 39.63 40.06 40.06 38.00 37.66 36.86 35.50 34.74 32.49 34.30 32.72 32.81 31.56 34.16 33.48 29.30 26.86 26.53 27.49 32.66 35.08 35.34 35.63 34.93 34.90 34.86 33.32 29.49 29.96 28.27
46.42 45.86 45.56 45.30 44.24 42.95 42.12 41.82 41.09 42.41 42.14 41.03 40.48 40.32 36.90 34.20 34.87 35.59 33.74 29.25 27.69 26.55 28.64 30.40 31.56 30.92 31.79 31.34 26.94 25.34 24.10 24.84 25.32 26.70 29.15 30.79 32.27 33.07 34.88 33.71 32.36 28.00 28.11
46.66 46.02 45.03 44.34 43.23 43.14 42.69 41.63 41.01 40.22 38.74 35.52 34.49 34.30 32.82 31.99 31.33 32.08 30.79 26.33 25.60 26.13 25.84 26.03 25.84 29.39 29.29 29.21 29.82 27.22 26.70 28.32 28.34 27.57 29.33 29.38 30.27 31.55 33.45 32.13 32.03 32.42 30.52
44.29 43.62 43.52 43.37 43.63 42.83 40.86 38.93 37.92 36.59 33.42 31.62 31.46 30.09 28.70 28.56 29.98 29.53 28.99 27.84 27.14 24.80 24.68 25.01 25.15 27.47 28.01 29.03 28.76 30.44 30.87 29.89 28.67 27.64 27.30 27.82 28.60 29.39 31.30 33.91 31.72 31.10 32.21
42.95 42.57 42.06 40.63 40.34 38.25 35.66 34.77 34.94 33.35 29.96 28.28 28.87 28.32 26.46 26.17 24.46 26.09 26.07 25.86 25.76 23.72 24.61 24.59 25.79 26.61 27.28 26.73 28.17 27.82 26.02 26.31 26.34 24.74 24.99 26.97 29.70 30.25 32.71 33.08 32.52 32.01 31.28
38.62 36.91 36.41 35.68 35.23 33.70 34.30 32.75 29.75 26.88 26.43 27.24 26.94 26.26 25.80 22.93 22.52 22.73 23.01 22.25 24.17 23.87 23.72 22.72 22.97 24.45 23.96 23.41 23.62 24.56 24.04 23.02 23.09 22.15 22.59 23.43 29.07 31.50 31.71 32.43 31.63 30.54 28.73
37.04 35.87 33.82 32.59 29.49 28.49 29.24 27.69 25.07 26.60 28.13 25.62 25.53 26.34 23.71 21.96 22.66 23.44 23.13 22.98 20.68 23.83 21.40 18.99 20.59 21.22 21.26 21.20 21.33 21.59 21.11 20.66 20.25 20.35 19.90 22.22 23.59 30.81 29.89 29.26 29.48 29.93 28.22
32.78 31.51 29.30 29.03 28.73 28.04 26.88 25.87 28.55 27.84 28.15 27.76 27.33 25.92 24.91 24.28 23.37 23.50 23.36 24.18 24.74 25.49 20.03 17.48 13.30 11.13 16.50 18.68 17.98 17.48 17.68 17.58 18.96 19.47 19.00 19.99 21.52 25.63 28.78 29.87 30.80 29.33 27.31
29.78 30.29 29.17 28.80 28.44 28.19 26.66 24.98 23.42 26.39 27.61 27.02 26.56 26.20 25.02 23.15 22.70 22.97 23.30 24.02 24.55 23.09 16.66 16.44 10.60 9.72 13.35 17.57 16.96 15.84 15.11 16.67 18.24 17.58 17.58 18.44 20.45 21.00 27.14 29.09 28.67 29.48 27.69
29.56 29.35 28.52 27.82 27.32 26.77 26.27 26.93 26.02 24.59 23.46 23.93 25.77 24.98 23.89 22.57 22.58 22.76 23.75 23.31 19.63 20.18 19.21 16.73 13.12 13.46 15.20 15.54 15.13 14.33 14.77 14.92 14.94 14.92 15.31 17.46 18.35 19.60 18.59 26.89 27.84 27.43 26.86
27.77 26.64 25.34 24.82 25.53 25.48 25.80 25.73 25.33 24.69 23.99 23.91 23.91 22.69 20.75 21.35 21.05 20.97 22.55 16.67 14.73 16.09 17.04 16.00 12.63 11.67 13.50 13.69 7.81 7.10 7.24 11.70 12.37 10.97 13.27 15.69 16.58 17.03 17.12 18.64 25.48 25.61 27.61
25.82 26.01 25.74 25.37 25.02 24.56 24.37 23.73 23.26 23.03 22.65 22.28 21.56 20.34 18.49 16.17 11.32 9.35 11.48 9.50 9.19 13.34 12.45 13.59 13.70 11.81 7.41 8.32 3.04 4.15 8.56 9.41 11.48 10.58 12.36 12.26 14.11 15.65 15.50 16.36 18.76 24.49 25.54
23.26 23.94 24.03 23.71 22.80 22.51 22.32 21.92 21.70 20.80 20.20 19.82 18.95 16.04 15.41 15.55 13.92 13.91 15.82 10.28 11.05 11.53 7.26 9.39 7.32 1.93 1.76 2.49 11.79 7.46 7.29 9.55 8.96 10.38 10.32 9.87 11.38 12.99 15.05 15.44 15.97 18.18 20.09
23.18 23.18 22.92 21.92 22.55 20.26 18.99 20.00 19.66 19.22 18.85 17.95 17.43 17.05 15.97 12.01 13.71 13.86 11.85 8.14 6.87 7.43 7.84 5.86 4.10 5.64 6.31 8.26 7.11 2.64 8.57 8.08 8.84 8.69 7.85 9.10 10.76 12.12 12.00 12.69 13.86 16.03 17.96
21.59 20.91 21.10 20.05 19.52 18.15 18.35 19.02 17.55 16.45 15.06 14.58 15.04 15.45 14.79 11.98 11.26 11.00 8.65 4.01 5.18 3.69 1.74 1.70 -2.32 3.64 4.04 1.18 3.74 10.63 7.88 7.38 8.60 9.71 9.26 8.68 7.86 7.86 9.74 10.55 12.20 13.86 14.95
20.10 18.83 18.77 18.47 16.71 15.97 15.47 14.02 14.29 15.19 14.91 12.99 11.20 11.22 11.24 9.42 4.36 3.32 3.53 0.47 -0.00 -3.96 -6.85 -2.89 -0.43 1.63 4.69 7.35 3.71 6.51 9.15 10.22 11.30 11.80 8.41 9.25 8.27 8.69 8.93 9.58 10.42 12.76 14.81
18.44 17.41 16.88 16.87 15.48 14.08 13.16 14.19 12.91 10.64 10.38 9.27 6.43 6.42 7.03 5.25 5.59 -0.26 -3.30 -3.78 -3.17 -5.22 -2.23 -2.62 -2.10 1.97 2.31 2.01 3.88 5.92 9.13 11.67 10.52 10.61 10.84 10.24 9.04 8.32 8.72 10.05 10.84 13.09 15.35
17.46 16.46 15.68 15.09 13.11 11.00 8.28 6.06 4.65 4.23 3.54 2.52 0.98 -1.18 -2.33 0.29 -0.59 -6.49 -4.40 -3.80 1.22 -2.85 -4.37 -4.44 -1.40 0.05 1.18 4.78 7.83 9.61 10.10 10.05 9.96 11.21 11.50 10.82 9.75 9.82 10.49 10.06 11.84 12.84 14.06

GFSGL_sfc_wetblb_054.txt.gz
Wetbulb
58.82 58.61 58.40 58.56 59.12 58.40 58.82 58.43 58.09 57.99 56.61 55.29 55.07 53.01 51.07 48.84 47.71 48.21 47.19 46.24 45.60 45.02 45.09 44.47 44.42 45.08 44.19 43.81 43.17 41.62 39.94 38.16 36.58 36.29 34.86 35.55 34.34 35.11 36.94 37.41 39.38 38.17 38.60
59.39 59.66 59.20 59.70 59.18 59.22 58.43 58.21 58.81 57.31 56.09 55.63 53.36 51.47 49.94 48.42 47.19 46.80 45.43 45.87 44.89 43.85 43.77 44.40 44.27 44.97 43.31 42.55 41.48 39.52 37.68 37.64 35.68 35.92 34.66 33.73 34.01 35.35 35.59 34.20 37.03 38.64 37.81
60.37 59.63 59.34 59.03 59.03 59.30 58.97 58.68 57.15 55.73 54.48 53.36 52.27 50.69 49.33 47.79 46.41 45.96 44.98 44.21 44.29 43.96 44.11 43.65 43.57 43.16 41.84 40.95 39.81 39.03 39.83 41.06 39.86 38.12 36.89 36.20 34.62 35.34 35.90 35.24 35.57 35.10 37.92
59.68 58.89 59.13 58.17 58.76 59.80 58.94 57.05 56.31 55.25 53.19 52.34 51.92 49.73 48.13 46.57 45.66 44.12 43.96 43.84 43.81 43.84 43.81 43.48 43.01 42.58 40.55 39.55 38.79 36.45 37.44 34.93 35.20 34.94 35.66 35.31 33.10 34.22 33.09 33.15 33.01 31.55 32.87
57.92 57.28 57.44 58.70 58.48 57.98 57.73 55.35 53.27 52.89 51.40 49.63 47.52 46.56 46.04 44.85 44.16 43.76 43.54 43.46 43.13 42.39 42.55 42.40 42.51 42.13 41.49 40.12 38.58 36.05 34.42 32.77 33.46 32.98 32.07 31.58 30.20 29.00 29.64 30.89 30.07 32.92 31.96
57.90 58.26 57.01 55.79 54.75 54.38 52.80 50.94 50.05 48.31 48.66 46.11 45.12 44.12 43.49 43.92 39.86 40.52 42.28 42.19 41.74 41.18 39.76 40.58 40.74 40.82 39.79 36.88 35.77 35.28 33.66 29.98 28.50 27.67 28.46 28.79 30.52 30.48 30.00 31.03 30.65 27.11 29.67
57.33 55.77 55.09 53.88 52.49 51.27 50.57 48.89 47.00 45.75 45.68 43.42 43.28 43.32 42.89 42.98 39.19 39.54 38.83 40.86 40.08 39.39 38.22 39.67 38.55 37.15 34.26 33.02 33.29 32.89 32.08 33.53 33.62 29.79 28.38 28.91 29.35 29.96 32.01 30.93 29.11 29.95 30.33
54.36 53.31 52.95 52.13 51.16 49.59 47.42 45.32 43.32 44.03 42.10 41.31 41.30 41.20 40.71 40.09 38.32 38.11 37.01 37.20 36.37 36.07 34.94 33.60 32.23 30.77 32.22 30.92 28.34 26.22 26.10 27.04 27.40 28.48 28.28 30.06 31.09 31.92 32.30 31.56 30.75 31.93 33.70
48.91 49.47 49.40 48.04 46.94 46.41 45.28 43.65 41.24 39.50 39.03 38.44 38.82 38.03 37.87 38.01 37.87 36.94 37.29 35.67 32.73 31.70 31.66 31.01 30.42 28.59 30.92 31.23 27.12 25.17 25.08 26.06 30.11 31.40 31.72 31.91 31.88 32.46 33.01 31.02 28.56 28.14 27.11
46.88 46.15 45.81 45.73 44.92 42.73 41.81 40.56 39.27 39.39 39.07 39.60 39.03 39.03 37.49 37.57 36.37 36.27 33.76 30.17 27.11 26.10 27.62 27.68 29.36 28.23 29.35 28.89 25.86 24.90 24.88 25.83 26.93 28.51 29.13 28.85 29.90 29.90 32.26 30.86 29.96 27.56 27.93
44.96 44.21 43.52 43.09 41.80 41.26 40.82 40.82 40.60 40.25 39.42 35.32 32.79 32.33 31.09 31.63 32.02 32.25 30.86 26.69 26.00 26.09 25.35 25.38 26.02 27.55 27.58 28.70 29.68 27.00 26.71 26.58 27.35 27.20 26.75 26.60 27.39 28.37 29.30 29.35 30.50 30.49 29.11
44.13 43.19 42.60 42.37 42.56 42.01 40.70 39.40 39.00 36.91 33.11 30.62 28.61 26.80 27.18 27.57 29.69 29.83 29.28 27.80 26.59 25.70 24.56 25.28 25.30 26.62 27.70 28.27 27.34 26.95 26.54 25.05 23.21 23.32 22.10 22.87 23.79 23.87 25.56 29.24 30.96 32.32 32.53
42.84 42.10 41.59 41.47 41.02 40.08 38.24 35.81 34.42 33.27 31.05 29.15 27.75 25.45 24.30 24.46 24.53 26.70 26.58 26.01 25.20 24.00 25.19 24.84 25.38 26.19 26.61 26.23 25.51 25.07 23.69 21.86 20.35 19.13 20.54 20.07 21.22 23.94 24.67 28.74 31.38 32.98 33.46
41.12 39.67 38.70 37.02 33.28 32.79 32.72 32.75 31.16 28.67 29.02 29.15 27.42 25.41 23.98 22.90 22.45 23.21 23.09 23.60 24.22 24.15 24.14 23.79 23.20 24.49 24.07 23.70 23.41 23.28 22.21 20.63 19.37 19.17 18.79 19.68 21.10 21.33 22.19 26.35 30.61 31.53 29.91
36.55 34.36 31.01 30.21 29.99 27.75 25.97 26.54 27.28 27.67 28.64 27.96 27.27 27.12 23.21 22.31 22.92 23.95 23.48 23.52 23.17 24.43 21.96 20.18 20.55 20.44 19.49 20.21 20.15 19.38 19.10 18.81 17.42 17.23 17.45 17.04 18.08 18.66 20.21 22.62 27.85 28.81 26.84
31.86 29.66 27.93 27.54 27.66 26.00 24.89 24.89 29.12 29.20 29.13 28.87 28.00 26.05 25.36 25.01 24.31 23.87 23.73 24.32 25.01 24.95 21.72 18.59 15.28 13.79 15.48 17.36 16.41 16.03 15.76 15.39 15.98 16.54 14.55 14.81 15.89 16.94 17.47 20.56 21.52 28.78 27.15
29.38 29.09 28.07 27.61 26.72 26.12 26.10 25.59 23.74 26.49 27.72 27.53 27.31 26.03 24.93 24.09 24.08 23.47 23.49 23.81 23.86 22.67 18.75 16.65 13.26 11.68 13.20 15.68 14.91 14.11 13.23 13.96 15.18 13.84 12.43 11.93 14.78 15.61 15.63 16.92 18.78 22.78 27.31
28.41 28.47 27.49 27.08 27.08 27.22 26.50 25.60 25.66 24.89 23.46 23.68 25.81 24.69 24.27 23.69 22.68 22.86 23.90 22.90 19.85 19.91 18.99 16.70 14.93 14.94 14.75 14.14 13.97 13.01 12.77 11.08 10.11 11.79 9.65 9.97 12.22 11.92 13.24 14.74 16.33 16.37 23.02
26.34 26.25 26.31 26.11 26.15 25.92 25.88 25.50 25.61 25.02 24.95 24.39 24.17 23.07 23.12 21.82 20.77 21.39 21.42 18.36 17.20 16.77 16.24 15.31 15.14 13.83 13.03 12.87 8.32 5.00 0.23 3.24 4.89 1.12 5.29 9.95 6.80 9.20 10.61 14.06 14.78 15.11 16.50
25.97 25.91 25.66 25.17 24.70 24.42 24.49 23.94 23.75 23.42 22.90 22.54 22.39 19.59 18.58 17.51 14.52 13.93 14.93 13.26 14.30 14.77 13.95 14.15 13.53 11.92 9.25 7.97 2.18 1.27 0.58 -3.26 4.34 3.34 6.48 0.74 4.15 7.69 9.01 12.15 12.53 12.47 14.41
24.08 23.94 23.66 23.58 23.02 22.85 22.33 21.81 21.76 20.91 20.55 19.78 18.44 17.20 17.14 16.59 15.40 15.21 15.83 12.78 13.16 13.64 11.15 11.70 9.17 5.65 1.79 1.31 5.79 1.45 0.30 2.05 7.00 4.85 6.19 6.39 5.78 7.02 9.21 9.52 11.01 12.87 14.77
22.99 22.79 22.60 21.95 20.92 19.43 19.56 20.61 19.64 19.11 18.84 17.61 17.31 16.57 16.99 15.21 15.71 15.26 14.50 11.39 9.87 11.49 11.22 8.07 6.10 5.21 4.49 4.25 1.92 -4.86 2.63 -2.14 -0.68 4.15 5.95 6.75 8.08 7.78 6.87 7.72 9.35 11.13 12.53
20.59 20.67 20.60 20.17 19.30 18.32 18.25 18.36 16.97 16.85 16.11 15.60 15.54 15.36 15.01 13.10 12.57 12.26 10.54 7.82 9.72 4.60 1.87 0.82 -3.80 -0.36 0.17 -4.14 -2.88 2.31 3.54 4.69 7.06 7.69 7.00 6.48 7.31 7.19 6.71 6.28 7.87 8.90 10.26
19.13 18.53 18.44 17.28 16.65 16.45 15.98 14.94 15.25 15.30 14.60 13.23 11.84 11.63 10.21 9.04 6.41 6.35 4.42 1.58 -0.60 -6.66 -8.47 -9.76 -6.16 -2.24 -0.12 -3.65 -5.78 -1.07 5.89 7.46 8.90 9.78 8.12 7.31 7.04 7.41 7.38 7.02 7.35 8.05 9.53
17.65 16.41 15.70 15.36 14.50 13.62 13.08 12.70 11.32 10.62 9.94 8.72 6.45 4.36 5.17 3.70 2.45 -5.21 -7.42 -7.79 -6.48 -10.65 -7.30 -6.63 -6.52 -2.61 -1.72 -2.31 -1.06 1.06 4.03 8.41 8.05 7.49 8.08 8.31 7.78 7.42 7.43 7.61 7.77 8.46 9.44
15.08 14.19 13.56 12.85 11.15 10.46 9.28 7.56 5.79 3.69 1.76 0.36 -1.99 -4.30 -4.12 -4.31 -4.14 -11.92 -10.84 -7.39 -7.23 -7.28 -6.66 -6.58 -4.79 -2.91 -2.29 0.32 2.69 5.96 6.00 4.09 4.51 6.56 7.27 7.26 6.93 7.20 7.57 7.48 7.75 8.37 9.48

GFSGL_sfc_wetblb_057.txt.gz
Wetbulb
53.21 53.14 53.09 53.62 54.58 55.31 55.78 57.22 57.48 57.18 57.50 57.09 56.49 55.47 54.52 52.53 50.18 48.12 46.95 47.62 47.09 46.16 46.18 45.54 44.79 45.37 44.76 44.47 43.87 42.79 41.41 39.87 36.53 37.61 36.65 35.95 34.33 35.01 36.45 36.60 38.27 37.75 38.94
54.96 54.94 54.74 55.30 55.92 56.26 56.87 58.26 58.21 57.71 57.80 57.52 57.82 55.45 53.26 52.20 51.11 49.82 47.38 47.22 46.20 45.52 45.14 44.92 44.32 45.23 43.90 43.17 42.16 40.93 39.96 39.28 35.45 33.45 34.64 33.67 33.13 34.66 35.18 34.40 37.39 38.26 36.69
56.76 56.30 57.03 57.35 57.00 57.02 57.62 58.63 59.05 59.06 58.14 56.47 55.19 53.78 51.94 51.59 49.83 49.50 47.72 46.93 45.97 45.35 44.76 44.33 44.25 43.94 42.25 41.37 40.83 40.36 39.75 38.96 35.80 33.96 35.02 34.30 33.80 34.12 34.18 34.47 34.35 34.93 36.24
57.06 57.29 57.00 57.62 57.69 57.70 58.22 58.68 59.14 59.34 56.99 54.46 53.76 52.31 50.93 49.97 49.20 47.63 46.70 45.01 44.50 44.61 44.43 44.20 43.79 42.97 41.80 40.60 40.20 38.13 35.80 33.33 32.41 31.23 31.14 31.29 31.53 32.96 31.61 30.76 32.21 32.03 32.97
57.21 57.21 57.33 58.11 58.16 58.41 58.41 58.61 58.40 56.55 55.03 53.31 52.06 50.16 49.23 47.93 46.61 44.90 44.72 44.27 43.54 42.95 43.33 43.18 42.97 42.80 41.57 40.38 39.02 35.63 31.51 29.67 29.08 28.21 27.44 27.59 27.69 27.26 27.68 29.17 30.04 31.76 32.59
57.46 57.48 58.04 57.64 57.42 57.62 58.19 56.45 54.84 53.05 52.13 50.37 48.70 47.31 46.69 45.76 40.64 40.78 43.13 43.43 43.07 42.32 41.42 41.49 41.50 40.64 36.88 35.78 35.60 34.83 32.23 28.28 26.15 25.71 25.82 26.34 26.19 27.26 27.27 27.67 29.71 28.65 26.77
57.43 56.82 56.27 57.33 57.09 55.97 53.43 51.61 50.85 50.13 48.73 46.50 46.14 45.28 45.10 44.79 39.53 40.06 39.65 42.32 41.49 40.83 40.18 39.62 37.69 35.45 34.31 32.79 31.64 30.69 30.14 30.90 31.92 27.04 24.24 24.71 24.76 25.61 27.66 27.67 26.34 25.80 25.60
55.65 56.11 55.87 55.07 53.44 51.95 50.85 48.84 46.12 46.42 45.58 45.00 44.79 45.01 43.85 42.18 38.54 38.43 37.68 39.92 38.54 37.29 36.20 35.63 32.91 31.98 31.41 28.84 26.57 25.15 25.77 26.14 26.53 27.19 25.26 25.36 26.20 27.67 28.32 28.08 27.35 28.52 28.62
54.30 53.88 53.30 52.18 50.77 49.45 47.67 46.30 45.38 44.43 43.87 43.24 43.36 42.37 40.92 39.98 37.49 36.81 37.14 35.56 33.41 31.23 30.34 29.57 28.41 27.42 30.15 29.81 26.39 25.41 25.85 27.28 30.14 31.03 31.28 31.78 31.75 31.81 31.69 29.79 28.11 26.68 24.70
51.23 50.46 50.45 49.80 48.43 46.77 45.16 43.49 42.51 42.93 41.22 40.34 38.89 39.28 37.40 37.28 36.37 36.46 34.66 31.14 28.18 27.08 27.06 26.93 29.12 27.53 28.13 28.30 26.33 25.87 24.91 24.98 25.07 25.91 27.37 28.03 29.10 29.02 30.69 29.58 27.97 26.07 25.96
47.88 47.42 46.91 47.26 46.17 44.66 42.66 41.45 41.50 41.06 37.37 33.25 30.67 31.50 32.48 33.67 34.39 34.75 33.08 30.22 27.14 25.77 25.18 24.70 24.92 26.89 27.48 28.77 28.88 25.94 24.42 24.00 23.19 23.24 23.97 23.26 24.22 24.88 25.51 25.93 25.74 26.83 26.20
43.29 43.01 43.61 43.21 42.74 42.07 40.89 40.28 39.54 35.69 32.00 30.11 28.14 27.76 28.54 29.13 30.63 30.71 29.77 28.23 27.75 26.07 24.93 24.61 24.76 26.69 27.70 28.04 25.52 25.49 24.85 23.35 20.74 19.85 19.89 20.44 20.20 20.71 21.82 23.27 24.50 25.22 27.94
42.06 41.50 41.83 41.28 40.89 40.34 38.43 36.19 34.24 32.77 30.59 29.68 28.26 26.05 24.67 25.05 26.17 27.84 27.29 26.44 25.78 25.04 25.26 25.07 25.48 26.33 26.59 25.56 24.45 23.81 22.74 20.90 18.73 17.05 17.37 17.71 19.10 20.18 21.73 21.76 23.44 24.49 28.08
40.53 40.17 39.47 35.04 33.21 33.33 33.96 33.78 32.84 32.44 30.71 28.96 27.09 23.88 22.33 22.32 22.31 23.08 23.64 24.59 24.84 24.46 24.12 24.56 24.02 25.16 23.94 23.23 22.84 22.07 20.62 19.67 18.14 16.88 16.40 17.52 17.70 18.05 18.30 19.86 19.41 20.97 21.89
37.20 34.15 32.19 30.42 28.69 28.07 28.23 29.41 29.01 29.75 31.22 28.52 26.78 24.94 22.25 21.84 22.90 24.22 24.17 23.75 23.90 24.62 23.43 22.65 20.27 20.03 19.26 19.86 19.58 18.90 18.27 17.86 16.34 16.24 15.87 14.84 14.40 15.14 16.52 17.89 17.72 18.98 18.86
31.87 30.98 29.98 28.24 28.02 27.46 25.77 25.52 29.96 30.31 30.19 29.80 28.91 27.14 26.00 25.52 25.30 24.94 24.97 24.88 25.08 25.27 21.91 18.11 15.80 15.17 16.45 16.93 15.83 15.46 15.52 15.04 14.41 14.37 13.80 13.30 11.74 12.71 13.60 14.59 16.41 16.63 17.60
29.38 28.79 28.09 27.51 26.96 26.22 25.96 25.08 23.19 26.46 28.01 27.59 26.94 26.33 25.77 25.51 25.00 24.41 24.32 24.50 23.93 22.36 18.80 16.54 13.74 13.35 14.66 15.54 14.82 14.06 13.11 13.58 13.16 11.83 12.17 10.57 10.38 11.78 9.08 11.04 13.31 14.82 15.17
28.66 28.86 28.08 27.41 26.74 26.33 26.06 25.84 26.06 24.62 22.78 23.60 26.10 25.70 25.62 24.85 24.01 24.10 24.38 23.49 20.07 20.00 19.14 16.32 15.00 15.29 14.60 13.80 13.27 12.11 12.16 9.88 8.78 8.95 9.10 5.61 6.64 7.07 6.78 8.19 10.63 11.62 13.18
27.41 26.84 27.20 27.05 27.12 26.97 26.98 26.50 26.26 25.63 24.73 23.40 23.58 23.61 24.34 23.45 22.81 22.85 22.15 19.30 17.81 17.31 16.65 16.13 15.54 13.87 12.97 12.38 11.09 8.54 6.17 4.85 3.37 -2.54 0.73 0.32 -1.59 4.67 5.24 6.97 8.65 9.51 11.23
25.92 25.87 25.82 25.35 25.02 24.66 24.73 24.19 23.80 23.65 23.31 22.99 22.23 19.98 19.04 18.42 15.78 15.30 15.14 14.61 15.62 15.76 15.00 14.91 13.94 12.52 11.12 10.41 7.30 3.00 2.86 -0.45 -1.96 0.23 -4.85 -6.30 -4.49 0.34 4.17 6.07 6.49 6.28 10.11
23.89 23.53 23.35 22.69 21.94 21.82 21.89 21.21 21.01 20.52 19.99 19.44 17.50 17.94 18.16 17.22 16.06 16.11 16.04 14.01 14.16 14.54 12.85 12.67 11.22 9.10 7.42 6.65 6.96 2.53 -0.02 -3.94 -1.81 -0.18 1.10 3.73 -5.03 2.63 6.35 6.51 5.72 6.90 9.58
22.19 21.63 20.62 19.56 19.49 19.16 19.68 19.78 19.02 18.68 18.29 17.20 16.98 16.97 17.28 15.98 15.91 15.33 14.23 11.62 10.92 12.10 11.25 9.16 7.80 6.87 6.42 4.58 2.75 -8.47 -7.02 -7.57 -5.94 -1.72 1.34 3.56 5.41 6.02 5.82 5.35 5.01 4.77 7.07
19.90 19.14 18.43 17.94 17.87 17.34 16.70 16.46 16.02 16.28 15.54 15.02 15.16 14.22 13.13 11.81 11.27 10.59 9.58 8.14 9.12 6.24 5.29 3.69 -1.18 1.89 1.32 -7.02 -8.29 -5.04 -3.22 0.59 3.63 5.30 4.74 4.53 5.66 5.22 5.13 4.82 5.09 4.78 5.29
17.46 16.70 16.53 15.47 15.20 14.65 13.67 13.02 13.18 13.26 12.77 11.58 10.75 10.21 9.53 7.12 3.57 3.37 1.75 -0.79 -1.49 -4.67 -6.16 -7.43 -5.01 -4.23 -1.99 -6.69 -9.40 -5.26 0.36 4.07 5.98 6.72 4.51 4.30 4.39 5.28 5.61 5.77 6.04 5.76 5.21
15.07 14.43 13.37 12.03 11.18 11.21 10.27 9.20 7.55 6.73 6.75 4.28 1.78 0.15 2.92 1.21 0.65 -6.87 -9.60 -8.29 -5.04 -10.29 -7.16 -7.55 -8.15 -4.90 -4.28 -4.97 -4.45 -2.61 -0.58 4.47 0.51 1.61 3.61 4.15 3.93 4.23 4.96 5.83 5.62 6.32 6.34
12.12 10.83 9.79 8.68 6.94 5.88 3.23 0.30 -1.41 -1.95 -3.40 -3.76 -6.48 -7.57 -4.13 -3.05 -4.49 -12.28 -10.11 -9.74 -10.11 -9.57 -9.10 -8.38 -6.62 -5.43 -4.69 -2.80 -0.87 2.30 0.71 -0.29 -0.40 2.25 3.60 3.05 2.57 3.73 5.47 5.68 5.79 6.39 6.99

GFSGL_sfc_wetblb_060.txt.gz
Wetbulb
51.19 51.64 52.20 51.90 51.61 52.09 52.63 53.47 53.83 54.59 56.38 56.52 56.50 56.42 56.12 54.84 54.68 54.03 52.08 49.70 49.64 48.16 46.82 47.40 46.15 45.20 45.22 45.04 44.88 43.99 43.00 41.48 38.56 39.44 38.60 37.87 37.52 37.69 38.54 38.54 38.73 38.73 39.39
51.98 51.50 51.92 52.65 52.68 52.21 52.34 53.13 53.75 55.24 56.91 57.20 57.39 57.29 57.12 55.16 52.37 51.67 50.24 49.92 49.25 47.01 46.83 46.31 45.45 45.52 44.65 44.39 43.10 41.63 40.98 40.24 38.47 35.77 37.16 37.04 35.78 37.13 36.66 36.13 37.91 39.13 38.03
53.09 52.15 51.76 51.82 52.22 52.23 52.55 53.31 54.46 55.85 57.06 56.90 57.12 56.68 56.20 54.40 53.45 52.12 51.41 49.99 48.80 47.24 46.38 46.20 45.37 44.77 43.34 42.64 41.67 40.10 40.83 40.45 38.31 37.11 36.89 35.93 35.23 35.21 35.26 35.45 35.51 36.13 37.03
53.22 53.11 52.53 52.40 52.80 53.03 53.93 54.79 55.56 56.99 56.82 57.34 57.28 57.06 55.70 52.78 51.87 50.93 49.51 47.90 47.74 47.42 46.03 45.83 45.18 44.56 43.28 41.25 40.48 39.05 37.92 36.40 35.09 33.55 31.86 32.03 32.48 33.56 32.38 31.32 31.05 33.40 33.03
54.09 53.68 53.62 54.27 54.65 55.39 55.91 56.00 56.60 57.02 57.26 57.61 57.24 54.50 52.51 50.61 49.60 48.62 48.06 47.35 45.52 44.69 44.57 44.59 44.31 43.52 41.79 41.24 40.09 37.15 35.10 32.85 31.67 30.71 28.70 28.85 28.49 28.72 28.34 29.78 28.82 29.34 30.47
54.71 54.51 55.10 55.15 55.54 55.93 56.25 56.37 56.54 56.97 57.71 57.51 54.68 53.18 49.88 49.03 43.09 42.53 44.95 45.31 44.58 43.65 42.53 42.29 42.21 40.34 38.23 36.75 35.83 34.83 33.98 30.59 29.40 27.25 27.13 26.25 25.41 26.65 27.75 27.07 27.16 26.50 24.62
54.96 55.13 55.31 55.54 55.52 55.83 56.47 56.76 56.94 56.74 54.39 52.89 50.78 49.84 48.43 46.79 40.40 41.05 40.38 44.10 43.08 42.58 41.65 40.38 37.67 36.21 35.07 33.40 32.45 31.18 30.01 30.37 30.58 27.33 24.82 24.76 25.27 26.56 26.35 26.00 26.67 26.30 26.10
55.07 55.25 55.39 55.43 55.89 56.24 55.72 54.88 52.65 51.34 51.10 48.97 48.79 47.55 46.23 42.61 39.54 38.95 38.72 41.47 40.23 39.76 39.63 36.82 34.02 32.17 31.83 30.33 27.78 26.90 26.79 27.61 28.00 27.71 25.95 26.55 27.02 27.79 28.43 29.03 28.13 28.01 28.44
53.53 53.72 53.99 55.89 55.71 52.43 51.48 48.12 47.04 47.20 47.06 44.92 44.44 43.88 42.55 39.91 39.03 37.66 38.00 36.59 34.18 32.41 32.24 32.26 31.29 29.93 30.68 30.06 27.15 26.70 27.08 27.77 29.41 28.89 29.02 30.05 30.39 30.16 29.32 28.21 25.81 24.91 23.71
52.77 53.60 53.86 52.96 50.74 49.15 47.18 46.44 45.52 45.20 42.09 41.21 39.97 41.41 39.36 38.23 36.89 36.61 36.01 33.24 30.35 28.60 28.54 28.81 29.45 28.53 28.89 29.27 27.71 26.46 24.98 24.61 24.08 23.84 24.96 25.91 26.27 26.75 27.16 27.12 26.47 23.25 23.23
50.03 49.62 49.40 49.31 48.10 46.48 44.36 43.48 42.17 39.95 36.61 34.57 32.82 33.55 34.66 36.21 35.47 35.26 34.59 32.15 29.62 27.73 26.02 25.06 26.30 28.07 29.12 29.72 28.17 26.04 24.57 23.71 22.57 22.37 22.05 22.68 23.55 23.35 23.51 24.10 24.62 23.64 21.86
46.63 45.62 45.18 44.73 43.47 42.47 41.23 39.85 37.99 35.57 32.62 31.18 29.99 28.92 29.22 30.34 32.17 32.65 32.02 30.61 29.91 27.13 25.52 24.27 25.61 28.31 28.96 27.58 25.92 25.61 24.00 22.67 21.63 19.99 19.62 19.58 19.43 19.80 20.65 21.54 23.02 23.51 24.70
43.57 42.47 41.52 41.31 41.40 41.01 38.86 36.74 34.99 34.21 32.07 30.57 29.04 26.54 25.54 26.91 27.53 28.89 28.49 28.09 27.22 25.32 25.59 26.00 27.25 28.12 26.83 25.34 24.80 23.65 22.03 20.70 19.09 17.47 16.92 17.26 18.31 18.78 19.65 20.90 22.23 22.46 22.83
41.25 39.60 38.29 36.61 35.48 35.78 35.78 35.57 33.69 32.59 30.94 29.66 27.98 25.57 24.41 23.79 24.29 25.16 25.06 24.96 25.09 24.81 24.82 25.05 25.37 25.13 23.91 23.44 22.37 21.62 20.04 19.20 17.63 16.43 15.88 17.02 17.41 16.51 16.11 18.60 17.47 18.65 18.52
36.92 35.17 33.33 32.56 31.45 29.77 29.63 30.57 31.38 31.93 32.94 30.56 28.77 26.64 24.06 22.88 23.07 24.85 24.76 23.81 24.78 24.69 23.53 22.45 21.31 20.52 19.86 20.32 19.25 18.69 17.97 17.27 15.83 15.43 14.51 14.22 14.00 13.65 13.93 15.97 14.71 16.07 15.17
32.38 31.04 30.11 29.55 29.17 29.39 28.62 27.34 30.76 30.83 30.04 29.40 28.32 26.65 25.98 26.35 26.56 26.69 26.35 26.46 26.14 25.32 21.98 18.76 16.46 16.81 16.95 17.38 16.45 15.73 15.81 15.19 14.66 13.68 12.64 12.87 11.40 10.88 11.88 11.84 13.10 12.79 13.51
30.16 29.05 28.54 28.18 27.56 26.91 26.80 25.61 23.29 26.83 29.15 28.95 28.52 27.90 26.94 26.61 26.10 25.81 25.82 25.05 24.26 22.56 18.79 17.22 15.35 14.90 15.79 16.08 15.50 14.77 13.36 14.31 13.14 11.75 10.80 11.26 9.96 9.41 9.50 8.92 9.85 10.44 10.85
28.49 28.33 27.64 27.31 26.96 26.40 25.67 25.62 25.76 24.24 22.51 23.70 26.95 26.74 26.34 25.75 25.63 25.58 25.22 23.62 20.49 21.07 19.03 16.50 15.30 15.49 15.86 15.04 14.37 13.07 12.43 11.70 9.68 9.23 8.80 8.60 6.96 7.03 7.04 6.46 7.36 7.28 8.42
28.05 27.65 27.81 27.64 27.59 27.25 27.04 26.46 25.85 24.34 23.03 22.66 23.44 23.45 24.20 25.15 24.58 24.03 23.31 20.25 18.93 18.27 18.31 17.28 16.38 15.04 14.37 13.71 12.49 10.89 9.53 7.77 7.02 5.10 5.13 5.44 4.63 4.15 4.53 5.23 5.96 5.94 5.74
25.42 25.37 25.49 25.29 24.75 24.38 24.40 23.84 23.63 23.12 22.95 22.23 20.57 18.73 18.96 18.80 16.36 16.22 16.40 16.60 17.09 16.68 16.11 15.80 15.07 13.83 12.12 11.55 9.77 7.86 6.13 5.95 5.39 5.02 5.40 1.99 -0.04 0.39 2.28 3.23 5.39 5.36 6.04
22.33 21.76 21.96 21.68 21.33 21.19 21.02 20.51 20.50 19.80 18.72 17.43 16.45 17.81 18.24 16.88 16.14 16.34 15.71 14.25 14.51 14.67 13.37 13.00 11.61 10.23 9.36 8.16 7.88 6.20 3.97 2.65 2.53 2.52 1.34 1.93 -2.06 0.81 4.12 5.76 5.99 6.12 6.32
20.38 20.02 19.76 19.15 19.28 18.47 18.09 18.35 17.39 17.00 16.62 15.94 15.74 15.16 15.31 14.30 13.54 12.62 10.80 10.19 10.43 10.61 10.17 8.55 7.16 6.34 5.89 4.41 3.36 -2.96 -1.02 -2.96 -2.96 -1.22 -0.60 0.30 3.56 5.13 5.51 5.48 4.79 4.95 5.18
18.22 17.70 17.61 17.36 16.76 15.69 15.00 15.09 13.83 13.14 12.63 12.30 12.08 11.69 11.17 10.08 9.37 8.74 6.51 3.24 4.03 0.36 -0.04 0.29 -2.93 0.06 1.29 -3.43 -3.82 -2.12 -3.32 -0.97 0.82 2.88 3.08 3.20 4.07 3.85 3.78 3.97 4.51 4.74 5.33
16.05 15.23 14.47 13.48 12.84 11.95 11.00 10.39 10.88 10.77 9.79 8.09 6.23 5.36 2.92 -1.53 -5.32 -5.70 -8.95 -10.94 -8.05 -9.69 -10.26 -10.96 -6.52 -3.25 -1.74 -5.07 -7.03 -5.07 -0.66 0.20 3.47 4.70 3.30 1.94 2.00 2.61 3.77 4.36 4.99 5.25 5.68
12.36 11.20 10.19 8.67 7.30 5.90 4.42 3.81 3.15 1.45 -0.07 -2.60 -3.68 -6.04 -0.33 0.17 -2.71 -13.29 -14.56 -11.67 -9.32 -13.30 -8.48 -9.22 -9.52 -5.82 -5.14 -5.64 -5.32 -4.01 -3.82 1.15 2.53 1.19 1.87 2.24 1.73 1.40 2.22 3.53 4.42 5.37 5.76
8.20 7.37 6.11 5.05 3.54 1.96 -1.00 -3.60 -5.50 -6.77 -10.21 -12.02 -13.29 -10.57 -7.85 -5.69 -8.22 -16.01 -13.47 -11.67 -10.59 -9.70 -9.19 -9.18 -7.31 -6.60 -6.39 -4.14 -2.48 -0.49 -0.51 -2.07 -0.69 0.10 1.36 1.92 0.84 0.63 2.36 3.58 4.15 5.25 5.80

GFSGL_sfc_wetblb_063.txt.gz
Wetbulb
55.69 55.67 55.71 55.67 55.94 56.57 56.84 57.29 57.75 57.92 57.82 57.79 58.13 58.20 58.22 58.52 59.03 58.75 57.43 56.91 55.75 56.43 54.17 53.27 53.29 52.63 50.86 50.12 50.06 50.14 49.05 46.04 44.26 43.05 43.75 42.99 43.19 42.48 44.08 46.65 45.88 45.96 45.58
55.69 55.84 55.81 56.03 55.72 55.28 55.05 56.11 57.44 57.63 57.95 57.69 58.15 57.76 56.25 57.09 57.52 56.15 55.99 54.79 52.78 52.12 51.21 50.69 51.60 49.58 48.70 49.33 46.97 45.09 47.06 44.27 41.77 40.62 41.81 41.45 41.31 45.31 45.23 44.06 43.20 42.69 43.53
55.48 55.38 55.63 55.85 55.96 55.17 55.25 55.73 56.82 56.70 57.26 57.90 58.01 58.24 57.88 57.30 57.03 56.35 55.71 54.18 53.45 53.40 51.32 50.37 50.43 49.14 47.73 45.53 44.63 43.00 43.81 42.91 44.89 41.11 41.59 42.42 40.46 43.41 42.37 41.78 41.21 41.06 39.91
55.24 54.67 54.82 54.92 55.41 55.87 56.38 56.32 56.42 56.74 56.65 57.43 58.49 58.22 57.96 58.08 57.57 55.71 54.19 53.00 51.90 51.45 50.69 50.00 48.82 47.64 45.72 44.94 44.08 41.77 44.15 39.69 38.92 40.48 36.19 36.89 38.86 41.07 39.56 37.43 35.79 36.72 35.92
55.33 55.24 55.27 55.87 55.99 55.99 55.96 56.26 56.32 56.72 56.96 56.86 57.41 58.30 58.92 58.55 56.76 55.85 54.50 53.88 51.53 49.11 48.08 47.84 46.79 46.14 43.55 43.29 42.59 39.71 39.01 37.27 34.90 33.91 33.49 34.23 35.39 36.77 34.85 34.87 32.81 34.31 35.75
55.75 55.38 56.18 56.36 56.08 55.98 56.27 56.15 56.63 56.82 57.36 58.03 57.44 57.97 56.76 55.45 46.50 46.68 50.98 51.12 49.31 47.04 45.22 45.18 44.39 42.50 40.38 38.68 38.27 37.41 38.94 34.70 32.72 32.89 32.59 31.71 32.84 32.92 33.62 32.77 31.94 31.28 30.60
56.71 56.54 56.57 56.49 56.50 56.70 56.77 56.98 57.26 57.60 58.17 57.71 57.24 57.29 56.45 54.67 44.32 44.68 43.96 48.63 46.99 45.35 43.79 42.02 40.00 37.85 36.49 35.11 33.77 32.80 32.11 31.81 32.45 33.28 30.82 30.08 30.40 32.91 32.28 31.26 31.06 30.75 30.48
56.51 56.66 57.08 57.14 56.80 57.09 57.48 57.65 58.29 58.22 57.30 56.78 56.19 53.56 53.36 49.32 42.47 40.84 39.61 44.98 43.18 42.75 41.65 39.33 36.15 34.59 33.94 31.88 29.59 28.11 28.36 29.26 29.48 29.51 31.11 32.16 32.47 32.99 32.96 31.94 31.22 30.94 31.76
56.63 56.65 56.90 57.22 57.10 57.20 57.26 57.86 53.83 52.39 49.97 48.34 47.78 47.42 45.94 42.12 38.42 38.59 40.29 38.76 36.09 35.04 35.12 34.85 33.85 32.23 32.23 32.15 29.38 28.11 27.98 28.84 29.82 28.46 28.17 28.35 28.78 28.30 28.84 30.12 28.66 27.74 27.30
56.32 57.27 57.69 57.49 57.23 55.06 51.22 48.76 46.88 47.22 43.91 42.91 41.92 43.07 39.85 38.71 37.04 37.37 37.32 35.15 31.76 30.89 30.92 31.01 31.10 30.79 30.49 29.80 29.06 28.63 26.87 27.23 26.82 27.24 27.95 27.11 26.82 27.85 25.81 27.66 27.91 25.64 26.15
54.41 54.52 54.32 54.62 52.71 50.55 46.88 45.47 43.73 40.56 37.66 35.41 34.13 35.64 37.07 37.72 36.48 36.20 36.06 34.57 31.66 30.11 28.16 27.47 28.35 29.69 30.24 29.75 29.35 28.72 27.37 27.23 24.44 25.01 25.02 25.63 25.70 25.36 25.49 25.45 25.27 24.99 24.12
50.54 49.22 48.18 47.08 46.06 45.56 44.05 42.02 38.94 36.75 34.12 32.71 31.41 30.53 31.30 33.22 34.38 34.40 33.80 32.73 31.79 28.97 26.84 26.92 28.40 29.96 29.54 27.84 27.52 25.67 24.36 24.68 24.65 23.82 22.79 22.46 22.23 22.44 22.78 22.90 23.68 24.54 26.03
45.92 43.56 42.82 42.96 43.23 41.75 38.63 36.77 35.04 34.26 32.78 31.24 30.08 28.29 27.62 28.95 30.24 31.57 30.78 29.71 28.59 27.01 27.22 28.14 29.18 29.00 27.28 26.11 25.39 23.77 23.24 23.49 22.60 21.89 21.27 21.14 21.30 21.73 22.06 22.11 23.44 24.50 24.53
42.27 41.54 40.34 38.32 37.01 36.97 36.49 35.94 34.41 32.90 31.65 30.57 29.39 27.34 26.04 25.73 25.71 25.89 26.14 26.44 26.76 26.95 27.42 28.50 27.69 26.20 25.82 25.07 23.89 23.11 23.04 22.21 21.60 21.23 19.95 20.73 21.15 20.38 19.14 20.43 20.20 20.54 20.12
38.46 36.62 34.73 33.70 32.32 30.84 30.79 32.42 32.32 32.67 33.85 31.87 30.02 28.06 26.67 24.24 24.38 25.99 25.68 25.38 25.95 25.91 26.52 25.49 24.18 23.57 23.38 23.07 22.30 21.77 21.79 21.51 20.50 20.28 19.02 17.76 17.74 17.70 17.61 19.01 18.37 18.44 17.72
34.57 34.51 33.76 32.87 31.43 30.24 29.04 28.09 30.48 30.31 29.92 29.51 28.97 27.69 27.13 27.63 28.06 28.14 27.94 27.28 26.15 25.18 24.25 22.45 21.47 22.24 22.11 21.76 21.13 20.88 20.58 18.47 18.86 17.08 16.34 15.64 15.59 15.64 15.12 16.37 16.98 16.52 15.87
31.94 31.37 31.31 31.11 30.70 29.21 28.09 27.00 24.94 27.89 29.64 29.29 28.83 28.38 28.04 27.94 28.16 27.97 27.94 27.08 24.92 24.16 22.57 21.42 20.62 20.72 20.87 20.40 19.95 19.00 17.31 17.66 16.17 15.18 14.60 14.73 14.78 14.30 13.04 13.95 14.39 14.57 14.44
29.21 29.22 28.54 27.74 27.29 27.03 26.56 25.95 25.53 24.75 23.82 25.14 27.53 27.37 27.57 27.28 27.20 27.15 25.59 24.50 23.21 23.07 22.50 21.30 20.16 19.84 19.45 18.33 17.53 16.57 16.43 16.32 15.09 13.85 13.45 13.21 12.97 12.67 11.80 12.17 12.84 12.45 13.24
27.72 27.29 27.16 27.13 27.28 27.34 27.12 26.29 25.86 25.44 25.06 23.99 24.26 24.37 25.73 25.69 25.12 24.36 23.71 23.60 21.91 21.37 20.86 20.30 20.12 19.33 18.45 17.44 16.76 15.50 14.48 13.76 12.53 11.75 11.43 11.36 11.83 11.11 10.43 11.03 11.74 10.07 10.31
23.95 24.37 24.66 24.64 24.83 24.83 25.83 25.40 25.27 24.64 23.92 22.49 21.54 21.46 22.15 21.95 20.96 20.54 21.25 21.44 20.42 19.43 19.07 18.34 17.71 16.82 16.04 15.50 14.86 13.58 12.62 12.55 12.07 11.57 11.45 11.11 11.05 10.88 9.58 9.92 10.72 10.81 11.53
22.24 22.18 22.91 22.45 22.70 22.85 22.75 22.44 22.32 21.68 20.40 19.58 19.33 19.64 18.93 20.13 19.00 18.71 17.55 17.25 16.99 16.14 15.40 15.30 14.95 13.99 13.71 13.09 12.29 11.81 10.68 10.46 9.77 9.41 9.41 9.58 9.25 8.72 9.91 10.46 10.69 10.92 11.05
22.35 21.53 21.01 20.18 19.86 19.70 19.63 19.29 18.95 18.72 18.12 16.90 16.49 15.89 15.50 16.92 15.88 15.15 14.29 13.95 13.61 13.53 13.32 12.16 11.79 11.13 10.89 9.76 9.15 8.67 7.49 7.05 7.62 7.96 7.90 7.44 8.20 9.32 9.66 9.69 9.57 9.95 10.37
20.02 18.85 18.08 17.49 17.06 16.29 16.66 16.45 16.32 16.01 15.26 15.17 14.74 14.12 13.83 13.28 12.72 11.76 10.29 10.13 10.43 9.91 9.36 9.27 8.41 7.49 8.59 7.64 7.37 6.79 5.43 5.63 6.60 6.96 6.62 7.37 7.84 8.09 8.37 8.26 8.72 8.95 9.69
17.18 16.79 15.53 14.47 14.00 13.53 13.39 13.15 12.53 11.33 11.65 11.85 12.30 11.49 10.42 9.51 8.70 7.69 7.26 8.06 7.89 7.87 6.98 5.56 5.16 3.91 3.94 3.90 5.58 5.96 5.93 5.85 6.29 6.68 6.76 5.91 5.78 6.79 7.54 7.59 8.21 8.51 8.90
13.53 12.47 11.46 10.77 10.37 10.05 9.84 9.30 8.91 8.74 8.24 8.53 8.34 8.37 8.18 8.07 7.15 6.57 6.15 5.60 4.21 4.54 4.04 3.32 3.35 2.99 2.73 0.75 1.13 1.61 2.42 1.89 3.94 3.70 4.68 5.18 4.92 4.97 5.47 6.39 6.78 8.00 8.85
9.82 9.41 8.85 8.50 7.61 7.27 6.64 6.03 5.13 5.33 5.07 5.15 5.58 5.53 5.52 5.40 5.13 4.35 3.54 3.21 2.36 2.29 1.83 2.93 2.41 0.71 0.08 1.33 2.02 1.32 -0.49 -0.86 -0.06 0.03 2.77 4.17 4.48 5.10 6.03 6.03 6.62 7.72 8.07

GFSGL_sfc_wetblb_066.txt.gz
Wetbulb
59.77 60.03 59.90 60.48 61.17 61.22 60.81 60.81 61.12 61.12 61.08 60.58 60.53 60.28 60.33 60.30 61.47 61.43 61.07 61.03 60.72 60.86 60.15 58.48 57.67 57.44 56.27 55.87 54.64 54.47 53.08 52.48 50.23 51.42 50.83 50.67 47.72 46.47 45.65 47.76 49.10 48.20 49.87
59.78 59.91 59.93 60.21 60.08 60.00 60.23 60.96 61.61 61.11 61.37 61.23 61.05 59.97 60.19 60.68 61.37 61.15 60.97 60.09 59.65 57.92 57.35 56.13 54.59 54.41 52.35 53.35 52.79 50.65 50.49 51.29 52.72 48.88 46.90 44.84 44.20 47.36 49.13 48.62 46.79 47.17 47.33
59.58 59.45 59.62 59.57 59.70 59.73 59.52 59.90 60.39 60.21 60.98 61.27 60.51 60.68 60.71 60.58 60.51 60.87 60.05 58.09 56.46 55.73 55.79 54.98 53.44 52.94 51.94 51.74 50.12 49.20 49.56 49.12 46.33 43.46 46.67 44.39 44.99 43.44 42.84 44.15 44.01 45.53 45.11
59.09 59.04 59.00 59.51 59.73 60.05 59.95 59.86 60.06 60.21 59.56 60.07 60.84 60.37 60.86 60.65 60.22 60.57 59.75 57.07 56.40 55.27 54.54 54.46 53.82 52.79 51.19 50.09 47.58 47.47 45.09 42.76 44.30 41.77 40.43 39.04 39.99 41.44 40.95 39.73 40.88 43.39 40.72
59.30 58.71 59.35 59.91 59.81 59.87 59.56 59.51 60.02 60.56 59.53 59.60 59.96 60.49 60.86 60.14 59.87 60.48 59.52 59.07 57.60 56.41 55.55 54.50 53.73 50.72 47.64 48.13 46.23 44.37 43.26 41.37 39.94 39.76 37.88 35.42 36.58 36.93 36.87 39.87 38.68 38.68 39.74
59.60 59.35 59.60 59.43 59.26 59.43 59.57 59.93 59.70 59.77 59.28 59.35 59.67 59.92 60.03 58.98 49.72 45.99 52.13 58.91 57.35 55.85 54.02 51.95 50.20 45.34 43.72 41.62 41.34 40.73 41.48 40.14 37.37 34.78 34.83 34.16 35.55 37.90 38.77 37.46 36.64 35.49 34.25
59.63 59.94 59.74 59.81 59.16 59.14 59.13 58.89 58.66 59.12 59.40 59.30 59.43 59.26 59.24 59.86 45.61 44.88 45.07 56.28 55.37 53.51 50.60 47.17 44.11 44.16 42.00 40.71 36.36 35.53 34.43 35.09 36.24 37.95 34.77 35.99 36.26 36.84 36.73 35.78 35.24 35.15 34.70
60.14 59.60 59.73 59.58 59.39 59.73 59.44 58.84 59.15 59.88 59.14 59.25 59.03 59.16 59.69 59.44 44.88 45.43 44.16 52.58 49.38 47.82 46.03 44.81 42.73 39.41 38.93 36.44 34.53 32.45 31.85 30.38 30.83 31.02 33.15 33.42 33.76 34.98 35.99 35.54 34.80 33.85 34.01
60.00 60.02 60.26 60.25 59.34 59.34 58.97 59.56 60.09 59.92 59.62 59.51 58.61 58.10 57.14 51.18 40.71 39.99 43.13 43.79 40.73 38.90 38.91 39.14 37.82 34.42 34.06 34.51 30.85 29.25 29.18 28.85 30.28 29.82 29.49 29.51 29.37 28.80 29.62 32.24 30.54 29.99 30.16
59.64 60.08 60.74 60.86 60.29 59.79 60.14 59.67 59.49 59.37 54.88 48.12 44.14 44.95 41.54 42.01 37.57 38.82 40.85 38.06 34.50 32.71 33.10 33.93 33.76 33.15 32.44 32.40 31.41 30.02 27.63 27.26 27.12 27.16 27.87 27.86 27.71 29.37 26.60 28.87 30.20 27.70 28.81
59.08 59.86 60.07 60.20 60.09 60.39 59.36 55.23 49.48 43.88 41.44 38.48 36.51 37.23 38.43 38.27 37.05 36.82 36.46 35.06 32.37 31.28 30.43 30.00 31.09 31.80 31.61 31.34 31.16 30.29 29.04 28.18 26.02 27.72 28.22 29.68 30.69 29.78 30.14 30.00 29.49 28.78 27.55
57.31 57.07 56.44 55.51 50.93 50.76 47.19 44.02 42.48 40.17 36.04 34.17 33.61 32.32 33.24 34.35 34.72 34.93 34.55 33.40 32.92 30.64 28.81 29.22 30.51 30.78 29.73 28.56 27.30 26.81 26.68 27.55 27.77 27.89 27.55 26.67 27.17 27.51 28.39 28.42 28.43 28.49 28.97
46.54 45.53 44.34 43.03 42.51 42.80 41.51 39.17 37.67 36.61 34.82 33.07 31.59 30.04 29.09 30.60 30.83 31.80 31.39 30.66 29.95 28.60 29.18 30.46 29.86 28.70 27.80 26.25 26.01 25.16 26.01 26.97 26.60 26.31 25.62 25.79 26.53 27.15 26.63 26.57 26.89 27.00 27.37
42.14 40.64 40.31 38.65 37.86 38.14 37.81 36.65 35.50 34.08 32.83 31.79 30.43 27.93 27.02 26.94 26.91 27.71 27.83 28.30 28.87 29.07 29.48 28.65 27.97 27.49 27.97 25.55 25.00 25.57 26.15 25.24 25.21 25.32 24.77 25.85 25.96 24.76 24.23 24.49 22.98 23.52 22.92
38.49 36.70 34.99 34.16 32.72 31.09 30.91 32.92 32.86 33.98 34.18 31.79 29.82 28.50 26.32 24.53 26.13 27.84 27.60 27.11 27.25 27.43 28.18 28.12 27.17 26.57 26.75 26.82 26.53 25.81 26.15 25.41 25.10 24.86 23.42 22.89 22.36 22.88 22.87 22.98 21.83 21.77 20.37
34.28 34.40 33.45 32.80 31.79 30.41 29.15 28.29 30.91 30.70 30.33 29.92 29.25 27.88 27.44 28.07 29.22 29.32 28.96 28.46 27.78 27.72 28.11 27.88 27.55 27.86 27.32 26.49 26.13 25.20 25.46 22.21 23.81 22.40 21.76 21.24 20.31 20.41 20.49 20.60 20.40 20.53 19.88
30.97 30.87 31.14 31.05 31.01 29.10 28.09 26.36 24.43 27.73 29.61 29.66 29.63 29.66 29.58 29.18 28.85 28.32 28.08 27.13 26.22 27.55 27.67 26.82 26.36 25.91 24.74 23.77 23.68 22.91 22.38 21.79 20.23 20.74 19.87 19.58 19.14 18.99 18.53 18.33 18.66 19.04 18.74
29.58 29.32 28.59 28.09 27.64 26.89 26.66 26.12 26.00 24.42 23.44 24.86 28.02 28.42 28.60 28.20 27.71 27.12 26.40 26.75 25.77 25.79 25.65 24.80 23.68 23.28 22.62 21.99 22.02 21.43 21.02 20.54 19.69 18.72 18.01 17.65 17.24 17.22 17.28 16.99 17.70 17.27 17.68
27.98 27.52 27.94 28.20 27.51 26.97 26.74 26.70 25.78 24.81 24.13 24.09 24.67 24.83 25.97 25.72 25.49 25.52 25.95 26.32 25.05 23.49 23.35 22.39 22.32 21.42 20.99 20.68 20.15 19.20 18.42 17.81 16.59 16.32 16.55 16.39 16.46 16.10 15.63 16.09 16.24 14.23 14.46
26.04 26.74 27.79 28.16 28.09 27.44 27.61 27.02 26.22 25.04 24.48 23.88 23.27 23.63 25.26 25.67 24.28 23.46 23.60 23.50 22.35 21.23 21.26 20.26 19.74 19.18 18.54 18.17 18.09 17.63 17.07 16.65 16.31 15.85 15.32 14.93 14.95 14.84 14.11 13.88 14.55 14.45 14.95
27.42 26.36 26.63 26.67 25.82 25.40 25.35 24.51 24.00 22.63 22.11 20.73 19.65 21.04 21.87 22.45 21.32 20.09 19.09 19.11 18.71 18.28 18.19 18.28 17.71 17.18 16.84 16.45 15.93 15.42 14.31 14.16 13.64 13.13 12.85 13.11 13.03 12.13 12.95 13.49 13.61 13.50 13.66
25.71 24.55 24.07 23.68 23.60 22.69 22.53 22.92 22.61 21.03 20.12 18.72 18.37 18.57 18.96 19.57 18.60 17.55 16.74 16.50 16.45 16.34 16.44 15.83 15.69 15.33 14.91 13.42 12.90 12.54 11.51 11.29 11.50 11.52 11.46 11.14 11.34 12.07 12.36 11.98 11.89 12.25 12.47
23.68 22.90 22.05 21.60 21.38 20.48 20.73 20.60 20.00 19.72 18.77 18.48 17.95 17.05 16.96 16.63 15.93 15.66 14.61 14.69 14.63 14.10 13.32 13.27 12.64 11.71 12.85 11.79 11.66 11.27 9.93 9.82 10.28 10.28 9.11 9.26 9.99 10.88 11.14 10.52 10.53 10.89 11.28
21.12 20.30 18.92 17.99 18.47 18.39 18.04 17.66 16.39 15.15 16.53 16.70 16.43 15.11 14.45 14.15 13.51 12.26 12.22 12.51 12.07 12.28 12.07 10.73 10.30 8.67 8.21 8.08 9.98 10.38 10.23 9.68 9.30 8.51 8.26 8.75 8.67 8.99 9.79 9.85 10.24 10.24 10.85
18.14 16.96 16.00 15.62 15.58 15.41 15.07 14.59 14.22 13.91 13.71 13.73 13.25 13.36 13.36 12.86 12.13 11.99 11.64 10.84 9.08 9.36 8.95 8.49 9.03 7.98 7.14 4.98 5.18 5.61 6.08 4.33 4.78 5.12 6.07 6.75 7.38 7.70 8.15 8.91 9.50 10.08 10.51
14.87 14.31 13.96 13.90 12.95 12.99 12.71 12.09 11.44 11.52 10.87 11.36 11.32 11.15 11.02 10.78 10.84 9.98 9.15 8.48 7.05 6.49 6.92 8.12 7.56 6.03 4.78 5.96 6.49 4.76 1.63 0.54 1.12 1.30 3.01 5.12 6.30 7.88 9.03 9.10 9.08 9.36 9.75

GFSGL_sfc_wetblb_069.txt.gz
Wetbulb
61.19 61.20 60.49 60.93 60.84 61.40 61.83 62.26 61.99 62.39 61.98 61.25 60.96 60.88 60.45 60.53 60.97 61.35 61.15 61.22 61.02 61.25 61.97 61.80 61.52 61.66 60.73 59.49 59.22 57.52 55.57 54.21 51.67 53.33 50.22 54.49 51.64 52.65 48.89 50.59 50.83 50.37 49.87
61.88 61.34 61.95 62.19 62.01 62.00 61.75 62.50 62.97 62.39 63.02 62.13 62.53 61.87 61.80 61.59 61.82 61.29 61.09 61.05 60.81 60.66 61.25 61.26 60.15 59.47 59.21 58.84 55.55 54.39 54.64 54.06 52.76 50.71 50.37 49.62 50.40 49.91 46.57 47.70 49.05 50.28 50.50
61.34 61.51 61.88 62.23 62.36 62.50 62.70 62.98 63.13 62.73 62.69 62.53 62.08 61.38 61.59 61.67 61.64 61.85 61.56 61.28 61.05 60.88 60.91 60.96 59.83 58.23 55.53 55.17 54.69 53.83 53.30 52.76 52.98 51.10 48.12 45.23 47.93 45.08 45.79 48.00 46.15 47.30 47.86
60.69 60.51 61.19 62.04 62.22 62.55 62.87 62.94 62.79 62.88 62.38 62.19 61.93 61.67 61.61 61.46 61.47 61.48 61.28 61.01 61.09 60.96 60.72 60.77 58.66 57.03 54.63 54.68 53.35 52.66 52.02 50.10 49.15 46.72 44.61 43.13 42.11 41.68 42.47 40.63 40.86 43.75 44.62
60.66 60.25 61.00 62.63 62.66 62.08 62.44 62.57 62.37 62.46 62.28 62.37 62.09 61.93 61.99 61.71 61.15 61.23 61.20 60.72 59.84 59.28 59.83 59.18 57.10 55.79 51.24 52.72 53.81 51.72 49.91 47.37 45.44 43.62 40.34 37.44 38.33 38.23 37.98 39.72 36.94 39.42 42.56
61.84 61.39 61.62 62.02 61.93 62.08 62.39 62.44 62.26 62.01 61.89 61.84 61.31 61.34 61.25 60.54 51.57 47.17 53.67 61.00 59.05 59.54 58.42 57.10 56.84 50.17 49.51 44.72 44.65 44.73 46.69 45.10 43.95 42.46 40.69 39.41 36.33 37.54 36.60 36.29 34.60 34.59 35.44
62.25 61.71 61.98 62.05 61.60 61.88 61.87 61.46 61.32 61.47 61.85 61.43 61.15 61.06 60.98 61.44 48.00 45.83 44.51 58.41 59.32 56.84 55.60 57.46 55.20 52.08 47.17 48.76 40.14 38.00 34.90 36.76 37.05 40.75 37.27 35.77 35.26 36.88 36.00 34.48 35.01 35.51 35.18
61.87 61.84 62.17 62.18 61.76 61.83 61.49 61.15 61.36 61.29 60.82 60.72 61.00 61.22 61.05 60.57 46.48 44.19 42.72 57.26 58.90 58.73 58.02 56.49 52.48 45.22 44.35 40.67 36.79 31.86 31.11 31.27 31.61 32.47 32.69 31.61 32.33 33.83 35.11 35.39 35.67 35.80 35.69
61.43 61.81 61.91 62.58 61.92 61.56 61.02 60.96 61.52 61.46 61.07 60.65 60.66 60.30 59.49 60.14 43.84 41.64 43.71 52.69 45.69 39.91 40.41 40.75 40.31 37.79 37.17 36.75 32.72 30.97 31.11 30.34 32.20 32.55 31.94 31.52 30.86 30.39 29.94 33.66 32.22 30.35 30.85
60.76 61.85 62.45 62.82 62.17 61.67 61.90 61.59 61.73 61.41 60.49 59.50 52.50 47.77 41.76 49.72 40.87 41.82 43.57 40.17 35.65 33.44 33.47 34.66 34.70 34.95 34.05 35.57 34.17 31.87 28.29 27.41 27.59 26.99 27.14 27.36 28.30 27.82 27.03 29.25 30.72 28.82 29.16
59.26 59.98 61.25 61.93 62.31 62.41 62.08 62.30 61.94 57.56 47.08 41.53 38.70 37.83 37.60 37.73 38.10 38.79 38.85 36.12 33.33 32.04 31.65 31.11 31.89 33.39 33.44 33.08 32.52 31.24 28.82 29.06 28.06 28.51 28.52 28.86 29.94 30.46 30.64 29.95 30.51 29.38 27.73
55.20 53.85 52.10 52.21 53.36 55.05 54.72 50.43 48.48 44.64 39.32 37.01 35.35 33.50 33.47 34.24 34.43 34.71 34.54 33.90 33.32 30.97 29.62 30.32 30.89 31.21 30.65 30.49 29.59 29.55 28.64 28.19 28.79 27.97 28.39 27.82 28.32 28.68 29.94 30.63 30.22 29.59 29.79
45.42 44.79 43.56 42.47 42.18 41.91 42.04 41.32 39.32 39.45 37.73 35.43 32.36 30.34 29.36 30.62 31.34 32.15 31.91 31.49 31.01 30.14 29.80 29.73 29.43 28.76 27.92 27.34 27.70 27.87 28.42 28.63 28.14 27.62 27.16 27.49 28.93 28.72 28.39 27.81 28.72 28.94 28.61
37.31 36.82 36.52 35.48 35.52 35.62 36.29 36.51 35.38 34.64 33.39 32.03 30.11 28.27 27.86 27.69 28.20 29.37 29.83 30.12 29.34 28.54 28.09 28.11 28.07 27.30 26.18 25.77 26.41 27.98 27.20 26.80 27.08 26.76 26.09 26.86 27.70 27.04 26.26 26.94 25.23 25.41 24.45
34.46 33.65 33.42 32.40 31.23 29.76 29.47 30.95 31.19 31.92 33.32 30.71 29.29 28.41 26.61 25.22 27.12 29.31 29.28 28.87 28.42 27.48 28.18 28.49 27.89 27.53 26.87 27.31 26.92 26.88 26.64 26.16 25.57 25.55 24.58 24.18 24.02 24.02 23.88 25.22 24.24 23.22 21.49
32.80 31.71 31.42 30.79 30.17 29.08 28.03 27.83 30.50 30.43 30.48 29.76 29.40 28.40 28.76 29.59 30.17 30.24 30.19 29.98 29.99 30.08 30.15 29.25 29.13 29.44 28.38 27.35 26.79 25.80 25.70 23.89 24.00 23.22 22.83 22.34 21.66 21.70 21.42 22.19 22.04 20.79 19.97
30.76 30.54 29.57 28.83 27.94 27.41 26.67 26.17 24.77 28.16 30.31 30.24 30.20 30.06 29.71 29.48 29.26 29.00 28.64 28.89 29.80 30.25 28.18 27.94 27.40 27.00 26.11 25.65 24.97 23.79 23.04 22.59 21.58 22.38 21.64 20.98 20.37 19.98 19.09 19.07 19.54 19.47 19.07
29.62 29.19 28.57 28.36 28.01 27.12 26.10 25.68 25.60 24.45 23.61 24.80 28.28 28.13 28.28 28.11 28.14 28.16 28.44 28.69 26.30 26.58 25.93 24.80 24.07 23.81 23.05 22.48 22.26 21.56 21.09 21.00 20.71 19.40 18.85 18.83 18.60 18.10 17.40 17.26 17.81 17.53 17.23
28.95 29.35 28.54 28.74 28.57 27.59 27.29 26.29 26.10 25.29 24.10 23.97 24.70 25.06 26.44 27.01 26.95 27.02 26.97 25.90 24.10 23.16 22.95 22.19 22.27 22.05 21.12 21.07 20.44 19.94 19.26 19.10 18.24 18.35 18.48 17.79 17.51 16.12 15.27 15.78 15.94 15.12 14.96
28.91 28.76 28.69 28.20 28.42 28.53 27.98 26.46 25.44 23.81 22.81 23.36 23.86 24.59 25.85 23.77 22.21 21.63 22.12 22.65 21.81 21.01 21.20 19.83 19.67 19.44 18.98 18.64 18.96 18.63 18.15 17.58 16.97 16.48 15.87 15.54 15.30 15.12 13.83 13.73 14.28 13.69 13.81
27.83 28.28 26.54 27.13 27.22 26.88 25.91 24.91 24.24 22.94 20.79 20.58 20.69 22.43 22.71 21.65 20.18 19.25 18.35 18.90 18.40 17.80 17.92 18.57 18.78 17.99 17.62 17.09 16.44 15.69 15.14 14.52 14.38 13.86 13.58 13.71 13.57 12.32 13.19 13.55 13.54 13.62 13.65
26.46 25.78 24.92 24.15 24.10 24.16 23.79 23.61 22.54 21.73 21.17 19.95 20.09 20.53 20.16 20.21 18.88 17.51 16.84 16.71 17.21 17.16 17.03 16.44 16.18 15.63 15.49 14.26 13.53 13.26 12.51 11.97 12.38 12.38 11.84 11.34 11.53 11.73 12.50 12.41 12.24 12.04 11.90
24.05 23.42 23.03 22.61 22.21 21.58 21.45 21.53 21.11 20.32 19.44 18.88 18.47 17.73 17.60 16.99 16.57 16.06 15.14 15.57 15.34 15.03 14.45 13.98 13.47 12.60 13.65 12.38 12.48 12.41 11.01 10.79 11.05 11.01 9.60 9.37 9.65 10.37 10.93 10.25 10.30 10.57 10.97
22.27 21.94 20.73 19.85 19.70 19.61 19.13 18.81 18.19 17.04 17.58 17.23 17.24 16.44 16.00 15.22 15.10 14.06 13.74 13.14 13.06 13.33 13.32 12.10 11.89 10.75 9.30 9.67 10.78 10.57 11.05 10.31 9.17 8.19 8.25 8.23 8.42 8.92 9.19 9.49 9.62 9.85 10.21
19.81 19.11 18.71 18.17 17.90 17.88 17.52 16.90 16.53 16.69 16.22 16.00 15.24 14.96 14.91 15.01 14.04 13.66 12.85 12.29 11.02 10.85 10.73 10.55 10.98 10.01 9.32 6.88 6.88 7.62 7.79 4.99 4.26 3.63 5.00 5.98 6.65 7.13 7.49 8.54 9.52 10.44 10.66
17.01 16.65 16.65 16.46 16.18 16.06 15.63 14.99 14.49 14.40 13.78 13.98 13.58 13.39 13.07 12.83 12.17 12.02 11.18 10.57 8.01 7.92 9.43 10.20 9.76 8.41 7.28 8.15 8.71 6.37 3.23 1.97 2.19 1.93 2.76 3.91 4.58 6.22 8.21 9.19 9.41 9.04 9.13

GFSGL_sfc_wetblb_072.txt.gz
Wetbulb
58.51 58.28 57.85 58.36 59.39 59.66 58.99 58.93 58.80 59.68 59.37 58.17 57.73 57.64 57.44 57.07 57.61 57.67 57.59 57.48 56.69 56.47 57.30 57.13 57.42 58.24 57.98 58.22 58.24 58.12 56.53 55.86 53.53 54.90 53.78 53.76 51.39 52.08 48.13 49.18 49.51 47.90 45.00
59.99 59.05 58.60 58.64 59.09 59.05 59.04 59.05 59.33 58.83 59.35 59.02 58.13 57.84 57.61 57.75 57.66 57.10 56.71 57.06 56.26 55.69 56.49 56.63 56.95 57.66 57.38 58.07 58.22 57.35 57.09 56.85 55.15 53.14 53.68 51.37 51.24 51.59 47.65 46.81 49.56 49.98 48.35
60.80 60.11 59.41 58.75 58.81 58.83 58.77 59.26 59.49 59.42 59.13 59.19 58.87 57.98 57.92 57.80 57.40 57.35 56.95 56.66 56.72 56.66 56.62 56.54 56.52 56.88 56.56 57.77 57.82 56.63 56.53 55.80 55.02 53.66 53.20 48.61 48.61 46.52 45.79 45.62 45.38 46.06 48.29
60.22 60.15 59.46 59.55 59.35 59.58 59.46 59.45 59.31 60.05 59.19 59.08 59.17 58.74 58.78 58.42 58.51 58.09 57.68 57.11 56.90 57.20 57.34 57.37 57.08 56.88 56.60 57.12 56.78 56.03 55.08 53.86 53.60 52.67 52.24 43.42 45.51 43.80 45.87 44.34 42.67 43.36 43.57
59.53 59.35 59.48 60.23 60.72 60.54 60.05 60.32 60.20 59.73 59.92 59.67 59.31 59.31 59.13 58.81 59.04 58.39 58.47 57.83 57.47 57.54 57.66 57.69 57.52 55.96 51.68 54.47 55.91 54.65 53.79 52.56 52.15 50.69 49.74 40.32 41.01 38.66 42.00 42.71 41.24 39.77 41.17
59.87 59.15 59.66 59.79 60.51 60.11 60.19 60.41 60.34 60.09 59.96 59.74 59.29 58.86 58.51 58.64 51.24 47.08 52.61 57.49 57.33 56.73 56.30 56.94 57.08 49.35 49.60 46.19 45.70 46.44 51.78 52.90 50.69 49.43 48.17 43.92 43.73 40.12 37.60 36.82 35.35 33.92 31.76
60.36 60.44 60.08 59.84 59.46 59.76 60.18 59.87 59.57 59.23 59.55 59.07 59.04 59.02 58.67 58.63 47.89 45.87 44.74 56.29 56.91 56.86 56.33 56.22 55.54 54.56 48.46 52.64 44.34 39.84 35.76 35.29 39.48 46.89 43.83 36.59 34.78 36.52 36.59 33.60 32.28 32.11 31.84
61.28 60.98 60.82 60.43 59.72 59.74 59.46 59.18 59.13 59.31 58.74 58.51 58.36 58.65 58.35 58.46 46.71 45.71 43.02 52.27 55.51 55.98 55.98 55.77 53.37 52.76 49.33 45.60 37.11 33.05 32.72 33.03 34.01 34.87 33.99 33.60 34.16 35.19 34.86 33.71 32.26 32.23 32.14
59.80 60.88 61.41 60.95 60.17 59.71 59.08 58.84 59.01 58.74 58.48 58.42 58.52 58.07 57.64 57.66 45.57 43.87 43.28 51.20 53.61 42.44 40.05 39.71 42.23 40.81 38.90 38.50 34.31 32.84 30.87 30.05 32.87 33.59 33.29 33.26 33.24 33.30 33.23 32.46 30.50 29.41 29.18
54.37 56.23 56.91 61.16 60.77 59.91 59.54 59.16 59.01 58.97 58.13 58.31 56.09 46.05 40.09 47.24 39.12 40.78 43.69 42.84 36.83 33.72 33.60 34.18 34.88 35.21 35.10 35.38 34.01 31.78 29.03 27.46 27.73 27.51 27.24 28.95 29.47 29.12 29.04 29.91 29.55 28.48 28.50
50.30 49.83 48.51 49.65 51.93 55.75 59.21 58.75 58.51 57.54 46.23 40.07 36.48 35.77 36.04 37.05 37.29 38.44 39.73 37.55 34.19 31.96 31.51 31.41 32.41 33.71 33.84 33.30 32.03 29.75 27.99 28.99 28.92 28.28 28.21 28.59 29.75 30.11 29.94 27.98 28.78 28.10 27.19
41.65 40.50 39.55 39.54 40.69 43.95 48.40 46.02 45.37 42.63 38.71 35.16 33.68 32.02 32.52 33.32 34.43 35.28 35.36 34.29 33.68 31.22 30.04 30.56 31.62 32.27 31.66 30.67 29.52 29.75 29.40 29.01 28.52 27.66 27.30 27.23 26.97 26.87 28.12 28.08 28.24 27.87 28.30
36.90 35.40 34.55 33.97 33.15 34.28 36.51 38.34 37.97 38.28 36.04 34.07 31.77 29.88 29.37 30.93 31.96 33.00 32.90 32.34 31.59 29.89 29.80 30.13 30.25 29.84 29.38 28.75 29.59 29.90 29.28 28.88 28.24 27.29 26.58 27.08 27.20 26.13 26.73 27.29 27.86 27.79 27.08
35.31 33.83 32.61 31.07 29.90 29.68 30.64 32.06 32.34 33.24 32.49 31.51 30.23 28.53 28.27 28.17 28.93 29.89 29.25 28.85 28.39 28.02 27.35 26.32 26.16 26.26 26.68 27.49 26.62 26.72 26.40 26.30 26.46 25.21 25.05 25.86 26.63 25.96 25.49 26.30 25.02 24.55 23.03
33.79 32.67 31.13 30.13 29.02 28.28 28.62 28.89 29.40 30.09 31.70 29.08 27.91 27.96 26.83 26.59 28.74 30.11 28.42 27.05 27.09 27.40 27.60 27.47 26.68 26.52 26.04 26.12 26.30 25.66 25.74 26.06 24.09 24.00 23.30 22.85 22.78 23.01 22.80 23.47 22.82 21.31 17.81
31.45 30.24 29.96 29.13 28.37 27.87 27.03 26.76 30.44 30.89 31.20 30.76 30.43 29.29 29.50 30.57 31.10 31.22 31.02 30.98 30.84 30.61 29.32 28.06 27.56 27.01 26.16 25.76 24.69 23.93 23.86 21.62 21.81 22.18 21.54 21.22 20.28 19.70 19.41 19.77 20.62 19.73 18.67
29.67 29.41 28.45 28.11 27.38 26.58 26.37 25.61 23.81 26.75 29.11 29.57 29.82 30.05 29.95 29.84 30.19 30.55 30.44 30.29 30.38 28.50 25.29 24.11 23.61 23.25 22.86 22.93 22.24 22.08 20.36 20.76 21.89 19.72 18.45 17.91 18.19 17.93 17.46 17.26 17.65 17.79 17.25
29.01 28.47 27.75 27.45 26.92 26.34 25.58 25.29 24.85 23.34 21.98 23.22 27.40 27.52 28.37 28.96 29.69 29.36 28.59 26.97 23.56 24.36 23.26 22.16 21.34 21.31 21.25 20.38 19.94 19.10 18.86 18.97 17.36 16.52 15.15 14.10 14.31 14.99 13.70 13.72 14.31 12.49 13.36
28.71 28.52 28.39 27.42 27.15 26.76 26.17 25.40 24.85 23.98 23.13 23.03 24.04 23.29 24.08 25.70 25.76 25.56 24.90 21.87 20.85 20.09 20.13 19.18 19.25 19.07 19.11 18.97 18.45 17.95 16.42 15.44 15.36 13.45 13.89 12.83 8.40 11.80 9.91 11.08 10.68 9.80 10.22
26.90 27.00 28.00 26.96 26.45 25.27 24.22 22.71 21.94 21.35 20.48 20.14 21.28 21.58 22.02 20.44 18.27 18.25 19.17 18.97 18.15 18.43 18.70 17.87 17.39 17.28 16.65 16.10 15.60 14.66 13.45 12.79 12.26 11.03 7.60 6.42 6.12 7.32 7.45 6.44 6.11 7.49 10.77
26.42 25.52 25.03 25.16 24.59 23.99 23.02 21.50 20.62 19.74 19.03 18.48 18.98 20.45 19.89 17.95 16.77 16.57 16.23 16.13 15.72 15.51 15.39 16.04 15.48 14.76 13.99 13.28 13.09 11.60 11.16 9.25 8.89 7.52 8.97 8.98 1.42 3.03 7.46 7.21 8.05 9.74 10.45
24.45 23.76 23.30 22.10 22.58 22.63 22.30 22.16 21.53 20.22 19.55 18.25 17.61 17.62 18.08 17.22 15.80 15.08 14.73 13.97 13.92 13.31 13.75 13.31 12.98 12.58 11.36 10.54 9.74 5.93 6.04 3.10 4.25 5.09 3.19 2.41 3.96 5.26 6.71 7.81 6.21 4.45 7.65
22.11 21.24 21.07 21.12 20.54 19.01 18.43 18.81 19.00 18.22 17.45 16.67 16.34 15.41 14.71 13.14 13.07 12.96 11.90 12.26 12.89 12.12 11.32 10.37 9.76 9.26 7.45 6.65 8.29 8.30 5.20 6.47 6.27 3.24 -0.71 -0.72 3.37 5.18 4.72 2.82 5.49 5.01 4.75
19.65 19.56 19.00 17.74 17.19 17.15 16.80 16.40 15.88 14.11 15.41 15.05 14.36 13.69 12.67 11.95 11.61 9.95 9.03 7.11 6.76 8.06 7.87 3.98 9.03 4.97 3.73 1.75 1.40 2.55 6.45 3.03 1.96 2.01 -0.17 -0.42 1.37 3.24 1.98 3.68 4.29 2.86 5.49
17.76 17.16 16.77 16.59 15.92 15.17 14.72 14.28 13.95 13.84 13.27 12.83 12.23 12.43 12.45 12.01 10.92 9.87 7.60 8.32 6.17 3.74 4.37 4.70 3.76 3.78 3.99 -0.98 0.36 2.86 -0.45 -3.06 -5.99 -4.69 -3.53 0.02 -1.79 -2.75 0.00 3.48 5.48 7.92 6.87
15.23 14.65 14.39 14.24 13.44 13.29 13.02 12.01 11.51 11.60 10.82 11.04 10.48 10.43 10.55 9.45 7.76 7.72 6.59 3.57 0.42 1.56 4.50 2.79 4.70 1.50 1.13 3.64 3.48 -0.30 -4.21 -3.54 -4.85 -2.83 -5.38 -1.10 -2.76 -1.79 1.92 4.56 4.45 3.56 5.14

GFSGL_sfc_wetblb_075.txt.gz
Wetbulb
57.13 57.76 58.27 58.16 58.48 58.45 57.34 57.22 56.75 56.27 56.12 56.88 57.68 58.20 58.18 57.31 56.80 56.37 56.25 55.78 55.69 55.80 56.41 56.10 56.02 55.80 55.76 55.89 56.47 56.37 55.82 55.57 52.80 54.51 54.97 55.07 53.15 54.52 54.59 54.20 54.16 52.36 51.14
56.89 56.88 56.96 58.23 58.72 58.16 57.26 56.92 57.20 57.61 57.70 56.98 56.80 57.02 57.56 57.26 56.66 55.68 55.37 55.82 55.53 55.38 55.75 55.79 55.52 55.84 55.42 56.44 56.35 55.91 55.88 56.03 54.66 52.77 54.84 54.13 51.26 52.87 54.38 49.94 49.94 50.54 48.36
57.30 56.58 56.22 56.29 57.34 57.60 58.10 58.08 57.20 56.82 57.81 58.04 57.41 56.41 56.26 56.58 56.31 55.83 55.62 55.49 55.64 55.78 55.47 54.54 54.73 54.78 54.97 56.02 56.06 56.22 56.61 56.37 56.18 55.27 54.56 55.58 53.52 48.39 49.33 47.87 48.83 49.28 48.78
57.70 57.04 56.23 56.00 56.24 56.71 57.95 58.40 58.32 57.63 57.11 57.55 57.68 57.00 56.44 56.39 56.21 56.02 55.78 55.37 55.41 55.64 55.50 55.24 55.13 54.75 54.71 55.27 55.40 55.72 56.50 56.50 56.30 55.13 54.36 54.02 50.16 47.74 49.70 50.33 44.82 46.68 46.77
57.78 57.47 57.01 57.18 57.27 57.12 57.05 57.75 57.79 57.75 57.74 57.58 57.30 57.47 57.20 56.69 56.67 56.17 56.25 55.62 55.13 54.95 55.17 55.50 55.45 54.30 50.74 52.91 55.24 55.29 56.16 55.69 55.27 53.98 52.55 52.40 46.08 40.10 44.11 47.04 47.42 46.41 41.65
57.51 57.23 57.58 58.00 57.92 57.53 57.47 57.54 57.50 57.51 57.63 57.62 57.30 57.17 56.84 57.11 50.34 46.55 51.69 55.75 55.56 54.97 54.40 55.17 55.68 49.57 49.57 45.85 45.57 47.55 53.82 55.19 54.26 53.32 52.50 51.16 50.80 47.72 44.76 40.78 36.42 35.49 35.19
57.60 57.76 57.53 57.38 57.85 58.21 58.25 57.93 57.56 57.46 57.62 57.17 57.32 57.30 56.77 57.15 47.12 45.66 44.52 55.56 55.88 55.92 55.48 55.45 54.91 54.86 48.76 53.53 43.85 38.65 36.38 36.33 38.42 48.87 51.13 50.52 42.81 37.37 36.88 34.24 33.32 33.29 32.49
54.89 55.93 57.28 56.77 57.13 57.51 58.08 58.04 57.93 58.25 57.73 57.61 57.59 57.55 57.40 57.60 46.42 44.67 42.38 51.42 55.16 55.43 55.19 55.02 54.57 54.32 51.64 49.48 39.85 34.17 32.99 33.52 34.44 36.11 36.86 34.47 35.03 35.72 36.09 35.29 33.63 32.18 31.96
49.67 50.03 49.59 51.15 51.70 57.43 56.41 57.22 57.96 57.60 57.48 57.67 57.86 57.17 56.69 57.44 45.79 45.14 44.25 52.56 53.21 53.79 42.80 41.03 45.58 47.54 43.11 41.17 36.47 32.13 30.66 30.54 33.91 34.49 34.19 33.85 33.91 34.48 34.99 34.04 31.44 30.74 28.71
45.23 44.88 44.05 43.97 45.47 46.77 50.01 51.95 56.17 57.09 57.00 57.22 55.38 47.98 40.12 49.70 38.49 40.53 42.12 49.85 44.93 36.46 34.59 35.12 35.72 37.68 36.02 36.07 34.34 31.75 28.42 27.59 28.49 29.18 29.39 29.19 29.80 30.80 32.32 31.83 31.17 28.62 28.84
41.93 41.44 39.92 39.11 40.34 39.79 43.71 44.27 44.52 48.99 49.22 44.59 41.43 36.65 35.97 36.60 37.59 38.59 39.95 40.84 40.41 33.49 32.19 32.03 33.52 34.80 34.99 34.43 33.32 31.35 29.36 29.00 28.53 28.76 28.75 29.15 29.78 29.83 29.41 29.12 29.56 28.89 27.66
38.59 37.08 35.60 35.09 35.62 35.87 35.75 38.00 38.62 39.41 39.26 36.78 34.27 31.88 32.00 32.72 33.68 34.49 34.55 34.19 33.76 31.45 30.60 31.32 31.71 32.20 31.83 31.29 30.27 30.40 29.86 29.28 28.86 27.95 27.15 26.77 26.93 26.54 27.07 27.33 27.92 28.08 28.34
35.23 33.42 32.49 32.19 32.16 32.61 32.08 31.52 32.22 35.08 34.27 32.36 31.32 30.36 30.82 31.36 30.62 31.68 31.68 31.28 31.00 29.80 30.09 30.62 30.79 30.31 29.96 28.94 29.79 29.77 29.27 28.82 27.92 26.57 25.52 24.81 25.84 26.97 27.87 27.95 28.30 27.84 27.44
32.91 31.10 30.39 29.42 29.25 29.92 30.39 30.11 29.94 30.49 29.99 30.14 29.60 27.87 28.07 28.78 28.36 28.41 27.98 27.51 27.39 26.86 26.92 27.50 27.01 26.93 26.51 25.84 26.15 26.83 26.59 26.23 25.33 24.50 24.18 24.96 25.85 25.26 24.42 25.11 23.96 23.70 23.08
31.34 30.69 29.16 28.38 27.90 27.76 28.28 28.89 28.61 29.54 29.79 28.12 27.85 28.20 26.90 26.18 27.95 29.31 28.23 27.34 27.38 27.59 27.69 27.48 26.23 25.84 24.69 24.24 24.70 24.11 24.05 23.96 22.73 23.11 22.51 22.20 22.05 21.97 21.28 21.82 21.64 21.19 19.32
28.93 28.69 28.13 27.77 27.56 26.84 26.30 26.22 30.13 30.44 30.80 30.93 30.60 29.95 30.18 31.15 31.85 32.10 31.86 31.21 31.11 30.14 27.18 24.77 23.77 23.70 23.26 22.69 21.03 20.29 21.18 21.57 21.75 20.87 19.94 19.60 18.49 18.37 18.21 19.10 19.40 18.40 17.14
27.72 27.76 27.50 27.00 26.57 26.07 25.13 24.22 22.32 25.25 27.83 28.56 30.14 30.47 30.29 30.13 29.95 29.77 28.70 28.46 28.13 26.16 22.62 22.13 21.32 21.13 20.75 20.67 20.34 19.61 17.73 18.49 19.16 18.30 17.87 17.25 17.33 16.85 15.83 15.57 15.45 14.46 13.69
27.52 27.15 26.79 26.07 25.35 24.88 24.07 23.32 23.10 21.94 20.68 21.04 25.33 26.80 27.50 27.50 27.53 27.34 26.34 24.42 20.69 21.39 20.50 19.14 18.67 18.85 19.07 18.43 18.24 18.11 17.18 16.77 16.53 16.07 14.81 13.79 13.28 13.55 12.84 12.30 12.11 9.87 11.29
26.77 26.47 25.77 24.37 23.78 23.22 22.80 21.91 21.13 21.24 21.03 20.45 20.60 20.61 21.20 23.73 23.29 23.20 22.67 19.33 17.93 17.50 17.92 17.19 17.34 16.98 16.85 16.31 15.34 14.76 13.86 12.94 12.42 11.71 11.29 10.86 8.54 10.44 9.51 9.93 8.69 8.20 8.56
24.55 24.65 24.55 24.06 22.90 21.24 20.47 19.52 19.15 18.80 18.22 17.53 17.35 17.50 18.48 17.64 15.50 15.27 15.62 15.63 15.19 15.88 16.13 14.92 14.60 13.81 13.19 12.85 11.94 11.76 11.18 10.45 9.77 9.81 6.43 4.53 2.94 5.41 4.43 4.66 4.34 3.83 9.08
22.26 21.86 22.22 22.93 22.38 21.88 20.50 19.12 18.73 17.39 16.28 16.13 16.20 17.61 16.91 15.14 13.49 12.99 12.08 11.34 11.41 11.73 12.16 11.99 11.00 10.49 10.18 9.61 9.40 8.00 6.96 6.72 6.51 5.08 3.35 1.79 -8.05 -0.63 3.58 2.79 3.04 6.09 7.57
21.88 21.46 20.74 19.59 19.33 19.34 19.46 19.04 17.66 16.57 15.84 14.46 13.16 12.46 12.36 11.87 11.52 11.19 10.76 9.48 8.92 9.24 9.73 8.58 8.05 7.24 7.34 6.80 5.91 2.33 3.35 2.28 0.42 -1.18 -1.50 -0.80 -0.08 0.47 1.38 -0.59 -2.35 -3.19 3.26
19.45 18.07 18.18 18.43 18.24 16.90 15.82 16.21 15.56 14.46 12.77 11.15 10.80 10.53 9.44 6.00 6.10 6.01 5.53 7.06 8.17 3.70 4.74 5.17 2.09 3.40 3.30 1.64 1.36 1.17 1.87 -0.84 -4.25 -8.97 -9.32 -8.96 -3.22 -2.37 -4.99 -5.70 -1.44 -1.66 -2.69
16.59 15.69 16.20 15.83 15.16 14.28 13.52 12.97 13.00 12.32 11.90 11.17 9.85 10.19 9.12 7.96 4.48 -1.20 -1.65 -4.13 -0.14 -2.66 -5.24 2.83 0.46 0.98 0.34 -5.45 -8.17 -1.39 -1.05 -9.01 -7.40 -8.66 -13.49 -13.13 -6.79 -1.95 -5.34 -1.62 -0.37 -2.69 -0.54
12.56 12.18 12.05 12.02 11.72 10.52 9.92 9.02 8.88 7.89 6.65 6.17 6.83 6.85 7.99 5.96 6.76 1.04 -3.37 -3.69 -1.84 -2.46 3.45 3.24 1.21 -1.30 -4.19 -4.85 -2.76 -3.44 -6.88 -6.01 -11.30 -8.76 -10.63 -10.46 -11.86 -11.68 -7.89 -2.50 -0.18 4.06 -1.30
11.39 9.79 9.57 9.04 7.86 7.77 5.35 2.95 3.04 5.26 1.43 0.89 0.29 4.03 0.92 1.14 0.88 1.93 -5.09 -3.96 -3.24 -1.50 -3.05 -5.11 -2.86 -2.99 -2.62 0.41 -0.45 -2.74 -7.27 -5.70 -7.41 -6.33 -10.60 -8.42 -9.14 -7.15 -8.42 -6.79 -4.23 -3.60 0.57

GFSGL_sfc_wetblb_078.txt.gz
Wetbulb
57.68 58.03 57.88 58.02 57.83 57.30 56.02 54.60 53.61 54.08 55.17 55.83 56.89 57.26 57.30 57.88 57.53 57.15 57.45 57.06 56.62 56.53 56.40 55.48 55.34 56.07 55.88 55.85 55.93 55.78 55.01 54.46 51.98 53.02 53.83 54.30 51.19 52.73 53.62 53.06 53.74 53.76 53.91
57.09 57.30 57.65 57.93 58.00 57.54 57.37 56.97 55.65 53.94 54.33 55.35 56.22 56.70 57.17 57.26 57.12 57.15 56.54 56.29 55.20 55.48 55.48 55.30 54.89 55.38 54.60 55.24 55.33 54.94 54.44 54.54 53.00 51.32 53.49 53.43 51.72 53.93 53.97 53.05 53.54 54.24 54.11
56.61 56.61 56.62 56.82 57.26 57.50 57.61 57.65 57.50 56.03 55.02 54.54 55.51 55.77 56.18 56.72 56.54 56.02 55.59 55.20 55.04 54.82 54.85 54.29 54.57 54.30 54.01 54.65 54.79 54.34 54.09 54.17 54.01 53.31 53.12 54.70 54.91 52.34 52.33 51.81 53.43 52.98 52.22
56.67 56.05 55.88 56.10 56.55 57.04 58.04 57.91 57.17 57.48 57.19 56.80 55.69 55.66 55.71 56.06 56.65 56.41 55.74 54.96 54.39 54.20 54.31 54.47 54.30 54.21 54.14 54.15 53.72 53.90 54.32 54.05 54.21 54.08 53.93 54.29 55.34 54.23 51.90 53.08 50.81 50.04 50.83
56.51 55.99 55.46 55.77 56.32 56.39 56.67 57.17 58.00 57.62 57.01 57.07 57.15 56.91 56.34 56.09 55.73 55.77 55.82 55.07 54.35 54.12 54.32 54.59 54.96 53.75 50.48 52.23 54.21 53.98 53.90 53.48 53.43 53.39 53.56 54.03 54.03 44.37 47.32 51.87 49.51 51.61 42.29
56.05 56.23 56.65 56.37 55.89 55.79 55.93 56.02 56.41 56.87 57.72 57.49 56.41 56.47 56.37 56.47 49.78 46.61 51.61 54.83 54.69 54.01 53.43 53.90 54.44 49.03 48.99 44.93 44.66 45.99 51.22 52.80 52.64 53.27 53.53 52.86 53.60 53.88 51.26 50.11 50.60 37.83 39.20
56.08 55.90 55.65 56.76 56.39 56.27 56.42 55.99 55.76 55.94 56.59 56.43 56.30 56.28 55.95 56.38 46.96 45.33 44.17 54.52 54.74 54.21 53.92 53.86 53.65 54.11 48.64 52.77 46.48 42.37 42.00 39.13 41.04 52.71 53.58 53.95 53.82 54.55 51.88 37.50 36.19 35.43 33.14
47.91 48.21 48.33 48.10 50.59 52.87 56.99 56.45 56.24 56.46 56.18 56.15 56.15 56.52 56.41 56.66 45.95 44.78 43.06 52.09 54.75 55.28 55.32 54.96 54.39 54.21 53.61 52.48 52.03 45.40 40.64 35.01 35.52 37.36 39.63 39.63 36.25 37.83 39.45 38.25 35.36 32.29 32.07
43.99 44.25 44.37 45.59 46.30 47.95 49.01 49.55 54.44 56.58 56.62 56.53 56.77 56.27 56.08 56.43 43.54 44.21 44.27 53.37 54.18 54.68 55.21 55.43 53.72 53.91 50.61 45.43 47.91 37.71 31.80 31.60 34.19 34.61 33.92 33.50 33.62 34.40 35.84 35.58 32.55 32.78 29.09
39.21 39.39 39.56 40.72 42.05 42.48 44.26 44.45 44.80 47.10 52.28 55.47 45.95 38.17 35.55 37.86 35.01 36.35 39.18 49.99 51.76 51.28 40.68 36.83 35.17 37.83 39.00 39.36 47.91 37.04 30.96 29.15 29.79 29.56 29.36 30.01 30.47 30.94 31.53 30.95 31.57 29.40 28.72
36.19 35.53 34.54 34.68 36.28 36.68 38.88 40.27 40.91 42.96 40.31 37.69 34.35 33.39 33.01 32.65 33.32 34.57 35.19 37.57 41.22 33.85 32.70 31.92 32.84 33.60 33.96 33.62 33.32 31.73 28.97 29.75 29.20 28.87 28.27 28.31 28.23 28.19 28.18 28.38 28.44 28.15 27.20
33.27 31.97 30.89 31.12 32.08 32.56 32.75 34.51 36.65 36.90 35.41 34.31 32.72 30.61 30.02 29.74 31.43 32.49 32.95 32.85 33.08 31.15 30.45 30.66 31.23 32.08 31.70 31.25 30.34 30.62 30.36 29.33 28.53 27.37 26.12 25.22 25.19 25.72 26.79 27.64 28.13 28.05 28.24
30.76 29.20 29.78 29.63 29.83 30.24 29.86 30.15 31.20 32.70 31.95 30.63 29.92 29.28 28.62 29.10 28.88 29.81 30.46 30.18 30.42 28.85 29.22 29.70 30.13 29.87 29.55 28.41 29.15 29.24 28.80 28.00 26.43 24.69 23.82 24.22 25.52 26.56 27.46 27.18 27.42 27.38 27.10
30.47 28.98 28.80 28.32 28.18 28.96 29.45 29.40 29.17 28.91 28.78 29.18 28.81 27.56 27.31 27.39 27.00 27.97 28.26 28.47 28.10 27.61 27.20 26.78 26.88 26.53 25.86 25.36 25.27 25.44 24.81 24.86 24.16 23.27 22.69 23.79 24.81 23.27 22.68 24.04 22.43 22.45 22.09
29.24 28.86 28.35 27.87 27.33 26.87 27.16 28.30 28.63 29.67 29.88 28.08 28.00 27.97 26.94 26.43 28.41 29.70 28.78 27.79 27.75 27.64 27.18 26.25 24.74 23.54 22.37 22.06 22.24 23.09 23.22 22.99 21.71 21.91 20.99 20.55 20.08 20.24 19.71 20.92 20.48 19.55 17.43
27.57 27.47 27.53 27.12 26.49 26.18 25.33 24.94 28.69 29.54 30.16 30.43 30.62 29.66 29.32 30.39 30.41 30.45 30.02 29.39 28.66 27.27 24.17 22.14 21.72 21.38 20.10 20.10 19.74 19.13 19.44 19.74 19.73 19.16 18.60 18.69 17.45 17.30 17.11 17.41 17.07 16.06 14.46
26.47 26.30 25.99 25.78 25.30 24.45 24.21 23.73 21.81 23.72 25.40 27.19 27.69 28.16 28.58 28.27 28.09 27.49 26.74 26.21 25.75 23.87 20.24 19.40 18.40 18.42 18.44 18.81 18.15 17.62 16.84 18.40 19.26 16.97 15.65 15.32 15.27 15.38 14.76 13.79 13.27 13.00 12.07
23.72 23.05 23.03 22.96 22.41 22.09 22.35 22.13 21.48 19.52 17.67 17.86 22.37 24.16 25.46 25.52 25.38 25.27 24.13 22.18 18.57 19.15 18.11 17.32 16.92 17.27 17.43 17.16 16.99 15.88 15.21 14.79 14.47 13.90 12.44 11.75 11.84 12.25 10.96 10.57 10.45 6.96 9.80
24.27 23.14 21.36 20.27 19.65 18.88 18.76 18.71 18.61 17.79 17.02 16.93 17.72 18.35 18.64 21.52 20.88 20.82 20.44 17.17 15.84 15.44 15.54 14.44 14.80 14.39 14.01 13.93 12.86 12.46 11.72 10.97 10.28 9.19 8.55 6.49 1.44 6.22 5.31 7.51 5.96 5.15 6.11
19.92 20.51 19.36 18.81 18.05 17.45 17.22 16.96 17.04 16.59 15.74 15.58 15.07 15.25 15.99 14.85 12.18 11.63 11.99 12.16 12.46 12.73 12.61 11.80 11.43 10.53 10.11 10.42 9.19 8.36 8.23 7.14 6.29 6.58 2.48 -0.05 -2.95 2.69 1.20 3.29 2.90 2.51 6.68
18.60 18.56 18.27 19.36 19.28 18.81 18.11 17.05 16.27 15.28 13.74 13.07 12.68 14.03 13.64 11.92 10.28 9.57 9.38 8.83 8.83 8.94 8.68 7.61 6.17 4.55 4.18 4.07 5.24 3.31 2.01 1.08 0.92 -1.00 -0.82 -0.30 -8.32 -0.64 3.46 2.63 2.79 4.96 6.47
18.72 18.34 17.75 16.51 16.42 17.16 16.58 15.91 14.63 13.67 12.95 11.50 11.11 11.10 10.71 9.50 9.48 9.14 8.05 6.11 5.91 7.75 7.65 5.82 5.36 4.87 3.59 1.62 0.42 -4.18 -4.00 -8.86 -7.78 -6.58 -6.93 -4.76 -2.64 -2.27 -1.91 -2.24 -4.17 -6.15 0.88
15.68 13.91 14.83 15.10 14.83 12.94 13.36 13.61 11.98 11.10 10.27 9.29 9.43 9.46 8.15 6.43 5.81 5.58 4.49 0.96 2.16 0.79 1.20 1.16 -0.09 -0.81 -3.47 -8.19 -6.14 -4.41 -5.12 -7.95 -8.87 -12.89 -14.48 -14.66 -7.25 -7.96 -9.77 -9.22 -5.61 -7.05 -4.87
13.23 12.14 12.96 11.03 10.24 9.91 9.42 8.92 9.19 8.26 8.14 7.86 8.15 6.63 6.27 4.15 0.55 -2.33 -3.94 -6.22 -6.32 -4.33 -5.41 -9.22 -5.28 -3.56 -3.28 -13.03 -12.30 -6.87 -4.50 -12.34 -10.72 -11.60 -16.11 -15.02 -10.50 -7.09 -11.22 -7.05 -5.23 -7.05 -5.78
10.08 9.05 7.93 6.96 5.16 1.94 1.70 3.47 4.12 1.49 1.83 -0.36 3.11 2.23 2.72 3.69 -2.66 -10.15 -10.68 -6.75 -4.75 -6.72 -2.24 -3.24 -3.85 -3.48 -5.44 -7.74 -6.01 -4.29 -7.62 -7.95 -12.49 -10.67 -13.39 -13.75 -15.02 -15.39 -11.76 -7.77 -8.32 -4.90 -7.42
8.58 7.49 6.70 5.98 3.58 0.84 -2.30 -3.24 -6.14 -7.41 -10.67 -11.03 -9.95 -11.22 -11.58 -4.87 -5.97 -12.30 -10.49 -8.37 -7.50 -6.31 -5.47 -6.03 -0.83 -3.14 -3.16 -3.28 -3.16 -5.66 -9.04 -8.34 -12.41 -11.36 -18.11 -12.68 -15.39 -14.48 -14.30 -13.75 -10.49 -8.86 -3.26

GFSGL_sfc_wetblb_081.txt.gz
Wetbulb
57.72 57.86 57.37 57.15 56.97 56.57 54.68 52.89 53.08 53.08 54.15 55.35 56.62 56.89 56.69 57.01 57.10 56.85 57.12 56.84 56.26 56.16 55.84 55.27 55.09 56.10 55.32 55.50 55.49 55.02 54.42 54.25 51.86 53.59 54.57 53.72 51.85 53.05 53.79 53.93 53.93 53.33 53.12
57.34 57.83 57.38 57.70 57.51 56.62 55.23 53.87 52.53 52.36 53.41 54.82 55.56 56.72 57.05 56.81 56.64 56.76 56.23 56.26 55.63 55.45 55.56 55.44 55.28 55.45 54.91 55.13 54.86 54.14 54.24 54.54 53.17 51.76 53.88 53.76 51.63 53.39 53.47 53.21 53.43 53.89 53.93
55.66 56.06 56.18 56.81 57.36 57.05 56.66 56.65 55.25 52.92 52.55 53.80 54.77 55.06 55.72 56.06 55.78 56.12 56.69 56.40 56.10 55.99 55.94 55.49 55.48 55.16 54.27 54.67 54.33 54.03 53.99 54.26 54.32 53.01 52.71 54.67 54.25 50.87 51.23 51.37 53.05 53.81 53.97
55.49 55.23 54.85 54.59 55.43 56.54 57.23 57.30 57.30 56.25 54.70 53.40 53.50 54.45 54.92 55.37 55.98 56.03 55.68 55.43 55.45 55.27 55.27 55.64 55.16 54.50 54.17 54.27 53.80 54.07 54.36 53.91 53.64 52.81 52.54 52.71 53.19 53.66 52.30 53.64 53.05 51.99 52.91
55.45 55.43 55.27 54.97 55.43 55.47 55.41 56.16 56.75 57.25 56.81 56.10 55.11 54.38 54.36 54.49 54.80 55.06 55.61 55.34 54.57 54.05 53.97 53.85 54.07 53.23 49.90 51.75 53.98 53.42 52.84 52.21 52.15 52.09 52.01 52.47 52.22 52.29 49.21 53.08 52.27 52.95 53.58
55.79 55.17 55.65 55.33 55.39 55.21 55.47 55.39 55.53 55.51 55.64 56.18 56.57 56.34 55.49 55.03 48.07 45.34 49.66 54.51 54.54 53.99 53.43 53.71 53.88 48.46 48.37 44.44 44.39 45.74 50.99 51.97 51.01 51.30 51.36 50.91 51.16 52.38 53.23 52.74 52.03 51.61 47.95
49.94 49.98 50.27 54.11 55.71 54.97 54.97 54.99 54.98 54.84 55.55 55.45 55.32 55.58 55.70 56.48 46.63 45.42 44.37 53.78 54.45 54.30 53.91 53.87 53.64 53.73 48.40 52.56 46.69 42.24 42.88 42.48 44.97 52.41 51.36 51.41 51.31 52.77 53.31 52.72 51.53 51.50 50.28
43.78 43.80 44.42 46.89 47.98 50.08 51.96 55.94 55.35 55.45 55.05 55.59 55.78 56.27 56.03 55.67 42.21 43.80 43.07 52.01 54.53 54.55 54.75 54.46 54.22 54.29 53.75 52.40 51.95 51.08 48.73 48.91 44.08 43.16 46.88 47.47 42.98 39.62 43.11 42.85 38.56 32.60 32.54
38.68 38.70 39.12 41.74 41.79 43.74 44.84 45.44 47.15 49.02 53.07 55.97 56.36 55.80 52.51 43.57 36.23 36.62 38.47 49.86 52.97 54.15 55.08 55.12 47.31 50.44 48.14 44.53 49.67 49.32 40.29 32.03 34.24 34.73 34.13 33.79 33.73 33.97 35.68 36.14 33.26 34.03 31.20
34.63 34.87 35.79 37.13 36.50 36.70 38.72 39.26 42.15 45.29 42.62 40.53 35.01 33.61 33.98 33.74 34.37 35.46 36.97 41.61 48.06 49.37 38.12 34.82 34.14 34.15 34.09 35.13 38.51 46.47 35.48 29.36 29.77 29.84 29.32 29.22 29.87 30.32 30.91 29.74 31.91 30.20 28.66
32.59 32.17 31.93 32.66 33.85 33.77 34.79 36.31 37.05 37.89 36.03 33.53 30.93 30.49 30.84 31.88 32.76 34.59 35.76 35.52 34.12 33.82 32.27 30.95 31.71 33.17 33.49 33.47 32.85 31.91 30.77 29.52 28.38 27.78 27.38 27.32 27.37 27.37 27.56 27.85 27.93 27.79 24.54
31.17 30.37 30.30 30.77 31.28 31.88 31.85 32.53 32.97 33.46 32.42 31.58 30.61 29.83 29.77 29.77 31.71 32.39 33.10 33.40 33.80 31.57 29.93 30.38 30.95 31.81 31.83 31.35 30.57 30.80 30.25 28.99 27.53 26.02 25.01 24.62 25.00 25.16 26.11 26.64 27.04 26.81 26.74
29.89 28.93 28.88 29.43 29.94 30.29 29.89 29.92 29.74 30.64 30.14 29.18 28.59 27.63 27.49 28.38 28.95 30.33 30.48 29.85 29.89 29.13 28.78 29.24 29.20 29.04 28.74 27.80 28.36 28.22 27.50 26.42 25.04 23.44 22.29 22.00 22.92 24.36 25.27 24.96 26.29 26.09 25.31
29.01 28.33 28.55 27.47 27.79 28.86 29.42 29.44 29.08 28.69 28.08 28.00 27.62 26.83 27.09 27.23 26.93 27.75 28.41 28.47 27.88 27.33 26.47 25.81 25.54 25.32 24.44 24.12 23.92 24.34 23.79 23.67 22.66 21.64 20.80 21.71 22.26 21.47 20.97 22.44 21.32 22.67 21.19
28.64 27.91 27.22 27.17 26.49 25.56 26.50 27.40 27.26 28.70 29.48 27.88 27.79 28.26 27.23 26.97 28.45 29.63 27.95 26.37 25.40 25.27 24.07 22.78 21.23 20.83 20.01 19.98 19.73 20.31 20.72 20.43 19.09 19.61 19.18 18.98 19.26 19.12 18.01 19.30 19.08 18.56 16.06
26.70 26.72 26.63 25.95 25.92 25.28 23.57 22.85 27.18 27.71 28.20 28.68 28.71 27.28 27.35 28.44 28.55 28.38 27.79 26.96 26.06 24.57 20.39 18.76 18.46 18.46 17.57 17.55 17.21 17.42 18.08 17.76 17.96 17.74 17.03 16.74 16.03 16.04 15.41 15.62 15.71 14.81 13.44
24.61 24.60 23.64 23.68 23.39 23.05 21.57 20.93 18.61 21.42 24.67 25.48 26.00 26.46 26.88 26.68 26.78 26.29 25.47 24.68 23.90 21.81 17.44 16.61 16.37 17.14 17.17 17.36 16.84 16.45 15.07 15.65 16.09 14.45 13.94 14.17 14.67 13.98 13.44 12.12 12.14 12.31 12.12
20.56 20.80 20.11 18.84 17.88 17.45 17.46 16.73 16.44 15.36 14.22 15.24 20.56 22.43 23.85 24.03 23.79 23.58 22.35 20.04 15.88 16.38 15.34 14.23 13.51 14.54 14.79 14.70 14.28 13.62 12.94 12.70 12.22 11.31 9.94 10.15 11.03 11.33 10.27 9.82 9.78 8.95 9.96
21.07 18.68 16.51 16.26 15.84 15.15 15.74 15.14 14.42 13.86 13.04 13.06 13.67 14.73 15.75 19.88 19.30 18.99 18.09 13.90 12.97 12.25 12.76 11.72 11.80 11.94 12.18 11.98 10.99 10.26 9.36 7.71 6.60 5.57 5.21 5.91 3.33 6.98 5.27 7.11 7.21 6.50 7.23
17.59 18.57 15.76 16.02 15.25 14.78 14.45 13.89 13.11 12.23 11.53 10.86 10.38 10.89 11.75 11.17 8.59 8.70 9.04 9.41 9.74 9.79 9.53 8.90 8.82 8.02 7.94 8.48 6.35 6.29 5.45 4.07 2.88 2.68 -4.38 -4.95 -4.05 1.44 -0.83 0.19 0.73 1.16 6.21
13.92 15.28 15.27 16.57 15.96 15.26 14.69 13.08 12.31 11.06 9.85 9.04 8.26 8.81 8.35 8.12 5.89 5.74 6.60 6.68 6.67 5.77 5.60 6.65 5.67 5.67 6.54 5.46 4.89 2.56 0.69 -0.22 -0.38 -1.08 -1.13 -0.75 -10.71 -3.00 1.21 -0.86 -1.58 1.78 4.51
15.18 15.42 14.90 13.82 13.91 12.58 11.87 11.37 9.73 9.17 8.94 7.38 6.39 6.13 4.91 5.36 5.34 4.27 3.51 2.70 2.68 4.93 5.10 4.61 4.25 3.66 3.44 2.66 1.35 -4.49 -7.17 -11.99 -10.56 -9.92 -10.74 -9.28 -6.21 -6.57 -5.86 -5.48 -8.19 -8.36 -1.55
12.03 10.76 11.72 11.62 11.69 8.25 8.89 9.43 7.52 6.41 5.06 3.71 4.62 4.66 3.19 -0.37 -1.26 -0.02 -0.98 -4.19 -0.49 -1.79 -0.93 -0.78 -3.49 -2.53 -1.96 -5.11 -6.06 -5.92 -5.32 -10.20 -10.75 -16.70 -17.60 -17.61 -10.00 -10.73 -12.89 -10.72 -7.28 -8.18 -7.27
9.09 7.08 9.70 7.02 5.29 4.97 3.43 1.39 3.63 3.82 4.16 2.60 -0.21 1.31 -0.59 -5.86 -10.36 -8.72 -6.91 -5.82 -3.84 -5.09 -7.27 -11.98 -8.19 -6.95 -6.36 -13.61 -14.52 -9.45 -5.94 -13.28 -12.89 -13.44 -17.97 -17.06 -12.54 -8.96 -13.08 -8.73 -6.91 -9.44 -9.63
5.06 3.70 3.30 1.06 -1.23 -3.33 -2.47 -2.31 -4.57 -4.56 -2.40 -3.31 -4.73 -4.73 -1.02 -2.89 -4.32 -12.89 -12.72 -10.73 -6.45 -8.58 -5.69 -7.81 -7.63 -6.54 -9.09 -10.36 -9.03 -7.36 -10.01 -9.08 -14.34 -13.08 -15.61 -15.97 -16.88 -16.70 -13.61 -10.36 -12.71 -8.78 -10.54
4.11 2.60 1.21 -0.22 -3.36 -5.64 -7.10 -9.08 -13.43 -13.07 -13.07 -13.07 -14.70 -15.06 -12.34 -9.83 -10.54 -16.15 -13.80 -12.17 -11.99 -11.63 -9.99 -10.17 -7.46 -8.26 -8.00 -4.23 -2.31 -4.84 -9.63 -9.44 -12.93 -12.92 -20.32 -13.26 -16.51 -16.88 -16.52 -15.61 -12.53 -10.89 -6.01

GFSGL_sfc_wetblb_084.txt.gz
Wetbulb
56.93 55.84 56.54 56.63 55.68 54.80 54.35 53.45 53.53 53.61 55.05 56.38 57.09 57.18 56.68 56.90 56.98 56.51 56.16 56.16 55.61 55.71 55.99 55.70 55.48 56.04 55.97 55.84 56.09 55.71 54.89 54.10 51.46 52.95 54.44 55.48 53.20 54.44 54.86 55.08 54.89 54.55 54.18
55.12 56.44 57.01 56.47 56.10 55.81 55.30 54.30 53.00 52.93 53.79 54.94 56.10 56.42 56.56 56.42 56.63 56.55 56.29 56.64 55.80 55.58 55.75 55.55 55.31 55.72 55.46 56.04 55.34 54.87 54.59 54.84 53.40 51.42 53.71 53.93 52.67 54.89 54.43 54.92 54.56 54.41 54.81
55.30 56.58 56.89 56.73 56.53 55.42 54.69 53.89 52.21 52.10 52.58 53.67 54.65 55.32 55.72 56.14 56.43 56.30 56.12 55.56 55.50 55.48 55.71 55.88 55.47 55.64 54.89 55.20 54.85 54.53 54.75 54.48 54.27 52.68 52.41 54.47 54.69 55.04 53.60 53.16 53.89 54.44 54.34
54.36 54.01 53.71 54.06 55.48 56.49 56.30 55.50 54.10 53.11 51.82 52.40 54.00 54.49 54.35 54.49 55.70 56.14 56.09 55.81 55.79 55.75 55.96 56.00 55.94 55.36 55.13 54.95 54.51 54.42 54.22 53.81 53.65 52.70 52.67 53.09 54.02 55.07 53.60 52.66 52.32 53.10 52.64
54.24 53.81 53.65 53.72 54.08 54.18 54.32 54.79 55.36 55.03 54.04 52.80 52.72 53.34 53.87 54.12 54.77 54.95 55.11 54.77 54.63 54.41 54.25 54.59 55.03 54.30 50.55 52.47 55.06 54.51 53.83 53.05 53.08 52.81 52.28 52.51 52.51 52.17 51.79 53.07 52.40 53.17 54.00
54.16 54.08 55.75 53.94 54.12 53.74 53.62 53.74 53.79 53.95 54.27 53.99 53.53 53.73 53.26 53.64 47.17 45.08 51.02 55.10 55.33 54.85 54.44 54.40 54.40 48.78 48.66 44.78 44.94 46.36 51.78 53.78 51.93 51.69 51.77 50.82 51.23 52.18 53.29 52.70 52.14 50.88 49.31
48.26 47.66 48.21 51.32 54.55 54.56 54.76 55.10 55.04 55.38 55.20 54.43 54.55 55.21 55.11 54.81 43.45 44.10 43.48 53.48 54.29 54.42 54.59 54.34 53.77 53.94 48.29 52.58 46.36 42.02 42.87 42.42 44.66 52.66 51.75 51.53 51.46 52.59 52.04 51.79 51.33 50.98 50.79
41.01 41.02 42.77 44.06 45.06 46.61 47.92 47.84 51.25 53.65 55.10 55.24 55.04 55.32 55.60 39.75 35.93 36.60 36.78 47.95 53.30 54.23 54.44 54.55 54.03 54.26 53.87 52.01 52.31 51.34 49.74 47.30 38.59 41.72 43.06 40.03 34.58 34.30 38.19 42.17 40.20 33.13 33.64
35.88 36.22 37.92 38.84 39.61 40.60 40.16 40.89 43.39 46.71 44.39 39.35 38.23 39.19 38.94 35.56 35.02 35.46 36.57 43.69 49.18 52.08 51.59 36.96 36.83 38.14 36.81 38.46 41.66 45.75 40.33 31.68 32.64 33.31 32.97 32.05 32.06 32.09 32.98 36.57 33.66 35.83 31.98
32.51 33.20 34.54 35.77 35.73 36.01 36.77 37.70 39.53 38.82 35.79 35.10 32.50 32.87 32.72 32.81 34.06 35.04 35.85 40.94 41.17 36.24 33.21 32.95 33.22 33.79 34.27 35.55 38.18 39.03 32.44 29.85 29.24 29.04 29.10 29.09 29.60 29.57 30.06 28.92 30.46 29.60 28.30
31.59 31.96 32.02 32.91 33.20 33.68 34.12 34.88 35.44 34.69 32.95 31.36 29.94 29.84 30.08 31.42 31.62 33.25 34.36 34.24 33.54 32.17 31.38 30.61 31.39 32.10 32.61 32.80 32.94 32.98 31.57 30.32 29.13 28.08 27.18 26.77 26.51 26.21 26.37 26.60 26.50 26.88 24.15
30.21 30.09 30.12 30.59 31.20 31.93 31.85 32.03 32.43 32.36 30.93 30.02 29.30 28.59 29.04 29.47 31.27 31.52 31.55 31.39 31.43 28.98 27.98 28.40 28.81 29.63 29.36 29.17 28.74 29.21 28.85 27.71 26.44 24.49 23.39 22.90 23.11 23.33 25.04 24.90 25.50 25.57 25.59
29.53 28.49 28.49 29.20 29.76 29.91 29.80 29.81 29.41 30.02 29.41 28.63 28.22 27.52 27.60 28.63 28.76 29.90 29.64 28.65 28.38 26.64 27.12 26.92 26.91 26.60 25.79 25.42 25.95 25.40 24.90 24.24 22.77 20.84 20.02 20.30 21.58 23.01 24.52 24.90 25.50 24.94 23.08
27.63 26.90 27.36 26.84 27.06 27.83 28.04 28.46 28.58 28.59 27.85 27.61 27.02 26.89 27.25 27.26 26.84 26.43 26.03 25.78 25.23 24.48 23.15 22.22 22.72 22.56 20.78 21.05 21.69 22.15 21.84 21.76 21.06 20.25 20.11 20.98 21.44 20.59 20.10 21.97 20.54 21.88 19.32
27.69 26.94 26.11 25.73 24.61 25.02 25.99 26.28 26.46 27.93 27.93 26.12 26.13 26.43 25.05 24.89 26.75 27.97 25.41 22.68 21.93 22.29 21.30 20.77 19.54 19.15 18.34 18.52 18.51 18.56 19.09 19.33 18.16 18.55 18.31 18.21 18.17 17.52 17.08 18.36 18.24 17.63 15.84
25.39 25.40 25.23 24.19 23.96 22.36 21.60 22.40 26.99 27.22 27.86 28.03 27.75 26.64 26.47 27.40 27.28 27.12 26.61 25.96 24.88 22.90 18.94 16.66 15.65 16.14 16.12 16.49 15.95 15.52 15.78 15.65 16.37 16.73 16.62 16.23 15.13 14.72 14.42 15.03 15.70 14.98 13.65
22.85 22.88 21.73 20.86 21.20 19.80 18.46 17.94 15.13 19.11 23.49 24.75 25.40 25.89 26.54 25.54 25.60 25.05 24.37 23.63 22.51 19.67 14.84 14.05 13.96 14.48 15.07 15.28 14.76 14.36 13.15 13.81 13.90 13.10 12.94 13.18 13.52 13.08 12.49 11.98 12.37 12.78 11.75
18.04 16.84 16.63 15.78 15.35 14.42 13.55 13.55 13.63 12.41 11.70 12.88 18.16 20.93 22.57 22.84 22.40 22.19 20.57 17.61 12.99 13.82 12.79 11.67 11.76 12.38 12.66 12.18 11.82 10.97 10.12 9.93 9.49 9.44 8.91 8.60 9.65 10.56 9.82 9.51 9.68 8.91 9.58
18.31 16.11 14.44 14.22 13.48 12.93 13.20 12.81 11.91 10.66 9.53 9.40 10.51 11.94 12.22 17.94 17.42 17.03 15.78 9.91 8.68 8.52 9.10 8.77 8.48 9.03 9.09 9.30 7.81 7.52 6.49 5.73 4.75 4.41 4.68 5.80 5.62 8.07 7.12 7.51 7.82 7.40 7.60
14.32 16.33 14.73 14.19 12.75 11.99 11.45 10.68 9.78 8.90 7.84 6.85 6.72 6.48 8.09 7.86 5.23 4.98 5.48 4.96 5.15 5.88 6.16 6.36 6.15 6.05 5.35 5.64 2.61 2.25 3.56 3.04 3.18 3.93 2.80 1.03 0.92 5.02 3.82 4.33 4.73 5.40 6.18
13.47 13.34 13.46 13.61 12.79 12.11 11.16 9.86 9.32 7.73 6.66 5.64 4.72 4.32 4.53 4.79 2.80 2.80 3.57 2.58 2.45 2.93 1.76 3.48 2.34 0.84 2.61 1.44 2.60 0.17 -2.39 -1.94 -1.11 -1.14 -0.58 0.26 -3.61 0.36 2.01 2.11 2.72 4.33 5.37
12.19 13.01 13.05 11.71 11.03 9.18 8.98 8.46 6.34 6.10 5.71 4.28 3.06 2.62 0.89 1.24 1.33 1.36 -0.43 -4.58 -4.94 1.31 2.00 -0.10 0.62 1.07 0.17 -0.26 -1.78 -5.36 -6.31 -8.01 -6.14 -6.20 -5.44 -5.38 -3.65 -2.83 -2.06 -0.65 -1.18 -0.99 2.03
9.33 8.09 9.56 9.06 8.83 4.82 4.57 5.79 3.01 1.39 0.19 -1.42 -0.03 0.40 -1.25 -6.78 -6.03 -2.98 -4.22 -8.02 -2.84 -4.45 -3.11 -2.39 -3.78 -1.37 -3.06 -5.18 -3.71 -2.86 -2.99 -4.22 -5.16 -8.87 -8.30 -8.49 -4.86 -4.72 -5.52 -3.23 -1.88 -1.53 -1.39
6.20 3.86 7.38 3.15 1.73 0.84 -3.54 -5.85 -3.13 -0.64 -1.01 -6.03 -10.02 -8.57 -9.67 -13.46 -16.54 -12.73 -12.19 -10.56 -7.89 -10.75 -11.65 -10.93 -4.48 -2.43 -2.17 -7.85 -6.89 -2.91 -1.47 -6.03 -6.08 -6.61 -10.25 -8.16 -5.94 -5.28 -5.71 -3.86 -2.83 -4.27 -3.45
0.62 -0.92 -2.15 -3.90 -6.40 -8.93 -9.67 -9.47 -12.92 -14.91 -12.92 -14.73 -13.28 -11.47 -6.93 -8.06 -8.63 -17.45 -17.45 -14.73 -11.47 -15.09 -9.11 -8.75 -7.84 -5.32 -5.69 -7.91 -7.55 -5.49 -8.23 -8.75 -12.46 -12.26 -11.06 -11.20 -11.51 -12.07 -8.74 -5.79 -6.96 -3.75 -4.64
0.80 -0.45 -2.88 -4.61 -9.11 -12.55 -14.73 -17.09 -18.54 -18.72 -17.27 -18.17 -19.62 -18.90 -16.90 -13.65 -13.64 -20.35 -16.54 -13.46 -12.92 -12.20 -8.75 -8.38 -8.14 -9.20 -8.11 -5.06 -1.70 -2.42 -9.65 -10.02 -11.14 -13.83 -14.21 -7.97 -9.85 -9.53 -9.73 -9.03 -7.58 -5.07 -2.78

GFSGL_sfc_wetblb_087.txt.gz
Wetbulb
56.80 57.89 57.25 56.77 56.91 57.22 57.36 58.39 57.77 57.40 57.73 57.81 57.94 57.85 57.86 56.86 55.62 55.10 54.79 56.73 56.80 56.50 56.68 56.27 55.91 56.43 55.99 55.95 56.23 56.29 57.13 56.66 54.00 54.44 56.57 55.50 54.90 56.14 56.25 57.16 56.40 56.42 56.71
57.04 58.14 57.91 57.63 56.69 56.43 56.76 57.16 57.95 58.52 59.22 58.85 58.21 57.55 57.35 57.37 57.60 56.78 55.35 55.60 56.54 56.53 56.43 56.32 56.04 56.23 55.89 56.37 56.07 55.67 55.40 55.70 54.45 53.82 57.91 59.43 58.91 59.36 59.85 59.08 58.07 58.92 59.34
57.19 57.95 57.47 57.40 57.08 56.52 56.59 56.34 56.12 56.98 58.00 58.45 58.77 58.58 58.37 57.27 56.65 56.90 57.10 56.98 56.20 56.16 56.23 56.07 55.86 56.36 55.77 57.76 58.38 57.46 56.41 56.22 56.64 55.62 56.40 59.11 59.40 60.21 58.95 59.37 59.14 60.38 60.03
58.64 58.86 57.94 57.48 57.97 57.47 57.22 56.25 55.64 56.27 56.99 58.07 58.47 58.82 58.99 59.03 58.99 57.90 57.23 57.29 57.18 57.00 57.23 57.95 58.23 57.83 58.03 58.00 56.48 55.99 55.19 55.16 55.27 54.37 53.94 54.41 56.32 59.10 58.81 57.84 57.71 59.54 58.71
57.64 57.96 57.73 58.43 59.20 59.12 58.84 58.60 58.13 57.08 56.56 56.84 57.43 58.14 58.60 58.77 58.53 58.77 57.97 57.36 57.03 56.89 57.59 58.03 59.41 57.49 51.58 54.73 58.05 58.65 58.39 56.82 55.70 55.46 54.38 54.78 54.45 54.94 55.25 56.78 54.61 55.68 58.52
56.53 55.76 56.84 57.44 58.01 58.30 58.43 58.43 58.64 58.33 57.58 56.95 56.42 56.97 56.76 55.57 47.62 46.22 52.64 56.78 56.98 56.88 57.23 58.41 58.50 50.67 50.46 45.04 45.15 46.35 52.54 55.96 54.57 53.70 53.08 52.23 52.72 53.39 54.20 53.55 53.24 52.32 50.60
45.67 45.76 47.50 51.32 51.15 51.86 54.80 56.12 56.78 56.81 57.52 56.62 56.27 55.56 55.08 49.77 37.02 39.02 40.83 55.98 56.67 56.32 56.44 55.95 55.53 55.52 50.69 55.72 48.10 42.65 43.27 41.99 42.78 50.72 52.00 52.53 52.17 51.07 49.15 51.43 52.45 52.88 51.13
39.93 40.17 41.52 43.45 43.77 44.28 45.26 46.21 48.73 47.82 45.02 46.78 44.48 47.44 40.38 36.41 35.62 35.93 35.71 48.17 51.52 53.88 48.48 42.80 43.85 44.95 39.30 40.02 44.66 48.95 45.68 33.93 35.06 36.87 35.39 33.98 32.95 34.41 36.53 38.92 38.54 34.01 33.81
35.10 36.09 37.41 39.14 39.20 39.50 39.91 40.83 42.61 40.47 37.54 36.28 35.67 36.42 35.56 34.27 34.72 35.50 38.63 46.07 46.63 38.44 35.68 34.94 35.10 35.54 34.71 35.88 39.45 39.88 32.27 31.33 33.48 33.58 32.70 31.81 31.32 31.15 31.35 36.75 35.10 34.90 33.47
32.77 33.19 34.95 35.57 36.10 35.69 36.94 36.75 36.48 35.60 34.11 33.09 31.83 32.38 32.59 32.34 33.72 35.08 37.63 41.97 36.70 33.17 31.90 31.83 32.37 32.94 33.15 34.24 36.81 37.90 32.64 31.16 31.49 29.62 28.74 28.40 28.87 28.12 28.99 29.14 30.29 31.66 30.13
33.05 33.25 33.16 33.83 33.91 34.33 34.33 35.14 34.60 33.31 32.10 30.67 29.89 30.18 30.80 31.31 31.70 32.92 33.78 33.76 31.82 29.91 28.77 28.72 29.84 30.72 31.05 31.26 31.08 30.44 30.37 28.72 27.24 26.98 26.74 26.73 26.86 26.88 26.50 27.59 27.99 28.11 25.86
31.48 31.16 31.32 31.76 32.41 33.31 32.85 32.89 32.80 32.41 31.23 30.37 29.91 29.40 29.89 30.21 30.59 30.78 30.76 30.58 30.52 28.81 27.90 28.65 29.06 29.06 28.71 28.70 28.76 27.99 27.56 27.10 26.38 25.10 24.63 24.17 24.77 25.52 26.71 26.68 26.28 25.91 25.82
29.27 28.76 29.05 29.79 30.32 31.09 31.30 31.69 31.45 31.54 30.75 29.75 29.37 28.84 28.92 29.85 29.56 28.91 28.36 28.05 28.19 27.94 27.60 26.78 26.42 26.36 26.57 26.64 25.87 26.34 27.34 27.80 27.40 26.25 25.56 24.91 25.28 26.05 27.56 27.73 27.36 25.92 24.69
28.61 27.80 28.52 28.54 28.88 29.58 30.03 30.02 29.43 29.71 29.53 28.97 29.02 28.31 28.80 29.59 29.65 29.59 28.90 28.44 26.94 26.96 25.88 25.85 24.91 24.56 24.05 24.99 26.09 26.36 26.35 26.49 26.09 25.31 24.23 24.45 25.08 24.78 23.90 24.78 23.91 25.27 22.42
27.54 27.14 26.60 26.90 27.30 26.89 26.90 27.91 27.93 28.66 28.78 26.85 26.98 27.42 27.06 26.66 27.77 28.39 28.11 28.01 27.61 25.21 26.54 26.96 26.03 25.60 24.73 24.12 23.61 23.21 24.44 24.44 23.60 23.94 23.69 22.89 21.87 21.70 20.77 22.16 21.86 21.66 19.96
26.16 25.80 25.66 25.54 25.35 25.53 25.00 23.85 26.27 26.75 27.24 27.69 27.75 27.45 27.39 27.27 27.15 26.59 25.74 24.61 23.95 24.25 24.75 23.42 22.09 22.29 21.45 21.38 20.97 20.37 20.15 19.23 20.35 20.90 20.74 20.34 19.40 19.12 19.07 19.87 20.50 19.53 18.56
23.76 24.07 24.00 24.12 24.06 22.90 22.93 22.09 19.69 20.56 23.07 23.91 24.88 25.20 25.39 25.27 24.98 24.15 23.10 22.37 22.08 22.88 21.20 20.19 19.73 19.60 19.39 19.06 18.62 17.98 16.90 17.14 17.32 17.53 17.63 17.51 17.99 17.68 17.76 16.88 17.51 17.48 16.87
21.21 19.46 22.11 21.85 21.69 21.29 20.82 20.10 20.14 19.83 18.27 17.72 18.56 20.44 21.91 21.85 21.45 20.96 20.32 21.30 19.64 18.77 18.52 17.78 17.42 17.52 17.19 16.50 16.06 15.62 15.38 15.23 14.95 15.07 14.99 14.84 15.84 16.08 15.56 15.17 15.11 14.25 15.48
22.08 20.57 20.26 20.22 19.22 18.98 19.45 18.72 17.75 16.92 15.79 15.89 17.16 16.10 14.71 16.89 16.75 16.89 17.11 16.45 15.67 14.86 15.09 14.65 15.18 14.97 14.58 14.21 13.82 13.16 12.43 11.90 11.86 12.20 12.33 12.32 13.15 14.34 13.21 13.50 13.79 10.47 12.09
19.90 18.16 19.06 20.16 19.27 18.68 17.90 16.85 16.01 15.13 14.28 13.38 12.72 12.53 14.88 15.07 13.48 12.58 12.90 13.34 13.00 12.85 13.06 12.46 12.48 12.67 12.73 12.68 12.14 12.12 11.74 10.87 10.54 10.82 10.54 10.50 11.54 12.45 11.71 11.17 11.37 11.89 12.18
20.28 19.03 16.92 19.14 18.23 17.65 16.82 15.64 14.89 14.07 12.50 11.47 10.16 9.02 7.53 11.74 10.61 10.48 10.45 10.31 10.57 10.54 10.69 11.12 10.92 10.79 11.19 10.35 10.18 9.58 7.89 8.17 7.04 7.16 8.04 8.52 8.13 9.41 10.18 10.77 10.78 10.84 10.94
18.77 18.30 17.80 16.42 16.30 15.64 14.77 14.32 13.50 12.40 11.31 10.46 10.12 8.16 6.97 10.48 10.07 9.21 8.77 8.33 9.15 9.67 9.92 9.73 9.45 8.95 8.39 8.49 8.02 8.04 6.07 5.36 5.28 5.17 5.30 4.57 6.15 7.79 7.95 8.68 8.79 9.34 9.63
16.42 16.05 15.33 14.72 13.90 11.49 12.65 12.33 11.81 11.51 10.29 9.88 9.43 8.46 8.18 7.88 7.53 7.44 6.73 7.43 7.87 7.79 7.97 8.73 8.41 7.26 7.11 6.53 7.06 6.94 5.60 4.34 3.86 3.05 2.90 3.72 5.12 6.05 6.50 7.13 7.13 7.36 7.82
14.32 14.47 13.23 12.08 11.98 11.29 11.26 10.85 10.26 7.78 9.14 8.71 8.69 7.60 6.80 6.22 6.05 4.85 5.06 5.86 6.35 6.73 6.33 5.94 6.14 5.59 5.63 5.88 6.89 7.39 6.08 4.54 4.37 3.51 0.24 1.40 3.03 3.73 4.79 5.29 6.25 4.98 6.00
12.05 11.36 10.52 10.10 9.77 9.31 9.26 8.75 8.22 8.03 8.16 8.16 7.98 7.51 6.89 7.03 5.89 4.82 4.18 3.82 2.97 4.12 3.68 4.21 4.83 3.84 2.98 2.63 2.86 1.84 0.33 -0.14 0.27 -3.11 2.43 1.33 0.85 -0.37 0.82 3.09 2.90 4.88 4.46
10.09 9.43 9.26 9.48 8.50 8.36 8.22 7.57 6.78 6.87 6.42 6.01 5.88 5.81 5.58 4.92 4.08 3.29 2.87 2.64 2.44 2.71 2.04 3.79 3.33 1.60 1.58 4.07 2.22 -0.93 -0.72 -1.09 -0.33 -3.21 -0.59 1.87 0.87 1.47 1.86 1.60 0.99 3.70 4.17

GFSGL_sfc_wetblb_090.txt.gz
Wetbulb
58.73 58.79 59.99 59.11 59.64 59.53 59.22 58.72 58.12 58.68 57.40 56.36 55.57 55.43 54.55 54.23 54.65 53.76 53.69 55.53 57.42 57.13 57.65 58.91 58.53 59.43 58.27 59.16 59.41 58.69 56.55 57.85 53.83 57.38 60.37 61.38 60.90 60.65 60.74 59.09 57.60 59.06 60.46
58.15 58.50 58.68 58.38 59.68 58.45 58.62 59.06 58.11 58.35 58.86 58.75 58.03 57.30 56.63 55.63 54.58 53.97 53.74 53.77 55.94 56.37 58.02 57.00 56.93 57.36 56.93 56.82 56.33 56.01 56.01 56.41 54.70 53.24 55.81 56.33 56.36 58.02 59.37 60.90 61.32 61.13 61.79
57.76 58.36 58.02 57.97 59.14 59.46 59.84 60.37 61.02 59.81 59.05 58.71 58.13 57.68 57.30 56.68 55.43 54.92 54.57 53.44 54.39 56.18 57.50 58.10 57.75 57.15 56.25 56.22 55.70 55.32 55.95 58.06 57.49 56.84 57.19 58.98 60.41 61.74 61.66 61.89 61.98 62.89 62.57
57.42 58.01 58.23 58.72 58.35 58.78 59.32 59.59 59.71 60.53 59.80 60.13 59.96 59.09 58.67 58.33 58.10 57.00 55.54 55.81 55.42 56.58 57.32 57.28 57.36 56.84 56.58 56.47 56.52 57.18 56.59 56.74 56.96 55.32 54.83 56.13 57.99 60.79 61.05 59.74 59.72 61.84 60.50
58.87 57.53 57.34 58.29 58.59 58.61 58.61 58.55 58.17 58.09 59.20 60.43 60.10 60.05 60.15 59.49 58.96 58.60 58.49 57.96 57.01 58.59 59.73 59.00 59.27 56.15 51.75 55.01 59.50 58.77 58.71 58.60 58.48 58.32 56.82 56.67 57.05 57.91 57.05 58.10 56.11 57.09 58.55
57.52 56.73 58.64 58.81 58.99 59.46 58.97 59.24 58.98 57.96 57.79 57.66 57.96 59.22 60.01 58.25 37.97 40.56 53.41 59.77 59.32 59.00 58.54 59.04 59.62 51.88 52.38 45.70 45.64 46.29 52.40 58.38 56.23 55.76 54.64 53.46 53.77 54.42 54.89 54.23 53.87 53.04 51.95
46.61 46.50 48.00 49.91 50.16 50.72 55.60 57.37 57.85 58.34 59.17 57.52 57.10 57.48 47.02 42.58 36.32 37.35 37.19 55.68 58.11 57.84 57.19 56.92 56.71 56.39 50.25 55.91 47.31 43.08 42.97 37.16 38.16 46.63 49.35 50.54 45.31 38.64 39.59 42.51 42.32 39.84 38.05
40.14 40.66 42.31 43.31 43.72 45.26 46.01 46.51 44.43 44.00 42.87 42.72 41.73 40.18 38.12 36.33 35.58 36.31 36.10 49.25 54.02 40.59 38.76 39.52 42.19 41.70 37.51 39.00 43.61 40.04 35.26 34.05 34.75 35.19 33.75 31.73 31.69 32.35 34.08 38.04 39.08 37.29 34.39
35.60 36.38 37.82 39.34 39.89 40.19 39.35 39.39 39.69 37.56 35.93 35.80 36.04 35.80 35.32 34.15 34.96 36.15 41.26 43.72 37.58 34.48 33.59 34.03 35.11 34.44 34.12 35.97 40.69 35.78 32.06 31.16 32.51 32.13 31.64 31.17 30.76 31.08 32.79 38.08 33.98 35.47 35.66
33.64 34.38 35.75 36.50 36.36 36.35 36.12 35.57 35.09 34.47 33.19 32.78 32.09 32.49 32.55 32.34 33.94 35.32 39.16 36.87 32.34 30.84 30.87 31.24 31.97 32.18 32.43 34.08 39.77 35.08 30.80 30.41 29.37 29.77 29.43 29.58 30.72 29.86 29.77 31.13 35.15 32.13 31.71
32.99 33.75 34.40 35.11 34.67 34.76 34.70 34.41 33.62 32.47 31.85 30.75 30.13 30.68 30.76 31.77 31.91 33.00 34.04 32.80 30.62 29.33 28.73 28.58 29.93 30.92 31.06 31.42 31.34 30.69 28.99 29.50 29.21 28.89 28.65 29.22 30.29 29.95 29.89 30.69 31.11 32.97 32.18
32.02 32.49 33.22 34.31 34.93 35.07 34.26 34.31 33.79 32.98 31.88 31.35 30.91 30.34 30.80 30.78 30.42 31.00 31.45 32.27 32.40 30.90 29.63 29.88 29.78 29.28 29.63 29.55 30.09 28.87 29.21 30.38 31.57 30.83 30.47 29.76 29.87 29.78 29.89 29.48 29.10 29.31 29.30
31.20 31.01 32.61 33.17 33.18 33.67 33.94 33.84 33.92 33.86 33.06 32.09 31.77 31.38 31.41 32.25 31.29 28.86 28.76 29.15 29.55 30.32 29.93 28.63 28.54 28.88 29.02 28.91 28.43 29.61 30.83 32.89 32.20 29.77 28.64 28.41 28.63 29.09 31.11 30.76 30.56 30.21 28.54
29.19 30.18 30.28 29.37 29.75 31.24 31.36 30.99 31.25 32.14 31.81 31.54 30.83 30.09 30.13 30.78 31.08 31.68 31.79 31.37 29.45 29.86 29.00 30.58 28.94 28.62 28.37 29.16 30.21 30.39 29.67 29.19 28.68 28.25 27.98 28.88 29.76 29.08 28.02 28.72 28.16 29.38 28.27
29.15 28.68 28.23 29.81 28.52 27.09 27.16 28.38 28.39 28.78 29.54 28.93 28.52 29.31 29.14 27.67 27.74 28.16 29.47 30.22 30.43 29.69 31.29 31.40 30.24 30.03 28.89 28.74 27.86 27.22 27.51 28.07 27.39 27.56 27.39 27.06 26.51 26.66 25.57 26.84 26.40 26.96 25.25
27.64 27.62 27.46 27.73 27.89 27.60 25.54 23.61 25.65 26.50 26.67 26.95 27.71 28.19 27.53 26.93 26.51 26.10 25.68 26.02 26.92 28.56 29.45 27.62 26.34 26.68 26.08 25.85 25.42 25.05 24.51 23.34 24.15 24.61 24.88 24.47 23.93 23.25 23.61 24.44 25.02 24.34 23.13
26.84 27.07 26.91 27.69 27.31 27.30 27.37 27.13 24.35 23.27 22.58 23.63 24.29 24.62 24.96 24.23 24.32 24.55 24.66 24.69 26.25 27.93 26.70 24.91 24.45 24.29 24.30 23.67 23.10 22.67 21.56 21.38 21.86 22.32 22.16 22.03 22.46 22.48 22.11 21.77 21.92 22.38 21.76
25.42 25.80 26.51 26.62 26.37 26.14 25.96 25.73 25.65 24.85 23.31 22.12 20.27 20.93 21.40 21.72 22.17 22.25 24.12 26.05 25.36 24.42 24.19 23.20 22.41 22.39 21.80 21.25 20.91 20.43 20.26 20.38 20.07 19.98 19.88 19.89 20.44 20.82 20.36 19.86 19.67 18.34 19.68
26.10 25.23 25.12 24.64 24.81 25.24 25.31 24.95 24.65 24.00 23.21 22.77 23.08 21.36 20.28 19.68 20.02 20.80 21.87 23.36 22.06 20.92 20.63 20.16 20.63 20.41 20.16 19.85 19.42 18.82 17.69 17.33 17.28 18.02 18.03 17.48 18.32 19.12 17.90 17.97 18.72 15.08 14.96
24.55 23.14 24.61 25.40 24.87 24.44 24.13 23.65 22.99 22.45 21.55 19.98 17.96 17.94 21.58 21.82 20.32 19.29 19.98 19.88 19.43 18.81 18.94 18.26 18.32 18.42 18.10 18.34 17.99 17.61 17.90 16.61 16.30 16.54 16.14 16.47 16.39 17.69 16.73 16.09 16.46 15.96 16.97
25.08 24.46 22.83 24.37 23.59 23.37 23.00 21.87 21.16 20.20 18.79 17.45 15.01 13.97 13.68 18.40 17.22 16.99 16.66 16.66 16.71 16.60 16.80 17.17 16.87 16.56 16.93 16.43 16.26 15.67 14.03 14.76 13.25 13.38 14.11 14.00 13.58 14.29 14.86 15.97 15.67 15.67 15.84
23.70 23.16 22.75 22.02 21.79 21.04 20.59 20.21 19.65 18.70 17.91 17.11 16.48 14.20 13.74 17.18 16.50 15.66 15.15 14.72 15.18 15.75 16.10 15.98 15.47 14.74 13.89 14.07 13.67 14.18 12.75 11.62 11.59 11.49 11.78 11.27 12.44 14.03 13.53 13.94 13.84 14.19 14.49
22.26 21.58 20.81 20.21 19.80 18.42 19.41 19.16 18.64 18.12 16.93 16.39 16.07 15.13 14.86 14.70 14.11 14.04 13.21 13.49 13.82 13.49 12.97 14.12 13.85 12.87 12.89 12.45 13.02 12.77 11.20 10.11 9.93 8.56 7.86 9.47 10.71 12.07 11.93 12.49 12.33 11.77 12.52
20.16 20.03 18.88 18.04 18.03 18.38 18.21 17.59 16.17 13.29 15.29 15.63 15.42 14.66 13.56 13.29 13.00 11.29 11.38 11.59 11.69 12.44 11.93 11.48 10.89 9.03 9.68 10.50 12.23 12.65 11.16 8.82 8.86 9.00 6.35 6.98 8.39 9.16 9.23 10.30 11.03 10.64 10.12
18.38 17.89 17.07 17.02 16.65 16.65 16.61 15.80 15.49 15.16 14.79 14.71 14.43 14.01 13.42 13.31 12.10 11.88 11.08 10.46 8.49 9.99 8.18 9.00 9.15 8.46 7.05 6.15 6.66 6.32 4.30 3.32 4.06 1.70 6.95 7.09 7.61 5.84 7.23 6.98 8.19 8.76 9.54
15.67 15.30 15.57 16.05 15.46 15.21 14.97 14.34 13.67 13.41 12.58 12.83 13.18 13.05 12.23 11.80 11.32 10.66 9.82 8.64 8.02 8.45 6.10 10.03 7.96 5.32 5.29 8.73 7.00 4.79 2.65 2.18 2.80 0.93 2.70 5.79 6.51 6.78 7.38 7.10 6.78 7.54 8.70

GFSGL_sfc_wetblb_093.txt.gz
Wetbulb
61.73 60.46 60.50 60.22 60.87 61.34 61.24 59.27 57.43 57.02 56.88 56.81 57.11 57.14 57.20 57.54 58.37 58.59 59.12 58.59 58.52 58.12 57.40 57.38 57.82 58.81 59.86 61.01 60.31 58.71 59.76 58.68 55.79 57.68 59.61 60.86 58.43 61.00 60.95 60.81 60.36 60.97 60.83
60.34 59.76 59.74 60.24 60.09 60.08 59.71 59.02 58.12 56.81 56.68 56.51 56.10 55.74 55.08 54.91 55.20 54.94 54.53 55.09 54.61 54.61 55.91 56.84 57.12 58.05 58.56 58.64 60.38 58.95 58.98 58.66 56.29 54.20 56.75 55.87 56.37 57.79 59.06 61.37 60.93 60.92 60.40
58.75 58.87 59.65 59.62 59.25 58.75 58.92 59.67 58.85 57.94 57.03 56.47 56.00 55.56 54.45 54.06 53.89 54.22 53.63 53.60 53.97 54.12 55.34 57.33 57.03 58.17 58.31 58.48 58.45 56.71 56.69 56.04 55.30 54.18 53.79 57.56 58.86 60.34 59.87 59.96 60.25 61.60 62.27
58.29 57.81 58.64 60.15 60.06 59.86 60.47 60.69 59.20 59.76 58.39 58.28 58.07 57.51 56.90 55.96 55.16 54.53 53.98 53.73 53.79 54.31 56.00 57.42 58.02 58.13 57.93 58.32 57.06 56.50 55.55 54.73 55.13 55.12 53.99 54.85 56.85 59.53 59.36 58.66 58.84 61.02 60.79
57.62 57.62 58.24 59.94 60.10 60.60 60.21 60.11 60.56 60.78 60.05 59.63 59.59 59.09 58.66 57.89 56.64 55.64 55.22 54.79 54.32 53.87 55.56 57.58 58.19 56.92 51.23 54.51 57.16 57.38 57.03 55.85 56.87 55.76 55.24 56.50 57.40 58.09 58.06 59.15 56.94 57.34 57.00
57.75 56.95 58.29 59.65 58.74 59.03 59.56 59.34 58.98 59.21 59.49 59.92 59.62 59.84 59.23 45.25 37.51 38.88 50.60 56.53 56.03 57.18 55.70 56.87 58.81 50.48 50.13 45.71 45.90 45.48 48.55 54.89 55.97 55.38 55.08 54.36 54.99 55.26 53.37 50.48 49.70 50.63 49.35
46.52 47.28 49.27 51.45 51.45 51.96 55.43 54.94 54.59 56.58 57.17 53.36 51.94 46.23 42.04 39.86 36.46 37.84 37.98 54.12 56.02 52.11 50.16 49.42 54.51 46.70 43.13 48.49 45.49 38.48 36.08 35.78 36.31 44.52 47.75 44.12 40.65 35.09 36.78 40.84 43.61 42.35 41.43
40.58 41.26 43.31 44.82 44.73 45.05 45.57 44.18 42.43 41.67 41.93 41.99 40.83 40.42 39.09 36.65 35.87 37.05 37.49 49.33 40.89 38.17 37.46 38.93 39.75 38.99 36.48 39.02 43.96 36.47 33.25 32.77 33.30 33.95 33.02 31.82 31.82 32.80 34.21 36.65 37.12 35.55 34.10
36.08 37.06 37.78 39.32 39.06 39.00 37.65 37.37 37.33 36.38 35.17 34.46 34.84 34.97 35.06 34.61 35.77 37.53 42.50 40.50 35.92 33.67 33.47 33.97 33.76 33.42 34.12 36.57 39.63 33.34 31.71 30.60 32.35 32.76 32.32 31.84 31.64 31.93 33.27 39.86 35.46 36.32 35.00
33.97 34.86 35.78 35.85 35.34 34.59 34.65 33.97 33.88 33.51 32.43 32.18 31.22 32.01 32.53 32.54 34.54 35.94 36.32 34.40 31.28 30.37 31.00 31.19 32.10 32.43 33.34 36.21 35.35 32.59 29.04 29.03 30.18 30.42 30.31 31.10 31.46 31.80 31.46 32.17 34.60 33.96 34.21
33.91 34.36 34.85 35.10 34.38 34.14 33.80 33.40 32.84 32.06 31.54 30.70 30.11 30.06 30.02 31.30 32.73 34.03 33.73 32.13 31.12 29.75 29.24 29.05 30.76 31.42 32.08 32.41 31.99 30.25 29.00 30.14 30.09 31.17 31.58 32.41 32.76 31.96 31.83 31.70 32.27 30.89 31.99
32.42 32.75 32.81 33.61 34.69 34.89 35.08 33.13 33.09 33.00 31.83 31.37 30.80 30.41 30.11 29.55 30.78 31.74 32.77 32.71 32.41 30.16 29.01 29.71 30.60 30.71 30.99 31.41 31.69 31.05 31.19 32.26 33.19 32.81 31.82 30.00 29.65 29.95 30.91 31.26 31.55 31.43 30.13
30.23 30.20 30.69 31.86 31.41 31.01 31.73 32.87 32.70 33.82 32.49 31.69 31.12 30.65 30.79 32.51 31.20 29.69 29.68 30.11 30.23 30.05 30.63 30.16 30.22 30.19 30.44 29.96 29.97 30.41 31.37 32.70 31.96 30.74 29.43 28.94 30.26 31.20 33.24 32.72 32.90 32.98 31.09
30.50 29.19 28.49 27.66 27.84 29.32 29.28 28.85 28.09 30.42 30.27 30.47 30.88 30.54 29.99 29.21 30.40 32.00 32.33 32.09 30.33 31.01 30.80 31.74 30.37 29.68 29.64 29.96 30.87 31.00 31.03 30.68 29.88 28.84 28.76 30.24 31.19 30.17 28.94 29.75 29.26 29.43 29.28
29.76 30.12 29.77 28.18 25.91 24.76 25.27 26.40 26.88 27.14 28.42 28.33 27.22 27.92 27.84 26.20 26.94 28.34 30.41 30.77 31.48 31.42 32.24 31.99 30.98 30.38 29.34 29.41 28.70 28.48 28.38 28.75 27.91 28.26 27.93 27.75 27.33 27.47 26.88 27.81 27.28 27.70 26.32
27.91 28.65 29.22 29.22 28.43 26.23 23.41 22.16 25.58 26.02 26.33 26.51 27.16 27.43 26.79 26.68 26.86 27.52 27.93 28.82 29.81 30.35 29.71 27.83 27.33 27.94 26.99 26.56 26.28 25.52 25.27 24.51 25.32 25.60 25.80 25.47 25.00 24.41 24.65 25.34 25.83 25.25 24.15
27.96 28.48 28.56 28.15 27.86 27.38 27.93 25.60 20.38 22.36 23.50 24.39 24.50 24.94 25.08 24.72 25.38 26.43 27.08 27.42 28.83 28.80 26.63 25.87 25.28 25.54 25.42 24.94 24.45 23.92 22.92 22.81 23.79 23.71 23.24 23.15 23.71 23.87 23.53 22.97 22.90 22.81 22.80
27.85 26.86 27.54 27.64 27.57 27.61 27.40 26.71 26.62 25.23 22.89 21.76 22.02 22.11 23.12 23.54 24.45 25.85 27.24 28.25 26.12 25.98 25.01 23.98 23.47 23.58 23.31 22.47 22.16 21.61 21.26 21.69 21.66 21.70 20.99 21.12 21.22 21.95 21.23 20.77 21.33 18.65 18.63
26.32 26.47 26.55 26.62 26.84 26.68 26.66 26.14 25.69 24.83 23.94 23.19 23.99 23.91 23.62 23.00 23.35 23.69 24.76 24.59 23.09 22.45 22.40 21.97 22.46 22.26 21.90 21.71 21.33 20.97 19.70 19.24 19.18 19.61 19.73 18.90 19.41 20.09 19.29 18.75 19.26 17.89 17.61
25.69 25.46 26.28 26.55 26.44 25.69 25.38 24.60 23.92 22.83 21.47 19.24 17.78 18.68 22.88 23.09 21.26 20.73 21.58 22.01 21.41 21.00 21.09 20.43 20.37 20.18 19.88 20.14 19.80 18.90 19.54 18.23 17.32 17.78 17.47 17.61 17.21 18.34 17.33 17.45 17.63 16.79 17.56
26.72 25.74 25.18 25.35 24.50 24.22 23.87 23.05 22.78 22.06 20.11 18.02 16.15 17.28 18.45 20.15 19.27 19.05 18.79 18.72 18.95 18.89 19.05 19.22 18.84 18.32 18.70 18.35 18.61 17.48 16.03 16.29 15.28 15.09 15.50 14.89 15.19 15.76 16.33 16.80 16.81 16.73 16.90
25.32 24.79 24.24 23.40 23.02 22.39 22.77 22.80 21.99 21.20 20.58 19.50 18.80 17.21 18.15 19.55 18.70 18.07 17.31 16.86 17.14 17.71 18.40 18.02 17.14 16.39 15.40 15.62 15.51 15.68 14.74 13.11 13.11 12.21 12.04 12.68 13.78 15.24 14.90 15.15 15.30 15.01 14.88
24.01 23.49 22.99 22.50 22.55 21.92 22.09 21.50 21.24 20.80 19.57 19.22 18.89 17.79 17.65 17.23 16.67 16.49 15.67 15.94 15.92 15.49 14.87 15.66 15.36 14.56 14.44 14.45 14.95 14.35 12.52 11.39 11.32 11.01 9.03 10.31 11.44 12.64 12.22 12.86 13.03 12.73 12.73
22.32 22.24 21.15 20.42 19.49 20.50 20.38 19.87 18.95 16.56 17.96 18.24 17.89 17.26 16.47 15.93 15.50 14.43 13.81 13.45 13.72 14.19 13.42 13.47 12.36 9.92 10.49 11.18 12.78 13.25 10.92 8.60 8.80 8.97 6.78 9.02 9.73 10.68 9.41 10.18 10.62 11.06 11.02
20.30 20.03 19.64 19.09 18.73 18.59 18.77 17.98 17.66 17.41 17.32 16.97 16.76 16.53 16.37 16.12 14.93 14.23 13.46 12.69 11.02 12.04 11.03 11.57 11.05 10.08 9.67 7.82 8.64 8.51 5.01 4.80 5.01 4.33 6.73 6.68 8.28 8.26 9.33 9.40 9.64 9.50 9.51
17.94 17.75 18.04 18.11 17.48 17.20 16.96 16.67 16.46 16.04 15.39 15.45 15.77 15.49 15.18 14.64 14.47 13.33 12.52 11.64 10.06 10.20 9.25 11.71 10.33 7.65 7.73 10.45 7.20 6.00 3.92 3.61 3.71 2.20 3.51 5.93 7.79 8.48 8.42 7.12 6.50 7.72 8.51

GFSGL_sfc_wetblb_096.txt.gz
Wetbulb
60.66 60.75 59.99 60.16 60.49 60.70 60.19 58.79 57.87 57.09 56.97 56.79 56.85 57.17 58.81 59.03 59.34 59.20 59.14 59.05 58.65 58.70 58.37 57.68 57.36 57.52 57.32 57.32 57.37 57.66 56.55 54.56 51.95 53.85 55.45 56.76 56.45 56.90 57.85 56.84 57.64 58.56 58.54
59.88 59.47 59.49 59.57 60.10 60.40 59.16 58.50 57.51 56.71 56.96 56.81 57.01 56.59 56.23 57.25 59.00 58.44 57.84 57.95 58.04 57.32 56.56 56.21 56.15 57.39 56.20 56.04 56.95 56.47 55.57 56.05 54.13 52.47 54.62 54.13 55.04 55.92 56.55 57.80 58.47 59.10 58.22
58.77 58.79 58.67 58.88 59.06 59.02 59.13 58.39 57.04 56.65 56.51 56.45 56.01 55.07 54.73 54.60 54.40 55.91 55.97 55.25 55.23 55.15 55.61 55.41 55.69 56.02 55.47 55.81 55.79 56.22 55.98 55.79 55.63 52.97 52.59 54.85 55.23 55.82 55.74 56.72 56.86 57.85 59.20
57.93 58.13 58.18 58.11 58.25 58.47 58.97 58.61 57.69 56.82 56.09 55.79 55.89 55.13 54.52 54.01 54.03 53.81 53.45 53.35 53.81 54.02 54.01 54.15 54.33 55.31 54.83 55.60 55.75 55.88 54.72 54.70 54.19 53.36 53.02 52.86 52.89 54.57 55.13 54.53 54.70 57.00 57.39
57.57 57.20 57.71 58.67 58.76 59.26 59.62 58.69 58.88 57.86 56.89 56.63 56.68 55.87 55.04 54.56 54.45 53.78 53.63 53.21 53.07 53.52 54.42 55.10 55.71 53.84 50.43 52.96 56.09 55.35 54.22 54.06 53.54 53.04 52.67 53.04 52.91 53.41 53.96 55.76 55.22 55.24 46.01
54.79 55.78 57.62 58.50 59.09 58.96 58.83 59.20 59.00 58.67 58.35 58.00 57.26 57.15 54.73 42.68 37.84 40.81 50.89 54.12 54.06 53.94 52.74 53.47 54.33 48.89 48.98 45.81 43.71 37.71 42.45 52.22 54.30 53.56 53.73 53.50 53.13 44.98 44.11 44.62 45.04 45.92 46.01
46.60 47.55 49.52 50.88 50.48 49.51 49.86 49.12 47.92 49.55 47.63 45.44 43.92 42.18 39.29 38.79 36.85 38.80 43.23 54.05 53.76 51.10 50.00 50.77 49.44 43.86 43.86 46.38 36.57 35.54 34.77 34.97 35.61 44.87 47.78 38.46 39.52 35.11 36.28 39.84 41.85 41.48 40.41
38.98 40.86 43.22 43.71 42.90 42.54 41.93 41.00 40.00 40.01 39.87 39.28 38.45 38.44 37.37 36.89 36.83 38.14 40.76 42.43 38.93 36.93 37.22 38.34 39.30 38.44 36.33 42.93 36.92 33.58 32.39 32.62 32.89 33.65 32.90 31.84 31.75 32.52 34.36 37.00 36.63 34.53 33.23
34.75 35.56 37.13 38.95 38.04 37.00 35.72 35.90 36.05 34.63 33.83 33.28 33.58 33.71 34.26 34.37 35.80 37.17 39.50 36.60 33.61 32.44 33.09 33.99 34.13 34.52 35.44 39.92 35.16 31.85 30.07 29.96 33.05 33.43 33.19 32.73 32.58 32.86 33.93 37.32 33.38 33.59 32.14
32.95 34.29 34.92 35.09 34.82 34.14 33.89 33.28 33.19 32.50 31.33 30.97 30.34 31.49 32.65 32.74 34.46 35.17 35.04 33.41 31.23 30.83 31.42 31.73 33.08 33.49 35.73 35.40 33.19 31.47 29.08 29.06 29.94 30.40 31.14 31.54 31.74 30.98 31.53 30.46 31.38 32.27 32.06
32.43 32.27 32.33 34.42 34.04 33.84 33.61 33.33 32.69 31.74 30.93 29.72 29.00 29.22 30.07 31.46 32.95 33.65 33.52 31.99 30.64 29.52 29.48 30.17 31.28 32.28 32.61 32.87 32.57 31.26 29.43 30.74 30.93 31.39 30.98 30.73 30.09 29.67 26.86 26.26 26.55 27.09 28.93
29.56 30.10 30.55 30.65 31.07 32.54 33.67 33.52 33.34 32.61 31.67 30.79 30.22 29.26 29.02 29.80 31.45 32.19 32.46 31.86 31.37 29.09 28.17 29.25 30.49 31.59 31.66 32.13 31.68 32.06 32.24 32.24 31.69 30.05 28.43 27.96 28.20 29.01 24.05 24.45 24.14 24.05 23.26
28.00 26.73 26.52 27.93 28.97 29.14 28.00 29.55 31.02 32.24 31.07 29.99 28.84 27.69 27.64 30.64 29.80 30.76 30.75 30.50 30.35 29.20 29.96 30.60 31.06 30.96 30.65 29.52 30.30 30.54 30.67 30.70 29.82 28.17 27.52 27.72 27.55 23.98 26.09 26.67 27.79 27.41 25.73
28.31 27.22 25.59 25.01 24.98 26.47 26.81 26.32 26.21 28.04 26.66 28.06 27.65 25.83 25.85 26.74 29.14 30.60 30.92 30.97 30.48 30.27 29.68 29.54 29.14 28.92 28.92 28.59 28.33 28.99 28.74 28.78 28.11 27.60 27.53 25.56 24.24 23.88 23.07 23.88 23.41 24.44 24.34
29.35 28.92 26.73 25.66 24.06 23.77 24.62 25.07 24.89 26.19 27.40 25.14 24.78 25.44 24.33 24.53 27.19 29.95 30.00 29.80 30.02 29.83 29.79 29.45 28.33 27.69 27.06 26.13 24.06 23.62 23.43 23.71 23.13 22.35 21.80 22.06 22.31 22.61 22.62 23.07 23.45 22.99 20.42
28.13 27.65 27.71 28.67 25.66 23.88 22.51 21.78 26.23 26.56 27.10 27.08 27.14 25.90 25.97 27.61 28.81 29.63 30.00 30.39 30.51 29.72 27.24 25.70 25.05 24.88 23.53 22.73 21.74 20.33 20.18 19.92 21.13 21.58 20.13 21.42 21.38 20.78 21.81 22.47 22.40 20.88 19.29
26.37 27.08 26.93 27.55 27.19 26.41 25.25 22.15 19.79 22.46 24.96 25.16 26.07 26.58 26.95 27.33 27.79 28.55 28.47 28.55 29.17 27.43 24.17 23.41 22.50 21.84 20.83 20.75 20.41 19.08 17.85 18.39 20.36 19.32 18.57 18.17 19.47 20.40 19.23 19.67 18.91 18.34 17.29
26.78 26.09 25.72 25.95 26.05 25.71 25.57 25.03 25.07 22.74 19.88 19.83 23.80 23.88 25.18 25.65 26.35 27.43 27.58 25.90 22.61 23.24 22.17 21.02 20.31 20.35 19.91 19.22 18.41 17.47 16.81 16.21 16.36 17.34 13.91 13.62 14.25 16.31 14.50 15.79 16.73 11.29 14.74
25.40 26.53 26.94 26.47 26.26 26.05 25.43 24.30 23.03 21.11 19.25 18.57 19.99 22.29 23.60 24.01 23.91 24.29 24.20 21.07 19.52 18.85 18.95 18.80 19.05 18.85 18.63 17.91 17.22 17.33 12.38 11.04 10.67 9.31 12.24 12.81 10.22 14.59 12.24 13.39 13.27 10.81 10.53
25.06 24.83 25.21 25.46 25.04 24.26 23.83 22.91 21.63 19.42 16.88 15.47 15.48 16.26 20.67 20.07 17.90 17.65 18.34 18.48 17.96 17.82 18.08 17.34 17.42 17.22 16.66 16.74 14.54 12.70 13.76 11.51 11.72 13.03 9.34 7.52 6.94 10.70 7.84 9.10 10.04 8.09 13.02
25.05 24.51 23.39 23.07 22.63 22.57 22.27 21.20 21.12 19.51 16.45 14.58 14.59 15.76 17.91 17.89 16.69 16.09 15.62 15.14 15.39 15.57 15.87 15.77 14.98 14.13 14.62 13.48 14.90 12.30 11.08 11.61 10.26 9.76 9.53 9.04 5.35 9.79 10.31 9.49 9.13 10.11 11.99
23.60 22.96 22.55 21.60 21.42 20.64 21.22 21.03 20.00 19.12 18.44 17.32 16.28 15.79 16.05 16.95 15.80 15.02 14.58 13.65 13.94 13.67 14.90 14.04 13.31 12.16 11.23 12.02 11.22 8.30 8.50 5.13 6.17 5.12 4.03 5.21 6.56 9.83 6.76 7.62 6.83 4.73 8.58
22.26 21.58 20.85 20.04 21.01 20.18 19.00 17.60 18.00 18.53 17.25 16.60 16.40 15.59 15.01 13.36 12.40 13.78 12.30 12.43 12.54 11.03 9.64 11.72 10.10 10.26 9.26 10.59 9.66 10.43 6.65 4.86 6.07 4.05 -1.65 2.60 3.67 3.96 2.18 2.96 5.40 4.92 5.73
20.54 19.82 19.43 19.17 18.04 18.18 18.13 18.54 16.56 13.89 15.93 16.65 16.48 14.97 13.92 12.95 12.38 10.99 8.46 7.55 9.98 9.33 6.19 9.28 6.41 3.78 4.18 2.06 3.96 7.28 4.25 -0.18 1.21 1.41 -3.27 1.78 2.60 5.62 0.49 3.64 3.22 1.73 0.63
18.34 17.79 17.96 17.63 16.80 16.99 16.74 15.99 16.00 15.01 15.33 14.30 13.88 14.08 13.27 13.14 12.30 10.49 6.80 7.97 4.12 5.07 5.85 5.63 3.52 4.04 2.85 0.53 3.07 1.02 -2.69 -1.68 -4.53 -3.70 -1.92 -2.47 -1.23 0.25 3.94 2.19 1.92 2.52 4.39
16.29 15.60 15.71 15.84 15.36 14.76 14.44 14.35 14.30 12.94 12.47 11.26 11.63 10.53 9.71 9.46 10.81 6.95 5.93 6.55 2.67 2.68 4.04 5.96 6.25 1.33 1.43 6.60 3.40 -0.93 -3.42 -2.39 -4.41 -4.94 -6.99 -0.84 2.33 1.40 -0.60 -2.71 -0.99 -1.60 3.14

GFSGL_sfc_wetblb_099.txt.gz
Wetbulb
60.74 60.11 59.68 59.57 60.19 59.76 58.67 57.30 56.98 57.07 56.79 56.75 57.11 57.93 59.01 59.41 59.59 59.35 59.39 59.34 58.65 58.59 58.88 58.44 58.17 57.57 56.66 55.90 56.14 56.34 54.78 53.59 51.67 53.28 53.82 55.68 55.67 56.55 56.46 57.16 57.71 57.65 57.49
59.04 59.42 58.82 59.46 59.62 59.28 58.26 56.59 57.35 56.61 56.83 56.65 56.81 57.13 57.45 58.57 59.05 58.97 58.39 58.54 58.08 57.91 58.14 58.02 57.67 57.21 56.07 56.02 55.54 55.09 55.02 54.76 53.31 51.65 53.25 53.10 53.37 56.15 56.52 55.41 56.79 57.83 57.40
58.54 58.45 58.39 58.62 59.15 58.37 58.08 57.27 57.03 56.73 56.59 56.77 56.37 55.70 55.20 56.63 58.49 58.60 58.73 58.26 58.05 57.89 57.98 57.64 57.39 56.86 55.45 55.12 54.96 55.29 55.59 55.15 54.45 52.70 51.99 54.46 54.73 54.87 54.54 54.64 55.86 56.84 57.62
57.98 57.84 57.75 57.85 58.19 58.46 57.95 57.04 56.88 56.74 56.23 56.11 55.87 55.37 55.21 54.50 55.70 57.25 57.07 57.29 57.01 56.91 56.69 56.87 56.60 56.03 55.21 55.49 55.08 54.82 55.11 54.80 54.38 53.34 51.25 51.66 52.69 53.33 53.95 52.39 51.95 54.90 53.90
56.52 57.46 57.55 57.76 58.07 57.90 57.92 57.20 57.06 56.43 56.11 56.30 55.69 55.07 54.70 54.41 52.30 54.52 55.03 55.51 54.99 54.24 54.86 55.15 55.17 53.17 49.57 51.73 55.55 55.11 54.76 54.30 53.82 52.70 51.39 50.84 50.77 51.80 52.15 52.94 52.17 52.13 43.07
45.26 51.99 56.03 56.95 58.17 57.84 58.08 57.66 57.49 56.55 56.17 55.95 55.71 55.17 47.08 43.02 38.09 41.42 50.50 53.55 53.78 53.42 53.09 54.06 55.13 49.60 48.67 42.14 39.71 38.48 45.67 53.44 52.09 51.18 50.49 49.63 51.12 46.37 44.63 45.60 46.65 46.94 45.57
37.56 40.91 45.75 47.54 47.49 47.95 47.91 46.42 46.24 44.71 43.39 42.57 41.63 41.47 39.52 39.18 37.40 39.38 42.18 53.56 53.04 52.40 51.92 52.80 52.59 44.38 45.60 40.97 36.29 35.77 34.69 34.93 36.26 47.06 50.89 42.59 41.86 37.10 37.63 40.68 43.28 42.51 39.58
34.59 35.49 38.14 40.34 40.03 40.42 40.15 39.08 38.13 37.66 37.10 36.87 36.74 37.15 37.10 36.94 38.05 38.79 38.71 39.86 36.92 36.09 36.69 38.32 40.43 39.25 39.43 39.81 36.23 33.51 32.65 32.82 32.97 33.60 32.71 31.52 32.00 33.07 35.49 37.66 37.67 33.29 32.38
31.28 33.18 34.42 35.63 35.13 34.86 34.05 34.23 34.63 33.85 33.06 32.79 33.53 33.91 33.97 34.65 36.29 36.55 36.49 35.00 33.36 32.65 33.44 34.82 35.41 36.55 37.12 37.40 34.12 31.45 30.44 30.71 33.38 33.78 33.18 32.78 32.93 33.27 34.93 36.44 33.44 33.24 31.41
31.00 31.01 32.74 34.16 33.65 32.87 32.59 32.03 32.20 31.78 30.99 31.06 30.67 31.87 33.18 33.04 35.01 35.41 34.79 33.32 31.21 30.95 31.64 32.28 33.87 34.73 34.74 34.15 32.59 31.41 29.10 29.14 30.55 30.60 30.28 30.57 30.48 30.47 30.96 30.87 32.10 31.95 31.06
28.80 30.69 30.72 31.32 32.69 33.60 33.32 33.05 32.22 31.26 30.58 29.75 29.23 29.99 30.92 32.09 33.02 33.69 33.24 31.50 30.42 29.86 30.12 30.59 31.90 33.24 33.73 33.51 32.74 31.04 29.98 31.67 30.80 30.32 29.88 30.00 29.90 28.71 27.48 26.98 27.48 27.86 22.21
26.98 26.59 26.90 28.29 29.52 31.00 31.00 31.49 32.17 31.13 29.53 28.97 29.13 28.57 29.43 30.67 32.01 32.59 32.31 31.67 31.38 29.47 29.02 30.05 31.36 32.52 32.72 32.59 31.92 32.03 31.78 31.07 29.85 28.82 27.90 27.40 26.84 23.74 22.30 22.43 21.62 22.55 23.45
25.76 24.75 25.16 25.69 26.46 26.88 27.28 28.77 28.31 29.09 27.92 26.67 26.55 26.79 27.78 29.92 30.14 31.36 31.19 31.11 30.96 29.53 30.09 30.64 30.85 30.73 30.56 29.79 30.56 30.65 30.24 29.79 28.46 26.69 25.19 21.86 18.97 19.94 23.35 24.07 26.32 24.88 24.37
26.46 25.09 24.37 24.34 24.18 24.96 25.44 26.03 26.14 25.68 25.47 25.88 25.43 25.11 26.71 28.32 29.14 30.52 31.12 30.80 30.11 29.76 29.23 28.65 27.48 26.40 25.22 24.61 24.27 25.33 25.87 25.79 24.94 23.81 20.93 19.33 21.89 22.24 22.58 23.09 22.62 23.27 22.78
27.81 27.82 25.31 24.24 22.92 22.88 24.46 24.88 25.20 26.44 26.16 24.70 25.22 25.91 25.78 26.60 29.27 31.30 30.40 29.05 28.94 28.81 28.51 27.48 26.17 24.87 22.13 21.39 21.11 21.71 22.18 22.32 21.38 21.27 21.17 20.80 20.83 22.01 21.90 22.28 22.17 21.59 18.66
26.12 26.63 26.98 26.49 24.19 22.78 21.75 22.31 26.98 27.42 28.21 28.54 28.69 27.05 27.79 29.83 30.77 30.60 30.08 29.81 29.20 27.89 25.14 22.39 20.78 20.65 20.39 20.15 19.20 19.27 20.09 20.10 20.70 20.38 19.23 19.95 20.20 19.80 20.54 20.39 19.86 17.97 16.67
24.94 25.43 25.77 25.71 25.71 25.75 23.84 22.26 19.11 22.68 26.78 26.77 27.36 28.07 28.58 29.67 29.38 28.99 28.50 27.87 27.10 25.22 21.33 20.45 19.62 19.01 18.50 19.18 18.21 17.64 17.07 18.96 19.31 18.04 16.85 16.14 17.47 18.62 17.41 18.14 17.19 16.55 15.87
25.89 25.52 24.77 24.83 24.11 23.81 23.14 21.69 20.98 19.51 18.53 19.30 23.86 24.33 25.89 26.38 26.34 26.22 25.17 23.40 20.41 21.26 20.33 19.21 18.68 18.96 19.07 18.10 17.78 16.70 16.23 16.65 16.61 16.18 14.35 13.19 13.45 15.30 14.29 14.39 14.11 9.80 13.19
23.66 23.50 23.87 23.65 23.37 23.17 22.01 19.49 17.78 16.24 15.39 15.66 17.01 19.67 21.09 22.99 22.74 22.73 22.13 18.69 17.42 17.35 17.51 16.86 16.85 17.49 17.04 16.34 16.40 14.93 13.74 13.13 12.70 12.25 11.62 11.16 9.79 12.17 11.21 12.21 11.51 10.49 11.05
21.25 21.78 21.03 20.91 20.41 19.86 19.87 18.71 16.07 14.35 13.58 13.73 13.99 15.06 18.05 17.19 14.81 14.42 15.27 15.45 15.42 15.63 15.73 15.10 14.75 14.50 15.03 14.84 12.65 13.34 11.77 10.72 10.28 10.30 8.64 8.66 7.76 10.03 9.30 10.01 9.96 8.76 11.83
18.12 18.57 17.74 18.65 18.59 19.10 18.91 18.38 17.25 14.76 13.29 13.63 14.09 16.18 16.00 14.80 13.06 12.86 12.91 12.10 12.21 13.38 13.64 12.75 11.37 11.39 11.67 11.49 11.87 9.21 8.10 7.10 6.54 5.83 5.53 6.24 3.26 7.69 7.96 8.88 9.21 9.41 10.36
18.40 18.12 18.26 17.83 18.89 15.93 16.56 17.25 15.70 14.41 14.54 12.18 12.99 13.48 12.69 13.15 12.09 11.61 11.59 9.72 9.13 10.76 12.33 11.83 10.26 9.80 9.81 9.46 8.12 6.66 3.21 2.30 1.77 0.07 0.82 2.71 4.08 3.89 3.16 2.45 1.04 -0.75 5.80
16.24 14.98 15.20 15.50 16.71 14.37 10.79 11.53 10.52 13.72 10.65 8.51 8.51 9.76 8.90 3.92 5.22 7.71 6.03 7.85 8.30 7.20 6.90 6.03 5.49 4.33 5.63 6.49 5.38 3.24 0.82 -0.47 0.62 -6.81 -6.24 -4.59 -0.59 1.61 -4.35 -3.79 -2.01 -2.95 -2.61
14.10 13.01 14.72 11.41 10.85 9.34 7.50 6.76 8.71 8.08 8.74 11.68 9.31 4.91 2.04 -0.78 -0.80 -2.44 -5.03 -6.31 2.34 -5.57 -3.56 -1.48 0.98 0.21 0.78 -3.54 -4.11 -0.66 -0.27 -7.19 -5.93 -7.01 -10.76 -9.48 -4.99 -1.17 -3.90 0.41 -0.55 -4.85 -5.15
7.28 7.19 9.24 12.74 7.03 7.26 10.79 11.01 2.79 -0.35 5.10 -0.90 -1.41 1.04 3.72 7.69 5.70 -4.96 -6.41 -5.99 -4.70 -6.90 -2.31 -0.53 -3.41 -2.57 -4.18 -1.63 -4.43 -3.68 -5.51 -6.06 -10.60 -8.92 -10.50 -10.23 -10.75 -1.58 -1.72 -3.08 -7.76 -4.38 -5.85
7.63 6.02 4.57 4.77 2.68 1.95 0.07 -1.56 3.32 2.39 -1.86 -2.43 5.24 5.90 5.19 6.97 3.86 -0.87 -2.99 -4.52 -5.62 -5.49 0.00 -1.61 -1.48 -2.82 0.25 -1.25 -2.68 -4.61 -7.33 -6.60 -10.34 -9.29 -14.01 -9.31 -6.40 -6.41 -9.93 -9.39 -6.09 -5.88 -2.93

GFSGL_sfc_wetblb_102.txt.gz
Wetbulb
57.97 58.40 59.30 58.98 59.37 58.94 59.25 58.44 57.64 56.82 56.30 57.35 58.49 58.77 59.41 59.69 59.88 59.73 59.77 59.88 59.34 59.15 59.18 58.74 58.17 58.49 57.41 56.90 57.21 56.08 55.38 53.62 51.50 51.80 54.71 56.14 56.14 56.69 56.88 57.04 56.64 56.15 55.88
54.79 57.28 58.54 59.61 59.45 58.53 57.96 57.64 57.06 55.38 55.90 56.76 55.42 56.72 57.10 57.81 59.35 58.99 58.79 59.07 59.02 58.52 58.36 58.36 57.99 58.35 57.11 56.08 56.06 55.63 54.78 54.15 52.80 51.28 52.78 53.97 54.91 56.40 56.99 56.18 57.43 58.69 58.23
47.68 57.28 58.40 58.68 58.55 58.10 57.64 57.20 56.26 56.48 56.38 56.16 56.40 56.30 56.26 56.36 57.66 58.62 58.84 58.41 58.58 58.56 58.41 58.14 57.96 57.77 56.82 56.18 55.27 55.09 55.37 54.42 53.66 52.91 52.52 54.27 54.64 55.41 54.80 55.09 55.29 55.90 52.93
46.58 57.66 57.56 57.92 58.18 58.14 57.80 56.72 56.04 55.98 56.28 56.24 56.26 55.80 55.14 54.78 55.78 58.01 58.11 58.08 58.32 58.16 58.20 58.54 58.27 57.83 57.11 56.22 55.11 55.33 54.99 54.23 53.60 52.32 52.09 52.34 53.24 53.77 53.40 52.07 52.64 54.62 49.52
41.75 44.75 51.11 57.88 58.31 58.02 57.04 56.70 56.60 56.68 56.30 56.12 55.63 55.16 54.66 51.37 47.12 49.59 57.85 57.75 57.49 57.39 57.72 57.76 58.10 55.65 50.39 53.10 56.02 54.98 54.92 54.14 53.00 52.28 51.52 51.50 51.67 51.29 51.34 51.81 51.55 49.76 42.72
38.04 38.53 41.61 47.35 56.72 56.68 57.06 56.98 55.44 52.31 53.61 53.26 53.25 51.76 46.96 44.37 37.52 39.42 49.85 55.50 56.12 55.82 55.66 56.18 54.24 49.18 47.75 45.14 42.75 39.87 47.84 54.15 53.34 52.63 51.70 51.12 50.44 49.61 47.79 48.53 49.20 47.93 43.28
34.77 35.61 36.82 39.33 42.73 44.23 45.27 43.81 42.93 42.21 41.54 40.52 40.66 41.05 39.91 39.34 37.53 39.95 42.24 50.73 46.74 48.53 51.33 53.07 49.30 46.47 45.18 40.60 36.42 36.19 34.88 35.19 36.90 51.35 51.70 47.50 44.93 41.57 42.14 42.60 43.83 42.94 36.92
32.84 33.00 34.46 35.54 36.10 37.21 37.62 36.68 36.17 36.12 35.62 35.62 35.59 36.18 36.66 36.91 36.49 37.78 37.66 39.57 37.59 37.01 38.16 41.17 44.22 42.65 41.73 40.70 36.54 33.69 32.83 32.62 32.86 33.88 33.72 32.01 32.45 34.02 37.84 39.49 38.60 32.30 31.75
30.09 31.25 32.06 34.31 33.26 33.29 32.76 32.92 33.15 32.60 32.37 32.04 33.04 33.37 33.88 34.36 35.34 35.81 36.79 35.45 33.91 33.22 34.62 36.40 38.04 37.68 37.38 38.07 34.63 31.57 30.54 30.77 33.52 33.88 33.43 33.52 33.61 34.52 36.21 36.98 33.31 33.60 30.55
26.83 28.59 30.81 31.77 32.19 32.22 32.00 31.40 31.47 31.28 30.48 30.91 30.69 31.68 33.01 32.58 34.50 34.54 34.53 33.42 31.69 31.72 32.18 33.30 34.40 34.52 34.86 35.01 33.75 32.49 29.92 29.68 30.08 29.98 29.82 29.76 30.17 31.01 31.82 32.21 33.51 32.74 29.78
26.88 27.28 27.46 28.40 30.24 31.14 31.70 31.85 31.32 30.67 29.98 29.37 29.16 30.16 30.79 31.95 32.58 33.58 33.30 31.79 30.99 30.61 30.80 31.21 32.27 33.66 33.75 33.49 32.99 31.77 30.29 30.83 30.05 29.92 29.31 29.08 28.18 27.19 26.89 28.09 29.01 30.62 26.21
25.64 25.31 25.55 26.33 27.03 28.21 28.93 29.59 29.88 29.37 28.61 28.62 28.73 28.51 29.70 30.84 31.96 32.42 32.38 31.65 31.55 29.59 29.22 30.46 31.67 32.91 32.71 32.20 31.43 31.51 31.15 30.28 29.49 28.29 27.22 26.71 27.46 26.65 25.75 25.38 25.97 25.59 26.03
25.25 23.81 24.27 24.96 25.77 26.35 26.12 25.87 26.01 27.42 27.39 27.60 27.78 27.55 28.28 29.91 30.16 31.23 30.83 30.35 29.80 27.67 27.74 28.08 28.35 28.25 28.05 27.51 28.69 29.02 29.45 28.79 27.37 25.24 23.40 22.88 23.89 25.49 26.75 27.28 26.36 26.08 25.13
25.72 24.58 23.72 23.15 23.49 25.14 25.78 26.18 25.52 24.84 25.04 25.58 26.33 26.89 27.93 28.65 29.14 30.00 30.08 29.90 29.00 28.02 26.80 25.42 25.21 25.00 24.23 24.10 24.41 24.94 24.44 24.24 23.75 22.07 21.94 23.29 24.45 23.56 22.64 24.32 23.89 24.71 22.79
26.23 26.55 24.44 23.54 22.76 22.90 24.56 25.49 25.41 27.13 27.63 25.40 25.84 27.53 26.91 27.00 29.17 30.70 29.53 28.13 27.89 27.20 26.12 25.04 23.00 22.08 21.24 21.38 21.54 21.95 22.59 22.38 21.08 21.63 21.91 21.78 22.17 21.70 20.94 21.80 21.37 20.88 18.77
24.59 25.02 25.29 25.57 24.11 22.98 21.67 21.94 26.93 27.77 27.98 28.83 29.49 28.95 28.43 29.82 30.03 29.98 29.44 28.79 27.45 25.69 22.58 20.44 19.67 19.60 18.79 18.66 18.48 18.69 19.45 19.22 19.81 19.81 19.27 20.16 19.67 19.74 19.40 19.95 19.53 18.78 17.46
24.31 24.57 24.30 24.31 23.96 23.37 22.22 21.29 19.45 22.27 24.46 26.37 27.05 27.99 29.04 28.54 28.47 27.99 27.38 26.78 25.95 23.99 19.96 19.19 18.33 18.31 18.41 18.20 17.88 17.89 17.23 17.77 18.31 17.09 16.51 17.07 18.40 18.64 18.15 17.22 16.87 17.54 17.20
22.39 21.91 22.00 22.54 21.61 20.27 19.12 18.08 17.34 16.31 16.16 16.64 21.90 23.92 25.30 25.33 25.19 25.02 24.26 22.45 19.01 19.60 19.12 17.98 17.36 18.09 17.80 17.27 16.78 15.86 15.68 15.52 15.14 14.45 13.28 13.07 14.47 15.55 14.80 14.77 14.51 13.64 15.20
21.11 19.73 18.89 18.81 18.86 18.69 17.33 15.67 15.28 14.96 14.71 15.34 17.12 18.57 18.69 21.58 21.18 20.93 20.47 16.99 16.03 15.96 16.18 15.49 16.08 15.67 15.87 15.51 13.55 12.94 12.43 11.71 10.92 10.06 9.87 10.41 10.10 12.90 12.03 12.31 12.56 11.64 12.16
15.06 17.27 15.80 16.31 16.66 15.69 14.98 13.24 12.86 12.87 13.81 14.28 14.52 14.68 15.11 14.64 12.02 11.96 12.50 13.38 13.69 13.56 13.40 12.99 13.03 12.85 13.18 12.95 11.87 10.43 9.32 8.76 8.23 8.33 6.90 6.19 5.70 8.55 7.41 8.13 8.06 6.75 10.64
12.55 14.20 13.69 15.64 16.06 15.93 14.78 12.65 11.45 11.31 11.53 11.80 12.61 13.13 13.08 12.12 11.02 10.54 10.11 9.44 10.16 11.34 10.12 10.40 9.89 9.77 10.24 10.00 8.80 5.69 4.42 3.30 3.59 3.83 4.53 5.56 2.30 4.28 6.63 6.81 6.60 8.72 8.43
13.93 14.31 15.58 17.00 13.82 10.37 13.60 15.10 12.08 10.99 10.92 10.38 8.19 8.21 7.69 7.84 8.75 9.42 8.64 5.97 6.52 9.58 9.48 6.83 6.72 7.49 7.21 6.74 5.37 0.67 0.17 -2.85 -4.27 -3.75 -1.74 0.38 2.50 2.63 1.18 1.97 -0.21 0.83 5.22
12.63 10.55 12.58 12.83 12.84 9.14 7.17 8.38 8.38 8.90 7.81 2.14 2.29 5.38 5.03 0.82 -0.43 2.23 0.90 -1.46 1.14 1.55 3.28 3.40 1.99 3.21 3.38 -0.83 -2.44 -0.25 -0.40 -2.22 -3.88 -6.93 -9.08 -7.62 -1.57 -2.43 -3.64 -2.73 -1.27 -2.55 -3.52
9.60 7.66 12.46 7.53 5.45 10.08 5.65 0.14 0.72 5.70 9.01 6.56 4.26 2.50 -0.73 -5.80 -8.34 -7.46 -8.88 -8.52 -7.64 -9.97 -9.06 -7.10 -2.43 -0.40 -2.13 -8.88 -7.43 -2.15 -0.66 -7.46 -5.58 -8.82 -13.81 -13.59 -8.34 -4.00 -6.71 -4.57 -4.96 -7.68 -8.16
1.28 -0.98 0.29 0.30 -1.63 -3.62 0.72 5.32 -0.04 -5.98 -5.44 -4.53 -5.07 -2.35 3.87 3.88 -1.64 -11.60 -13.05 -11.24 -9.45 -11.96 -5.07 -8.16 -6.35 -4.78 -5.35 -8.51 -7.54 -4.75 -7.79 -9.06 -11.52 -11.98 -13.96 -13.24 -12.33 -10.33 -9.27 -7.48 -10.33 -6.55 -8.88
3.07 2.00 -0.08 -0.79 -4.23 -6.17 -7.97 -7.61 -6.18 -7.56 -7.61 -7.07 -3.26 -2.17 1.57 3.14 0.84 -7.97 -8.28 -8.22 -8.48 -7.46 -5.80 -4.79 -5.35 -5.44 -5.00 -6.11 -5.55 -6.57 -8.52 -8.75 -12.23 -12.51 -18.13 -11.47 -13.59 -13.23 -13.78 -12.51 -9.61 -9.32 -5.86

GFSGL_sfc_wetblb_105.txt.gz
Wetbulb
48.71 56.14 59.93 59.41 58.82 59.02 58.86 58.06 58.78 59.02 58.74 58.91 58.95 58.83 59.09 59.80 60.22 60.20 60.28 60.01 59.43 59.39 59.69 59.17 58.60 59.09 57.27 56.40 56.30 55.94 54.89 53.44 50.89 52.05 53.94 54.23 54.45 55.12 55.68 55.27 55.78 55.23 54.61
46.49 50.78 58.58 58.60 58.88 58.56 57.92 58.08 57.78 57.50 57.42 58.02 57.56 57.66 57.82 58.00 59.12 59.26 59.16 59.42 59.05 58.75 59.00 58.63 58.42 58.71 57.16 56.78 56.46 55.57 55.11 54.23 52.61 50.78 52.49 52.84 54.19 55.26 55.30 55.30 56.25 56.72 56.43
45.28 50.38 57.78 58.08 57.70 57.44 57.50 57.20 56.81 56.56 56.12 55.57 56.19 55.89 55.87 56.11 56.01 56.59 57.36 58.52 58.69 58.59 58.81 58.55 58.26 58.22 56.93 56.83 56.51 55.84 55.60 54.51 53.53 52.46 52.03 53.92 54.37 55.23 54.69 55.20 55.80 52.05 47.47
42.01 43.00 46.29 54.25 57.76 57.20 57.36 56.85 56.66 56.61 54.85 55.27 56.07 55.93 55.67 54.91 55.01 55.03 56.13 57.20 57.59 58.52 59.04 58.94 58.91 58.20 57.55 56.89 55.84 55.80 55.34 54.61 53.70 52.87 52.34 52.35 53.25 53.94 54.18 53.78 53.25 53.52 46.11
39.49 38.85 40.70 46.34 56.68 57.56 56.58 56.26 55.97 55.69 56.38 56.26 55.85 55.39 54.35 51.25 45.85 43.25 48.12 56.31 57.58 57.50 57.74 58.28 58.45 56.72 51.98 54.77 56.48 55.66 55.38 54.42 53.36 52.43 51.24 51.34 51.58 51.41 51.84 52.62 52.55 48.05 43.31
35.00 36.04 38.04 39.51 41.47 43.78 51.47 55.09 52.39 49.60 49.11 48.34 47.00 47.79 45.32 44.30 37.22 38.27 42.21 53.04 55.83 57.16 56.58 57.16 58.07 50.66 48.96 45.52 46.42 46.60 52.59 54.34 53.21 52.27 51.68 50.63 50.82 51.49 50.50 51.08 50.32 45.93 43.29
32.21 33.74 35.06 35.81 35.83 36.48 38.41 39.78 40.61 40.91 40.23 39.29 39.53 40.17 38.88 37.27 36.71 38.84 40.42 46.20 45.07 43.14 46.93 53.24 50.97 46.68 43.50 41.09 37.35 36.49 35.24 35.96 41.84 53.32 51.95 50.69 49.25 48.48 47.15 45.34 45.88 45.52 39.88
28.78 30.16 32.78 33.80 33.18 33.47 33.15 33.25 34.23 35.22 35.25 35.24 35.24 35.97 35.93 35.62 35.75 36.99 37.24 39.53 37.67 37.19 37.96 39.94 45.12 44.07 42.56 41.17 37.96 34.89 33.26 33.26 33.75 35.77 40.03 35.91 34.28 37.49 42.70 43.01 40.67 32.07 32.14
26.78 27.31 28.88 31.87 32.13 31.67 31.21 31.24 31.45 32.04 32.08 32.09 32.97 33.17 33.19 33.46 35.14 35.43 36.26 35.65 34.10 33.61 34.40 36.12 37.27 37.68 37.21 39.85 36.60 32.98 31.97 31.39 33.44 34.51 34.48 34.42 34.86 35.63 37.30 38.37 34.21 35.52 30.02
25.62 26.90 27.78 28.77 29.56 30.58 30.45 30.16 30.93 31.22 30.58 31.02 30.71 31.64 32.65 32.39 34.27 34.52 34.41 33.41 31.87 32.42 32.69 32.60 33.84 34.38 34.77 35.14 34.33 33.32 31.30 30.10 31.07 30.76 29.89 29.31 29.95 31.02 32.08 32.93 34.59 33.28 29.79
24.47 25.99 26.52 27.45 27.96 28.15 28.92 29.87 29.85 30.03 30.50 29.78 29.43 30.05 30.77 31.70 32.47 33.53 33.38 31.97 31.18 30.59 30.62 31.01 31.85 33.11 33.82 33.82 33.49 32.14 30.50 30.95 29.79 29.27 28.29 27.38 26.86 26.27 26.71 28.04 29.33 30.91 27.10
22.99 23.18 24.21 26.02 26.73 27.56 27.16 27.57 27.93 28.33 28.48 28.94 28.91 28.79 29.61 30.23 31.35 31.38 31.28 30.69 30.31 28.47 27.90 29.14 30.43 31.59 31.61 31.47 30.81 31.03 30.57 29.44 28.44 26.94 26.38 25.76 24.65 24.42 25.03 25.74 26.09 25.96 26.49
23.01 21.88 22.59 23.80 25.30 26.35 26.24 26.59 26.52 26.98 27.02 27.25 27.86 27.61 28.07 29.35 29.74 30.91 30.24 28.95 28.53 26.81 27.38 27.89 28.29 28.36 28.17 27.40 27.95 27.73 27.32 26.86 25.41 23.58 22.88 22.82 24.84 26.25 27.02 25.88 26.18 25.64 24.86
24.40 23.11 22.49 22.47 22.60 24.96 25.97 25.89 25.98 26.04 26.13 26.17 26.68 26.48 27.28 27.81 28.15 28.50 27.87 27.60 26.96 26.18 25.35 24.82 25.25 25.00 24.03 24.05 24.35 24.58 24.30 24.15 23.59 22.70 22.74 23.69 24.68 23.94 23.41 25.41 23.82 23.29 21.71
24.24 24.45 24.10 23.39 21.93 22.10 22.88 24.37 24.91 26.39 27.65 26.37 26.03 26.49 25.58 25.45 27.46 29.19 27.61 25.44 24.35 24.41 23.62 22.48 21.43 20.94 20.48 20.90 20.89 21.20 21.95 22.12 21.44 22.42 22.29 21.99 21.42 21.44 20.82 22.28 21.66 21.13 18.99
23.16 23.23 22.53 22.47 22.29 21.90 21.23 21.27 25.16 25.92 27.23 28.17 28.43 27.63 26.93 28.47 28.91 28.61 27.75 26.99 26.12 24.91 21.07 19.13 18.15 18.33 17.90 18.24 18.04 17.82 18.47 18.23 19.12 19.81 20.07 20.22 19.38 19.26 19.01 19.98 20.42 19.52 17.18
21.15 22.38 21.79 20.95 19.66 18.59 17.81 17.31 16.30 19.68 22.62 24.22 25.51 26.40 26.42 26.36 26.67 26.64 25.64 25.18 24.59 22.34 18.64 17.74 17.07 17.27 17.24 17.42 17.24 16.79 15.65 16.48 17.31 16.66 16.97 17.82 18.61 18.44 17.72 17.34 17.86 18.57 17.17
18.80 17.45 18.24 18.69 17.05 15.08 13.69 13.77 14.57 14.28 13.91 15.52 19.88 21.06 23.23 23.26 23.41 23.34 22.95 21.00 17.60 17.97 17.29 16.04 15.76 16.26 15.83 15.19 14.95 14.23 13.79 13.70 13.53 13.66 13.58 13.87 15.53 15.83 15.21 14.77 14.98 15.08 15.49
18.36 16.09 14.16 13.47 14.02 12.81 11.64 12.01 12.40 12.59 12.45 13.10 14.02 15.46 15.81 19.41 19.29 19.12 18.81 14.74 13.94 13.72 14.33 13.87 14.45 14.36 14.03 13.01 11.89 11.15 10.44 9.80 9.80 9.63 9.91 10.77 11.01 13.09 12.11 12.43 13.09 12.74 13.33
11.44 13.95 11.99 11.38 10.49 9.48 9.18 9.55 10.45 10.52 10.91 10.56 10.33 10.28 12.35 11.71 9.02 9.32 10.36 10.59 10.87 10.79 11.45 11.44 11.64 11.42 11.73 11.11 9.50 8.69 7.75 7.59 7.63 7.87 6.33 6.13 7.61 9.30 8.51 9.53 9.62 9.90 10.19
8.87 10.97 10.35 11.44 10.61 10.59 9.36 9.57 9.39 7.58 7.48 8.57 7.42 5.03 8.13 9.11 7.07 6.55 7.83 7.55 7.92 8.38 7.92 8.73 8.32 8.23 8.80 6.97 6.45 3.41 1.60 1.17 2.43 3.81 4.35 4.05 0.45 4.96 6.84 7.17 7.39 8.63 9.15
11.48 12.36 13.49 11.98 10.94 7.93 10.26 10.90 6.73 5.83 6.85 5.26 2.72 3.55 3.13 2.92 5.40 5.74 4.45 0.99 1.94 5.05 5.38 5.13 6.00 5.86 5.05 4.53 2.78 -1.33 -3.48 -5.68 -4.40 -3.42 -0.72 -0.86 1.05 -0.51 0.91 1.63 0.27 -0.38 4.32
10.05 8.11 10.19 10.93 11.72 7.33 5.14 8.87 3.26 0.01 -1.26 -3.61 -1.32 1.32 0.59 -6.33 -6.51 -1.63 -3.26 -9.23 -1.77 -3.35 -2.43 -0.55 0.37 1.36 -0.95 -3.72 -2.16 -2.52 -3.08 -5.44 -7.25 -10.88 -10.87 -7.79 -3.50 -4.54 -6.53 -5.84 -4.97 -5.83 -5.80
7.26 3.98 9.19 6.31 6.35 5.90 -2.71 -4.88 3.35 6.34 6.33 0.38 -6.33 -6.33 -6.69 -10.14 -13.40 -11.95 -13.76 -14.67 -11.95 -13.04 -13.95 -10.69 -3.84 -2.29 -3.90 -11.41 -11.05 -5.63 -3.62 -11.59 -10.56 -12.52 -16.12 -13.58 -8.33 -5.65 -8.88 -6.37 -6.18 -10.14 -10.32
-2.07 -3.97 -3.99 -3.98 -7.60 -8.14 -5.06 2.46 -2.18 -3.79 -1.44 -1.82 -1.65 -1.45 2.15 -0.89 -4.55 -12.68 -15.94 -14.67 -11.95 -13.22 -8.33 -10.14 -9.41 -7.06 -9.61 -10.42 -8.51 -5.88 -7.24 -9.96 -14.52 -13.77 -15.03 -14.31 -13.04 -13.58 -11.23 -9.25 -11.95 -8.00 -10.86
0.27 0.25 -0.78 -3.45 -5.97 -9.05 -10.32 -11.41 -11.41 -13.76 -11.05 -8.14 -7.06 -6.51 -1.82 -0.75 -2.36 -11.77 -11.62 -11.83 -9.96 -9.41 -9.23 -10.14 -8.90 -7.60 -8.38 -8.67 -7.86 -7.98 -10.50 -10.32 -15.07 -15.76 -19.38 -13.09 -14.67 -15.03 -14.85 -13.58 -10.86 -10.86 -7.60

GFSGL_sfc_wetblb_108.txt.gz
Wetbulb
45.88 49.73 58.10 60.61 60.32 60.38 60.24 60.10 60.00 59.18 59.12 59.66 60.12 59.96 59.56 59.98 60.09 60.09 60.44 60.23 59.68 59.74 59.63 59.18 58.97 59.56 58.76 57.73 56.88 56.26 55.49 54.15 52.37 53.10 54.39 54.82 55.87 56.12 56.40 56.24 56.37 56.00 55.54
44.95 49.72 58.32 59.22 59.66 59.30 58.94 58.74 58.56 58.24 58.46 58.08 58.42 58.05 58.26 58.32 58.78 59.28 59.26 59.76 59.21 58.91 58.92 58.95 58.76 59.09 58.72 57.93 56.74 55.79 55.45 55.06 52.71 50.83 52.66 53.63 53.95 55.98 56.00 55.04 55.81 56.22 53.97
42.82 44.86 48.05 51.55 58.34 57.98 57.92 57.86 57.88 57.88 57.74 57.42 57.37 57.21 57.03 56.79 56.47 56.53 56.53 56.81 57.71 58.67 58.77 58.89 58.77 58.75 58.03 57.29 56.15 55.73 55.62 55.32 54.61 52.42 52.02 53.63 54.24 55.20 54.68 55.08 55.24 48.86 46.50
39.04 41.10 41.78 43.35 50.85 57.33 57.39 57.17 57.11 57.09 56.29 55.97 55.95 55.59 55.61 55.11 55.01 53.20 52.39 53.21 55.27 56.87 57.44 58.43 59.01 58.71 58.25 58.06 56.73 55.79 55.53 54.96 54.21 53.45 52.39 52.51 53.18 54.51 55.24 54.31 51.78 48.95 44.60
36.53 36.14 37.77 39.48 41.69 45.33 52.28 55.79 55.91 55.73 55.87 55.95 55.93 55.33 53.25 49.44 43.19 43.13 47.09 49.09 52.10 54.35 56.25 57.54 58.10 57.24 52.98 55.60 57.10 56.53 55.75 54.80 53.95 53.40 52.60 52.10 52.20 52.85 53.19 53.97 52.36 47.61 43.80
33.27 34.83 35.86 36.50 36.36 37.52 38.24 39.91 41.05 41.77 43.02 44.94 45.43 45.64 42.84 42.34 36.82 38.14 39.77 50.67 49.89 47.75 51.32 56.47 57.95 51.90 50.25 46.74 47.28 48.84 53.87 55.00 53.95 53.30 53.11 52.30 52.72 53.15 51.67 52.81 48.98 45.84 44.17
29.82 31.19 32.98 33.81 32.90 33.85 34.32 34.39 34.75 34.77 35.90 35.98 37.05 38.37 37.42 36.48 36.22 38.00 37.75 44.39 42.95 41.73 42.15 44.29 49.67 50.00 49.98 47.88 39.42 38.72 37.43 39.09 47.45 54.43 53.52 53.23 51.52 51.78 51.65 49.74 49.22 47.19 44.46
28.02 28.80 29.90 31.55 31.79 32.31 32.33 31.76 32.08 32.50 32.31 32.61 32.91 34.07 34.67 34.96 35.45 36.40 36.51 38.74 37.38 36.19 36.51 39.11 41.54 40.26 39.03 43.07 39.74 35.19 33.75 33.91 34.80 37.58 44.54 37.50 36.77 43.81 50.62 49.60 47.54 33.63 32.99
25.66 26.95 28.54 29.26 29.13 30.51 30.45 30.85 31.14 30.74 30.52 30.61 31.27 31.67 32.07 32.76 34.81 35.17 35.72 35.55 34.00 33.14 33.79 34.99 36.21 36.32 36.61 38.92 35.84 33.23 32.33 31.77 33.37 34.00 34.02 34.15 34.27 35.06 37.55 41.45 36.56 38.18 31.37
24.35 25.95 27.61 28.93 28.52 28.03 28.58 29.97 31.01 31.16 30.37 30.34 29.77 30.28 31.01 30.43 32.83 34.34 34.01 33.42 31.67 31.87 31.93 32.39 33.67 34.32 34.83 35.91 35.37 34.75 32.75 31.82 32.00 31.21 31.06 30.51 30.85 31.54 32.44 32.90 36.01 38.88 30.98
23.98 25.20 26.07 27.15 27.91 28.87 28.77 29.09 29.60 29.85 30.15 29.78 29.36 29.77 29.72 30.40 30.31 31.79 31.82 30.66 30.18 29.40 29.30 29.69 31.24 32.68 33.09 33.67 33.25 32.44 31.65 31.52 30.20 28.91 27.51 26.81 26.74 26.93 27.31 28.63 29.44 31.75 29.51
23.08 22.73 23.49 25.41 26.15 26.80 27.50 28.27 28.70 29.11 28.58 28.49 28.58 28.58 29.28 29.17 29.99 30.35 29.77 29.61 29.15 27.11 26.88 28.33 29.63 30.69 30.70 30.50 29.69 30.04 30.10 29.99 28.65 26.85 25.35 24.44 23.87 24.20 24.75 25.21 25.25 25.54 26.33
23.14 21.74 21.75 21.88 22.99 25.07 25.03 25.36 26.20 27.11 26.87 26.69 26.61 26.30 26.79 28.23 28.34 28.95 28.92 28.19 26.80 25.32 26.30 26.70 26.93 26.97 27.07 26.58 27.39 27.21 26.66 26.43 25.47 23.92 23.08 23.43 24.52 25.36 25.45 24.84 24.72 24.48 24.15
23.13 22.82 21.95 21.26 21.06 22.82 23.71 24.57 24.61 24.89 23.97 23.92 24.46 24.52 25.34 25.99 26.67 26.83 26.12 25.54 25.19 24.58 23.97 23.60 23.88 24.21 22.98 22.63 23.35 24.03 24.16 24.46 23.87 22.74 22.39 23.62 24.62 24.24 23.89 24.41 22.43 22.18 20.69
22.08 20.82 19.58 19.46 18.62 18.76 21.67 23.18 23.08 25.03 25.40 23.54 23.47 23.71 23.45 23.33 25.88 27.76 26.71 25.20 23.62 23.46 22.94 22.04 20.92 20.79 20.00 20.06 19.89 20.27 21.17 21.82 21.48 22.43 22.01 21.61 21.71 21.88 21.63 23.05 22.18 20.51 18.52
19.61 19.14 17.60 16.94 16.81 17.01 15.95 16.14 23.23 24.32 24.95 25.58 26.07 25.00 24.19 26.72 26.98 26.74 26.66 25.92 25.08 24.12 20.39 18.34 17.56 17.75 17.31 17.61 17.25 17.27 17.94 18.44 19.92 20.57 20.60 20.35 19.77 19.93 20.14 20.90 20.59 19.37 17.53
18.01 18.86 17.05 16.24 15.49 14.48 14.28 13.64 11.82 15.23 20.73 21.83 22.25 23.99 24.41 24.33 24.77 25.14 24.37 23.32 23.30 20.85 17.10 16.55 15.55 15.55 15.70 15.91 15.75 15.38 14.56 16.16 17.66 17.34 17.98 18.42 18.98 18.51 18.82 18.67 19.12 18.58 16.81
15.93 13.74 13.57 13.00 11.55 10.55 9.75 10.48 11.62 10.77 9.61 10.36 16.15 18.17 21.11 21.70 21.68 21.66 20.93 19.18 15.78 16.49 15.40 14.49 14.04 14.01 13.94 13.49 13.04 12.87 12.88 13.33 13.71 14.54 14.70 15.58 16.58 16.54 16.02 15.66 16.23 16.54 15.55
15.94 13.47 10.07 8.20 7.70 7.34 8.05 9.26 9.13 8.91 9.08 8.87 9.68 10.89 11.61 17.32 17.79 17.45 16.62 11.75 11.78 11.89 12.94 12.68 13.10 12.81 11.94 11.46 10.77 10.50 10.44 10.08 10.18 10.23 10.77 11.85 12.59 14.00 13.38 13.84 13.54 13.16 13.83
9.25 11.91 8.84 8.08 7.58 6.73 6.72 7.24 7.34 6.52 6.71 6.40 6.23 5.94 8.80 8.03 5.61 6.12 7.14 7.53 8.22 9.15 9.64 9.49 9.53 8.79 8.80 8.82 7.57 8.14 7.83 7.90 7.95 8.09 6.81 7.57 9.39 10.77 10.30 10.83 11.32 10.83 10.52
7.92 9.97 9.10 10.34 9.64 9.62 8.02 7.23 6.83 5.18 4.51 4.54 2.12 -1.13 2.83 5.48 3.37 3.23 5.00 4.31 4.84 5.09 4.65 6.74 5.96 5.63 5.85 4.65 4.46 2.54 1.71 2.54 3.71 4.51 5.01 4.53 3.03 5.92 7.54 8.44 8.88 9.36 8.87
10.28 11.00 12.01 10.82 10.50 7.19 8.35 8.78 4.47 3.59 4.62 3.04 0.58 1.29 -0.48 -0.53 1.41 1.41 -0.58 -5.65 -4.74 1.81 3.83 2.89 3.18 2.63 1.92 1.92 0.95 -2.16 -3.36 -4.31 -1.94 -0.44 1.30 2.56 3.66 3.78 4.86 3.94 3.68 4.24 6.47
8.45 6.49 8.64 9.74 9.57 6.29 2.91 5.24 2.32 -1.84 -2.39 -5.83 -3.16 0.15 -0.55 -8.19 -8.55 -3.14 -5.48 -13.26 -5.00 -5.72 -3.93 -2.07 -2.90 -1.91 -3.52 -4.54 -2.16 -1.59 -2.24 -3.71 -4.43 -6.16 -3.98 -1.19 1.08 0.59 0.35 0.87 1.41 1.20 1.40
6.00 1.94 6.71 3.55 0.06 1.38 -5.11 -6.38 -3.47 3.18 2.28 -2.93 -10.00 -5.47 -6.74 -10.18 -14.35 -13.26 -13.99 -14.53 -10.91 -12.36 -14.72 -12.18 -5.18 -3.51 -3.77 -9.46 -6.79 -2.54 -2.65 -6.96 -5.96 -7.29 -8.80 -4.55 -0.88 -0.62 -0.70 -0.10 -0.23 -3.19 -2.25
-2.80 -5.65 -4.93 -5.11 -9.64 -10.55 -12.00 -7.10 -6.56 -9.28 -7.64 -6.74 -5.11 -4.56 -0.95 -5.47 -4.45 -12.36 -15.08 -13.08 -10.55 -13.81 -8.19 -10.01 -8.01 -6.46 -8.48 -9.93 -6.83 -4.55 -7.47 -11.45 -11.33 -12.01 -7.79 -6.57 -6.05 -5.84 -3.75 -2.70 -3.75 -1.42 -3.40
-0.30 -0.68 -1.69 -5.29 -6.92 -10.91 -12.18 -10.36 -5.83 -10.91 -12.18 -11.09 -11.81 -13.26 -12.36 -4.74 1.28 -11.09 -11.63 -12.04 -9.64 -8.91 -6.56 -8.56 -6.79 -7.46 -8.21 -6.74 -5.64 -7.83 -10.92 -10.91 -12.05 -15.46 -10.98 -6.11 -5.83 -5.68 -5.13 -4.93 -5.09 -2.91 -2.78

GFSGL_sfc_wetblb_111.txt.gz
Wetbulb
43.38 46.52 52.74 61.71 62.57 63.24 62.99 64.93 64.93 63.89 62.60 62.73 63.30 64.07 62.87 61.56 62.29 62.06 62.05 61.59 61.00 61.19 61.23 61.53 60.96 61.26 60.56 60.82 60.81 61.17 57.55 57.11 54.69 57.99 56.19 56.52 57.02 57.28 57.84 59.62 60.87 60.57 59.46
42.89 45.38 47.66 51.65 60.81 60.76 60.82 60.85 61.42 60.80 62.42 62.54 62.20 61.28 60.60 60.98 61.25 60.66 59.88 60.38 60.42 60.68 61.15 60.77 59.99 60.13 59.86 60.45 59.24 58.14 58.55 57.70 57.27 54.31 54.57 54.96 55.61 57.02 58.18 59.36 59.57 59.96 60.54
40.48 42.82 43.97 45.35 50.08 58.98 58.74 58.74 59.30 59.38 59.38 59.65 60.31 60.28 59.63 59.20 58.82 58.70 59.22 58.58 58.87 58.94 59.51 59.66 60.25 60.33 58.91 58.68 58.81 57.86 57.05 56.72 56.51 55.41 52.88 55.02 55.22 55.93 56.11 57.06 59.09 58.82 55.02
37.42 38.44 40.57 40.57 43.54 47.20 55.63 56.73 57.41 57.91 57.57 57.77 58.03 57.13 56.81 55.33 52.70 53.03 54.13 54.80 55.26 56.24 57.54 58.60 58.08 58.17 58.61 58.57 58.75 58.13 57.34 56.01 55.59 54.68 53.36 53.32 54.12 55.01 56.29 54.58 51.56 51.23 48.79
33.81 34.73 36.76 38.74 38.81 41.02 41.82 43.88 45.61 44.43 44.75 45.97 49.99 47.94 46.79 42.55 39.55 41.26 46.98 51.00 53.17 54.43 55.22 55.76 57.48 57.25 51.94 54.52 58.08 57.72 57.12 55.67 55.11 54.18 53.33 53.21 53.06 53.14 53.02 55.10 52.60 48.01 46.16
30.98 32.35 34.10 36.36 36.27 35.55 36.80 37.60 39.03 38.45 38.21 37.97 38.24 38.21 37.38 37.75 35.94 37.21 39.14 47.09 51.72 50.54 49.50 50.50 52.77 50.21 50.07 45.89 46.07 47.70 54.57 55.77 54.62 54.06 53.65 52.41 53.03 53.82 54.56 53.91 49.60 45.79 44.05
28.75 29.59 31.54 32.64 33.70 32.43 34.23 34.30 33.25 33.67 34.32 33.55 34.35 34.82 33.98 33.90 35.40 36.32 36.78 44.04 42.65 41.03 41.45 42.49 44.96 46.89 42.81 46.40 40.24 39.37 40.44 42.43 49.62 55.37 53.78 53.60 53.62 54.00 54.49 53.08 49.81 49.75 47.70
27.06 28.13 29.23 30.26 30.72 31.74 32.13 31.64 31.76 31.76 31.52 31.19 31.34 31.92 31.56 32.11 34.07 35.07 35.99 37.59 36.13 35.25 35.68 37.17 38.93 39.97 40.23 41.66 38.09 35.26 34.00 33.76 35.37 39.30 50.41 42.66 41.99 53.95 54.66 54.04 52.03 38.10 34.76
25.18 26.65 28.22 29.03 29.19 29.73 30.27 30.98 31.45 31.07 30.46 30.21 30.78 30.34 29.76 30.22 32.60 33.61 34.56 34.35 33.29 32.41 33.03 33.92 34.86 36.02 36.02 38.10 35.67 33.22 32.66 32.08 34.11 34.84 34.69 34.57 34.45 35.10 39.68 46.49 41.97 41.83 32.66
24.77 25.37 27.31 28.59 28.91 29.06 29.88 30.37 31.14 31.21 30.39 30.17 29.48 29.48 30.08 29.40 31.10 31.61 30.97 31.09 29.91 29.95 30.70 31.29 32.24 33.04 33.83 34.46 37.02 35.19 32.61 31.93 32.84 32.46 32.33 32.27 32.54 32.42 32.90 33.17 40.96 44.35 33.02
25.31 25.78 25.46 27.05 27.94 28.90 30.07 30.57 31.74 31.22 30.83 29.83 29.29 29.67 29.18 29.39 29.83 30.20 29.93 27.89 27.29 26.88 26.57 27.16 29.14 30.92 31.59 32.04 31.94 31.56 31.09 31.89 31.60 31.79 31.04 30.02 28.11 27.00 27.21 28.12 29.87 33.47 32.16
24.92 24.26 24.49 25.66 26.58 27.83 28.27 29.22 29.29 30.03 29.83 29.65 29.58 29.85 30.48 29.78 29.80 30.11 29.23 28.01 26.95 25.39 24.59 25.57 26.61 27.99 28.49 28.95 28.58 29.39 29.54 29.44 29.28 27.49 25.79 24.26 23.87 23.69 24.26 24.91 25.90 26.42 26.95
22.79 22.08 23.02 24.28 25.60 26.33 26.24 26.75 26.83 27.45 27.03 26.70 26.97 26.82 28.01 30.00 30.49 28.91 28.48 27.70 26.72 25.66 25.85 26.34 26.28 25.96 25.38 24.64 26.49 26.60 26.62 26.32 25.58 24.08 23.42 23.60 24.34 25.26 25.69 25.10 25.33 25.43 25.21
20.60 20.81 22.53 22.03 23.00 24.31 26.21 26.21 25.93 25.65 25.54 25.01 24.68 24.88 26.43 27.32 28.29 29.26 29.20 27.82 26.82 26.26 25.58 25.13 25.13 24.68 23.75 23.10 22.79 23.68 24.08 24.14 23.44 22.82 22.54 23.73 24.87 24.45 23.75 24.86 23.07 23.29 21.92
21.34 20.86 21.07 21.80 21.28 21.67 22.55 23.88 24.20 24.47 24.63 24.16 24.61 24.82 25.13 24.91 26.09 26.70 26.61 26.43 26.68 25.01 25.53 25.12 23.77 22.95 21.90 21.75 21.07 20.96 21.76 22.90 22.39 22.96 22.57 22.37 22.45 22.76 22.29 23.28 22.80 21.92 20.05
21.08 20.46 19.39 20.14 20.27 20.27 20.28 20.54 21.54 21.93 22.72 23.18 24.16 24.14 24.56 24.60 25.38 25.17 25.08 24.65 23.83 23.65 23.32 22.03 20.82 20.19 19.28 19.03 18.62 18.91 19.87 20.46 21.74 22.46 22.33 22.29 21.94 21.98 21.35 21.72 21.71 20.74 19.05
19.56 19.73 19.92 19.35 19.04 18.44 18.54 18.02 16.80 19.17 19.44 19.47 20.25 21.69 22.43 22.35 22.96 23.12 22.82 22.18 22.05 22.47 20.82 20.00 19.13 18.16 17.79 17.20 17.14 17.01 16.97 18.09 20.11 20.25 20.82 21.22 21.71 21.76 21.98 21.02 20.67 19.55 18.20
20.04 16.24 18.83 18.54 18.27 18.08 17.62 17.20 16.79 15.48 14.65 15.22 17.28 17.25 18.95 19.67 19.84 19.79 19.87 20.72 19.55 19.39 18.82 18.04 17.65 17.68 16.67 15.95 16.02 15.63 15.50 16.21 16.62 17.34 18.02 18.98 20.10 20.21 19.52 19.18 19.17 17.75 16.60
19.48 18.94 18.99 18.83 17.88 16.92 17.70 17.24 16.42 15.56 14.64 14.26 14.97 15.27 14.54 16.48 16.88 16.62 17.02 16.50 16.06 15.81 16.18 15.86 16.24 16.03 15.77 15.31 15.23 15.24 14.94 14.47 15.25 15.71 15.83 16.52 18.14 18.39 17.26 17.26 17.02 16.80 16.66
18.30 15.66 16.04 18.68 18.39 18.02 17.47 16.33 15.62 15.12 14.31 13.65 12.52 12.38 14.26 14.28 12.91 13.11 13.67 13.69 13.77 13.69 14.40 14.14 13.59 13.51 13.43 13.68 13.60 14.54 14.73 14.25 14.31 14.25 14.56 15.62 16.63 17.31 16.14 15.91 16.03 15.23 14.55
18.16 17.99 15.06 17.77 17.06 17.01 16.79 15.91 15.47 15.03 14.15 13.57 12.60 10.65 8.11 12.03 11.29 10.81 10.88 10.94 11.66 12.10 12.28 12.80 12.73 12.16 12.59 11.64 11.52 11.71 11.40 12.22 11.87 12.21 13.19 13.65 14.31 14.25 15.22 15.49 14.93 14.79 14.42
16.13 16.28 16.28 15.62 15.96 15.25 15.10 15.37 14.72 14.32 13.69 13.02 13.17 12.25 7.73 12.02 11.40 10.60 9.90 9.13 10.05 10.62 11.15 11.27 10.75 10.12 9.80 9.87 9.76 9.87 8.57 8.60 9.82 11.06 11.49 11.38 12.92 13.03 13.50 12.85 12.75 13.12 13.40
15.22 14.71 14.50 14.07 14.14 12.67 13.79 13.74 13.73 13.87 13.32 13.23 12.36 12.11 12.00 11.14 10.39 10.19 9.53 8.66 9.08 8.79 8.85 9.67 9.07 7.73 7.39 7.41 8.26 7.92 6.95 5.97 6.35 7.42 9.61 11.08 11.23 11.65 12.19 11.48 10.63 10.63 10.57
14.34 13.85 13.07 13.15 12.80 12.28 11.82 11.83 12.07 10.75 11.29 12.32 12.40 12.01 11.82 11.25 10.41 9.29 8.89 9.21 9.22 9.33 7.72 7.53 7.24 6.38 6.13 6.37 7.78 7.19 5.70 4.76 6.06 5.84 6.35 9.73 9.78 9.78 10.10 9.27 8.81 7.18 8.49
14.42 13.89 13.61 12.79 11.99 11.06 10.62 11.22 11.41 11.75 11.59 11.53 11.40 11.75 11.65 11.13 11.12 11.19 9.75 9.04 7.49 9.05 6.78 6.67 7.69 3.61 3.80 2.45 2.75 2.68 -0.34 -1.08 1.07 -0.57 7.00 6.38 5.75 5.62 6.65 7.80 7.58 7.80 6.33
14.03 13.63 13.36 13.03 12.88 12.63 12.02 11.30 11.30 11.12 10.56 10.89 10.99 10.69 10.64 10.66 11.13 11.04 10.13 8.48 8.51 8.71 6.71 8.56 6.52 1.45 -0.09 3.18 2.27 -0.20 -1.16 -1.36 0.22 -4.06 4.80 7.21 7.00 7.10 7.69 5.29 3.16 7.38 5.46

GFSGL_sfc_wetblb_114.txt.gz
Wetbulb
40.73 45.10 47.58 52.36 63.72 65.99 64.74 64.77 66.51 66.87 66.39 65.39 66.10 64.45 63.34 63.34 63.53 63.32 63.47 62.99 62.32 63.17 63.06 62.54 62.49 63.14 62.07 61.67 61.73 61.57 61.14 59.68 56.65 57.80 59.35 61.53 58.12 58.51 58.93 58.88 59.70 60.45 60.56
39.43 43.05 44.52 46.72 51.23 63.16 63.52 64.66 65.51 64.70 65.22 64.51 64.27 62.85 62.17 62.39 63.03 62.59 61.68 61.64 62.11 61.71 61.72 61.44 61.35 62.16 61.93 63.31 62.96 61.00 60.89 60.70 58.61 56.53 58.84 57.50 57.41 58.79 58.57 57.62 58.44 60.31 61.12
37.38 40.88 42.85 42.69 44.82 47.72 57.53 60.40 60.81 60.74 61.06 61.16 61.49 61.43 61.87 61.48 61.62 61.14 60.78 61.35 61.28 60.94 60.79 61.13 61.88 62.30 62.18 62.10 60.87 60.41 60.23 59.34 59.75 57.49 56.66 59.16 58.73 59.45 57.43 57.74 57.71 58.27 59.27
35.73 35.94 38.73 39.65 41.31 42.96 45.23 47.00 48.24 52.14 55.93 53.80 51.71 46.59 45.30 43.95 44.93 48.94 54.22 56.39 57.34 57.86 59.27 60.73 61.02 60.14 59.87 60.06 59.73 58.92 58.34 58.08 57.47 56.57 56.56 55.12 56.07 56.77 57.04 55.81 55.51 56.55 51.50
32.53 33.44 35.38 37.73 37.56 38.81 39.46 41.06 42.52 42.69 43.57 43.71 41.02 40.01 40.23 38.77 38.11 41.40 47.91 53.00 54.12 56.05 58.01 58.59 58.35 52.84 46.39 46.83 52.59 58.19 59.76 57.50 56.83 55.65 54.91 55.12 54.00 53.69 53.59 55.51 54.66 50.23 47.27
30.21 30.96 32.56 34.05 34.80 35.36 35.17 36.82 35.98 37.29 36.56 36.69 35.96 36.35 36.67 37.28 36.82 37.49 42.26 49.94 48.63 46.75 46.29 46.10 48.88 48.89 47.86 42.22 41.75 40.99 44.81 55.49 56.98 55.97 54.74 54.04 53.80 54.13 54.39 54.64 53.58 46.21 43.58
28.68 29.33 30.46 31.39 31.78 32.46 33.37 32.58 32.28 32.64 33.94 33.52 33.60 33.78 33.60 34.54 35.70 37.10 38.15 40.44 38.89 37.72 37.20 37.63 40.42 43.44 42.94 44.82 44.12 40.23 37.89 35.81 36.69 46.06 55.13 54.57 54.02 54.88 54.80 53.71 52.24 49.38 49.71
27.68 28.97 30.01 30.49 30.37 31.27 31.31 31.11 31.41 31.35 30.65 31.34 31.37 31.46 31.61 32.47 33.61 35.03 35.17 35.55 34.61 33.81 33.26 33.26 35.29 37.14 37.92 38.63 42.98 40.28 36.14 34.84 34.26 36.65 37.15 39.68 44.97 55.52 55.66 54.84 52.89 45.15 38.63
27.65 27.64 29.86 30.70 30.39 30.40 30.24 30.70 30.88 30.26 29.97 30.11 29.50 29.61 29.88 30.49 32.49 32.63 33.14 32.66 31.63 30.67 30.84 31.58 32.03 33.36 33.54 36.18 39.31 37.27 34.49 33.77 35.14 34.99 34.44 34.20 34.15 34.68 43.58 54.08 41.46 41.54 33.41
27.28 27.96 29.40 30.36 30.69 30.10 30.71 31.32 31.68 31.82 31.10 30.52 29.47 29.65 29.81 29.01 30.88 31.09 30.62 30.01 28.23 28.11 28.50 29.01 30.06 30.50 31.60 32.60 34.06 34.89 32.50 31.59 32.12 32.82 32.86 32.79 32.29 32.22 33.10 34.28 45.76 45.52 33.95
27.60 28.33 28.74 29.74 29.56 30.92 31.42 31.47 31.33 31.24 31.30 31.22 31.24 31.02 30.63 30.09 29.82 30.32 29.71 27.24 27.31 26.99 26.21 25.84 27.84 29.57 29.99 30.25 30.15 29.92 29.90 31.04 29.87 29.33 29.17 29.07 28.60 27.69 27.72 29.85 31.51 33.27 35.04
26.61 26.88 27.17 28.03 28.92 29.71 29.97 30.63 29.98 30.83 30.75 31.94 31.95 31.89 32.62 31.32 30.53 30.06 29.38 28.30 28.49 26.53 25.50 26.21 27.33 28.21 28.72 28.42 27.72 28.08 28.33 28.30 27.53 25.70 24.67 24.35 24.73 24.43 25.23 26.49 27.25 28.13 28.89
25.01 25.27 26.24 27.42 27.53 28.46 27.91 27.99 28.20 28.88 28.29 28.32 29.38 29.71 30.21 31.01 30.77 29.51 29.70 28.85 28.33 29.61 28.26 27.91 27.69 27.32 26.45 26.26 26.90 26.56 26.05 25.65 24.57 22.89 22.42 22.89 25.09 26.17 26.74 26.60 26.90 27.46 26.30
24.09 24.97 25.83 25.66 26.63 26.19 27.55 26.99 24.97 24.78 25.12 24.50 25.40 24.97 27.20 27.94 27.70 28.73 29.70 30.90 28.81 29.75 29.48 30.20 28.92 28.53 28.34 27.35 26.05 26.23 26.84 26.61 24.05 22.83 22.86 24.15 24.84 24.26 23.58 24.91 24.25 24.85 23.28
24.67 24.99 25.54 25.86 25.11 25.46 24.15 22.53 23.13 23.19 23.55 23.24 23.45 24.56 23.38 24.36 25.52 25.84 26.01 26.22 27.11 27.42 30.08 30.18 29.00 28.65 27.81 27.78 27.68 26.94 27.82 27.24 25.45 25.50 25.10 24.65 23.94 23.30 22.77 24.16 23.81 23.76 22.27
24.84 24.84 24.20 24.94 25.13 24.82 24.77 24.78 22.36 21.54 21.15 21.24 22.07 23.09 23.97 22.97 23.45 24.16 24.08 24.10 25.39 26.43 27.64 25.81 25.01 25.42 24.96 25.33 25.24 25.61 25.76 25.65 26.24 26.14 25.78 25.74 25.06 24.81 24.19 23.71 23.57 22.29 21.06
22.55 23.86 24.84 24.19 24.23 23.41 23.42 22.75 21.51 23.66 22.38 20.56 19.79 19.77 20.83 20.85 21.24 22.14 22.76 23.85 23.23 25.82 24.63 23.80 23.04 23.20 23.42 23.40 23.45 23.70 23.27 23.66 24.77 24.54 24.52 24.92 24.71 24.31 24.12 23.09 22.40 21.33 20.09
23.62 21.68 24.11 23.59 23.42 23.61 23.16 22.38 22.29 21.12 20.29 20.61 20.96 19.75 18.88 19.36 19.74 20.17 21.57 23.66 23.00 22.95 22.67 22.13 22.09 22.45 22.03 21.83 21.86 21.43 21.97 22.75 22.76 22.82 23.27 23.48 23.82 23.64 22.84 21.81 21.34 20.51 19.25
22.05 22.19 23.70 24.04 23.26 22.57 23.01 22.58 21.95 21.33 20.62 20.10 20.25 19.22 19.36 19.07 19.05 19.12 19.69 20.90 19.93 20.33 20.42 19.91 20.37 20.42 20.49 20.82 21.38 21.28 21.01 20.76 21.39 21.77 21.74 21.68 22.30 22.18 20.51 20.06 19.60 18.98 18.78
22.90 18.71 20.97 22.97 22.59 22.41 22.30 21.51 21.01 20.56 20.22 19.66 18.51 15.87 17.05 19.48 18.31 17.60 18.32 18.04 18.45 18.36 18.82 18.79 18.87 19.14 18.73 18.92 19.76 19.63 20.49 20.32 20.31 20.33 20.55 21.62 21.96 21.51 19.88 19.79 19.94 19.11 18.40
22.34 22.02 18.72 21.77 20.95 20.45 20.62 20.04 19.67 19.46 18.87 18.59 18.59 16.00 12.38 16.88 16.77 16.68 16.00 15.78 15.72 16.11 15.92 16.94 17.28 17.02 17.27 17.35 17.63 17.31 17.04 18.28 17.61 18.22 19.05 19.46 19.68 19.45 20.18 20.15 19.63 18.78 18.70
20.75 20.47 20.05 19.05 19.66 18.82 17.95 19.34 18.92 18.30 17.83 17.32 17.48 17.53 14.26 17.17 16.57 16.04 15.48 14.55 14.98 15.23 15.77 15.70 15.51 15.00 14.14 14.24 14.46 15.37 14.36 14.18 15.19 16.57 17.03 16.67 18.27 18.54 18.57 18.26 18.50 18.18 17.77
19.89 19.28 18.99 18.75 18.36 16.99 18.08 17.97 17.72 17.15 16.85 16.99 16.70 16.32 16.21 15.71 15.07 14.82 14.33 14.07 14.39 13.72 13.84 13.85 13.64 12.66 13.17 13.42 13.64 13.02 11.63 11.22 12.06 12.22 14.96 16.20 16.64 17.60 17.70 16.80 15.88 16.29 15.66
19.64 19.25 18.51 18.44 17.86 17.15 17.26 16.83 16.97 15.58 15.49 15.82 15.68 15.53 15.31 14.92 14.77 14.01 13.74 13.76 13.19 13.46 13.29 12.55 11.78 9.51 10.02 11.28 12.72 12.52 9.83 8.71 11.14 12.26 12.24 14.11 15.19 15.33 15.43 14.56 14.03 12.43 13.65
19.94 19.20 18.86 18.26 17.65 17.22 16.95 16.80 16.41 16.15 15.81 15.59 15.21 15.02 14.80 14.65 14.59 15.20 14.53 13.55 12.53 12.50 12.03 11.71 11.40 10.32 8.13 7.03 6.87 6.83 4.00 3.50 4.60 4.89 12.50 11.84 10.21 10.03 10.95 12.73 12.53 12.70 11.27
19.17 18.48 18.35 18.15 17.81 17.46 16.67 16.26 15.99 15.80 15.09 15.24 15.16 14.94 14.56 14.24 14.44 14.65 14.24 13.31 12.34 11.99 11.55 12.27 11.04 8.01 8.14 8.41 6.46 4.17 3.28 2.93 4.06 2.96 9.15 11.83 11.04 11.79 12.73 10.35 5.73 13.14 10.26

GFSGL_sfc_wetblb_117.txt.gz
Wetbulb
35.37 37.98 40.14 45.18 47.57 51.68 59.44 64.36 66.48 66.75 66.31 66.32 66.45 64.69 64.25 64.07 64.34 63.98 63.54 63.38 63.00 63.48 63.80 63.47 63.94 65.57 64.66 63.14 62.89 63.98 63.46 62.30 58.53 60.73 62.54 62.94 63.50 62.42 61.41 60.67 60.92 59.73 58.31
34.39 37.30 41.82 42.97 45.44 48.07 55.63 63.48 65.88 65.31 65.68 66.04 66.30 65.48 64.85 63.51 63.34 63.03 62.66 62.81 62.58 61.61 62.74 62.76 62.18 63.06 63.66 63.28 62.38 61.23 61.02 61.66 60.46 58.01 60.93 61.07 61.15 63.18 62.63 60.10 59.18 60.52 59.88
34.30 35.97 39.29 39.69 41.29 41.31 44.18 47.55 50.04 60.72 61.27 57.94 60.03 56.71 58.15 60.18 61.66 61.83 62.07 61.85 62.43 62.16 62.24 61.10 62.32 62.24 60.83 60.87 62.13 62.06 62.19 61.08 61.92 59.92 58.17 59.72 60.15 61.85 60.48 59.61 59.30 58.94 59.73
33.29 34.09 36.14 36.92 37.62 38.98 40.04 40.58 43.26 44.68 44.12 44.38 43.00 43.03 42.12 41.95 44.82 50.23 58.92 59.82 59.40 59.38 60.15 59.93 60.67 59.97 58.18 55.73 58.43 58.98 60.52 60.67 59.02 58.60 58.44 57.42 58.31 59.00 59.75 56.95 56.11 57.49 57.35
31.29 31.76 33.29 34.80 35.96 35.82 36.64 36.49 37.75 38.68 38.62 40.72 42.32 41.33 40.13 39.93 40.44 42.29 52.16 54.84 55.42 55.48 51.91 51.56 50.34 46.71 42.69 43.69 48.76 51.21 50.82 53.08 55.68 56.93 56.29 56.25 56.15 55.50 55.35 57.04 55.84 56.06 50.97
30.72 30.84 31.64 32.72 33.05 33.70 33.37 33.67 34.68 34.45 34.05 34.76 36.08 36.58 38.27 38.57 38.92 39.79 45.29 46.54 45.11 43.32 42.79 43.12 45.58 44.89 43.29 41.46 40.66 39.92 40.20 44.87 47.96 51.96 54.63 54.62 55.12 55.80 55.68 55.18 55.04 47.78 44.87
30.34 30.80 31.20 31.44 31.11 31.25 31.82 31.86 31.10 31.25 32.27 32.23 32.20 32.58 32.35 33.48 36.25 36.63 36.79 37.65 36.59 35.03 35.06 37.21 39.06 39.26 38.81 40.84 42.10 40.60 38.16 35.73 35.59 38.66 42.74 47.95 49.96 54.34 55.76 54.71 54.38 51.50 51.37
30.02 30.13 30.90 30.93 30.76 31.45 31.34 30.95 30.49 30.61 29.96 29.97 30.49 30.53 30.24 31.47 32.77 33.39 33.66 33.03 32.11 31.47 31.77 32.26 33.58 34.15 34.02 36.12 41.14 41.61 37.75 36.87 36.29 36.02 35.34 33.56 33.35 34.62 38.01 52.36 55.08 52.68 40.05
28.10 29.28 29.96 30.83 30.30 30.21 30.64 30.91 31.33 31.47 30.65 30.02 30.21 29.71 29.32 29.89 31.61 31.35 31.50 31.05 30.30 29.31 30.02 30.86 31.08 31.23 32.42 34.32 38.40 37.67 33.95 32.50 34.28 34.23 33.52 32.71 32.68 33.38 34.07 41.96 49.94 42.79 33.41
28.20 28.56 30.55 30.76 30.25 30.29 30.71 31.15 31.55 32.02 31.65 31.44 30.53 30.98 30.82 29.77 31.70 31.00 29.29 28.51 27.38 27.52 28.87 29.06 30.43 30.66 30.90 31.17 31.28 32.18 31.45 31.02 31.16 31.14 30.37 30.61 30.49 30.03 31.05 32.13 35.11 44.60 35.04
28.37 29.56 28.90 29.90 29.39 29.52 30.12 30.90 31.67 31.57 31.13 31.38 30.85 30.09 29.97 30.19 30.86 31.85 31.10 29.52 28.08 26.78 26.06 25.98 27.62 29.26 30.02 30.23 29.85 28.81 28.02 29.89 28.74 28.23 27.66 27.95 28.14 28.39 28.22 28.65 29.82 31.62 34.50
27.81 27.44 28.51 27.62 29.10 28.79 27.11 28.52 29.35 28.88 29.45 29.09 29.75 29.77 29.85 29.71 29.34 30.00 30.83 30.16 30.39 28.91 28.08 28.95 29.50 29.40 29.03 28.59 27.97 28.18 27.97 27.86 27.30 25.65 24.75 23.89 24.24 24.77 26.69 27.98 27.78 27.89 29.92
27.61 26.88 27.60 29.00 27.06 27.55 26.83 24.53 24.83 26.71 26.31 26.93 26.89 27.80 28.51 29.09 28.60 27.93 28.80 29.42 29.43 30.31 30.89 30.34 30.25 30.32 29.85 29.70 28.93 28.27 28.36 27.51 26.19 24.00 23.32 23.27 24.13 25.69 26.65 26.84 27.92 28.18 27.30
26.73 27.68 28.74 27.50 28.77 26.67 26.45 26.13 22.45 21.88 22.82 23.02 24.17 22.32 24.67 25.94 26.42 27.45 27.56 29.44 29.19 30.54 31.35 32.04 30.93 30.31 30.35 30.53 30.08 30.35 31.48 30.45 28.44 26.87 25.68 25.79 26.20 25.10 24.26 25.69 25.12 25.69 23.74
28.40 28.14 29.02 28.41 28.40 28.40 24.57 23.71 23.01 22.29 21.58 21.12 21.54 23.53 20.45 20.53 22.79 24.71 25.63 26.22 28.90 29.39 30.46 30.27 28.54 28.34 27.80 28.34 28.67 28.50 28.79 28.80 28.45 29.26 28.75 28.26 27.95 26.76 25.36 25.66 24.91 24.74 22.73
26.44 27.22 26.93 27.40 27.37 27.41 26.73 26.33 24.62 23.66 22.74 21.98 21.48 21.26 22.44 21.83 22.52 23.70 25.04 25.41 25.66 27.37 27.49 25.69 25.17 25.48 25.17 24.95 25.19 25.40 26.02 25.41 26.31 27.22 27.66 27.76 26.69 26.56 25.75 25.84 25.30 24.29 22.87
25.02 25.99 26.65 26.04 26.09 25.70 25.33 24.72 23.50 26.12 25.63 23.65 21.91 21.62 21.52 21.34 21.71 22.50 24.15 25.56 25.05 25.60 24.70 24.50 24.11 24.22 23.72 23.49 23.45 23.24 22.83 24.37 25.59 25.28 25.39 25.70 27.04 26.13 25.65 24.70 24.25 22.67 21.19
24.49 24.49 26.38 25.98 25.46 25.60 25.25 24.82 24.60 23.42 22.55 23.29 23.27 21.41 21.15 22.11 21.73 21.55 22.43 24.12 22.89 23.50 22.58 21.32 20.91 21.53 21.70 21.82 22.05 21.74 21.79 22.30 23.01 23.74 23.99 24.62 25.36 24.70 24.27 23.47 22.90 21.91 20.91
23.64 23.21 25.22 25.83 25.13 24.91 25.05 24.57 24.27 23.65 23.11 22.88 23.36 20.61 19.90 21.48 22.17 21.41 21.11 20.14 19.58 19.66 20.33 20.52 20.47 20.25 20.22 20.52 20.78 21.08 22.23 21.71 22.14 22.57 22.75 23.29 23.73 23.43 22.50 22.14 21.22 19.90 19.93
25.09 22.06 23.13 24.55 24.03 23.33 23.75 23.13 22.62 22.22 22.09 21.47 21.22 18.57 18.44 20.09 20.28 20.09 19.87 18.62 18.07 18.17 18.20 18.44 18.96 18.52 18.11 18.70 19.81 19.69 20.13 20.21 20.50 20.72 21.21 21.49 22.65 23.12 22.09 21.50 21.33 20.43 19.20
24.45 23.75 21.98 22.88 22.68 21.96 21.39 21.51 21.47 21.16 20.70 20.26 20.36 19.77 16.62 18.11 18.16 18.33 18.01 16.55 16.26 16.28 16.14 16.74 17.28 17.04 16.48 16.99 17.01 17.33 16.98 17.25 17.92 18.67 18.51 19.55 20.38 20.23 21.34 21.46 21.11 20.30 20.21
23.29 22.89 22.49 21.91 21.71 20.85 20.77 21.07 20.81 19.80 19.32 18.80 19.16 19.63 18.14 19.11 17.86 17.32 16.86 16.05 16.19 16.07 15.79 15.42 15.41 15.37 15.03 14.52 14.55 14.48 14.42 14.05 14.39 14.65 17.12 18.18 18.98 19.45 19.62 19.31 19.80 19.53 19.20
23.08 22.36 22.29 21.97 21.46 19.93 20.79 19.87 19.67 19.11 18.63 18.29 18.15 17.58 17.68 17.69 17.19 16.89 16.43 16.20 15.49 15.60 15.77 14.51 13.73 12.07 13.35 13.98 14.52 13.53 11.39 10.90 12.56 12.60 13.38 16.49 16.60 16.74 18.25 17.74 17.15 17.26 16.32
22.64 21.75 21.24 21.01 21.13 19.91 19.83 19.18 19.56 18.29 18.30 18.24 17.83 17.99 17.51 17.06 16.99 16.95 17.26 16.97 15.57 15.30 15.60 13.74 13.30 12.08 10.37 10.55 11.62 11.75 9.18 7.92 9.89 11.62 12.88 13.99 14.82 15.02 16.18 15.57 14.87 13.86 14.48
21.96 21.00 20.76 20.23 19.96 19.72 19.92 19.29 18.82 18.75 18.35 18.09 17.53 17.62 17.14 16.97 16.31 16.70 17.20 16.61 15.31 14.35 14.08 13.79 13.84 12.08 11.65 9.73 9.17 7.71 5.86 5.17 5.79 5.85 12.04 13.85 12.13 12.71 11.45 13.50 12.74 13.87 12.44
20.91 20.37 19.68 19.51 19.32 19.12 18.35 18.04 17.93 18.01 17.51 17.77 18.07 18.10 17.45 16.79 16.61 16.55 15.90 15.64 15.04 14.33 13.57 14.29 13.60 12.39 11.38 11.28 10.79 6.55 5.19 5.10 5.91 6.01 9.80 12.60 11.27 12.21 11.70 12.09 11.02 13.46 11.87

GFSGL_sfc_wetblb_120.txt.gz
Wetbulb
33.00 35.54 37.29 40.52 42.64 44.73 46.64 48.95 49.31 51.71 55.21 59.88 60.17 60.10 57.75 62.81 63.31 63.73 63.89 63.43 62.93 62.96 63.05 63.01 62.84 63.40 63.61 62.69 62.23 61.40 60.87 59.71 57.24 58.12 59.09 59.74 58.84 60.00 59.65 59.15 60.09 59.78 58.94
33.44 35.35 37.08 38.71 40.06 40.69 42.68 46.04 50.87 53.71 56.86 60.68 61.38 61.32 59.66 62.79 63.28 63.43 62.94 62.79 62.57 61.94 62.31 62.22 62.15 62.86 62.71 63.37 61.10 59.80 59.14 59.19 58.17 57.19 58.65 59.10 58.89 59.08 59.95 58.59 59.55 60.51 59.76
32.52 33.79 34.98 36.14 36.70 37.03 38.11 40.39 41.99 42.94 45.19 45.68 46.02 47.92 49.22 51.67 61.28 63.12 62.93 62.28 62.20 61.84 62.06 61.74 61.79 62.40 62.13 61.34 60.84 60.05 59.30 60.03 59.93 57.79 57.38 59.29 58.44 58.93 58.95 59.84 59.41 58.99 59.76
31.94 31.97 32.53 33.50 34.63 35.43 36.94 36.08 37.09 38.82 37.91 40.86 43.20 42.76 43.91 44.44 45.67 49.07 61.69 61.51 61.61 61.07 61.01 58.25 55.53 55.77 55.65 55.17 55.75 55.24 55.81 54.95 56.19 57.09 56.17 55.49 57.80 58.54 58.88 56.85 57.11 58.05 57.45
31.30 31.26 31.62 32.72 33.49 33.71 33.69 34.78 34.66 34.20 34.02 35.69 35.98 38.23 39.38 40.73 43.03 45.78 47.05 46.79 48.67 48.24 48.58 47.78 43.92 44.42 42.30 42.93 49.61 47.99 48.85 50.02 50.53 51.67 52.82 54.13 55.68 56.05 55.68 57.07 56.75 56.80 56.57
30.30 30.45 31.45 31.72 32.13 32.40 32.13 32.10 32.82 32.47 33.01 34.30 33.69 33.63 33.81 36.59 37.89 39.74 38.99 37.40 37.39 37.56 37.80 41.04 42.15 38.36 40.26 40.60 40.87 37.29 39.76 42.76 44.60 46.71 48.51 49.87 51.82 54.45 55.81 55.67 55.76 54.78 48.28
29.93 29.76 30.66 31.01 31.11 31.39 31.92 31.41 30.86 30.86 31.53 31.52 31.81 32.44 32.78 33.39 34.13 35.43 36.79 36.24 35.70 33.96 33.18 33.70 35.06 35.44 35.27 38.96 40.08 36.87 36.30 35.54 34.90 36.98 39.61 39.38 37.03 36.60 35.79 40.07 48.42 54.11 52.48
28.39 28.88 29.32 29.97 29.62 30.73 31.23 31.09 31.09 30.84 29.64 29.45 29.27 30.14 30.15 31.06 32.41 32.10 32.24 31.22 30.32 30.22 31.28 31.56 31.85 31.59 32.56 35.82 40.62 37.02 34.58 33.89 34.08 34.57 33.60 31.94 32.20 32.73 33.41 35.06 37.37 40.95 42.27
26.50 27.19 28.27 27.72 28.04 28.41 28.86 29.91 30.73 31.02 29.80 28.71 29.01 28.17 28.72 30.27 32.26 32.18 30.43 29.38 28.53 27.49 28.68 29.98 30.00 30.17 31.92 33.15 33.75 33.80 31.90 30.63 33.68 33.16 32.46 31.69 31.30 31.58 31.51 33.38 35.44 37.27 36.07
26.30 25.61 26.97 27.81 25.67 26.11 27.25 27.78 29.70 30.00 30.43 29.81 28.14 28.03 28.93 27.99 31.81 32.34 31.22 29.74 27.87 27.69 28.29 28.49 30.32 29.77 30.74 30.64 28.56 28.65 27.80 28.05 28.17 28.78 28.82 29.35 29.86 29.88 30.13 28.64 28.32 30.11 33.51
26.31 27.59 25.20 25.83 26.06 24.30 25.05 26.06 26.80 27.33 26.75 27.34 27.28 26.88 26.38 27.38 27.92 30.81 31.22 29.44 28.65 28.02 28.05 28.52 29.88 31.13 31.09 30.68 29.74 27.55 26.73 27.82 27.26 27.08 26.55 26.45 27.03 27.43 27.92 28.11 27.74 26.60 27.18
26.57 25.74 26.40 24.69 25.00 24.49 21.85 22.41 23.46 23.87 24.55 23.20 22.96 23.73 24.26 24.91 27.17 27.91 29.70 30.11 30.73 28.89 28.23 29.54 30.52 31.38 30.66 30.56 29.86 30.40 29.77 27.73 26.80 25.76 24.78 24.17 24.25 24.80 26.21 27.60 27.79 27.41 27.45
25.51 25.48 25.56 26.18 24.54 24.03 21.38 20.00 19.76 20.79 20.23 21.23 20.65 19.49 20.18 22.29 23.70 26.53 27.05 28.45 29.41 29.41 29.99 29.92 30.58 30.81 30.72 28.93 29.53 29.40 29.24 29.08 28.29 26.06 24.64 24.49 25.34 26.18 26.93 27.27 28.16 28.06 27.66
24.67 25.48 26.26 25.41 23.93 23.35 23.38 20.91 19.37 18.35 17.61 17.72 18.53 17.92 18.26 19.38 21.05 23.88 24.80 24.59 26.88 28.14 28.59 27.76 27.62 27.77 27.22 27.12 27.41 26.80 26.66 26.96 27.19 27.15 27.09 27.45 25.21 26.18 25.75 26.36 25.20 25.69 24.48
26.15 25.14 26.23 26.46 25.41 24.06 22.72 22.00 20.51 20.93 20.55 17.89 17.84 18.26 17.42 17.32 19.89 24.34 25.19 23.54 24.77 26.15 26.06 25.02 23.97 23.78 23.29 23.14 23.74 24.51 24.43 24.62 24.59 25.56 26.01 26.02 25.40 25.11 24.88 25.30 24.71 23.91 22.64
25.10 25.53 24.65 25.22 25.19 25.11 24.41 24.39 26.62 25.01 24.09 23.47 22.55 21.76 20.62 22.64 23.41 24.06 25.70 26.16 25.62 25.42 22.50 20.63 19.98 20.37 20.46 20.94 20.70 21.21 21.85 22.06 22.89 23.86 23.70 24.31 24.95 23.72 23.71 23.90 23.49 21.90 20.41
23.43 24.49 24.96 24.19 24.30 23.63 23.60 22.80 21.09 24.29 26.78 23.88 22.80 21.93 22.34 23.60 23.42 23.22 23.70 24.33 24.19 23.16 19.01 18.19 17.62 18.25 18.40 19.15 18.96 19.72 19.55 20.57 21.96 23.18 22.62 22.55 23.59 23.30 23.23 22.47 22.15 21.21 19.93
22.44 22.12 24.27 23.66 22.88 22.98 22.62 22.14 21.93 20.68 19.53 20.19 23.01 21.22 21.15 23.05 23.43 22.45 21.45 20.50 17.40 18.33 17.25 16.86 15.89 16.02 16.77 17.12 17.65 17.54 19.32 19.06 19.46 20.21 20.22 21.44 21.85 22.15 20.73 19.76 19.87 19.09 19.17
22.53 21.17 22.61 23.31 22.49 21.16 22.09 21.63 21.03 20.21 19.67 19.13 19.78 17.78 17.11 21.41 22.11 21.66 20.08 14.88 13.75 14.06 15.08 15.32 15.93 15.18 15.13 15.67 16.45 16.24 16.69 16.28 16.06 17.51 17.94 17.74 19.22 21.30 19.49 20.11 19.83 17.69 18.81
23.17 18.80 19.23 21.99 21.17 20.38 20.17 19.91 19.46 18.88 18.41 17.93 17.60 15.74 16.27 16.78 15.45 15.17 15.40 13.60 12.88 12.96 12.92 13.21 14.53 14.18 12.69 12.70 13.06 13.76 14.10 14.23 13.97 14.67 15.19 16.22 16.64 18.21 17.91 15.77 16.46 16.56 17.25
22.71 22.30 17.93 21.50 20.48 19.58 19.44 18.92 18.85 17.95 17.15 16.65 16.81 16.45 12.69 15.79 14.74 14.23 14.20 13.00 12.54 12.74 11.36 11.51 12.08 12.36 11.34 11.20 11.78 10.68 11.65 10.77 10.43 10.08 11.81 14.28 16.02 11.29 14.55 17.08 15.07 14.44 14.97
22.17 21.72 21.73 20.73 20.74 18.97 18.89 19.09 18.04 17.82 17.19 16.29 16.05 16.33 12.23 15.76 15.08 14.49 14.43 11.00 11.29 12.43 13.80 10.90 11.05 9.82 9.93 8.91 11.09 8.85 6.93 6.40 7.18 8.59 8.23 11.10 13.89 13.98 16.40 11.53 13.09 14.55 13.15
21.68 21.05 20.55 20.45 20.54 17.35 18.84 18.86 17.76 17.69 16.64 16.11 15.79 15.87 15.49 14.36 13.90 14.85 15.15 14.61 11.49 9.01 11.19 11.18 6.60 9.46 5.63 4.97 9.16 8.23 3.60 2.54 3.26 6.08 5.94 8.28 12.45 10.37 13.39 10.54 10.10 8.63 6.02
21.35 20.46 19.67 19.25 19.00 18.42 18.43 17.74 18.06 16.44 17.18 17.20 16.60 15.97 14.77 12.82 11.82 11.35 12.97 13.84 11.00 8.67 7.07 8.49 9.58 8.84 7.48 2.68 2.15 3.54 3.05 -0.26 2.34 2.79 2.11 6.91 6.04 7.46 7.02 10.36 10.48 4.47 5.25
20.83 19.49 18.48 18.03 17.70 17.17 17.00 16.61 16.02 16.07 15.74 15.45 15.50 15.60 16.84 16.00 15.11 11.90 11.72 13.14 10.46 10.46 10.07 7.45 9.74 7.78 5.41 2.14 6.29 1.79 -2.11 -1.25 -2.90 -1.28 3.15 6.65 5.40 10.05 7.09 3.96 2.48 7.69 2.37
19.83 18.77 17.85 17.67 16.54 16.43 14.99 13.84 14.11 14.20 14.30 14.61 14.40 14.10 13.76 13.85 14.94 16.03 12.18 9.36 9.46 9.30 6.83 8.98 10.76 6.84 5.03 7.36 6.33 1.11 -2.27 -2.00 -3.02 -1.45 1.98 5.57 4.50 2.51 2.37 6.08 3.13 8.93 4.58

GFSGL_sfc_wetblb_123.txt.gz
Wetbulb
33.25 34.22 35.62 36.82 38.73 39.28 40.39 42.15 43.43 45.95 46.46 48.30 48.90 50.44 53.81 58.04 60.07 58.91 60.56 61.51 62.25 63.01 62.94 62.38 61.96 62.72 62.03 62.33 62.35 61.05 58.87 58.19 56.39 56.93 58.44 59.08 59.28 60.31 59.40 59.10 59.52 59.26 59.03
33.19 33.84 34.45 35.19 36.33 37.58 37.34 38.84 41.03 42.39 46.94 49.77 51.23 52.08 55.04 54.14 55.32 55.32 55.70 57.51 54.31 61.35 61.59 62.17 61.68 62.25 61.99 62.49 61.02 60.42 60.25 59.15 56.74 56.20 57.52 57.48 57.44 58.60 59.50 58.22 58.88 59.97 59.77
32.38 32.77 33.10 33.58 33.82 34.50 35.77 36.23 37.18 38.07 39.15 41.07 41.95 41.93 42.63 44.12 45.74 49.50 53.55 55.73 60.70 62.02 62.02 61.63 61.81 61.97 61.44 61.67 59.25 58.91 58.25 58.49 57.46 56.78 57.41 57.96 57.88 57.61 56.98 57.64 57.82 58.44 59.38
31.21 31.70 31.79 32.30 33.28 33.18 33.98 34.13 34.60 35.25 35.23 35.11 36.18 36.78 37.02 37.66 40.15 44.61 51.91 59.33 60.01 59.85 56.64 55.14 51.59 52.63 57.44 59.63 59.97 58.69 56.74 56.58 56.38 56.88 56.13 56.24 56.54 57.28 57.62 57.08 56.70 58.64 58.08
29.61 29.60 30.35 31.62 32.98 33.10 32.60 32.45 32.72 33.17 33.48 33.68 33.12 33.47 34.91 35.10 35.66 37.74 41.15 42.71 43.38 43.93 43.62 40.58 39.89 40.85 41.45 42.46 50.51 50.42 51.89 51.51 50.95 52.09 51.86 53.11 53.85 54.45 53.57 55.18 55.22 54.72 57.00
28.14 27.45 28.91 29.78 31.28 31.75 32.11 31.45 31.04 30.50 31.11 31.37 31.54 31.72 31.45 32.41 33.96 34.36 34.33 33.76 36.04 36.75 37.05 36.19 37.03 37.90 40.71 38.38 37.47 37.73 36.92 45.12 46.56 47.30 48.44 48.51 49.74 46.18 41.91 43.34 47.36 52.46 52.53
26.04 26.68 26.00 27.79 27.98 29.43 31.07 31.08 29.42 28.63 29.12 28.55 29.64 30.46 30.47 31.30 32.76 33.15 32.74 31.21 31.54 31.77 32.26 33.22 34.15 35.55 38.27 40.69 37.44 35.87 34.89 34.91 34.32 38.84 40.88 37.26 37.28 34.57 34.81 36.63 40.79 41.85 45.35
23.51 24.83 25.00 24.42 24.88 26.76 27.90 28.31 29.70 28.39 27.09 26.97 26.94 28.28 29.54 31.27 32.77 32.46 31.98 30.80 29.56 29.73 30.30 29.73 30.84 31.14 33.49 36.81 35.25 32.96 31.11 32.06 31.89 32.31 31.66 30.89 31.20 31.88 32.43 33.45 34.27 35.09 37.31
23.58 23.02 24.55 22.96 22.78 23.20 24.08 25.70 25.67 27.13 25.88 24.92 25.02 25.64 25.57 28.64 32.26 32.40 30.91 29.90 29.42 29.14 30.00 31.26 30.22 29.89 31.69 32.44 31.29 30.42 28.95 27.96 31.28 32.06 31.90 31.63 31.21 31.34 31.14 31.52 30.39 30.66 34.13
24.82 23.45 24.03 23.61 21.72 21.27 22.18 22.80 24.83 23.50 23.19 23.43 22.47 23.19 26.23 24.95 30.47 31.88 30.76 29.68 28.33 28.88 29.94 30.30 31.79 31.12 31.92 30.88 28.05 27.27 25.37 25.88 26.98 27.37 27.34 28.04 28.88 28.96 29.75 28.49 27.52 28.13 30.22
23.06 25.29 23.73 23.25 22.29 21.08 20.95 21.47 21.94 22.73 21.79 20.88 20.78 21.25 22.28 25.06 25.95 29.66 30.91 29.10 28.52 27.74 28.01 28.50 30.12 30.70 30.55 30.60 30.69 28.85 27.06 27.44 26.73 26.55 26.33 26.43 26.57 26.85 27.21 27.85 27.65 26.05 25.64
20.07 20.26 21.92 22.23 22.34 20.95 19.70 19.80 19.51 19.43 19.24 19.14 19.06 19.46 20.96 22.76 26.66 27.15 28.51 29.07 29.46 26.78 26.38 27.62 28.10 29.29 29.19 28.42 27.46 28.42 28.84 29.12 28.32 27.28 26.43 25.54 25.39 25.60 26.48 27.41 28.01 27.65 27.38
21.16 19.44 18.07 20.01 20.43 20.11 18.67 18.35 18.35 18.12 17.27 16.91 17.66 17.22 18.38 21.05 23.00 26.56 26.65 27.20 28.07 25.86 26.14 26.82 27.41 26.88 26.73 25.90 26.43 26.15 25.66 25.74 25.92 25.66 25.09 25.59 26.22 26.87 26.78 26.91 27.90 28.34 27.91
19.98 19.67 20.59 16.54 18.78 17.42 18.94 19.12 18.52 17.57 17.02 17.11 16.83 17.08 17.86 19.09 20.80 23.73 23.75 23.76 24.19 24.68 23.89 23.64 23.61 24.57 23.54 22.92 23.26 23.27 23.52 23.42 23.53 23.42 23.63 25.73 26.21 25.69 24.15 24.34 21.81 22.82 22.90
21.07 21.31 20.91 22.55 19.58 17.16 19.83 18.79 19.48 21.20 20.44 17.33 17.40 18.15 18.15 17.56 20.13 24.38 23.88 21.98 22.07 22.05 20.89 20.44 19.45 19.62 18.86 19.14 20.47 21.20 21.42 21.61 21.93 22.61 22.47 23.14 23.95 23.41 23.21 23.34 22.36 19.87 18.98
22.39 22.29 20.82 21.43 20.99 21.46 20.23 19.74 25.83 24.75 24.44 23.48 22.86 21.85 20.13 23.47 23.28 22.88 23.28 23.16 22.62 22.48 17.63 15.20 14.65 15.25 15.80 16.31 16.47 17.39 19.31 19.21 20.42 21.20 21.65 21.85 21.52 20.92 21.14 21.44 20.90 18.44 17.78
19.74 22.16 21.28 20.70 20.36 20.12 19.44 18.77 16.14 17.17 24.17 23.22 22.07 22.05 23.63 23.07 23.00 21.51 20.55 20.07 20.18 18.49 14.47 13.54 12.24 12.45 13.38 14.50 15.34 15.16 15.80 16.62 18.51 18.85 18.35 18.96 20.45 21.44 20.07 19.13 19.24 19.03 18.07
18.78 16.84 18.29 18.53 16.17 16.16 14.95 15.44 15.76 15.05 13.44 11.96 18.80 19.54 21.38 21.70 21.32 20.23 18.73 16.62 12.55 13.27 12.88 12.61 12.28 11.68 11.95 11.99 12.62 12.69 13.74 14.00 13.45 14.68 15.22 15.95 16.89 19.36 18.14 18.82 17.87 16.55 17.58
19.64 15.66 14.39 12.89 12.73 12.94 12.95 13.03 12.76 12.18 10.87 9.52 9.17 13.82 13.10 20.16 19.55 19.02 17.20 10.37 9.55 9.60 10.42 10.52 11.99 11.48 10.69 11.05 9.56 9.49 10.75 10.15 8.66 8.69 10.02 11.87 14.08 15.88 16.23 15.58 14.46 14.53 16.01
12.61 14.17 11.78 11.14 11.42 12.03 12.24 12.44 12.86 11.50 10.32 9.32 9.69 8.25 13.20 13.60 10.38 6.53 0.35 -2.48 1.63 7.98 6.62 9.11 10.19 9.59 7.31 7.86 8.91 6.67 7.46 6.83 6.89 6.83 6.74 7.99 11.00 14.49 13.70 14.18 12.04 8.45 14.19
11.22 15.02 12.97 14.03 12.45 11.84 11.43 10.26 12.31 10.83 9.39 9.53 6.81 3.82 7.40 8.70 4.46 3.89 6.31 1.51 1.10 3.97 0.73 3.74 1.82 -0.56 -0.03 2.03 8.06 3.70 2.03 0.29 1.38 2.76 4.99 7.01 8.52 11.44 14.12 13.04 13.98 12.42 11.93
15.13 16.42 17.15 15.03 15.79 12.15 12.87 15.48 11.65 11.64 11.53 9.13 7.02 8.44 7.90 4.03 5.11 5.11 4.45 2.43 0.34 2.27 4.13 2.43 2.31 2.96 1.52 1.05 2.54 -6.45 -7.54 -10.26 -4.72 -0.26 0.80 3.35 4.65 9.41 10.82 11.17 8.02 7.47 9.56
15.55 12.42 14.31 15.43 14.39 11.77 10.19 12.09 9.54 9.33 10.57 6.71 6.71 11.36 11.69 5.54 2.87 4.03 3.17 1.48 3.34 0.64 0.14 2.52 -3.57 1.96 -0.80 -4.25 -4.09 -3.47 -5.56 -5.91 -3.40 -7.17 -3.38 1.02 3.32 7.03 7.57 7.55 3.97 1.29 2.19
13.44 9.32 13.65 10.38 7.28 8.95 5.84 5.09 5.05 7.90 9.34 8.15 5.33 3.91 2.71 6.11 6.07 7.48 7.15 -0.10 0.91 -2.68 -3.93 -1.84 -0.92 4.61 0.71 -5.05 -8.10 -4.70 -1.44 -7.36 -7.36 -6.27 -2.69 1.10 3.38 7.41 4.76 5.73 7.14 0.03 -2.20
8.10 6.28 4.93 5.55 3.96 3.68 0.84 2.73 2.97 2.42 1.72 2.15 9.42 9.46 10.62 8.77 7.99 6.47 10.45 12.18 11.02 -2.11 1.42 -2.20 -1.04 3.62 1.54 -3.19 -2.88 -1.63 -4.76 -4.46 -8.99 -8.28 -3.54 0.28 0.35 -1.03 1.69 1.07 2.95 4.73 -3.90
9.27 8.84 7.20 7.27 5.51 2.85 2.57 4.89 3.73 -1.22 -0.29 6.29 7.99 6.75 6.40 7.97 8.75 5.92 4.42 6.83 8.20 10.56 7.50 0.09 1.53 3.39 0.63 0.32 -0.05 -0.93 -4.27 -4.32 -7.22 -7.05 -9.01 -3.96 -6.85 -4.93 -1.72 -1.00 0.80 5.59 0.81